# Wetter Temperatur Luftdruck Luftfeuchtigkeit Sichtweite Windgeschwindigkeit Windrichtung Zeit
1 Clouds 14 1027 47 10000 6.2 150 10:54 08.04.2020
2 Clouds 13 1027 47 10000 4.6 150 10:36 08.04.2020
3 Clouds 13 1027 47 10000 4.6 150 10:18 08.04.2020
4 Clouds 11 1028 46 10000 4.6 140 09:42 08.04.2020
5 Clouds 10 1028 50 10000 4.6 130 09:20 08.04.2020
6 Clouds 10 1028 53 10000 4.6 130 08:59 08.04.2020
7 Clouds 9 1028 53 10000 4.6 130 08:40 08.04.2020
8 Clouds 9 1029 61 10000 3.6 110 08:21 08.04.2020
9 Clouds 8 1029 61 10000 3.1 110 07:43 08.04.2020
10 Clouds 8 1029 61 10000 3.1 110 07:22 08.04.2020
11 Clouds 7 1029 57 10000 3.1 110 06:43 08.04.2020
12 Clouds 8 1030 65 10000 3.1 110 05:49 08.04.2020
13 Clouds 7 1031 61 10000 2.6 100 03:34 08.04.2020
14 Clouds 7 1031 61 10000 2.6 100 02:41 08.04.2020
15 Clouds 7 1032 65 10000 2.6 100 02:19 08.04.2020
16 Clouds 8 1032 61 10000 2.6 110 01:30 08.04.2020
17 Clouds 7 1032 66 10000 3.1 100 00:59 08.04.2020
18 Clouds 8 1032 66 10000 3.1 100 00:40 08.04.2020
19 Clouds 9 1032 66 10000 2.6 80 00:20 08.04.2020
20 Clouds 9 1032 61 10000 3.1 80 23:39 07.04.2020
21 Clouds 9 1032 57 10000 4.1 80 23:20 07.04.2020
22 Clouds 10 1032 62 10000 4.1 80 22:56 07.04.2020
23 Clouds 10 1032 62 10000 4.1 80 22:38 07.04.2020
24 Clouds 10 1032 58 10000 4.6 80 22:19 07.04.2020
25 Clouds 11 1032 50 10000 4.1 80 21:56 07.04.2020
26 Clouds 12 1032 43 10000 2.6 80 21:37 07.04.2020
27 Clouds 12 1032 43 10000 2.6 80 21:18 07.04.2020
28 Clouds 12 1032 41 10000 2.1 90 20:55 07.04.2020
29 Clouds 12 1032 41 10000 2.1 90 20:55 07.04.2020
30 Clouds 13 1032 38 10000 2.6 100 20:36 07.04.2020
31 Clouds 14 1032 38 10000 2.6 100 20:18 07.04.2020
32 Clouds 15 1031 41 10000 3.1 70 19:56 07.04.2020
33 Clouds 16 1032 36 10000 2.6 60 19:36 07.04.2020
34 Clouds 16 1032 36 10000 2.6 60 19:18 07.04.2020
35 Clouds 16 1032 36 10000 2.6 50 18:54 07.04.2020
36 Clouds 17 1032 33 10000 2.6 30 18:36 07.04.2020
37 Clouds 17 1032 31 10000 2.1 60 18:18 07.04.2020
38 Clouds 17 1032 36 10000 3.6 0 17:41 07.04.2020
39 Clouds 18 1032 36 10000 3.6 0 17:20 07.04.2020
40 Clouds 18 1032 39 10000 2.1 0 16:45 07.04.2020
41 Clouds 17 1032 42 10000 2.6 330 16:26 07.04.2020
42 Clouds 17 1032 42 10000 2.6 330 15:55 07.04.2020
43 Clouds 17 1032 42 10000 2.6 0 15:36 07.04.2020
44 Clouds 17 1033 41 10000 3.6 0 15:18 07.04.2020
45 Clouds 17 1033 41 10000 3.6 0 14:39 07.04.2020
46 Clouds 17 1033 41 10000 4.1 290 14:21 07.04.2020
47 Clouds 17 1033 41 10000 4.1 290 13:54 07.04.2020
48 Clouds 16 1033 47 10000 2.6 0 13:36 07.04.2020
49 Clouds 16 1033 47 10000 2.6 0 13:18 07.04.2020
50 Clouds 15 1032 51 10000 3.6 340 12:40 07.04.2020
51 Clouds 15 1032 47 10000 3.1 330 12:22 07.04.2020
52 Clouds 14 1032 62 10000 3.6 300 11:59 07.04.2020
53 Clouds 14 1032 62 10000 3.6 300 11:41 07.04.2020
54 Clouds 13 1032 66 10000 2.1 0 11:21 07.04.2020
55 Clouds 13 1032 76 10000 2.1 300 10:57 07.04.2020
56 Clouds 12 1032 76 10000 2.1 300 10:37 07.04.2020
57 Clouds 11 1031 76 10000 2.1 310 10:18 07.04.2020
58 Clouds 10 1031 81 8000 2.1 270 09:44 07.04.2020
59 Clouds 9 1031 93 7000 3.1 280 09:18 07.04.2020
60 Clouds 9 1030 93 7000 3.1 300 08:55 07.04.2020
61 Clouds 9 1030 87 7000 2.6 280 08:36 07.04.2020
62 Clouds 9 1030 87 7000 2.6 280 08:18 07.04.2020
63 Clouds 8 1029 93 6000 4.1 310 07:40 07.04.2020
64 Mist 8 1029 93 5000 3.1 300 07:21 07.04.2020
65 Clouds 9 1028 93 6000 3.6 290 06:51 07.04.2020
66 Clouds 9 1028 87 6000 3.1 290 06:23 07.04.2020
67 Clouds 9 1028 87 6000 3.6 270 05:43 07.04.2020
68 Clouds 9 1027 87 6000 2.6 270 05:22 07.04.2020
69 Clouds 9 1025 81 9000 2.6 280 03:32 07.04.2020
70 Clear 9 1025 76 10000 3.6 290 02:59 07.04.2020
71 Clear 11 1024 66 10000 4.1 280 01:57 07.04.2020
72 Clear 11 1023 62 10000 3.6 280 01:29 07.04.2020
73 Clear 12 1022 54 10000 2.6 310 00:29 07.04.2020
74 Clear 12 1022 54 10000 3.1 270 23:57 06.04.2020
75 Clear 12 1022 54 10000 3.1 270 23:38 06.04.2020
76 Clear 13 1021 58 10000 1 0 23:20 06.04.2020
77 Clear 13 1021 58 10000 1 150 22:41 06.04.2020
78 Clear 13 1021 58 10000 0.5 40 22:22 06.04.2020
79 Clear 14 1021 54 10000 1 60 21:59 06.04.2020
80 Clear 14 1021 54 10000 1 60 21:40 06.04.2020
81 Clear 15 1021 50 10000 1 130 21:19 06.04.2020
82 Clear 16 1020 41 10000 0.5 0 20:56 06.04.2020
83 Clear 17 1020 41 10000 0.5 0 20:38 06.04.2020
84 Clear 18 1020 34 10000 2.1 230 20:19 06.04.2020
85 Clear 19 1020 32 10000 3.1 230 19:56 06.04.2020
86 Clear 21 1020 30 10000 4.1 220 19:38 06.04.2020
87 Clear 21 1020 30 10000 4.1 220 19:19 06.04.2020
88 Clear 21 1020 28 10000 5.7 240 18:42 06.04.2020
89 Clear 22 1019 28 10000 6.2 220 18:23 06.04.2020
90 Clear 22 1019 28 10000 5.1 210 17:57 06.04.2020
91 Clear 22 1019 28 10000 4.6 220 17:38 06.04.2020
92 Clear 22 1019 28 10000 4.6 220 17:18 06.04.2020
93 Clear 22 1019 28 10000 5.1 210 16:47 06.04.2020
94 Clear 22 1019 28 10000 5.1 210 16:47 06.04.2020
95 Clear 22 1019 28 10000 4.1 190 16:29 06.04.2020
96 Clear 21 1020 30 10000 5.7 150 14:46 06.04.2020
97 Clear 21 1020 30 10000 5.7 150 14:46 06.04.2020
98 Clear 21 1020 30 10000 5.7 150 14:46 06.04.2020
99 Clear 21 1020 30 10000 5.7 150 14:46 06.04.2020
100 Clear 21 1020 30 10000 5.7 150 14:46 06.04.2020
101 Clear 20 1020 34 10000 5.7 150 13:44 06.04.2020
102 Clear 19 1020 34 10000 5.7 140 13:22 06.04.2020
103 Clear 19 1020 34 10000 5.7 140 13:22 06.04.2020
104 Clear 18 1020 36 10000 4.6 150 12:46 06.04.2020
105 Clear 18 1020 36 10000 4.6 150 12:46 06.04.2020
106 Clear 18 1020 36 10000 4.6 150 12:46 06.04.2020
107 Clear 18 1020 36 10000 4.6 150 12:46 06.04.2020
108 Clear 18 1020 36 10000 4.6 150 12:46 06.04.2020
109 Clear 16 1020 38 10000 5.1 160 12:19 06.04.2020
110 Clear 16 1020 38 10000 5.1 160 12:19 06.04.2020
111 Clear 16 1020 38 10000 5.1 160 12:19 06.04.2020
112 Clear 15 1020 44 10000 5.1 150 11:40 06.04.2020
113 Clear 13 1020 46 10000 5.1 150 11:02 06.04.2020
114 Clear 14 1020 43 10000 5.1 150 11:02 06.04.2020
115 Clear 14 1020 43 10000 5.1 150 10:59 06.04.2020
116 Clear 13 1020 46 10000 5.1 150 10:59 06.04.2020
117 Clear 14 1020 43 10000 5.1 150 10:59 06.04.2020
118 Clear 13 1020 46 10000 5.1 150 10:37 06.04.2020
119 Clear 12 1020 46 10000 4.6 140 10:19 06.04.2020
120 Clear 12 1020 46 10000 4.6 140 10:19 06.04.2020
121 Clear 12 1020 46 10000 4.6 140 10:19 06.04.2020
122 Clear 12 1020 46 10000 4.6 140 10:19 06.04.2020
123 Clear 10 1020 54 10000 5.1 150 09:39 06.04.2020
124 Clear 10 1020 54 10000 5.1 150 09:39 06.04.2020
125 Clear 10 1020 54 10000 5.1 150 09:39 06.04.2020
126 Clear 10 1020 54 10000 5.1 150 09:39 06.04.2020
127 Clear 10 1020 54 10000 5.1 150 09:39 06.04.2020
128 Clear 9 1020 75 10000 5.1 150 09:19 06.04.2020
129 Clear 9 1020 75 10000 5.1 150 09:19 06.04.2020
130 Clear 8 1020 75 10000 5.1 140 08:43 06.04.2020
131 Clear 8 1020 75 10000 5.1 140 08:43 06.04.2020
132 Clear 8 1020 75 10000 5.1 140 08:43 06.04.2020
133 Clear 8 1020 75 10000 5.1 140 08:43 06.04.2020
134 Clear 8 1020 75 10000 5.1 140 08:43 06.04.2020
135 Clear 7 1020 75 10000 3.1 130 08:23 06.04.2020
136 Clear 6 1020 60 10000 3.6 130 07:22 06.04.2020
137 Clear 6 1020 60 10000 3.6 130 07:22 06.04.2020
138 Clear 6 1020 60 10000 3.1 120 06:27 06.04.2020
139 Clear 7 1020 60 10000 3.6 120 05:50 06.04.2020
140 Clear 8 1021 56 10000 3.6 120 03:56 06.04.2020
141 Clear 8 1021 49 10000 5.1 130 02:51 06.04.2020
142 Clear 9 1022 49 10000 5.1 130 01:54 06.04.2020
143 Clear 10 1022 77 10000 5.7 130 00:54 06.04.2020
144 Clear 10 1022 77 10000 5.7 130 00:28 06.04.2020
145 Clear 10 1022 78 10000 5.1 110 23:52 05.04.2020
146 Clear 11 1022 78 10000 5.1 110 23:33 05.04.2020
147 Clear 11 1023 78 10000 5.1 120 22:58 05.04.2020
148 Clear 11 1023 78 10000 5.1 120 22:40 05.04.2020
149 Clear 11 1023 78 10000 5.1 120 22:22 05.04.2020
150 Clear 12 1023 43 10000 6.2 120 21:59 05.04.2020
151 Clear 12 1023 43 10000 6.2 120 21:41 05.04.2020
152 Clear 12 1023 43 10000 6.2 120 21:41 05.04.2020
153 Clouds 12 1023 43 10000 5.1 120 21:23 05.04.2020
154 Clouds 14 1023 41 10000 5.1 120 20:23 05.04.2020
155 Clouds 15 1023 36 10000 6.7 130 19:43 05.04.2020
156 Clouds 15 1023 36 10000 7.2 130 19:23 05.04.2020
157 Clouds 16 1023 33 10000 7.7 120 18:48 05.04.2020
158 Clouds 16 1023 33 10000 7.7 120 18:48 05.04.2020
159 Clouds 16 1024 36 10000 7.7 120 18:18 05.04.2020
160 Clouds 17 1024 33 10000 7.2 130 17:46 05.04.2020
161 Clouds 17 1024 33 10000 7.2 130 17:46 05.04.2020
162 Clouds 17 1024 33 10000 7.2 130 17:46 05.04.2020
163 Clouds 17 1024 33 10000 7.2 130 17:46 05.04.2020
164 Clouds 16 1024 33 10000 7.2 130 17:46 05.04.2020
165 Clouds 17 1024 36 10000 6.2 140 17:22 05.04.2020
166 Clouds 17 1025 36 10000 6.7 130 16:47 05.04.2020
167 Clouds 17 1025 36 10000 7.2 140 16:19 05.04.2020
168 Clouds 17 1026 36 10000 8.7 140 15:46 05.04.2020
169 Clouds 17 1026 36 10000 8.7 140 15:27 05.04.2020
170 Clouds 17 1026 36 10000 8.7 140 15:27 05.04.2020
171 Clouds 17 1026 36 10000 8.7 140 15:27 05.04.2020
172 Clouds 17 1026 38 10000 8.2 160 14:48 05.04.2020
173 Clouds 17 1026 38 10000 8.2 160 14:48 05.04.2020
174 Clouds 17 1026 38 10000 8.2 160 14:48 05.04.2020
175 Clouds 17 1026 38 10000 8.2 160 14:48 05.04.2020
176 Clouds 16 1026 41 10000 7.2 140 13:59 05.04.2020
177 Clouds 16 1027 41 10000 7.7 140 13:40 05.04.2020
178 Clouds 16 1027 41 10000 7.7 140 13:40 05.04.2020
179 Clouds 16 1027 41 10000 7.7 140 13:40 05.04.2020
180 Clouds 16 1027 41 10000 7.7 140 13:40 05.04.2020
181 Clouds 16 1027 41 10000 7.7 140 13:40 05.04.2020
182 Clouds 13 1028 47 10000 7.2 140 12:20 05.04.2020
183 Clouds 12 1028 46 10000 6.7 140 11:40 05.04.2020
184 Clouds 12 1028 50 10000 7.2 140 11:20 05.04.2020
185 Clouds 11 1028 57 10000 7.2 150 10:47 05.04.2020
186 Clouds 10 1028 57 10000 7.7 150 10:23 05.04.2020
187 Clouds 9 1028 57 10000 7.7 150 09:55 05.04.2020
188 Clouds 7 1028 58 10000 6.2 140 09:27 05.04.2020
189 Clouds 5 1029 60 10000 4.1 120 08:32 05.04.2020
190 Clouds 3 1028 69 10000 4.6 120 07:06 05.04.2020
191 Clouds 3 1028 74 10000 1 0 04:31 05.04.2020
192 Clouds 3 1028 74 10000 2.1 120 03:28 05.04.2020
193 Clear 3 1028 77 10000 1.5 110 02:27 05.04.2020
194 Clouds 4 1028 69 10000 1.5 120 01:44 05.04.2020
195 Clouds 4 1028 69 10000 1.5 120 01:23 05.04.2020
196 Clouds 5 1027 78 10000 1 120 00:37 05.04.2020
197 Clouds 5 1027 80 10000 2.1 140 00:19 05.04.2020
198 Clouds 5 1027 75 10000 1.5 110 23:42 04.04.2020
199 Clouds 5 1027 70 10000 1 0 23:22 04.04.2020
200 Clouds 5 1027 70 10000 1 0 22:57 04.04.2020
201 Clouds 5 1027 70 10000 1 0 22:39 04.04.2020
202 Clouds 6 1027 70 10000 1 120 22:20 04.04.2020
203 Clouds 6 1027 70 10000 1 120 21:58 04.04.2020
204 Clouds 7 1027 65 10000 0.5 0 21:39 04.04.2020
205 Clouds 7 1026 65 10000 1.5 100 21:19 04.04.2020
206 Clouds 8 1026 65 10000 1.5 100 20:58 04.04.2020
207 Clouds 9 1026 57 10000 0.5 230 20:39 04.04.2020
208 Clouds 10 1026 50 10000 1 240 20:20 04.04.2020
209 Clouds 11 1025 46 10000 1.5 230 19:56 04.04.2020
210 Clouds 11 1025 46 10000 1.5 230 19:36 04.04.2020
211 Clouds 12 1025 50 10000 2.1 210 19:18 04.04.2020
212 Clouds 12 1025 50 10000 2.6 240 18:55 04.04.2020
213 Clouds 12 1025 50 10000 2.6 240 18:37 04.04.2020
214 Clouds 13 1025 43 10000 1 0 18:18 04.04.2020
215 Clouds 13 1025 47 10000 4.1 230 17:40 04.04.2020
216 Clouds 13 1025 46 10000 3.6 230 17:20 04.04.2020
217 Clouds 13 1025 46 10000 3.6 230 16:56 04.04.2020
218 Clouds 13 1025 46 10000 5.1 250 16:38 04.04.2020
219 Clouds 13 1025 50 10000 3.6 230 16:19 04.04.2020
220 Clouds 13 1025 46 10000 2.6 260 15:41 04.04.2020
221 Clouds 12 1025 46 10000 2.6 260 15:23 04.04.2020
222 Clouds 12 1025 53 10000 5.1 240 14:59 04.04.2020
223 Clouds 12 1025 53 10000 5.1 240 14:40 04.04.2020
224 Clouds 12 1025 50 10000 4.6 240 14:22 04.04.2020
225 Clouds 12 1025 53 10000 4.6 240 13:56 04.04.2020
226 Clouds 11 1025 53 10000 4.6 240 13:37 04.04.2020
227 Clouds 11 1024 50 10000 5.7 230 13:19 04.04.2020
228 Clouds 11 1024 53 10000 5.1 210 12:44 04.04.2020
229 Clear 9 1024 57 10000 5.1 210 12:24 04.04.2020
230 Clouds 9 1024 57 10000 5.7 210 11:59 04.04.2020
231 Clouds 8 1024 57 10000 5.7 210 11:38 04.04.2020
232 Clouds 7 1024 65 10000 4.1 220 11:19 04.04.2020
233 Clouds 6 1024 70 10000 5.1 220 10:56 04.04.2020
234 Clouds 6 1024 70 10000 5.1 220 10:38 04.04.2020
235 Clouds 6 1024 70 10000 3.6 220 10:19 04.04.2020
236 Clouds 5 1024 75 10000 4.1 220 09:54 04.04.2020
237 Clouds 4 1024 75 10000 4.1 220 09:36 04.04.2020
238 Clear 3 1023 88 10000 3.6 220 09:18 04.04.2020
239 Clear 2 1023 88 10000 3.1 220 08:41 04.04.2020
240 Clear 1 1023 80 10000 2.6 210 08:21 04.04.2020
241 Clear 1 1022 88 10000 2.6 210 07:47 04.04.2020
242 Clear 0 1022 88 10000 2.6 220 07:27 04.04.2020
243 Clear 0 1022 88 10000 3.1 220 06:56 04.04.2020
244 Clear 0 1021 96 10000 3.6 230 06:20 04.04.2020
245 Clear 0 1021 96 10000 3.1 230 05:43 04.04.2020
246 Clear 0 1021 96 10000 2.6 230 05:24 04.04.2020
247 Clear 0 1021 86 10000 2.6 230 04:33 04.04.2020
248 Clear 1 1020 86 10000 3.1 220 03:55 04.04.2020
249 Clear 1 1020 96 10000 2.1 240 03:22 04.04.2020
250 Clouds 1 1020 91 10000 2.1 220 02:38 04.04.2020
251 Clouds 1 1020 90 10000 2.1 220 02:38 04.04.2020
252 Clouds 1 1020 91 10000 1.5 240 02:20 04.04.2020
253 Clouds 1 1019 91 10000 1.5 220 01:26 04.04.2020
254 Clouds 2 1019 86 10000 1 200 00:55 04.04.2020
255 Clouds 2 1019 86 10000 1.5 260 00:30 04.04.2020
256 Clouds 3 1018 85 10000 1.5 260 23:55 03.04.2020
257 Clouds 3 1018 85 10000 1.5 260 23:36 03.04.2020
258 Clouds 3 1018 85 10000 3.1 260 23:18 03.04.2020
259 Clouds 4 1018 85 10000 2.1 240 22:40 03.04.2020
260 Clouds 4 1017 85 10000 2.1 260 22:19 03.04.2020
261 Clouds 4 1017 65 10000 3.1 270 21:56 03.04.2020
262 Clouds 4 1017 65 10000 3.1 270 21:56 03.04.2020
263 Clouds 5 1017 65 10000 3.1 270 21:37 03.04.2020
264 Clouds 5 1017 65 10000 3.1 280 21:19 03.04.2020
265 Clouds 5 1016 60 10000 3.6 280 20:55 03.04.2020
266 Clouds 6 1016 60 10000 3.6 280 20:36 03.04.2020
267 Clouds 6 1016 60 10000 4.1 290 20:18 03.04.2020
268 Clouds 6 1016 52 10000 5.7 290 19:54 03.04.2020
269 Clouds 7 1016 52 10000 5.7 290 19:36 03.04.2020
270 Clouds 7 1016 52 10000 5.7 290 19:36 03.04.2020
271 Clouds 7 1015 52 10000 4.6 270 19:18 03.04.2020
272 Clouds 7 1015 52 10000 4.6 270 19:18 03.04.2020
273 Clouds 7 1015 56 10000 5.1 270 18:56 03.04.2020
274 Clouds 8 1015 56 10000 5.1 270 18:38 03.04.2020
275 Clouds 8 1015 55 10000 6.7 300 18:20 03.04.2020
276 Clouds 8 1015 55 10000 7.7 290 17:41 03.04.2020
277 Clouds 8 1014 52 10000 7.7 280 17:19 03.04.2020
278 Clouds 9 1014 52 10000 7.7 280 16:55 03.04.2020
279 Clouds 9 1014 49 10000 8.2 290 16:36 03.04.2020
280 Clouds 9 1014 49 10000 6.7 290 16:18 03.04.2020
281 Clouds 9 1014 49 10000 6.7 290 15:55 03.04.2020
282 Clouds 9 1014 45 10000 6.7 280 15:36 03.04.2020
283 Clouds 9 1014 49 10000 6.2 280 15:18 03.04.2020
284 Rain 8 1013 52 10000 7.2 290 14:40 03.04.2020
285 Rain 8 1013 52 10000 7.2 290 14:22 03.04.2020
286 Rain 7 1013 52 10000 7.2 290 13:46 03.04.2020
287 Rain 7 1013 56 10000 6.7 270 13:27 03.04.2020
288 Clouds 8 1012 52 10000 8.7 290 12:58 03.04.2020
289 Clouds 8 1012 52 10000 8.7 290 12:40 03.04.2020
290 Rain 8 1012 65 10000 5.7 260 12:19 03.04.2020
291 Rain 7 1012 52 10000 8.2 280 11:56 03.04.2020
292 Rain 8 1012 52 10000 8.2 280 11:37 03.04.2020
293 Rain 7 1011 59 10000 7.7 280 11:18 03.04.2020
294 Rain 7 1011 75 10000 3.1 270 10:57 03.04.2020
295 Rain 7 1011 75 10000 3.1 270 10:38 03.04.2020
296 Rain 7 1011 75 10000 6.2 260 10:20 03.04.2020
297 Rain 7 1011 75 10000 6.2 260 10:20 03.04.2020
298 Rain 6 1011 75 10000 6.2 260 09:57 03.04.2020
299 Clouds 6 1010 70 10000 5.1 270 09:39 03.04.2020
300 Clouds 6 1010 70 10000 5.1 270 09:39 03.04.2020
301 Clouds 5 1010 70 10000 5.7 260 09:21 03.04.2020
302 Rain 5 1009 78 10000 6.2 270 08:55 03.04.2020
303 Rain 4 1009 78 10000 6.2 270 08:36 03.04.2020
304 Rain 4 1009 78 10000 5.1 280 08:18 03.04.2020
305 Rain 3 1009 69 10000 4.1 260 07:41 03.04.2020
306 Rain 3 1008 69 10000 6.2 270 07:23 03.04.2020
307 Rain 4 1008 69 10000 4.6 270 06:38 03.04.2020
308 Rain 4 1007 65 10000 5.7 270 06:20 03.04.2020
309 Clouds 4 1007 60 10000 5.1 270 05:34 03.04.2020
310 Clouds 4 1006 60 10000 6.2 280 03:40 03.04.2020
311 Clouds 4 1006 60 10000 7.2 290 02:55 03.04.2020
312 Clouds 5 1006 86 10000 6.2 270 01:53 03.04.2020
313 Clouds 5 1005 75 10000 6.2 280 01:18 03.04.2020
314 Clouds 5 1005 86 10000 5.1 270 00:34 03.04.2020
315 Clouds 5 1005 86 10000 5.1 270 23:58 02.04.2020
316 Clouds 6 1005 87 10000 4.6 270 23:39 02.04.2020
317 Clouds 6 1005 87 10000 4.6 270 23:39 02.04.2020
318 Rain 6 1005 87 10000 8.2 280 23:21 02.04.2020
319 Rain 6 1004 87 10000 7.7 250 22:43 02.04.2020
320 Rain 7 1004 81 10000 7.2 250 22:25 02.04.2020
321 Rain 7 1004 81 10000 7.2 250 21:59 02.04.2020
322 Rain 7 1005 81 10000 7.2 250 21:38 02.04.2020
323 Rain 7 1005 81 10000 7.2 250 21:38 02.04.2020
324 Rain 7 1004 75 10000 7.2 250 21:19 02.04.2020
325 Rain 8 1004 75 10000 7.2 250 20:57 02.04.2020
326 Rain 8 1005 70 10000 6.2 260 20:38 02.04.2020
327 Rain 8 1005 66 10000 5.1 260 20:19 02.04.2020
328 Clouds 8 1005 61 10000 6.7 260 19:43 02.04.2020
329 Clouds 9 1005 61 10000 6.2 250 19:21 02.04.2020
330 Clouds 9 1005 61 10000 6.2 250 19:21 02.04.2020
331 Clouds 9 1005 61 10000 9.3 250 18:58 02.04.2020
332 Clouds 9 1005 61 10000 9.3 250 18:39 02.04.2020
333 Clouds 9 1005 57 10000 8.7 260 18:20 02.04.2020
334 Clouds 9 1006 53 10000 7.7 250 17:56 02.04.2020
335 Clouds 10 1006 53 10000 7.7 250 17:38 02.04.2020
336 Clouds 10 1006 53 10000 9.3 240 17:18 02.04.2020
337 Clouds 10 1006 53 10000 7.2 250 16:55 02.04.2020
338 Clouds 10 1006 53 10000 7.2 250 16:36 02.04.2020
339 Clouds 10 1007 66 10000 9.3 250 16:18 02.04.2020
340 Clouds 10 1007 66 10000 9.3 230 15:44 02.04.2020
341 Clouds 10 1007 66 10000 9.3 230 15:44 02.04.2020
342 Clouds 10 1007 66 10000 9.3 230 15:44 02.04.2020
343 Clouds 10 1007 62 10000 9.3 230 15:21 02.04.2020
344 Clouds 10 1007 62 10000 9.3 230 14:58 02.04.2020
345 Clouds 10 1008 62 10000 9.8 240 14:39 02.04.2020
346 Clouds 10 1008 53 10000 8.2 240 14:19 02.04.2020
347 Clouds 10 1008 57 10000 6.7 250 13:56 02.04.2020
348 Clouds 10 1008 57 10000 6.7 250 13:38 02.04.2020
349 Clouds 10 1009 61 10000 7.7 250 13:20 02.04.2020
350 Clouds 10 1009 61 10000 7.7 250 12:55 02.04.2020
351 Clouds 10 1009 61 10000 7.7 250 12:55 02.04.2020
352 Clouds 10 1009 57 10000 8.7 220 12:36 02.04.2020
353 Clouds 9 1010 57 10000 7.7 240 12:18 02.04.2020
354 Clouds 9 1010 61 10000 6.7 250 11:55 02.04.2020
355 Clouds 9 1010 61 10000 6.7 250 11:55 02.04.2020
356 Clouds 9 1010 61 10000 6.7 250 11:36 02.04.2020
357 Clouds 8 1010 65 10000 6.7 240 11:18 02.04.2020
358 Clouds 7 1011 70 10000 6.2 240 10:54 02.04.2020
359 Clouds 7 1011 70 10000 6.2 240 10:36 02.04.2020
360 Clouds 7 1011 70 10000 5.7 240 10:18 02.04.2020
361 Clouds 6 1011 75 10000 5.7 230 09:43 02.04.2020
362 Clouds 5 1011 80 10000 4.6 230 09:24 02.04.2020
363 Clouds 5 1011 80 10000 4.6 230 08:58 02.04.2020
364 Clouds 5 1011 80 10000 4.6 230 08:40 02.04.2020
365 Clouds 5 1011 80 10000 4.1 230 08:20 02.04.2020
366 Clouds 5 1011 80 10000 4.1 240 07:43 02.04.2020
367 Clouds 5 1011 86 10000 4.6 240 07:20 02.04.2020
368 Clouds 5 1011 86 10000 4.6 240 06:57 02.04.2020
369 Clouds 5 1012 86 10000 4.1 250 06:21 02.04.2020
370 Clouds 5 1012 86 10000 4.1 250 05:44 02.04.2020
371 Clouds 5 1013 86 10000 4.1 250 03:57 02.04.2020
372 Clouds 5 1014 81 10000 4.1 250 01:35 02.04.2020
373 Clouds 6 1014 81 10000 4.6 250 00:48 02.04.2020
374 Clouds 5 1014 81 10000 4.1 250 00:26 02.04.2020
375 Clouds 5 1014 81 10000 4.1 250 23:55 01.04.2020
376 Clouds 5 1015 81 10000 3.6 240 23:37 01.04.2020
377 Clouds 6 1015 81 10000 3.6 250 23:18 01.04.2020
378 Clouds 6 1015 81 10000 4.1 260 22:40 01.04.2020
379 Clouds 6 1015 81 10000 4.1 270 22:22 01.04.2020
380 Clouds 6 1015 81 10000 4.1 270 21:57 01.04.2020
381 Clouds 6 1015 75 10000 4.1 270 21:38 01.04.2020
382 Clouds 6 1015 75 10000 5.1 280 21:18 01.04.2020
383 Clouds 6 1015 75 10000 5.1 280 20:55 01.04.2020
384 Clouds 6 1016 70 10000 5.1 280 20:37 01.04.2020
385 Clouds 6 1016 75 10000 4.1 270 20:18 01.04.2020
386 Clouds 6 1016 75 10000 4.6 280 19:43 01.04.2020
387 Clouds 7 1016 70 10000 5.7 280 19:22 01.04.2020
388 Clouds 7 1016 70 10000 5.7 280 18:59 01.04.2020
389 Clouds 7 1016 70 10000 5.7 280 18:59 01.04.2020
390 Clouds 7 1016 70 10000 5.7 280 18:59 01.04.2020
391 Clouds 7 1016 65 10000 6.2 280 18:40 01.04.2020
392 Clouds 7 1016 65 10000 5.1 280 18:21 01.04.2020
393 Rain 7 1016 65 10000 8.7 290 17:56 01.04.2020
394 Rain 7 1016 65 10000 8.7 290 17:56 01.04.2020
395 Rain 7 1016 65 10000 8.7 290 17:56 01.04.2020
396 Rain 7 1016 65 10000 8.7 290 17:37 01.04.2020
397 Rain 7 1017 61 10000 6.7 290 17:18 01.04.2020
398 Rain 7 1017 61 10000 6.7 290 16:54 01.04.2020
399 Rain 8 1017 61 10000 6.2 280 16:36 01.04.2020
400 Rain 8 1017 61 10000 5.1 270 16:18 01.04.2020
401 Clouds 8 1017 65 10000 5.7 270 15:42 01.04.2020
402 Clouds 8 1017 61 10000 5.7 260 15:22 01.04.2020
403 Clouds 8 1017 61 10000 5.7 260 14:59 01.04.2020
404 Clouds 8 1018 61 10000 6.7 260 14:39 01.04.2020
405 Clouds 8 1018 57 10000 7.2 260 14:21 01.04.2020
406 Clouds 8 1018 57 10000 7.2 260 13:59 01.04.2020
407 Clouds 8 1018 65 10000 6.7 250 13:38 01.04.2020
408 Clouds 8 1019 70 10000 6.2 260 13:20 01.04.2020
409 Clouds 7 1019 70 10000 6.2 270 12:57 01.04.2020
410 Clouds 7 1019 70 10000 6.2 270 12:37 01.04.2020
411 Clouds 7 1019 70 10000 6.2 260 12:19 01.04.2020
412 Clouds 7 1019 70 10000 6.2 260 11:56 01.04.2020
413 Clouds 6 1020 70 10000 5.7 250 11:37 01.04.2020
414 Clouds 6 1020 75 10000 5.7 230 11:18 01.04.2020
415 Clouds 5 1020 75 10000 4.6 240 10:39 01.04.2020
416 Clouds 4 1020 72 10000 5.1 240 10:21 01.04.2020
417 Clouds 4 1020 72 10000 5.1 240 09:59 01.04.2020
418 Clouds 4 1020 72 10000 5.1 240 09:59 01.04.2020
419 Clouds 3 1020 72 10000 4.6 230 09:40 01.04.2020
420 Rain 3 1021 88 10000 4.1 240 09:20 01.04.2020
421 Clouds 2 1021 88 10000 3.6 240 08:54 01.04.2020
422 Clouds 2 1021 88 10000 3.6 240 08:36 01.04.2020
423 Clouds 2 1021 80 10000 3.6 240 08:18 01.04.2020
424 Clouds 1 1021 80 10000 4.1 240 07:40 01.04.2020
425 Rain 1 1021 74 10000 3.1 240 07:19 01.04.2020
426 Clouds 1 1022 80 10000 3.1 230 06:42 01.04.2020
427 Clouds 1 1022 80 10000 3.6 220 06:20 01.04.2020
428 Clouds 1 1022 80 10000 3.1 220 05:41 01.04.2020
429 Clouds 0 1023 74 10000 3.6 230 03:57 01.04.2020
430 Clouds 0 1024 69 10000 3.1 240 03:19 01.04.2020
431 Clouds 0 1024 79 10000 3.6 240 02:36 01.04.2020
432 Clouds 0 1025 92 10000 2.6 240 01:53 01.04.2020
433 Clear -1 1026 74 10000 2.6 240 01:27 01.04.2020
434 Clear 0 1026 92 10000 2.1 230 00:47 01.04.2020
435 Clear -1 1026 74 10000 2.1 230 00:24 01.04.2020
436 Clear 0 1026 80 10000 0.5 0 23:59 31.03.2020
437 Clear 0 1026 80 10000 0.5 0 23:41 31.03.2020
438 Clear 0 1027 64 10000 1.5 260 23:22 31.03.2020
439 Clear 1 1027 59 10000 2.6 280 22:41 31.03.2020
440 Clear 2 1027 64 10000 2.1 300 22:22 31.03.2020
441 Clear 2 1027 59 10000 2.1 310 21:59 31.03.2020
442 Clear 2 1027 59 10000 2.1 310 21:40 31.03.2020
443 Clouds 3 1028 55 10000 2.6 310 21:21 31.03.2020
444 Clouds 3 1028 55 10000 2.6 310 20:58 31.03.2020
445 Clouds 4 1028 48 10000 3.6 290 20:38 31.03.2020
446 Clouds 4 1028 48 10000 3.6 290 20:19 31.03.2020
447 Clouds 5 1028 41 10000 3.1 270 19:58 31.03.2020
448 Clouds 5 1028 41 10000 3.1 270 19:39 31.03.2020
449 Clouds 6 1028 42 10000 3.6 290 19:21 31.03.2020
450 Clouds 7 1028 45 10000 3.1 300 18:54 31.03.2020
451 Clouds 7 1028 45 10000 3.1 300 18:36 31.03.2020
452 Clouds 7 1028 42 10000 3.1 270 18:18 31.03.2020
453 Clouds 7 1029 42 10000 4.1 290 17:54 31.03.2020
454 Clouds 7 1029 42 10000 4.1 290 17:36 31.03.2020
455 Clouds 8 1029 42 10000 2.6 0 17:18 31.03.2020
456 Clouds 8 1029 39 10000 1 0 16:37 31.03.2020
457 Clouds 8 1030 39 10000 3.6 290 16:18 31.03.2020
458 Clouds 7 1030 39 10000 3.6 290 15:56 31.03.2020
459 Clouds 8 1030 42 10000 2.6 0 15:37 31.03.2020
460 Clouds 7 1030 45 10000 3.1 220 15:19 31.03.2020
461 Clouds 7 1030 45 10000 3.1 220 14:56 31.03.2020
462 Clouds 7 1031 45 10000 1.5 0 14:38 31.03.2020
463 Clouds 6 1031 48 10000 1 0 14:18 31.03.2020
464 Clouds 6 1031 52 10000 2.1 170 13:42 31.03.2020
465 Clouds 5 1031 56 10000 1 0 13:19 31.03.2020
466 Clouds 5 1032 64 10000 1.5 330 12:55 31.03.2020
467 Clouds 5 1032 64 10000 1.5 330 12:37 31.03.2020
468 Clouds 5 1032 64 10000 3.6 320 12:18 31.03.2020
469 Clouds 5 1032 60 10000 1 0 11:39 31.03.2020
470 Clouds 4 1032 65 10000 2.1 0 11:20 31.03.2020
471 Clouds 4 1032 65 10000 2.1 0 10:58 31.03.2020
472 Clouds 4 1032 65 10000 1.5 130 10:40 31.03.2020
473 Clouds 3 1032 69 10000 1 60 10:21 31.03.2020
474 Clouds 3 1032 69 10000 1 60 09:56 31.03.2020
475 Clouds 2 1032 74 10000 1 0 09:37 31.03.2020
476 Clouds 1 1032 80 10000 1 0 09:19 31.03.2020
477 Clouds 0 1032 80 10000 1 0 08:57 31.03.2020
478 Clouds -1 1032 86 10000 0.5 50 08:38 31.03.2020
479 Clear -2 1032 86 10000 1 320 08:19 31.03.2020
480 Clear -3 1031 92 10000 0.5 0 07:56 31.03.2020
481 Clear -3 1031 92 10000 0.5 0 07:37 31.03.2020
482 Clear -3 1031 86 10000 0.5 0 07:18 31.03.2020
483 Clear -2 1031 85 10000 1.5 70 06:43 31.03.2020
484 Clear -3 1030 85 10000 1 0 05:59 31.03.2020
485 Clear -2 1030 92 10000 1 0 05:39 31.03.2020
486 Clear -2 1030 85 10000 2.6 320 03:28 31.03.2020
487 Clear -1 1029 95 10000 3.1 330 01:54 31.03.2020
488 Clear -1 1029 74 10000 2.1 350 01:34 31.03.2020
489 Clear 0 1029 95 10000 2.6 350 00:47 31.03.2020
490 Clear 0 1029 74 10000 2.1 350 00:25 31.03.2020
491 Clear 0 1029 95 10000 2.1 350 23:42 30.03.2020
492 Clear 1 1028 95 10000 2.1 360 23:20 30.03.2020
493 Clear 1 1028 64 10000 2.6 10 22:58 30.03.2020
494 Clear 1 1028 64 10000 2.6 10 22:39 30.03.2020
495 Clear 2 1028 59 10000 3.6 20 22:21 30.03.2020
496 Clear 2 1027 55 10000 4.6 20 21:58 30.03.2020
497 Clear 2 1027 55 10000 4.6 20 21:39 30.03.2020
498 Clear 3 1027 55 10000 4.6 20 21:21 30.03.2020
499 Clouds 3 1027 55 10000 4.6 20 20:59 30.03.2020
500 Clouds 3 1026 55 10000 4.1 20 20:39 30.03.2020
501 Clouds 4 1026 55 10000 4.1 20 20:21 30.03.2020
502 Clouds 4 1026 51 10000 3.6 20 19:58 30.03.2020
503 Clouds 5 1026 38 10000 5.1 30 19:39 30.03.2020
504 Clouds 5 1025 48 10000 6.2 20 19:21 30.03.2020
505 Clouds 6 1025 52 10000 5.7 20 18:56 30.03.2020
506 Clouds 6 1025 52 10000 5.7 20 18:37 30.03.2020
507 Clouds 6 1025 52 10000 5.1 40 18:19 30.03.2020
508 Clouds 7 1024 52 10000 3.6 40 17:55 30.03.2020
509 Clouds 7 1024 52 10000 3.6 40 17:36 30.03.2020
510 Clouds 7 1024 52 10000 4.6 20 17:18 30.03.2020
511 Rain 7 1024 70 10000 1 0 16:41 30.03.2020
512 Rain 7 1024 70 10000 2.1 270 16:22 30.03.2020
513 Rain 7 1024 70 10000 2.1 270 15:57 30.03.2020
514 Rain 6 1024 81 10000 2.6 290 15:39 30.03.2020
515 Rain 7 1024 75 10000 3.1 350 15:21 30.03.2020
516 Rain 6 1024 75 10000 3.1 350 14:59 30.03.2020
517 Rain 7 1024 65 10000 1 0 14:38 30.03.2020
518 Clouds 7 1024 70 10000 2.1 360 14:19 30.03.2020
519 Clouds 6 1025 81 10000 2.1 280 13:58 30.03.2020
520 Clouds 6 1025 81 10000 2.1 280 13:40 30.03.2020
521 Clouds 5 1025 86 10000 1.5 300 13:20 30.03.2020
522 Clouds 4 1025 93 10000 3.1 260 12:54 30.03.2020
523 Clouds 4 1025 93 10000 3.1 260 12:54 30.03.2020
524 Clouds 4 1025 93 10000 3.1 260 12:36 30.03.2020
525 Rain 4 1026 93 10000 3.1 290 12:18 30.03.2020
526 Snow 2 1025 93 8000 5.7 280 11:42 30.03.2020
527 Snow 2 1026 93 6000 2.6 260 11:24 30.03.2020
528 Snow 2 1026 93 6000 2.6 260 10:59 30.03.2020
529 Snow 1 1026 89 4000 3.6 250 10:39 30.03.2020
530 Snow 1 1026 89 6000 3.6 240 10:21 30.03.2020
531 Snow 1 1026 89 9000 3.6 250 09:54 30.03.2020
532 Snow 1 1026 89 9000 3.6 250 09:36 30.03.2020
533 Snow 0 1026 86 10000 4.1 250 09:18 30.03.2020
534 Snow 0 1027 98 10000 4.1 240 08:40 30.03.2020
535 Snow 0 1027 98 8000 4.1 240 08:21 30.03.2020
536 Snow -1 1027 98 5000 5.1 240 07:48 30.03.2020
537 Snow -1 1028 98 1400 2.6 240 07:25 30.03.2020
538 Snow -1 1028 92 5000 2.6 230 06:47 30.03.2020
539 Snow -1 1028 92 5000 2.6 230 06:29 30.03.2020
540 Snow -1 1029 74 2000 2.1 250 05:47 30.03.2020
541 Clouds -2 1029 68 10000 2.1 240 05:18 30.03.2020
542 Clouds -2 1030 63 10000 2.1 220 04:21 30.03.2020
543 Clouds -3 1030 68 10000 1.5 230 03:34 30.03.2020
544 Clear -3 1031 79 10000 1 250 02:37 30.03.2020
545 Clear -2 1032 68 10000 0.5 0 01:26 30.03.2020
546 Clear -2 1032 58 10000 2.1 310 00:47 30.03.2020
547 Clear -2 1033 73 10000 3.1 320 00:21 30.03.2020
548 Clear -2 1032 68 10000 1 320 23:41 29.03.2020
549 Clear -2 1032 68 10000 1 320 23:23 29.03.2020
550 Clear -1 1032 63 10000 0.5 320 22:57 29.03.2020
551 Clear -1 1032 63 10000 1 290 22:38 29.03.2020
552 Clear 0 1033 58 10000 1.5 310 22:19 29.03.2020
553 Clear 0 1033 58 10000 1.5 310 21:56 29.03.2020
554 Clear 0 1033 86 10000 1.5 350 21:36 29.03.2020
555 Clouds 1 1033 43 10000 3.1 360 21:18 29.03.2020
556 Clouds 1 1033 43 10000 3.1 360 20:55 29.03.2020
557 Clouds 2 1033 40 10000 4.1 10 20:36 29.03.2020
558 Clouds 2 1032 40 10000 4.6 10 20:18 29.03.2020
559 Clouds 3 1032 40 10000 4.1 20 19:42 29.03.2020
560 Clouds 3 1032 40 10000 4.1 20 19:42 29.03.2020
561 Clouds 3 1032 37 10000 5.7 30 19:24 29.03.2020
562 Clouds 4 1032 38 10000 6.7 360 18:58 29.03.2020
563 Clouds 4 1032 38 10000 6.7 360 18:40 29.03.2020
564 Clouds 4 1031 35 10000 7.2 30 18:20 29.03.2020
565 Clouds 4 1031 32 10000 7.2 10 17:59 29.03.2020
566 Clouds 5 1031 32 10000 7.2 10 17:41 29.03.2020
567 Clouds 5 1031 32 10000 8.7 20 17:22 29.03.2020
568 Clouds 5 1031 32 10000 8.7 20 16:58 29.03.2020
569 Clouds 5 1031 35 10000 7.2 10 16:39 29.03.2020
570 Clouds 5 1031 38 10000 7.7 20 16:21 29.03.2020
571 Clouds 5 1031 38 10000 7.7 20 15:58 29.03.2020
572 Clouds 5 1030 41 10000 7.7 30 15:39 29.03.2020
573 Clouds 5 1030 41 10000 7.2 10 15:19 29.03.2020
574 Clouds 5 1030 41 10000 7.2 10 14:56 29.03.2020
575 Clouds 4 1030 48 10000 8.2 20 14:37 29.03.2020
576 Clouds 4 1030 55 10000 8.2 10 14:18 29.03.2020
577 Clouds 4 1030 60 10000 8.2 20 13:55 29.03.2020
578 Clouds 4 1030 60 10000 8.2 20 13:55 29.03.2020
579 Clouds 4 1030 60 10000 8.2 20 13:37 29.03.2020
580 Clouds 4 1029 60 10000 8.7 30 13:18 29.03.2020
581 Clouds 4 1029 60 10000 9.3 30 12:54 29.03.2020
582 Clouds 4 1029 60 10000 9.3 30 12:54 29.03.2020
583 Clouds 3 1029 60 10000 9.3 30 12:36 29.03.2020
584 Snow 3 1029 89 10000 7.2 30 12:18 29.03.2020
585 Snow 2 1028 80 10000 8.2 30 11:38 29.03.2020
586 Snow 2 1028 86 5000 8.2 30 11:20 29.03.2020
587 Snow 2 1027 89 7000 7.7 20 10:40 29.03.2020
588 Snow 1 1027 89 3500 7.2 20 10:21 29.03.2020
589 Snow 1 1027 89 3500 7.2 20 09:59 29.03.2020
590 Snow 1 1026 89 7000 8.2 20 09:38 29.03.2020
591 Snow 1 1025 94 4800 7.7 10 09:19 29.03.2020
592 Snow 2 1024 94 4800 6.7 10 08:52 29.03.2020
593 Snow 2 1024 94 4800 6.7 10 08:28 29.03.2020
594 Snow 2 1023 94 3200 6.2 340 07:58 29.03.2020
595 Snow 2 1023 94 3200 6.2 340 07:39 29.03.2020
596 Snow 2 1023 94 3200 6.2 340 07:39 29.03.2020
597 Snow 3 1022 86 10000 8.7 340 07:20 29.03.2020
598 Clouds 3 1022 64 10000 4.1 330 04:59 29.03.2020
599 Clouds 4 1022 59 10000 4.1 330 04:59 29.03.2020
600 Clouds 4 1022 59 10000 4.1 330 04:59 29.03.2020
601 Clouds 4 1022 51 10000 4.6 330 03:55 29.03.2020
602 Clouds 4 1022 52 10000 5.1 340 03:26 29.03.2020
603 Clouds 5 1022 52 10000 4.1 350 01:51 29.03.2020
604 Clouds 5 1022 56 10000 4.1 360 01:23 29.03.2020
605 Clouds 5 1021 74 10000 4.1 360 00:55 29.03.2020
606 Clouds 6 1021 74 10000 3.6 360 00:31 29.03.2020
607 Clouds 6 1021 65 10000 3.1 30 23:43 28.03.2020
608 Clouds 6 1021 65 10000 3.1 30 23:43 28.03.2020
609 Clouds 6 1021 75 10000 1.5 350 23:24 28.03.2020
610 Clouds 6 1021 75 10000 2.6 340 22:59 28.03.2020
611 Clouds 6 1021 75 10000 2.6 340 22:38 28.03.2020
612 Clouds 6 1021 70 10000 3.1 310 22:20 28.03.2020
613 Clouds 6 1021 70 10000 3.6 310 21:54 28.03.2020
614 Clouds 6 1021 70 10000 3.6 310 21:36 28.03.2020
615 Clouds 6 1021 70 10000 4.6 300 21:18 28.03.2020
616 Clouds 6 1021 65 10000 4.1 320 20:41 28.03.2020
617 Clouds 7 1021 65 10000 4.1 300 20:23 28.03.2020
618 Clouds 7 1021 65 10000 4.1 300 19:57 28.03.2020
619 Clouds 7 1021 61 10000 4.6 310 19:39 28.03.2020
620 Clouds 8 1020 61 10000 5.1 300 19:20 28.03.2020
621 Clouds 9 1020 61 10000 6.2 320 18:58 28.03.2020
622 Clouds 9 1020 61 10000 6.2 320 18:39 28.03.2020
623 Clouds 10 1020 50 10000 5.1 310 18:19 28.03.2020
624 Clouds 10 1020 50 10000 6.2 320 17:39 28.03.2020
625 Clouds 11 1020 53 10000 5.7 330 17:21 28.03.2020
626 Clouds 12 1020 57 10000 5.7 320 16:55 28.03.2020
627 Clouds 12 1020 57 10000 5.7 320 16:37 28.03.2020
628 Clouds 12 1020 57 10000 4.6 310 16:18 28.03.2020
629 Clouds 12 1021 50 10000 5.7 310 15:39 28.03.2020
630 Clouds 12 1021 50 10000 6.2 290 15:19 28.03.2020
631 Clear 12 1021 40 10000 5.7 290 14:57 28.03.2020
632 Clear 12 1021 40 10000 5.7 290 14:39 28.03.2020
633 Clear 12 1022 40 10000 4.6 330 14:20 28.03.2020
634 Clear 12 1022 40 10000 4.6 330 14:20 28.03.2020
635 Clear 12 1022 34 10000 5.1 320 13:42 28.03.2020
636 Clear 12 1022 34 10000 4.6 310 13:23 28.03.2020
637 Clear 12 1023 37 10000 4.1 340 12:41 28.03.2020
638 Clear 11 1023 37 10000 4.1 320 12:22 28.03.2020
639 Clear 11 1023 40 10000 4.1 330 11:43 28.03.2020
640 Clear 10 1023 43 10000 5.1 330 11:24 28.03.2020
641 Clear 10 1023 43 10000 4.1 360 10:58 28.03.2020
642 Clear 10 1023 43 10000 4.1 360 10:38 28.03.2020
643 Clear 9 1023 45 10000 2.6 350 10:19 28.03.2020
644 Clear 8 1023 54 10000 2.1 360 09:43 28.03.2020
645 Clear 7 1024 65 10000 3.1 350 09:24 28.03.2020
646 Clear 6 1023 75 10000 3.1 320 08:58 28.03.2020
647 Clear 5 1023 75 10000 3.1 320 08:40 28.03.2020
648 Clouds 4 1023 84 10000 3.1 320 08:21 28.03.2020
649 Clouds 2 1023 74 10000 2.6 320 07:44 28.03.2020
650 Clouds 2 1023 84 10000 2.6 320 07:26 28.03.2020
651 Clouds 1 1023 80 10000 1.5 360 06:36 28.03.2020
652 Clouds 1 1023 80 10000 2.6 20 05:54 28.03.2020
653 Clouds 1 1023 74 10000 3.1 30 05:21 28.03.2020
654 Clouds 1 1023 74 10000 3.6 20 04:42 28.03.2020
655 Clouds 1 1023 74 10000 1.99 13 03:54 28.03.2020
656 Clouds 3 1023 64 10000 4.6 30 02:26 28.03.2020
657 Clear 2 1024 86 10000 0.5 0 01:43 28.03.2020
658 Clear 3 1024 80 10000 1 0 01:18 28.03.2020
659 Clear 3 1024 80 10000 1 0 00:46 28.03.2020
660 Clear 3 1024 80 10000 1 0 00:20 28.03.2020
661 Clear 4 1024 65 10000 2.6 60 23:42 27.03.2020
662 Clear 4 1024 74 10000 0.5 0 23:23 27.03.2020
663 Clear 5 1024 65 10000 3.1 40 22:56 27.03.2020
664 Clear 5 1024 65 10000 3.1 40 22:38 27.03.2020
665 Clear 5 1024 60 10000 5.7 50 22:20 27.03.2020
666 Clear 5 1024 60 10000 5.7 50 21:56 27.03.2020
667 Clear 5 1024 60 10000 3.6 40 21:38 27.03.2020
668 Clear 6 1024 60 10000 3.6 40 21:20 27.03.2020
669 Clear 7 1024 60 10000 3.6 40 20:43 27.03.2020
670 Clouds 7 1024 52 10000 4.1 50 20:22 27.03.2020
671 Clouds 8 1024 49 10000 4.6 50 19:59 27.03.2020
672 Clouds 8 1024 49 10000 4.6 50 19:41 27.03.2020
673 Clouds 8 1023 52 10000 4.6 50 19:22 27.03.2020
674 Clouds 9 1023 52 10000 4.6 50 18:56 27.03.2020
675 Clouds 10 1023 72 10000 5.1 40 18:38 27.03.2020
676 Clouds 9 1023 72 10000 5.1 40 18:38 27.03.2020
677 Clouds 11 1023 53 10000 5.1 60 18:19 27.03.2020
678 Clouds 12 1023 72 10000 6.7 50 17:40 27.03.2020
679 Clear 12 1023 55 10000 6.7 50 17:20 27.03.2020
680 Clear 13 1023 43 10000 5.7 50 16:55 27.03.2020
681 Clear 13 1023 43 10000 5.7 50 16:37 27.03.2020
682 Clear 13 1023 47 10000 6.2 50 16:19 27.03.2020
683 Clear 14 1023 44 10000 5.1 50 15:42 27.03.2020
684 Clear 15 1023 44 10000 5.7 60 15:24 27.03.2020
685 Clear 15 1023 55 10000 5.7 60 14:46 27.03.2020
686 Clear 12 1022 55 0 4.73 53 14:25 27.03.2020
687 Clouds 15 1024 49 10000 5.1 60 13:58 27.03.2020
688 Clouds 14 1024 49 10000 5.7 70 13:40 27.03.2020
689 Clear 13 1024 37 10000 5.7 60 13:21 27.03.2020
690 Clear 13 1024 37 10000 5.1 60 12:57 27.03.2020
691 Clear 13 1024 37 10000 5.1 60 12:39 27.03.2020
692 Clear 13 1025 35 10000 5.1 60 12:19 27.03.2020
693 Clear 12 1025 37 10000 5.1 60 11:41 27.03.2020
694 Clear 12 1025 37 10000 5.1 60 11:23 27.03.2020
695 Clear 12 1025 37 10000 5.1 60 11:23 27.03.2020
696 Clear 12 1025 37 10000 5.1 60 11:23 27.03.2020
697 Clear 11 1025 37 10000 4.6 70 10:55 27.03.2020
698 Clear 11 1025 37 10000 4.6 70 10:37 27.03.2020
699 Clear 10 1025 43 10000 4.6 70 10:19 27.03.2020
700 Clear 10 1025 43 10000 4.6 70 09:57 27.03.2020
701 Clear 8 1026 52 10000 4.6 60 09:37 27.03.2020
702 Clear 7 1025 56 10000 4.6 60 09:18 27.03.2020
703 Clear 6 1025 65 10000 4.1 60 08:56 27.03.2020
704 Clear 6 1025 65 10000 4.1 60 08:38 27.03.2020
705 Clear 5 1025 86 10000 4.6 60 08:20 27.03.2020
706 Clear 4 1026 86 10000 3.6 60 07:50 27.03.2020
707 Clear 3 1025 80 10000 3.1 60 07:24 27.03.2020
708 Clear 2 1025 86 10000 3.1 60 06:53 27.03.2020
709 Clear 2 1025 86 10000 3.1 60 06:35 27.03.2020
710 Clear 2 1026 74 10000 3.6 50 04:59 27.03.2020
711 Clear 2 1026 69 10000 4.1 50 02:46 27.03.2020
712 Clear 3 1026 64 10000 4.1 50 01:23 27.03.2020
713 Clear 4 1026 69 10000 3.6 60 00:53 27.03.2020
714 Clear 4 1026 69 10000 3.1 60 00:32 27.03.2020
715 Clear 4 1026 69 10000 4.1 70 23:44 26.03.2020
716 Clear 4 1026 69 10000 4.1 60 23:24 26.03.2020
717 Clear 4 1027 74 10000 4.1 60 22:59 26.03.2020
718 Clear 4 1027 74 10000 4.1 60 22:59 26.03.2020
719 Clear 4 1027 74 10000 4.1 60 22:39 26.03.2020
720 Clear 4 1027 74 10000 4.1 60 22:20 26.03.2020
721 Clear 4 1027 74 10000 4.1 60 22:20 26.03.2020
722 Clear 4 1027 74 10000 4.1 60 21:59 26.03.2020
723 Clear 5 1027 69 10000 3.6 50 21:39 26.03.2020
724 Clear 5 1027 69 10000 3.6 50 21:21 26.03.2020
725 Clear 6 1027 60 10000 3.6 50 20:58 26.03.2020
726 Clear 6 1027 60 10000 3.6 50 20:38 26.03.2020
727 Clear 6 1027 60 10000 3.6 50 20:38 26.03.2020
728 Clear 6 1027 60 10000 3.6 50 20:20 26.03.2020
729 Clear 6 1027 60 10000 3.6 50 19:57 26.03.2020
730 Clear 7 1026 56 10000 3.6 50 19:39 26.03.2020
731 Clear 8 1026 52 10000 4.6 50 19:20 26.03.2020
732 Clear 8 1026 52 10000 4.6 50 18:58 26.03.2020
733 Clear 9 1026 45 10000 5.1 60 18:39 26.03.2020
734 Clear 9 1026 42 10000 5.7 60 18:21 26.03.2020
735 Clear 10 1026 31 10000 5.7 70 17:43 26.03.2020
736 Clear 10 1026 34 10000 6.7 70 17:19 26.03.2020
737 Clear 10 1026 31 10000 7.2 60 16:47 26.03.2020
738 Clear 10 1026 31 10000 7.2 60 16:28 26.03.2020
739 Clear 11 1026 31 10000 5.7 90 15:59 26.03.2020
740 Clear 11 1027 29 10000 5.1 90 15:41 26.03.2020
741 Clear 11 1027 29 10000 5.7 90 15:22 26.03.2020
742 Clear 11 1027 29 10000 5.7 90 14:58 26.03.2020
743 Clear 10 1027 29 10000 6.2 110 14:39 26.03.2020
744 Clear 10 1027 27 10000 6.7 80 14:19 26.03.2020
745 Clear 10 1028 27 10000 5.7 100 13:45 26.03.2020
746 Clear 9 1028 29 10000 6.2 90 13:24 26.03.2020
747 Clear 9 1028 29 10000 6.2 100 12:59 26.03.2020
748 Clear 9 1028 29 10000 6.2 100 12:38 26.03.2020
749 Clear 9 1028 29 10000 6.7 100 12:20 26.03.2020
750 Clear 9 1028 29 10000 7.2 90 11:46 26.03.2020
751 Clear 8 1029 31 10000 6.2 100 11:22 26.03.2020
752 Clear 8 1029 31 10000 5.7 100 10:57 26.03.2020
753 Clear 7 1029 31 10000 5.7 100 10:39 26.03.2020
754 Clear 7 1029 33 10000 5.1 100 10:19 26.03.2020
755 Clear 6 1029 35 10000 5.1 110 09:44 26.03.2020
756 Clear 5 1029 38 10000 4.1 110 09:21 26.03.2020
757 Clear 4 1029 44 10000 4.1 100 08:57 26.03.2020
758 Clear 4 1029 44 10000 4.1 100 08:38 26.03.2020
759 Clear 3 1029 44 10000 4.1 100 08:19 26.03.2020
760 Clear 2 1029 51 10000 3.6 80 07:45 26.03.2020
761 Clear 2 1028 50 10000 4.1 90 07:23 26.03.2020
762 Clear 2 1028 50 10000 4.1 90 06:57 26.03.2020
763 Clear 1 1028 89 10000 3.6 80 06:32 26.03.2020
764 Clear 1 1028 58 10000 3.6 70 05:29 26.03.2020
765 Clear 1 1028 92 10000 3.1 70 03:45 26.03.2020
766 Clear 2 1029 92 10000 3.1 70 02:57 26.03.2020
767 Clouds 2 1029 50 10000 3.6 80 01:51 26.03.2020
768 Clouds 3 1029 51 10000 3.1 80 01:18 26.03.2020
769 Clouds 3 1029 51 10000 3.1 70 00:30 26.03.2020
770 Clouds 5 1029 44 10000 3.6 90 23:42 25.03.2020
771 Clouds 5 1029 44 10000 3.6 90 23:24 25.03.2020
772 Clouds 5 1029 44 10000 3.6 90 22:42 25.03.2020
773 Clouds 5 1029 44 10000 2.6 90 22:22 25.03.2020
774 Clouds 5 1029 44 10000 2.6 90 21:59 25.03.2020
775 Clouds 5 1029 44 10000 2.1 80 21:41 25.03.2020
776 Clouds 5 1029 44 10000 2.6 70 21:23 25.03.2020
777 Clouds 5 1029 44 10000 2.6 70 20:57 25.03.2020
778 Clouds 6 1029 38 10000 2.6 60 20:38 25.03.2020
779 Clouds 6 1029 38 10000 2.6 60 20:38 25.03.2020
780 Clouds 7 1029 35 10000 2.1 60 20:18 25.03.2020
781 Clouds 8 1029 30 10000 2.1 90 19:55 25.03.2020
782 Clouds 8 1029 30 10000 2.1 90 19:36 25.03.2020
783 Clouds 8 1029 30 10000 3.1 80 19:18 25.03.2020
784 Clouds 9 1029 24 10000 3.1 100 18:42 25.03.2020
785 Clouds 9 1029 24 10000 4.6 100 18:24 25.03.2020
786 Clouds 10 1029 23 10000 4.1 90 17:58 25.03.2020
787 Clouds 10 1029 23 10000 4.1 90 17:40 25.03.2020
788 Clouds 10 1029 21 10000 5.7 100 17:21 25.03.2020
789 Clouds 11 1029 21 10000 5.1 100 16:56 25.03.2020
790 Clouds 11 1029 21 10000 5.1 100 16:38 25.03.2020
791 Clouds 11 1029 25 10000 5.7 90 16:20 25.03.2020
792 Clouds 10 1030 20 10000 5.7 110 15:42 25.03.2020
793 Clouds 10 1030 18 10000 6.2 140 15:21 25.03.2020
794 Clouds 11 1030 21 10000 6.7 110 14:57 25.03.2020
795 Clouds 11 1030 21 10000 6.7 110 14:57 25.03.2020
796 Clouds 10 1030 21 10000 6.7 110 14:39 25.03.2020
797 Clouds 10 1030 21 10000 6.7 110 14:39 25.03.2020
798 Clouds 10 1030 21 10000 6.7 110 14:39 25.03.2020
799 Clouds 10 1031 25 10000 5.7 100 14:19 25.03.2020
800 Clouds 9 1031 27 10000 3.6 110 13:44 25.03.2020
801 Clouds 9 1032 29 10000 4.1 120 13:24 25.03.2020
802 Clouds 8 1032 26 10000 5.1 130 12:39 25.03.2020
803 Clouds 8 1032 28 10000 6.2 150 12:21 25.03.2020
804 Clouds 7 1032 30 10000 6.2 150 11:59 25.03.2020
805 Clouds 7 1032 30 10000 6.2 150 11:40 25.03.2020
806 Clouds 7 1033 28 10000 7.2 160 11:21 25.03.2020
807 Clouds 6 1033 28 10000 7.2 160 10:58 25.03.2020
808 Clouds 6 1033 30 10000 6.7 120 10:40 25.03.2020
809 Clouds 6 1033 30 10000 5.1 120 10:18 25.03.2020
810 Clouds 5 1033 30 10000 5.1 120 09:56 25.03.2020
811 Clouds 4 1033 35 10000 5.7 140 09:38 25.03.2020
812 Clouds 4 1033 35 10000 3.1 150 09:20 25.03.2020
813 Clouds 3 1033 40 10000 3.1 140 08:42 25.03.2020
814 Clear 2 1033 43 10000 4.1 140 08:24 25.03.2020
815 Clear 2 1033 43 10000 4.1 140 07:57 25.03.2020
816 Clear 0 1033 87 10000 3.6 140 07:38 25.03.2020
817 Clear -1 1033 54 10000 3.1 130 07:18 25.03.2020
818 Clear -2 1033 58 10000 3.1 130 06:42 25.03.2020
819 Clear -2 1033 58 10000 2.6 120 06:23 25.03.2020
820 Clear -1 1033 54 10000 2.6 110 05:47 25.03.2020
821 Clear 0 1033 88 10000 2.6 130 04:46 25.03.2020
822 Clear 1 1033 43 10000 3.1 130 03:58 25.03.2020
823 Clear 1 1033 43 10000 3.1 130 03:34 25.03.2020
824 Clouds 2 1033 43 10000 5.7 140 01:41 25.03.2020
825 Clouds 3 1033 40 10000 4.6 150 00:51 25.03.2020
826 Clouds 3 1033 40 10000 4.6 150 00:32 25.03.2020
827 Clouds 4 1033 35 10000 3.6 160 23:59 24.03.2020
828 Clouds 4 1033 35 10000 3.6 160 23:40 24.03.2020
829 Clouds 4 1033 35 10000 4.1 140 23:21 24.03.2020
830 Clouds 4 1033 35 10000 4.6 140 22:55 24.03.2020
831 Clouds 4 1033 35 10000 4.6 140 22:36 24.03.2020
832 Clouds 4 1033 38 10000 5.1 130 22:18 24.03.2020
833 Clouds 5 1033 35 10000 5.7 130 21:43 24.03.2020
834 Clouds 4 1033 38 10000 5.1 140 21:19 24.03.2020
835 Clouds 4 1033 38 10000 5.1 140 20:59 24.03.2020
836 Clouds 5 1033 35 10000 5.1 130 20:41 24.03.2020
837 Clear 6 1033 38 10000 5.1 120 20:23 24.03.2020
838 Clear 6 1033 35 10000 4.6 120 19:54 24.03.2020
839 Clear 6 1033 35 10000 4.6 120 19:36 24.03.2020
840 Clear 6 1033 33 10000 4.6 120 19:18 24.03.2020
841 Clear 7 1033 30 10000 5.1 150 18:54 24.03.2020
842 Clear 7 1033 30 10000 5.1 150 18:36 24.03.2020
843 Clear 8 1033 30 10000 5.7 140 18:18 24.03.2020
844 Clear 8 1033 26 10000 5.7 140 17:41 24.03.2020
845 Clear 8 1033 26 10000 6.7 140 17:22 24.03.2020
846 Clear 8 1033 28 10000 6.2 140 16:57 24.03.2020
847 Clear 9 1033 28 10000 6.2 140 16:39 24.03.2020
848 Clear 9 1034 24 10000 6.2 140 16:20 24.03.2020
849 Clear 9 1034 26 10000 4.6 140 15:55 24.03.2020
850 Clear 9 1034 26 10000 4.6 140 15:37 24.03.2020
851 Clear 9 1034 26 10000 5.1 140 15:19 24.03.2020
852 Clear 9 1034 28 10000 5.7 150 14:42 24.03.2020
853 Clouds 8 1034 26 10000 6.2 140 14:18 24.03.2020
854 Clouds 8 1035 28 10000 6.7 150 13:42 24.03.2020
855 Clouds 8 1035 28 10000 7.2 140 13:23 24.03.2020
856 Clouds 7 1035 33 10000 7.7 140 12:54 24.03.2020
857 Clouds 7 1035 33 10000 7.7 140 12:36 24.03.2020
858 Clouds 7 1035 30 10000 6.7 150 12:18 24.03.2020
859 Clouds 6 1036 33 10000 8.7 160 11:39 24.03.2020
860 Clouds 6 1036 35 10000 8.2 150 11:19 24.03.2020
861 Clouds 6 1036 38 10000 8.2 150 10:43 24.03.2020
862 Clouds 6 1036 38 10000 8.2 150 10:43 24.03.2020
863 Clouds 5 1036 41 10000 6.2 160 10:20 24.03.2020
864 Clouds 4 1036 41 10000 6.2 160 09:59 24.03.2020
865 Clouds 4 1036 38 10000 6.7 150 09:40 24.03.2020
866 Clouds 3 1036 40 10000 6.7 150 09:22 24.03.2020
867 Clouds 2 1036 43 10000 4.6 150 08:39 24.03.2020
868 Clouds 1 1036 47 10000 4.1 150 08:20 24.03.2020
869 Clouds 0 1036 57 10000 4.1 140 07:48 24.03.2020
870 Clouds -1 1036 54 10000 3.6 140 07:25 24.03.2020
871 Clouds -1 1036 54 10000 3.6 140 06:58 24.03.2020
872 Clouds -2 1036 54 10000 3.1 140 06:32 24.03.2020
873 Clouds -1 1036 57 10000 3.1 150 05:27 24.03.2020
874 Clouds -1 1036 54 10000 3.1 140 04:31 24.03.2020
875 Clouds -1 1036 60 10000 3.6 150 03:19 24.03.2020
876 Clear 0 1036 47 10000 3.6 160 01:50 24.03.2020
877 Clear 0 1036 58 10000 2.6 140 00:51 24.03.2020
878 Clear 0 1036 58 10000 3.1 140 00:26 24.03.2020
879 Clear 0 1036 50 10000 4.1 130 23:49 23.03.2020
880 Clear 1 1036 50 10000 4.1 130 23:29 23.03.2020
881 Clear 0 1036 50 10000 4.1 130 22:59 23.03.2020
882 Clear 0 1037 50 10000 3.6 120 22:40 23.03.2020
883 Clear 1 1037 43 10000 3.1 120 22:22 23.03.2020
884 Clear 1 1037 43 10000 3.1 120 21:54 23.03.2020
885 Clear 1 1037 43 10000 4.1 120 21:36 23.03.2020
886 Clear 2 1037 40 10000 3.6 120 21:18 23.03.2020
887 Clear 2 1036 40 10000 4.1 130 20:42 23.03.2020
888 Clear 2 1036 40 10000 4.1 130 20:23 23.03.2020
889 Clouds 3 1036 38 10000 3.6 110 19:55 23.03.2020
890 Clouds 4 1036 38 10000 3.6 110 19:37 23.03.2020
891 Clouds 4 1036 35 10000 4.6 110 19:19 23.03.2020
892 Clouds 5 1036 35 10000 5.1 110 18:43 23.03.2020
893 Clouds 5 1036 33 10000 4.6 120 18:24 23.03.2020
894 Clouds 6 1036 33 10000 5.7 130 17:59 23.03.2020
895 Clouds 7 1036 33 10000 5.7 130 17:40 23.03.2020
896 Clouds 7 1036 28 10000 5.7 120 17:19 23.03.2020
897 Clouds 7 1037 28 10000 5.1 130 16:43 23.03.2020
898 Clouds 7 1037 28 10000 5.1 130 16:25 23.03.2020
899 Clouds 7 1037 28 10000 4.6 140 16:25 23.03.2020
900 Clouds 7 1037 28 10000 4.6 140 15:58 23.03.2020
901 Clouds 7 1037 26 10000 5.7 140 15:39 23.03.2020
902 Clouds 7 1037 28 10000 6.7 120 15:18 23.03.2020
903 Clouds 7 1038 26 10000 6.7 140 14:37 23.03.2020
904 Clear 7 1038 28 10000 5.7 120 14:19 23.03.2020
905 Clear 7 1038 30 10000 6.7 140 13:57 23.03.2020
906 Clear 7 1038 30 10000 6.7 140 13:38 23.03.2020
907 Clear 6 1038 30 10000 7.2 150 13:20 23.03.2020
908 Clear 6 1038 30 10000 7.2 140 12:43 23.03.2020
909 Clear 6 1039 32 10000 7.2 150 12:23 23.03.2020
910 Clear 5 1039 32 10000 5.7 130 11:56 23.03.2020
911 Clear 5 1039 32 10000 5.7 130 11:37 23.03.2020
912 Clear 5 1039 38 10000 7.7 140 11:19 23.03.2020
913 Clear 4 1039 38 10000 6.7 160 10:56 23.03.2020
914 Clear 4 1039 38 10000 6.7 160 10:36 23.03.2020
915 Clear 4 1039 35 10000 7.2 160 10:18 23.03.2020
916 Clear 3 1040 40 10000 5.1 150 09:42 23.03.2020
917 Clear 2 1040 43 10000 4.6 140 09:20 23.03.2020
918 Clear 0 1040 55 10000 3.6 130 08:40 23.03.2020
919 Clear 0 1040 63 10000 3.6 130 08:20 23.03.2020
920 Clear -1 1040 63 10000 3.6 130 07:58 23.03.2020
921 Clear -2 1040 68 10000 2.6 100 07:37 23.03.2020
922 Clear -2 1040 68 10000 2.1 110 07:18 23.03.2020
923 Clear -3 1039 73 10000 2.1 110 06:48 23.03.2020
924 Clear -3 1039 73 10000 2.1 110 05:50 23.03.2020
925 Clear -2 1039 68 10000 2.1 90 04:57 23.03.2020
926 Clear -2 1038 63 10000 2.6 100 03:24 23.03.2020
927 Clear -1 1038 69 10000 4.6 120 01:50 23.03.2020
928 Clear 0 1039 70 10000 4.6 110 00:58 23.03.2020
929 Clear 0 1039 70 10000 4.6 110 00:36 23.03.2020
930 Clear 0 1039 59 10000 5.1 100 23:47 22.03.2020
931 Clear 1 1038 55 10000 4.6 100 23:25 22.03.2020
932 Clear 1 1038 51 10000 4.6 90 22:45 22.03.2020
933 Clear 1 1038 51 10000 4.1 90 22:24 22.03.2020
934 Clear 1 1038 47 10000 3.6 80 21:56 22.03.2020
935 Clear 1 1038 47 10000 3.6 80 21:37 22.03.2020
936 Clear 2 1038 44 10000 4.6 90 21:19 22.03.2020
937 Clear 2 1038 44 10000 4.1 90 20:46 22.03.2020
938 Clear 2 1038 41 10000 3.6 80 20:25 22.03.2020
939 Clear 3 1038 41 10000 3.6 80 19:58 22.03.2020
940 Clear 3 1037 41 10000 4.1 90 19:40 22.03.2020
941 Clear 4 1037 38 10000 4.6 90 19:20 22.03.2020
942 Clear 4 1037 38 10000 4.6 90 18:59 22.03.2020
943 Clear 5 1037 38 10000 5.7 90 18:41 22.03.2020
944 Clear 5 1037 38 10000 5.7 90 18:41 22.03.2020
945 Clear 5 1036 41 10000 5.7 90 18:22 22.03.2020
946 Clouds 6 1036 41 10000 6.2 100 17:59 22.03.2020
947 Clouds 6 1036 41 10000 6.2 100 17:39 22.03.2020
948 Clouds 6 1036 41 10000 5.7 100 17:21 22.03.2020
949 Clouds 6 1036 45 10000 6.2 90 16:58 22.03.2020
950 Clouds 6 1036 45 10000 6.2 90 16:40 22.03.2020
951 Clouds 7 1036 42 10000 5.7 90 16:21 22.03.2020
952 Clouds 7 1036 42 10000 5.7 90 15:57 22.03.2020
953 Clear 7 1036 45 10000 6.2 80 15:39 22.03.2020
954 Clear 7 1037 41 10000 7.2 110 14:47 22.03.2020
955 Clear 6 1037 45 10000 6.7 100 14:19 22.03.2020
956 Clear 7 1037 45 10000 6.7 100 13:57 22.03.2020
957 Clear 6 1037 41 10000 7.7 130 13:39 22.03.2020
958 Clear 6 1037 41 10000 7.2 110 13:19 22.03.2020
959 Clouds 6 1037 41 10000 6.2 100 12:44 22.03.2020
960 -273 0 0 0 0 0 12:20 22.03.2020
961 Clouds 5 1038 44 10000 7.2 110 11:57 22.03.2020
962 Clouds 5 1038 44 10000 7.2 110 11:39 22.03.2020
963 Clouds 5 1038 44 10000 8.2 100 11:20 22.03.2020
964 Clouds 4 1038 48 10000 8.2 110 10:43 22.03.2020
965 Clouds 4 1038 51 10000 8.2 90 10:24 22.03.2020
966 Clouds 4 1037 48 10000 6.7 100 09:54 22.03.2020
967 Clouds 3 1037 48 10000 6.7 100 09:36 22.03.2020
968 Clouds 3 1037 59 10000 4.6 80 09:18 22.03.2020
969 Clear 2 1038 64 10000 4.1 80 08:41 22.03.2020
970 Clear 1 1037 69 10000 3.1 70 08:21 22.03.2020
971 Clear 0 1037 72 10000 2.1 60 07:50 22.03.2020
972 Clear -1 1037 74 10000 2.1 50 07:19 22.03.2020
973 Clear -1 1036 72 10000 3.6 110 05:56 22.03.2020
974 Clear -1 1036 72 10000 4.1 100 05:21 22.03.2020
975 Clear -1 1035 68 10000 2.6 80 02:58 22.03.2020
976 Clear -1 1035 59 10000 3.1 100 01:22 22.03.2020
977 Clear -1 1035 59 10000 3.6 110 00:41 22.03.2020
978 Clear -1 1035 64 10000 4.1 110 00:23 22.03.2020
979 Clear 0 1035 64 10000 2.6 80 23:42 21.03.2020
980 Clear 0 1035 64 10000 2.6 80 23:19 21.03.2020
981 Clear 0 1035 64 10000 2.6 70 22:39 21.03.2020
982 Clear 0 1035 64 10000 2.6 70 22:39 21.03.2020
983 Clear 0 1035 64 10000 3.1 60 22:21 21.03.2020
984 Clear 1 1034 64 10000 3.1 60 21:59 21.03.2020
985 Clear 1 1034 64 10000 3.1 60 21:41 21.03.2020
986 Clear 1 1034 64 10000 3.1 60 21:22 21.03.2020
987 Clear 1 1034 64 10000 3.1 60 21:22 21.03.2020
988 Clear 2 1034 64 10000 3.1 50 20:56 21.03.2020
989 Clear 2 1034 64 10000 3.1 50 20:38 21.03.2020
990 Clear 2 1034 64 10000 3.1 50 20:19 21.03.2020
991 Clear 3 1033 59 10000 4.1 50 19:43 21.03.2020
992 Clear 3 1033 59 10000 4.1 50 19:25 21.03.2020
993 Clear 3 1033 55 10000 4.1 50 19:25 21.03.2020
994 Clear 4 1033 55 10000 6.7 60 18:57 21.03.2020
995 Clear 4 1033 55 10000 6.7 60 18:38 21.03.2020
996 Clouds 5 1033 52 10000 7.2 60 18:20 21.03.2020
997 Clouds 5 1033 52 10000 7.2 60 18:20 21.03.2020
998 Clouds 5 1032 52 10000 7.2 50 17:55 21.03.2020
999 Clouds 6 1032 52 10000 7.2 50 17:37 21.03.2020
1000 Clouds 6 1032 52 10000 7.2 50 17:37 21.03.2020
1001 Clouds 6 1032 48 10000 8.2 50 17:18 21.03.2020
1002 Clouds 6 1032 42 10000 7.7 70 16:41 21.03.2020
1003 Clouds 7 1032 39 10000 8.7 70 16:21 21.03.2020
1004 Clouds 7 1032 42 10000 7.2 60 15:57 21.03.2020
1005 Clouds 7 1032 42 10000 7.2 60 15:39 21.03.2020
1006 Clouds 7 1033 48 10000 6.7 80 15:20 21.03.2020
1007 Clouds 7 1033 48 10000 7.2 60 14:55 21.03.2020
1008 Clouds 7 1033 48 10000 7.2 60 14:37 21.03.2020
1009 Clouds 7 1033 45 10000 7.2 50 14:18 21.03.2020
1010 Clouds 7 1033 45 10000 7.2 50 13:57 21.03.2020
1011 Clouds 7 1033 48 10000 7.2 80 13:38 21.03.2020
1012 Clouds 6 1033 52 10000 7.7 60 13:19 21.03.2020
1013 Clouds 7 1033 56 10000 6.2 50 12:41 21.03.2020
1014 Clear 6 1034 45 10000 6.2 90 12:21 21.03.2020
1015 Clouds 6 1034 45 10000 8.7 70 11:59 21.03.2020
1016 Clouds 6 1034 45 10000 8.7 70 11:39 21.03.2020
1017 Clouds 6 1034 45 10000 8.7 70 11:39 21.03.2020
1018 Clouds 5 1034 52 10000 7.7 70 11:20 21.03.2020
1019 Clouds 5 1034 52 10000 9.3 70 10:58 21.03.2020
1020 Clouds 5 1034 52 10000 9.3 70 10:40 21.03.2020
1021 Clouds 5 1033 56 10000 8.2 70 10:22 21.03.2020
1022 Clouds 4 1033 65 10000 7.7 80 09:59 21.03.2020
1023 Clouds 4 1033 65 10000 7.7 80 09:39 21.03.2020
1024 Clouds 4 1033 55 10000 5.1 70 09:21 21.03.2020
1025 Clouds 4 1033 55 10000 5.1 70 08:56 21.03.2020
1026 Clouds 3 1033 55 10000 4.1 60 08:38 21.03.2020
1027 Clouds 3 1033 79 10000 3.6 40 08:19 21.03.2020
1028 Clouds 2 1032 86 10000 2.1 20 07:39 21.03.2020
1029 Clouds 2 1032 79 10000 2.1 30 07:20 21.03.2020
1030 Clouds 2 1032 79 10000 2.1 30 07:20 21.03.2020
1031 Clouds 1 1032 80 10000 2.1 50 06:45 21.03.2020
1032 Clouds 1 1032 80 10000 3.1 40 06:25 21.03.2020
1033 Clouds 1 1032 74 10000 3.6 20 05:41 21.03.2020
1034 Clear 1 1031 82 10000 3.1 20 04:34 21.03.2020
1035 Clear 1 1031 82 10000 2.6 10 02:39 21.03.2020
1036 Clear 1 1031 63 10000 2.6 10 01:57 21.03.2020
1037 Clear 1 1031 64 10000 2.6 20 01:29 21.03.2020
1038 Clear 2 1031 74 10000 2.6 20 00:47 21.03.2020
1039 Clear 2 1031 69 10000 3.6 20 00:24 21.03.2020
1040 Clear 2 1031 69 10000 4.6 20 23:46 20.03.2020
1041 Clear 3 1031 64 10000 4.1 20 23:24 20.03.2020
1042 Clear 3 1030 64 10000 4.1 20 22:55 20.03.2020
1043 Clear 3 1030 64 10000 4.1 20 22:36 20.03.2020
1044 Clear 3 1030 60 10000 3.6 20 22:18 20.03.2020
1045 Clear 4 1030 69 10000 4.1 20 21:54 20.03.2020
1046 Clear 4 1030 69 10000 4.1 20 21:36 20.03.2020
1047 Clear 4 1030 60 10000 4.1 10 21:18 20.03.2020
1048 Clouds 5 1029 75 10000 3.1 20 20:41 20.03.2020
1049 Clouds 5 1029 75 10000 3.1 20 20:41 20.03.2020
1050 Clouds 5 1029 80 10000 3.1 10 20:21 20.03.2020
1051 Clouds 6 1029 75 10000 2.6 10 19:59 20.03.2020
1052 Clouds 6 1029 75 10000 2.6 10 19:40 20.03.2020
1053 Clouds 6 1029 70 10000 3.6 20 19:18 20.03.2020
1054 Clouds 7 1028 70 10000 4.6 30 18:54 20.03.2020
1055 Clouds 7 1028 70 10000 4.6 30 18:36 20.03.2020
1056 Clouds 7 1028 65 10000 4.6 30 18:18 20.03.2020
1057 Clouds 7 1028 65 10000 4.6 30 18:18 20.03.2020
1058 Clouds 8 1028 61 10000 4.6 20 17:39 20.03.2020
1059 Clouds 8 1028 61 10000 4.1 20 17:21 20.03.2020
1060 Clouds 8 1027 54 10000 5.1 30 16:57 20.03.2020
1061 Clouds 9 1027 54 10000 5.1 30 16:39 20.03.2020
1062 Clouds 9 1027 57 10000 4.1 20 16:18 20.03.2020
1063 Clouds 9 1027 61 10000 3.6 350 15:42 20.03.2020
1064 Clouds 9 1027 57 10000 3.6 20 15:21 20.03.2020
1065 Clouds 9 1027 57 10000 3.6 20 14:56 20.03.2020
1066 Clouds 9 1027 57 10000 4.1 320 14:37 20.03.2020
1067 Clouds 9 1028 61 10000 3.6 330 14:18 20.03.2020
1068 Clouds 9 1028 61 10000 3.1 320 13:43 20.03.2020
1069 Clouds 9 1027 66 10000 3.6 320 13:19 20.03.2020
1070 Clouds 9 1028 70 10000 4.6 320 12:41 20.03.2020
1071 Clouds 8 1027 75 10000 3.6 340 12:23 20.03.2020
1072 Clouds 8 1028 70 10000 4.1 330 11:59 20.03.2020
1073 Clouds 8 1028 70 10000 4.1 330 11:38 20.03.2020
1074 Clouds 7 1028 70 10000 3.1 320 11:19 20.03.2020
1075 Clouds 7 1028 75 10000 3.6 20 10:42 20.03.2020
1076 Clouds 7 1028 75 10000 4.1 360 10:21 20.03.2020
1077 Clouds 7 1028 75 10000 4.1 360 09:59 20.03.2020
1078 Clouds 6 1028 75 10000 3.6 350 09:41 20.03.2020
1079 Clouds 6 1027 81 10000 2.6 360 09:19 20.03.2020
1080 Clouds 6 1027 75 10000 2.1 20 08:43 20.03.2020
1081 Clouds 5 1027 75 10000 1.5 10 08:22 20.03.2020
1082 Clouds 5 1027 80 10000 2.1 20 07:57 20.03.2020
1083 Clouds 5 1027 80 10000 2.1 20 07:38 20.03.2020
1084 Clouds 5 1027 80 10000 2.1 30 07:19 20.03.2020
1085 Clouds 5 1027 80 10000 2.1 20 06:42 20.03.2020
1086 Clouds 5 1026 80 10000 2.6 20 04:57 20.03.2020
1087 Clouds 5 1026 80 10000 2.6 20 04:27 20.03.2020
1088 Clouds 5 1026 80 10000 1.5 360 02:43 20.03.2020
1089 Clouds 5 1026 80 10000 1.5 350 01:50 20.03.2020
1090 Clouds 5 1026 80 10000 1.5 320 00:38 20.03.2020
1091 Clouds 5 1027 80 10000 2.1 320 23:58 19.03.2020
1092 Clouds 5 1027 80 10000 2.1 320 23:40 19.03.2020
1093 Clouds 6 1027 80 10000 2.1 340 23:19 19.03.2020
1094 Clouds 6 1027 80 10000 2.1 340 23:19 19.03.2020
1095 Clouds 6 1027 86 10000 1.5 360 22:40 19.03.2020
1096 Clouds 6 1027 86 10000 1.5 330 22:22 19.03.2020
1097 Clouds 6 1027 86 10000 1.5 330 21:58 19.03.2020
1098 Clouds 6 1027 80 10000 2.1 310 21:38 19.03.2020
1099 Clouds 6 1026 75 10000 2.6 320 21:18 19.03.2020
1100 Clouds 7 1026 75 10000 2.6 330 20:43 19.03.2020
1101 Clouds 7 1026 75 10000 2.6 330 20:43 19.03.2020
1102 Clouds 7 1026 70 10000 2.1 330 20:25 19.03.2020
1103 Clouds 7 1026 70 10000 2.1 330 19:59 19.03.2020
1104 Clouds 7 1026 70 10000 1.5 340 19:39 19.03.2020
1105 Clouds 8 1026 70 10000 2.1 320 19:20 19.03.2020
1106 Clouds 8 1026 61 10000 2.6 320 18:58 19.03.2020
1107 Clouds 9 1026 61 10000 2.6 320 18:40 19.03.2020
1108 Clouds 9 1026 57 10000 3.1 320 18:22 19.03.2020
1109 Clouds 9 1026 57 10000 3.1 320 18:22 19.03.2020
1110 Clouds 9 1026 61 10000 4.1 330 17:54 19.03.2020
1111 Clouds 10 1026 61 10000 4.1 330 17:36 19.03.2020
1112 Clouds 10 1026 57 10000 1.5 360 17:18 19.03.2020
1113 Clouds 10 1026 57 10000 2.6 290 16:41 19.03.2020
1114 Clouds 10 1026 61 10000 1.5 330 16:21 19.03.2020
1115 Clouds 10 1026 57 10000 2.1 310 15:42 19.03.2020
1116 Clouds 10 1026 53 10000 2.1 320 15:23 19.03.2020
1117 Clouds 10 1026 57 10000 1.5 0 14:43 19.03.2020
1118 Clouds 10 1026 66 10000 2.1 0 14:23 19.03.2020
1119 Clouds 10 1026 66 10000 2.1 0 13:59 19.03.2020
1120 Clouds 10 1026 66 10000 3.1 310 13:37 19.03.2020
1121 Clouds 9 1026 66 10000 2.1 300 13:18 19.03.2020
1122 Clouds 9 1026 66 10000 2.1 300 13:18 19.03.2020
1123 Clouds 9 1026 70 10000 2.1 350 12:41 19.03.2020
1124 Clouds 9 1026 70 10000 2.1 320 12:23 19.03.2020
1125 Clouds 9 1026 70 10000 1 0 11:58 19.03.2020
1126 Clouds 8 1026 70 10000 1 0 11:40 19.03.2020
1127 Clouds 8 1026 70 10000 1.5 20 11:22 19.03.2020
1128 Clouds 7 1026 75 10000 1 0 10:43 19.03.2020
1129 Rain 7 1026 87 10000 1.5 0 10:22 19.03.2020
1130 Rain 7 1026 81 10000 1.5 330 09:58 19.03.2020
1131 Rain 7 1026 81 10000 1.5 330 09:39 19.03.2020
1132 Clouds 7 1025 87 10000 0.28 186 09:19 19.03.2020
1133 Clouds 6 1025 93 10000 1 0 08:46 19.03.2020
1134 Clouds 6 1025 93 10000 1 0 08:22 19.03.2020
1135 Clouds 6 1025 93 10000 1 0 07:47 19.03.2020
1136 Drizzle 6 1025 93 10000 1.5 350 07:29 19.03.2020
1137 Drizzle 6 1024 93 5000 2.1 20 06:51 19.03.2020
1138 Drizzle 6 1024 93 5000 2.6 360 05:53 19.03.2020
1139 Clouds 6 1024 93 10000 2.6 350 05:22 19.03.2020
1140 Drizzle 6 1023 100 9000 2.1 10 04:41 19.03.2020
1141 Drizzle 7 1023 93 5000 2.1 340 03:39 19.03.2020
1142 Drizzle 8 1023 93 3800 2.1 310 01:45 19.03.2020
1143 Mist 9 1023 93 5000 2.1 270 00:38 19.03.2020
1144 Clouds 9 1023 93 6000 1 260 00:18 19.03.2020
1145 Drizzle 9 1023 93 4800 1.5 290 23:41 18.03.2020
1146 Drizzle 9 1023 93 4800 3.1 320 23:21 18.03.2020
1147 Drizzle 9 1023 93 5000 4.1 250 22:42 18.03.2020
1148 Drizzle 9 1023 93 8000 3.6 240 22:22 18.03.2020
1149 Drizzle 10 1023 93 4600 4.6 250 21:55 18.03.2020
1150 Drizzle 10 1023 93 4600 4.6 250 21:37 18.03.2020
1151 Drizzle 10 1023 93 5000 5.1 270 21:19 18.03.2020
1152 Drizzle 10 1023 93 5000 5.1 270 20:55 18.03.2020
1153 Drizzle 10 1023 87 10000 4.1 270 20:37 18.03.2020
1154 Rain 10 1023 93 10000 2.6 260 20:18 18.03.2020
1155 Drizzle 11 1023 93 4000 2.6 270 19:40 18.03.2020
1156 Drizzle 11 1023 81 10000 3.1 300 19:21 18.03.2020
1157 Drizzle 11 1023 81 10000 3.1 300 19:21 18.03.2020
1158 Clouds 11 1022 76 10000 3.1 310 18:57 18.03.2020
1159 Clouds 11 1022 76 10000 2.6 290 18:38 18.03.2020
1160 Clouds 12 1022 76 10000 2.6 290 18:19 18.03.2020
1161 Clouds 12 1022 76 10000 2.6 290 18:19 18.03.2020
1162 Clouds 12 1022 66 10000 3.6 270 17:55 18.03.2020
1163 Clouds 12 1022 66 10000 3.6 270 17:37 18.03.2020
1164 Clouds 12 1022 66 10000 4.6 270 17:19 18.03.2020
1165 Clouds 12 1022 71 10000 3.6 270 16:42 18.03.2020
1166 Clouds 12 1022 66 10000 4.6 260 16:21 18.03.2020
1167 Clouds 12 1023 66 10000 4.6 260 15:58 18.03.2020
1168 Clouds 12 1023 66 10000 4.6 260 15:38 18.03.2020
1169 Clouds 12 1022 66 10000 4.1 250 15:20 18.03.2020
1170 Clouds 12 1022 66 10000 4.1 240 14:43 18.03.2020
1171 Clouds 12 1023 66 10000 5.1 240 14:21 18.03.2020
1172 Clouds 12 1023 66 10000 7.7 240 13:42 18.03.2020
1173 Clouds 12 1023 66 10000 6.2 250 13:20 18.03.2020
1174 Clouds 12 1023 62 10000 5.1 230 12:57 18.03.2020
1175 Clouds 12 1023 62 10000 5.1 230 12:39 18.03.2020
1176 Clouds 12 1023 62 10000 6.2 230 12:19 18.03.2020
1177 Clouds 12 1023 58 10000 6.2 240 11:39 18.03.2020
1178 Clouds 11 1023 57 10000 6.2 240 11:20 18.03.2020
1179 Clouds 11 1023 57 10000 6.7 240 10:58 18.03.2020
1180 Clouds 11 1023 57 10000 6.7 240 10:38 18.03.2020
1181 Clouds 11 1023 57 10000 7.2 240 10:20 18.03.2020
1182 Clouds 10 1023 53 10000 6.7 230 09:43 18.03.2020
1183 Clouds 10 1023 57 10000 7.2 220 09:25 18.03.2020
1184 Clouds 9 1023 57 10000 7.2 220 08:57 18.03.2020
1185 Clouds 9 1022 57 10000 7.2 220 08:39 18.03.2020
1186 Clouds 9 1022 57 10000 7.2 220 08:39 18.03.2020
1187 Clouds 8 1023 61 10000 7.2 230 08:20 18.03.2020
1188 Clouds 8 1023 61 10000 6.7 220 07:46 18.03.2020
1189 Clouds 8 1023 61 10000 6.7 220 07:28 18.03.2020
1190 Clouds 7 1023 67 10000 6.2 230 06:44 18.03.2020
1191 Clouds 7 1023 67 10000 6.7 220 06:23 18.03.2020
1192 Clouds 7 1023 67 10000 5.7 220 05:35 18.03.2020
1193 Clouds 7 1023 65 10000 5.1 220 04:27 18.03.2020
1194 Clouds 7 1024 65 10000 4.6 210 02:48 18.03.2020
1195 Clouds 7 1025 65 10000 4.1 210 01:48 18.03.2020
1196 Clouds 8 1025 65 10000 3.1 220 01:27 18.03.2020
1197 Clouds 8 1025 70 10000 3.6 220 00:25 18.03.2020
1198 Clouds 8 1026 65 10000 3.6 230 23:57 17.03.2020
1199 Clouds 9 1026 65 10000 3.6 230 23:37 17.03.2020
1200 Clouds 9 1026 65 10000 3.6 220 23:18 17.03.2020
1201 Clouds 9 1026 61 10000 3.6 230 22:41 17.03.2020
1202 Clouds 9 1026 61 10000 3.6 220 22:22 17.03.2020
1203 Clouds 9 1026 66 10000 3.6 230 21:42 17.03.2020
1204 Clouds 9 1026 61 10000 3.1 230 21:22 17.03.2020
1205 Clouds 10 1026 57 10000 4.1 230 20:56 17.03.2020
1206 Clouds 10 1026 57 10000 4.1 230 20:37 17.03.2020
1207 Clouds 10 1026 57 10000 4.1 230 20:18 17.03.2020
1208 Clouds 11 1026 57 10000 4.1 230 19:41 17.03.2020
1209 Clouds 11 1026 57 10000 3.6 230 19:18 17.03.2020
1210 Clouds 11 1026 57 10000 4.6 230 18:56 17.03.2020
1211 Clouds 11 1026 57 10000 4.6 230 18:38 17.03.2020
1212 Clouds 11 1026 50 10000 4.1 240 18:20 17.03.2020
1213 Clouds 11 1026 50 10000 5.1 240 17:55 17.03.2020
1214 Clouds 12 1026 50 10000 5.1 240 17:36 17.03.2020
1215 Clouds 12 1026 46 10000 6.2 240 17:18 17.03.2020
1216 Clouds 12 1026 46 10000 6.7 230 16:41 17.03.2020
1217 Clouds 12 1026 46 10000 6.2 240 16:19 17.03.2020
1218 Clouds 12 1026 50 10000 5.7 240 15:44 17.03.2020
1219 Clouds 12 1026 46 10000 6.2 230 15:22 17.03.2020
1220 Clouds 12 1026 46 10000 5.1 240 14:44 17.03.2020
1221 Clouds 12 1026 46 10000 5.1 240 14:25 17.03.2020
1222 Clouds 12 1026 50 10000 6.7 240 13:58 17.03.2020
1223 Clouds 12 1026 50 10000 6.7 240 13:39 17.03.2020
1224 Clouds 12 1026 53 10000 6.7 250 13:21 17.03.2020
1225 Clouds 12 1026 50 10000 6.7 250 12:44 17.03.2020
1226 Clouds 11 1027 57 10000 6.7 230 12:24 17.03.2020
1227 Clouds 11 1026 62 10000 6.7 220 11:55 17.03.2020
1228 Clouds 11 1026 62 10000 6.7 220 11:37 17.03.2020
1229 Clouds 10 1027 66 10000 5.1 250 11:19 17.03.2020
1230 Clouds 9 1026 70 10000 6.2 250 10:54 17.03.2020
1231 Clouds 9 1026 70 10000 6.2 250 10:36 17.03.2020
1232 Clouds 9 1026 70 10000 5.1 250 10:18 17.03.2020
1233 Clouds 7 1026 81 10000 4.6 240 09:44 17.03.2020
1234 Clouds 7 1026 87 10000 3.6 250 09:20 17.03.2020
1235 Clouds 5 1026 93 10000 3.1 230 08:51 17.03.2020
1236 Clouds 3 1026 93 10000 1 200 08:24 17.03.2020
1237 Clouds 2 1026 95 10000 0.5 0 07:58 17.03.2020
1238 Clouds 2 1026 95 10000 0.5 0 07:40 17.03.2020
1239 Clouds 2 1025 95 10000 0.5 0 07:20 17.03.2020
1240 Fog 2 1025 95 10000 1 320 06:45 17.03.2020
1241 Clouds 2 1025 95 10000 0.5 0 06:24 17.03.2020
1242 Clear 2 1025 93 10000 1 0 05:18 17.03.2020
1243 Clear 3 1025 93 10000 0.5 170 03:26 17.03.2020
1244 Clear 4 1025 93 10000 0.5 0 01:50 17.03.2020
1245 Clear 3 1025 93 10000 0.5 0 01:30 17.03.2020
1246 Clear 3 1024 100 10000 1 320 00:51 17.03.2020
1247 Clear 3 1024 93 10000 0.5 0 23:52 16.03.2020
1248 Clear 3 1024 93 10000 0.5 0 23:34 16.03.2020
1249 Clear 4 1024 86 10000 0.9 257 22:55 16.03.2020
1250 Clear 4 1024 86 10000 0.9 257 22:37 16.03.2020
1251 Clear 5 1024 86 10000 0.5 0 22:19 16.03.2020
1252 Clear 5 1023 93 10000 1 320 21:43 16.03.2020
1253 Clear 5 1023 93 10000 1 330 21:25 16.03.2020
1254 Clear 5 1023 93 10000 1 330 20:58 16.03.2020
1255 Clear 6 1023 86 10000 1 310 20:38 16.03.2020
1256 Clear 6 1023 86 10000 1 310 20:38 16.03.2020
1257 Clouds 6 1023 86 10000 1.5 270 20:20 16.03.2020
1258 Clouds 7 1023 81 10000 1.5 290 19:44 16.03.2020
1259 Clouds 7 1022 75 10000 1.5 330 19:23 16.03.2020
1260 Clouds 8 1022 75 10000 3.6 320 18:57 16.03.2020
1261 Clouds 8 1022 75 10000 3.6 320 18:39 16.03.2020
1262 Clouds 9 1022 70 10000 4.6 300 18:19 16.03.2020
1263 Clouds 9 1021 66 10000 5.7 290 17:45 16.03.2020
1264 Clouds 10 1021 71 10000 4.6 310 17:25 16.03.2020
1265 Clouds 10 1021 71 10000 4.6 290 16:54 16.03.2020
1266 Clouds 11 1021 71 10000 4.6 290 16:36 16.03.2020
1267 Clouds 11 1020 66 10000 4.1 300 16:18 16.03.2020
1268 Clouds 11 1020 66 10000 5.7 310 15:42 16.03.2020
1269 Clouds 11 1020 66 10000 5.7 290 15:22 16.03.2020
1270 Clouds 11 1019 66 10000 5.7 300 14:45 16.03.2020
1271 Clouds 11 1019 62 10000 4.1 270 14:20 16.03.2020
1272 Clouds 11 1019 62 10000 5.1 280 13:45 16.03.2020
1273 Clouds 11 1019 62 10000 5.1 280 13:26 16.03.2020
1274 Clouds 11 1019 66 10000 5.7 290 12:57 16.03.2020
1275 Clouds 11 1019 66 10000 4.6 280 12:38 16.03.2020
1276 Clouds 10 1018 71 10000 5.7 270 12:19 16.03.2020
1277 Clouds 10 1018 76 10000 5.7 280 11:42 16.03.2020
1278 Clouds 10 1017 76 10000 4.6 270 11:23 16.03.2020
1279 Clouds 10 1017 71 10000 5.1 270 10:43 16.03.2020
1280 Clouds 10 1016 76 10000 5.1 270 10:24 16.03.2020
1281 Clouds 10 1016 66 10000 4.1 250 09:49 16.03.2020
1282 Clouds 10 1016 66 10000 4.1 250 09:30 16.03.2020
1283 Clouds 9 1015 66 10000 3.6 250 08:59 16.03.2020
1284 Clouds 9 1015 70 10000 4.6 220 08:39 16.03.2020
1285 Clouds 8 1015 70 10000 4.1 230 08:20 16.03.2020
1286 Clouds 7 1014 75 10000 4.1 220 07:41 16.03.2020
1287 Clouds 7 1014 70 10000 3.6 230 07:18 16.03.2020
1288 Clouds 7 1014 70 10000 3.6 230 06:28 16.03.2020
1289 Clouds 7 1013 65 10000 4.1 220 05:59 16.03.2020
1290 Clouds 9 1014 54 0 2.77 204 04:21 16.03.2020
1291 Clouds 10 1010 69 0 2.58 203 01:46 16.03.2020
1292 Clouds 10 1012 66 10000 3.1 220 00:45 16.03.2020
1293 Clouds 10 1012 66 10000 3.6 210 00:26 16.03.2020
1294 Clouds 10 1012 62 10000 4.1 210 23:40 15.03.2020
1295 Clouds 10 1012 57 10000 4.1 220 23:19 15.03.2020
1296 Clouds 11 1012 54 10000 6.2 210 22:42 15.03.2020
1297 Clouds 11 1012 54 10000 5.1 200 22:21 15.03.2020
1298 Clouds 11 1012 54 10000 6.2 190 21:39 15.03.2020
1299 Clouds 11 1011 54 10000 4.6 180 21:21 15.03.2020
1300 Clouds 11 1012 54 10000 4.6 180 20:58 15.03.2020
1301 Clouds 11 1012 54 10000 4.6 180 20:40 15.03.2020
1302 Clouds 11 1012 50 10000 5.7 180 20:19 15.03.2020
1303 Clouds 11 1012 50 10000 5.1 180 19:55 15.03.2020
1304 Clouds 12 1012 50 10000 5.1 180 19:37 15.03.2020
1305 Clouds 12 1012 50 10000 5.7 180 19:18 15.03.2020
1306 Clouds 12 1011 50 10000 5.7 190 18:42 15.03.2020
1307 Clouds 12 1011 50 10000 6.2 190 18:24 15.03.2020
1308 Clouds 12 1011 50 10000 6.2 190 17:59 15.03.2020
1309 Clouds 12 1011 50 10000 6.7 200 17:39 15.03.2020
1310 Clouds 13 1011 50 10000 7.7 200 17:20 15.03.2020
1311 Clouds 13 1011 50 10000 9.3 200 16:56 15.03.2020
1312 Clouds 13 1011 50 10000 9.3 200 16:37 15.03.2020
1313 Clouds 13 1011 47 10000 9.3 200 16:18 15.03.2020
1314 Clouds 14 1012 47 10000 8.7 190 15:43 15.03.2020
1315 Clouds 14 1012 47 10000 8.7 190 15:25 15.03.2020
1316 Clouds 14 1012 50 10000 8.7 200 14:55 15.03.2020
1317 Clouds 14 1012 54 10000 7.7 180 14:37 15.03.2020
1318 Clouds 13 1012 54 10000 8.7 190 14:18 15.03.2020
1319 Clouds 13 1013 58 10000 9.3 190 13:40 15.03.2020
1320 Clouds 13 1013 54 10000 9.3 200 13:21 15.03.2020
1321 Clouds 13 1013 54 10000 9.3 200 12:59 15.03.2020
1322 Clouds 12 1013 58 10000 7.2 200 12:39 15.03.2020
1323 Clouds 12 1014 58 10000 7.7 200 12:21 15.03.2020
1324 Clouds 11 1014 58 10000 7.7 200 11:43 15.03.2020
1325 Clouds 10 1014 57 10000 7.2 180 11:24 15.03.2020
1326 Clouds 9 1015 61 10000 8.2 190 10:57 15.03.2020
1327 Clouds 9 1015 61 10000 8.2 190 10:39 15.03.2020
1328 Clouds 8 1015 61 10000 7.7 190 10:20 15.03.2020
1329 Clouds 8 1015 65 10000 7.2 190 09:42 15.03.2020
1330 Clouds 7 1015 61 10000 6.7 180 09:23 15.03.2020
1331 Clouds 7 1015 65 10000 6.7 170 08:58 15.03.2020
1332 Clouds 6 1015 65 10000 6.7 170 08:40 15.03.2020
1333 Clouds 6 1015 70 10000 7.2 170 08:18 15.03.2020
1334 Clouds 5 1015 76 10000 7.2 170 07:44 15.03.2020
1335 Clouds 5 1015 76 10000 7.2 160 06:59 15.03.2020
1336 Clouds 5 1016 76 10000 6.2 160 06:35 15.03.2020
1337 Clouds 4 1016 69 10000 5.1 150 05:46 15.03.2020
1338 Clouds 4 1017 69 10000 5.7 150 04:50 15.03.2020
1339 Clouds 4 1017 69 10000 5.7 150 04:32 15.03.2020
1340 Clouds 4 1017 69 10000 5.7 150 03:59 15.03.2020
1341 Clouds 3 1018 74 10000 6.2 150 02:48 15.03.2020
1342 Clear 4 1019 69 10000 6.2 150 02:18 15.03.2020
1343 Clouds 4 1019 69 10000 6.2 140 00:57 15.03.2020
1344 Clouds 4 1019 69 10000 6.2 140 00:38 15.03.2020
1345 Clouds 4 1020 69 10000 6.7 150 00:18 15.03.2020
1346 Clouds 4 1020 69 10000 6.7 150 23:38 14.03.2020
1347 Clouds 4 1020 69 10000 6.2 150 23:19 14.03.2020
1348 Clouds 4 1020 69 10000 6.2 150 22:55 14.03.2020
1349 Clouds 4 1020 65 10000 6.7 150 22:37 14.03.2020
1350 Clouds 4 1021 65 10000 7.7 150 22:19 14.03.2020
1351 Clouds 4 1021 65 10000 7.2 150 21:55 14.03.2020
1352 Clouds 4 1021 65 10000 7.2 150 21:36 14.03.2020
1353 Clouds 4 1021 65 10000 7.2 150 21:18 14.03.2020
1354 Clouds 5 1021 60 10000 7.2 140 20:55 14.03.2020
1355 Clouds 5 1021 60 10000 7.2 140 20:37 14.03.2020
1356 Clouds 5 1021 60 10000 5.7 140 20:18 14.03.2020
1357 Clouds 5 1021 60 10000 6.2 150 19:40 14.03.2020
1358 Clouds 6 1021 56 10000 5.1 140 19:20 14.03.2020
1359 Clouds 6 1021 56 10000 6.2 140 18:40 14.03.2020
1360 Clouds 7 1021 56 10000 7.7 140 18:20 14.03.2020
1361 Clouds 8 1021 52 10000 7.2 140 17:42 14.03.2020
1362 Clouds 8 1022 52 10000 6.7 150 17:23 14.03.2020
1363 Clouds 8 1022 52 10000 6.7 150 17:23 14.03.2020
1364 Clouds 8 1022 52 10000 7.2 150 16:59 14.03.2020
1365 Clouds 8 1022 52 10000 7.2 150 16:38 14.03.2020
1366 Clouds 8 1022 52 10000 5.7 140 16:19 14.03.2020
1367 Clouds 8 1022 52 10000 6.7 160 15:48 14.03.2020
1368 Clouds 8 1022 52 10000 6.7 160 15:25 14.03.2020
1369 Clouds 8 1023 52 10000 6.7 140 14:44 14.03.2020
1370 Clouds 8 1023 52 10000 6.7 160 14:22 14.03.2020
1371 Clouds 8 1023 52 10000 5.7 160 13:57 14.03.2020
1372 Clouds 8 1023 52 10000 5.7 160 13:39 14.03.2020
1373 Clouds 8 1023 56 10000 4.6 160 13:20 14.03.2020
1374 Clouds 7 1024 60 10000 5.7 150 12:45 14.03.2020
1375 Clouds 7 1024 60 10000 5.7 160 12:26 14.03.2020
1376 Clouds 6 1024 58 10000 5.1 160 11:56 14.03.2020
1377 Clouds 6 1024 58 10000 5.1 160 11:38 14.03.2020
1378 Clouds 6 1023 70 10000 5.1 160 11:19 14.03.2020
1379 Clouds 5 1024 75 10000 5.1 140 10:42 14.03.2020
1380 Clear 5 1024 70 10000 4.1 160 10:23 14.03.2020
1381 Clear 4 1023 70 10000 3.1 150 09:47 14.03.2020
1382 Clear 3 1023 70 10000 3.6 150 09:24 14.03.2020
1383 Clear 2 1023 70 10000 3.6 150 08:54 14.03.2020
1384 Clouds 0 1023 70 10000 0.5 0 08:35 14.03.2020
1385 Clear -2 1022 92 10000 1.5 70 07:56 14.03.2020
1386 Clear -2 1022 92 10000 1.5 70 07:38 14.03.2020
1387 Fog -2 1022 92 10000 1.5 60 07:19 14.03.2020
1388 Fog -2 1022 92 10000 1 60 06:41 14.03.2020
1389 Clouds -2 1022 100 10000 0.5 50 05:47 14.03.2020
1390 Clouds -2 1022 100 10000 0.5 50 05:47 14.03.2020
1391 Clouds -2 1021 100 10000 0.65 114 04:42 14.03.2020
1392 Clouds -1 1021 92 10000 0.5 0 03:24 14.03.2020
1393 Clouds -1 1021 92 10000 0.65 114 02:25 14.03.2020
1394 Clouds 0 1020 90 10000 1 300 00:57 14.03.2020
1395 Clouds 1 1019 80 10000 1.5 320 23:56 13.03.2020
1396 Clouds 1 1019 80 10000 1.5 320 23:31 13.03.2020
1397 Clouds 2 1019 74 10000 3.1 280 22:52 13.03.2020
1398 Clouds 3 1018 74 10000 3.1 270 22:27 13.03.2020
1399 Clouds 3 1018 64 10000 4.1 280 21:54 13.03.2020
1400 Clouds 3 1018 64 10000 4.1 280 21:36 13.03.2020
1401 Clouds 3 1017 64 10000 5.1 280 21:18 13.03.2020
1402 Clouds 4 1017 64 10000 5.1 290 20:41 13.03.2020
1403 Clouds 4 1016 64 10000 6.2 300 20:22 13.03.2020
1404 Clouds 4 1016 60 10000 7.2 290 19:49 13.03.2020
1405 Clouds 4 1016 60 10000 7.2 290 19:31 13.03.2020
1406 Clouds 4 1015 65 10000 7.7 300 18:59 13.03.2020
1407 Clouds 5 1014 60 10000 10.3 290 18:39 13.03.2020
1408 Clouds 5 1014 60 10000 10.3 290 18:21 13.03.2020
1409 Clouds 6 1013 60 10000 8.7 300 17:42 13.03.2020
1410 Clouds 6 1013 60 10000 7.7 290 17:21 13.03.2020
1411 Clouds 6 1013 62 10000 11.3 300 16:56 13.03.2020
1412 Clouds 7 1013 62 10000 11.3 300 16:38 13.03.2020
1413 Clouds 7 1012 65 10000 9.3 310 16:19 13.03.2020
1414 Clouds 7 1011 62 10000 11.8 290 15:42 13.03.2020
1415 Clouds 7 1011 62 10000 11.8 290 15:22 13.03.2020
1416 Rain 8 1010 70 10000 11.8 300 14:56 13.03.2020
1417 Rain 8 1010 70 10000 11.8 300 14:38 13.03.2020
1418 Rain 8 1009 81 9000 10.8 280 14:18 13.03.2020
1419 Rain 8 1009 70 10000 11.3 290 13:42 13.03.2020
1420 Clouds 8 1008 70 10000 8.7 280 13:22 13.03.2020
1421 Clouds 8 1007 70 10000 10.3 290 12:58 13.03.2020
1422 Clouds 8 1007 70 10000 10.3 290 12:38 13.03.2020
1423 Rain 7 1007 81 10000 10.3 290 12:19 13.03.2020
1424 Rain 7 1005 81 10000 10.3 290 11:55 13.03.2020
1425 Rain 6 1004 87 10000 9.3 280 11:36 13.03.2020
1426 Rain 6 1004 87 10000 9.3 280 11:18 13.03.2020
1427 Rain 6 1004 87 5000 7.7 260 10:46 13.03.2020
1428 Rain 6 1004 87 5000 7.7 260 10:26 13.03.2020
1429 Rain 5 1002 86 7000 9.8 230 09:48 13.03.2020
1430 Rain 5 1003 93 7000 10.8 220 09:30 13.03.2020
1431 Rain 5 1003 93 7000 10.8 220 08:59 13.03.2020
1432 Rain 5 1003 86 10000 9.8 230 08:41 13.03.2020
1433 Rain 5 1003 75 10000 10.3 230 08:22 13.03.2020
1434 Clouds 5 1003 75 10000 8.7 220 07:44 13.03.2020
1435 Clouds 5 1003 75 10000 9.8 230 07:25 13.03.2020
1436 Clouds 5 1004 75 10000 9.8 220 06:46 13.03.2020
1437 Clouds 5 1004 75 10000 7.7 230 06:23 13.03.2020
1438 Clouds 5 1004 80 10000 8.7 220 05:46 13.03.2020
1439 Clouds 5 1004 80 10000 8.7 230 04:57 13.03.2020
1440 Clouds 5 1004 80 10000 8.7 230 04:26 13.03.2020
1441 Clouds 4 1004 80 10000 7.2 230 02:58 13.03.2020
1442 Clouds 4 1005 80 10000 6.7 230 01:41 13.03.2020
1443 Clouds 4 1005 80 10000 6.7 220 01:18 13.03.2020
1444 Clouds 4 1005 80 10000 6.7 230 00:43 13.03.2020
1445 Clouds 4 1006 80 10000 7.2 230 00:20 13.03.2020
1446 Clouds 4 1006 75 10000 6.2 240 23:45 12.03.2020
1447 Rain 4 1006 80 10000 6.7 230 23:26 12.03.2020
1448 Clouds 4 1006 73 10000 7.7 230 22:55 12.03.2020
1449 Clouds 4 1006 73 10000 7.7 230 22:37 12.03.2020
1450 Clouds 5 1006 73 10000 6.2 230 22:18 12.03.2020
1451 Clouds 5 1006 75 10000 7.7 240 21:42 12.03.2020
1452 Clouds 5 1006 73 10000 9.8 240 21:24 12.03.2020
1453 Clouds 6 1006 73 10000 7.2 240 20:55 12.03.2020
1454 Clouds 6 1006 73 10000 7.2 240 20:36 12.03.2020
1455 Clouds 6 1006 77 10000 5.7 230 20:18 12.03.2020
1456 Clouds 6 1006 77 10000 4.6 230 19:39 12.03.2020
1457 Clouds 7 1006 77 10000 7.2 240 19:19 12.03.2020
1458 Clouds 7 1006 77 10000 7.2 240 19:19 12.03.2020
1459 Clouds 7 1006 52 10000 7.7 250 18:42 12.03.2020
1460 Clouds 7 1006 77 10000 6.2 250 18:23 12.03.2020
1461 Clouds 8 1006 52 10000 7.2 250 17:56 12.03.2020
1462 Clouds 8 1006 52 10000 7.2 250 17:37 12.03.2020
1463 Clouds 8 1006 52 10000 8.2 260 17:18 12.03.2020
1464 Clouds 8 1006 52 10000 7.2 270 16:43 12.03.2020
1465 Clouds 8 1006 61 10000 8.2 270 16:24 12.03.2020
1466 Clouds 8 1006 61 10000 8.2 270 15:59 12.03.2020
1467 Clouds 8 1006 61 10000 9.3 270 15:39 12.03.2020
1468 Clouds 8 1005 52 10000 10.3 270 15:21 12.03.2020
1469 Clouds 8 1005 52 10000 10.8 270 14:38 12.03.2020
1470 Clouds 8 1005 52 10000 10.8 280 14:19 12.03.2020
1471 Rain 8 1004 59 10000 9.3 260 13:40 12.03.2020
1472 Rain 7 1004 58 10000 14.9 270 13:22 12.03.2020
1473 Rain 7 1003 52 10000 10.3 270 12:55 12.03.2020
1474 Rain 7 1003 52 10000 10.3 270 12:37 12.03.2020
1475 Rain 7 1003 52 10000 10.3 270 12:37 12.03.2020
1476 Rain 7 1003 70 10000 11.3 270 12:18 12.03.2020
1477 Rain 6 1002 70 10000 10.3 260 11:56 12.03.2020
1478 Rain 6 1002 70 10000 10.3 260 11:37 12.03.2020
1479 Rain 6 1002 70 4500 17 270 11:19 12.03.2020
1480 Rain 6 1001 65 10000 12.3 260 10:56 12.03.2020
1481 Rain 7 1001 65 10000 12.3 260 10:38 12.03.2020
1482 Rain 7 1000 64 10000 12.9 260 10:19 12.03.2020
1483 Clouds 7 1000 64 10000 10.3 270 09:43 12.03.2020
1484 Clouds 7 999 65 10000 9.8 260 09:25 12.03.2020
1485 Clouds 7 998 65 10000 8.2 250 08:41 12.03.2020
1486 Rain 8 999 75 4500 20.1 280 08:19 12.03.2020
1487 Rain 8 997 66 10000 11.8 250 07:53 12.03.2020
1488 Clouds 10 997 66 10000 8.7 250 07:23 12.03.2020
1489 Clouds 10 997 76 10000 7.2 240 06:52 12.03.2020
1490 Clouds 10 997 76 10000 6.7 240 05:41 12.03.2020
1491 Clouds 10 997 81 10000 6.2 250 05:21 12.03.2020
1492 Rain 10 1000 93 8000 5.1 230 02:38 12.03.2020
1493 Rain 10 1001 87 10000 6.2 220 01:31 12.03.2020
1494 Clouds 10 1002 81 10000 5.7 220 00:45 12.03.2020
1495 Clouds 10 1003 87 10000 5.1 220 00:26 12.03.2020
1496 Clouds 10 1004 81 10000 5.1 220 23:47 11.03.2020
1497 Clouds 10 1004 76 10000 6.2 230 23:24 11.03.2020
1498 Clouds 9 1004 81 10000 6.7 210 22:48 11.03.2020
1499 Clouds 9 1005 81 10000 5.7 230 22:30 11.03.2020
1500 Clouds 9 1005 81 10000 5.7 230 22:30 11.03.2020
1501 Clouds 9 1005 81 10000 5.7 230 21:59 11.03.2020
1502 Clouds 9 1005 81 10000 5.7 230 21:59 11.03.2020
1503 Clouds 9 1005 76 10000 6.7 220 21:41 11.03.2020
1504 Clouds 9 1005 71 10000 4.6 200 21:22 11.03.2020
1505 Clouds 9 1006 70 10000 3.1 220 20:58 11.03.2020
1506 Clouds 9 1006 70 10000 3.1 220 20:39 11.03.2020
1507 Clouds 9 1007 75 10000 3.6 220 20:20 11.03.2020
1508 Clouds 9 1007 70 10000 3.6 230 19:57 11.03.2020
1509 Clouds 9 1007 70 10000 3.6 230 19:38 11.03.2020
1510 Clouds 10 1007 62 10000 4.1 230 19:20 11.03.2020
1511 Clouds 10 1007 62 10000 4.1 230 18:43 11.03.2020
1512 Clouds 10 1007 62 10000 4.6 230 18:24 11.03.2020
1513 Clouds 11 1007 54 10000 4.6 250 17:59 11.03.2020
1514 Clouds 11 1007 54 10000 4.6 250 17:39 11.03.2020
1515 Clouds 12 1008 54 10000 5.7 250 17:21 11.03.2020
1516 Clouds 12 1008 50 10000 5.7 260 16:47 11.03.2020
1517 Clouds 12 1008 50 10000 6.2 270 16:24 11.03.2020
1518 Clouds 13 1008 50 10000 6.2 270 15:59 11.03.2020
1519 Clouds 12 1008 50 10000 7.2 280 15:59 11.03.2020
1520 Clouds 12 1008 50 10000 7.2 280 15:41 11.03.2020
1521 Clouds 12 1008 50 10000 7.2 250 15:22 11.03.2020
1522 Clouds 12 1008 50 10000 8.7 270 14:44 11.03.2020
1523 Clouds 12 1008 54 10000 7.2 270 14:23 11.03.2020
1524 Clouds 12 1008 54 10000 7.2 270 13:58 11.03.2020
1525 Clouds 12 1008 57 10000 6.7 270 13:39 11.03.2020
1526 Clouds 11 1008 53 10000 7.2 280 13:21 11.03.2020
1527 Clouds 11 1008 53 10000 8.2 260 12:41 11.03.2020
1528 Clouds 11 1008 53 10000 8.7 270 12:21 11.03.2020
1529 Clouds 10 1008 57 10000 8.2 280 11:57 11.03.2020
1530 Clouds 10 1008 53 10000 8.7 270 11:57 11.03.2020
1531 Clouds 10 1007 61 10000 9.3 270 11:38 11.03.2020
1532 Clouds 10 1007 61 10000 9.3 270 11:19 11.03.2020
1533 Clouds 10 1007 61 10000 8.2 270 10:43 11.03.2020
1534 Clouds 9 1007 66 10000 6.7 260 10:19 11.03.2020
1535 Clouds 8 1006 70 10000 7.2 260 09:54 11.03.2020
1536 Clouds 8 1006 70 10000 7.2 260 09:36 11.03.2020
1537 Clouds 8 1006 75 10000 6.2 260 09:18 11.03.2020
1538 Clouds 7 1006 81 10000 5.7 250 08:40 11.03.2020
1539 Clouds 7 1006 81 10000 5.7 250 08:22 11.03.2020
1540 Clear 6 1005 87 0 5.1 250 07:45 11.03.2020
1541 Clouds 6 1005 87 10000 4.6 250 07:20 11.03.2020
1542 Clouds 6 1005 87 10000 4.6 250 06:48 11.03.2020
1543 Clear 6 1004 81 10000 4.6 250 06:20 11.03.2020
1544 Clouds 7 1003 81 10000 5.7 270 05:23 11.03.2020
1545 Clouds 8 1001 76 10000 9.8 280 02:36 11.03.2020
1546 Clouds 9 999 76 10000 9.3 280 01:44 11.03.2020
1547 Clouds 9 998 81 10000 7.2 270 00:53 11.03.2020
1548 Rain 9 998 81 10000 6.7 270 00:31 11.03.2020
1549 Rain 9 998 81 10000 6.7 270 23:47 10.03.2020
1550 Rain 9 997 81 10000 7.2 270 23:22 10.03.2020
1551 Rain 9 997 87 10000 8.7 280 22:55 10.03.2020
1552 Rain 9 997 87 10000 8.7 280 22:36 10.03.2020
1553 Rain 9 997 81 10000 7.7 270 22:18 10.03.2020
1554 Rain 9 996 87 10000 8.2 280 21:55 10.03.2020
1555 Rain 10 996 87 10000 8.2 280 21:37 10.03.2020
1556 Rain 10 996 93 10000 10.3 280 21:18 10.03.2020
1557 Rain 10 995 93 5000 6.7 240 20:42 10.03.2020
1558 Drizzle 11 995 93 10000 7.7 240 20:19 10.03.2020
1559 Drizzle 11 995 93 9000 7.7 230 19:58 10.03.2020
1560 Drizzle 11 995 93 9000 7.7 230 19:40 10.03.2020
1561 Drizzle 11 996 93 4500 6.7 240 19:22 10.03.2020
1562 Drizzle 10 996 93 8000 6.7 230 18:55 10.03.2020
1563 Drizzle 10 996 93 8000 6.7 230 18:37 10.03.2020
1564 Drizzle 10 996 93 6000 6.7 230 18:18 10.03.2020
1565 Drizzle 10 996 93 4200 6.7 230 17:41 10.03.2020
1566 Drizzle 10 996 93 4000 6.7 220 17:22 10.03.2020
1567 Drizzle 10 996 93 5000 8.2 220 16:57 10.03.2020
1568 Drizzle 10 996 93 5000 8.2 220 16:37 10.03.2020
1569 Drizzle 10 997 93 8000 4.1 210 16:18 10.03.2020
1570 Drizzle 10 997 93 9000 7.2 220 15:41 10.03.2020
1571 Drizzle 10 997 93 9000 6.7 220 15:20 10.03.2020
1572 Drizzle 10 997 93 9000 6.7 220 14:58 10.03.2020
1573 Drizzle 10 997 93 8000 6.7 220 14:40 10.03.2020
1574 Drizzle 10 998 93 10000 6.2 230 14:19 10.03.2020
1575 Drizzle 9 998 93 8000 6.2 220 13:44 10.03.2020
1576 Rain 9 998 93 10000 5.7 230 13:25 10.03.2020
1577 Clouds 8 998 100 10000 6.7 220 12:56 10.03.2020
1578 Clouds 8 998 100 10000 6.7 220 12:37 10.03.2020
1579 Drizzle 8 998 93 8000 6.7 220 12:18 10.03.2020
1580 Rain 7 998 93 7000 7.2 210 11:42 10.03.2020
1581 Rain 7 998 93 10000 7.2 210 11:24 10.03.2020
1582 Rain 6 998 93 10000 7.2 210 10:57 10.03.2020
1583 Rain 6 998 93 10000 7.7 210 10:39 10.03.2020
1584 Drizzle 5 999 93 7000 6.7 190 10:19 10.03.2020
1585 Drizzle 6 999 93 7000 6.7 190 09:55 10.03.2020
1586 Drizzle 5 999 93 7000 7.7 180 09:36 10.03.2020
1587 Drizzle 5 1000 93 8000 7.2 190 09:18 10.03.2020
1588 Drizzle 5 1000 93 7000 7.7 180 08:42 10.03.2020
1589 Drizzle 5 1000 93 7000 7.7 180 08:24 10.03.2020
1590 Rain 5 1001 93 10000 8.2 170 07:45 10.03.2020
1591 Rain 5 1002 93 10000 8.7 170 07:27 10.03.2020
1592 Rain 5 1002 93 10000 8.2 170 06:38 10.03.2020
1593 Rain 5 1004 87 10000 7.7 190 05:58 10.03.2020
1594 Rain 6 1004 87 10000 7.7 190 05:38 10.03.2020
1595 Clouds 5 1005 81 10000 6.7 200 04:34 10.03.2020
1596 Clouds 5 1006 81 10000 4.6 160 03:31 10.03.2020
1597 Clouds 5 1008 81 10000 4.6 200 01:55 10.03.2020
1598 Clouds 5 1009 87 10000 5.7 200 00:53 10.03.2020
1599 Clouds 5 1010 87 10000 5.1 200 00:30 10.03.2020
1600 Clouds 5 1010 86 10000 4.1 220 23:57 09.03.2020
1601 Clouds 5 1010 86 10000 4.1 220 23:38 09.03.2020
1602 Clouds 5 1010 87 10000 4.6 210 23:20 09.03.2020
1603 Clouds 5 1011 86 10000 4.1 210 22:40 09.03.2020
1604 Clouds 5 1011 87 10000 4.1 210 22:22 09.03.2020
1605 Clouds 5 1011 93 10000 2.1 190 21:57 09.03.2020
1606 Clouds 5 1011 93 10000 2.1 190 21:38 09.03.2020
1607 Clouds 5 1011 87 10000 4.6 210 21:20 09.03.2020
1608 Rain 5 1011 87 10000 2.6 210 20:56 09.03.2020
1609 Rain 5 1011 87 10000 2.6 210 20:37 09.03.2020
1610 Rain 6 1011 87 10000 1.5 210 20:18 09.03.2020
1611 Clouds 5 1011 93 10000 1.5 220 19:44 09.03.2020
1612 Clouds 6 1011 87 10000 2.1 230 19:21 09.03.2020
1613 Clouds 6 1011 87 10000 1.5 230 18:57 09.03.2020
1614 Clouds 6 1011 87 10000 1.5 230 18:38 09.03.2020
1615 Clouds 7 1011 81 10000 1.5 240 18:19 09.03.2020
1616 Clouds 7 1011 81 10000 2.6 260 17:57 09.03.2020
1617 Clouds 8 1011 81 10000 2.6 260 17:38 09.03.2020
1618 Rain 8 1011 87 10000 4.6 300 17:19 09.03.2020
1619 Rain 8 1010 81 10000 4.6 220 16:57 09.03.2020
1620 Rain 9 1010 81 10000 4.6 220 16:39 09.03.2020
1621 Rain 9 1010 66 10000 4.6 280 16:20 09.03.2020
1622 Rain 9 1010 66 10000 4.6 280 15:57 09.03.2020
1623 Rain 10 1009 62 10000 6.2 240 15:38 09.03.2020
1624 Rain 10 1009 62 10000 6.2 240 15:19 09.03.2020
1625 Clouds 10 1009 62 10000 5.1 270 14:41 09.03.2020
1626 Clouds 10 1009 66 10000 6.2 260 14:23 09.03.2020
1627 Clouds 10 1009 71 10000 4.6 250 13:59 09.03.2020
1628 Clouds 10 1009 71 10000 4.6 250 13:40 09.03.2020
1629 Clouds 10 1009 76 10000 5.7 230 13:22 09.03.2020
1630 Clouds 9 1009 76 10000 5.7 250 12:59 09.03.2020
1631 Clouds 9 1009 76 10000 5.7 250 12:41 09.03.2020
1632 Clouds 9 1009 76 10000 5.1 240 12:21 09.03.2020
1633 Rain 9 1008 81 10000 5.1 240 11:41 09.03.2020
1634 Rain 9 1008 81 10000 5.1 240 11:21 09.03.2020
1635 Clouds 8 1008 81 10000 4.1 240 10:58 09.03.2020
1636 Clouds 9 1008 81 10000 4.1 240 10:40 09.03.2020
1637 Clouds 8 1008 81 10000 4.6 240 10:20 09.03.2020
1638 Clouds 8 1008 81 10000 4.6 240 10:20 09.03.2020
1639 Clouds 8 1008 87 10000 5.1 230 09:57 09.03.2020
1640 Clouds 8 1008 87 10000 4.1 230 09:37 09.03.2020
1641 Clouds 8 1008 87 10000 4.1 230 09:19 09.03.2020
1642 Clouds 7 1007 93 10000 4.6 220 08:42 09.03.2020
1643 Clouds 7 1007 93 10000 4.6 220 08:23 09.03.2020
1644 Clouds 7 1007 93 10000 3.6 230 07:41 09.03.2020
1645 Clouds 7 1007 93 10000 3.6 230 07:21 09.03.2020
1646 Rain 7 1007 93 0 0.89 239 06:44 09.03.2020
1647 Clouds 7 1006 93 10000 3.1 220 06:25 09.03.2020
1648 Clouds 7 1006 87 10000 2.6 230 05:47 09.03.2020
1649 Clouds 7 1006 100 10000 3.1 230 05:22 09.03.2020
1650 Clouds 7 1006 93 10000 3.6 210 04:43 09.03.2020
1651 Rain 7 1006 93 10000 3.1 210 04:22 09.03.2020
1652 Rain 8 1006 93 10000 3.6 210 03:20 09.03.2020
1653 Drizzle 8 1006 93 9000 3.1 210 01:41 09.03.2020
1654 Clouds 8 1007 93 10000 4.6 180 00:39 09.03.2020
1655 Clouds 8 1007 93 10000 4.6 180 00:20 09.03.2020
1656 Clouds 8 1007 87 10000 4.1 180 23:51 08.03.2020
1657 Clouds 8 1007 87 10000 3.6 200 23:23 08.03.2020
1658 Clouds 8 1007 93 10000 4.1 200 22:57 08.03.2020
1659 Clouds 8 1008 93 10000 3.1 210 22:38 08.03.2020
1660 Clouds 8 1008 87 10000 6.7 200 22:20 08.03.2020
1661 Clouds 8 1008 93 10000 4.1 200 21:54 08.03.2020
1662 Clouds 8 1008 93 10000 4.1 200 21:54 08.03.2020
1663 Clouds 8 1008 93 10000 4.1 200 21:54 08.03.2020
1664 Clouds 8 1008 93 10000 3.6 210 21:36 08.03.2020
1665 Clouds 8 1008 93 10000 3.6 210 21:36 08.03.2020
1666 Clouds 8 1008 87 10000 6.2 210 21:18 08.03.2020
1667 Rain 8 1008 87 10000 6.7 210 20:39 08.03.2020
1668 Rain 8 1008 87 10000 6.7 210 20:21 08.03.2020
1669 Rain 8 1008 87 10000 6.7 210 20:21 08.03.2020
1670 Rain 8 1009 87 10000 6.7 200 19:56 08.03.2020
1671 Rain 8 1009 87 10000 6.7 200 19:37 08.03.2020
1672 Rain 8 1009 87 10000 6.7 200 19:18 08.03.2020
1673 Rain 8 1009 81 10000 6.7 200 18:42 08.03.2020
1674 Rain 8 1009 81 10000 6.7 200 18:42 08.03.2020
1675 Rain 9 1009 81 10000 7.2 210 18:24 08.03.2020
1676 Rain 9 1008 81 10000 7.2 220 17:56 08.03.2020
1677 Rain 9 1008 71 10000 7.2 220 17:38 08.03.2020
1678 Rain 9 1008 71 10000 7.2 220 17:19 08.03.2020
1679 Rain 10 1008 71 10000 7.2 220 16:46 08.03.2020
1680 Rain 10 1008 71 10000 7.2 220 16:28 08.03.2020
1681 Rain 10 1008 71 10000 7.2 220 16:28 08.03.2020
1682 Rain 10 1008 71 10000 8.2 220 15:58 08.03.2020
1683 Clouds 10 1008 62 10000 9.3 210 15:40 08.03.2020
1684 Clouds 11 1008 62 10000 9.3 210 15:21 08.03.2020
1685 Clouds 11 1009 62 10000 9.3 210 14:55 08.03.2020
1686 Clouds 11 1009 62 10000 9.3 210 14:37 08.03.2020
1687 Clouds 11 1009 62 10000 9.3 210 14:18 08.03.2020
1688 Clouds 11 1009 58 10000 8.2 200 13:40 08.03.2020
1689 Clouds 11 1009 66 10000 9.3 200 13:20 08.03.2020
1690 Clouds 11 1010 62 10000 9.3 200 12:43 08.03.2020
1691 Clouds 11 1010 66 10000 7.2 190 12:25 08.03.2020
1692 Clouds 11 1010 62 10000 7.2 180 11:57 08.03.2020
1693 Clouds 10 1010 66 10000 7.7 170 11:39 08.03.2020
1694 Clouds 10 1010 66 10000 7.7 170 11:21 08.03.2020
1695 Clouds 9 1010 66 10000 6.2 180 10:42 08.03.2020
1696 Clouds 8 1011 70 10000 6.7 180 10:23 08.03.2020
1697 Clouds 8 1011 70 10000 6.7 180 09:58 08.03.2020
1698 Clouds 8 1011 75 10000 6.2 180 09:37 08.03.2020
1699 Clouds 7 1012 70 10000 5.7 180 09:18 08.03.2020
1700 Clouds 7 1012 70 10000 5.7 190 08:41 08.03.2020
1701 Clouds 7 1012 70 10000 5.7 200 08:20 08.03.2020
1702 Clouds 6 1012 75 10000 5.7 200 07:45 08.03.2020
1703 Clouds 6 1012 70 10000 5.1 200 07:25 08.03.2020
1704 Clouds 6 1012 70 10000 4.6 180 06:43 08.03.2020
1705 Clouds 6 1012 70 10000 4.6 180 06:24 08.03.2020
1706 Clouds 6 1012 75 10000 5.1 170 05:43 08.03.2020
1707 Clouds 5 1014 65 10000 5.1 200 03:52 08.03.2020
1708 Clouds 5 1014 70 10000 4.1 170 02:38 08.03.2020
1709 Clouds 5 1015 70 10000 3.6 160 01:37 08.03.2020
1710 Clouds 4 1015 70 10000 3.1 170 01:18 08.03.2020
1711 Clouds 4 1016 75 10000 3.1 170 00:30 08.03.2020
1712 Clouds 4 1016 85 10000 3.6 160 23:49 07.03.2020
1713 Clouds 4 1016 88 10000 4.1 160 23:27 07.03.2020
1714 Clouds 4 1016 88 10000 4.1 160 22:58 07.03.2020
1715 Clouds 3 1017 88 10000 3.1 170 22:37 07.03.2020
1716 Clouds 3 1017 88 10000 3.1 170 22:19 07.03.2020
1717 Clouds 3 1017 88 10000 2.1 180 21:44 07.03.2020
1718 Clouds 3 1017 88 10000 2.1 180 21:22 07.03.2020
1719 Clouds 2 1017 88 10000 1.5 170 20:41 07.03.2020
1720 Clouds 2 1017 80 10000 1.5 170 20:22 07.03.2020
1721 Clouds 3 1017 80 10000 1 180 19:54 07.03.2020
1722 Clouds 3 1017 80 10000 1 220 19:36 07.03.2020
1723 Clouds 3 1017 80 10000 1 220 19:18 07.03.2020
1724 Clouds 5 1016 80 10000 2.6 280 18:39 07.03.2020
1725 Clouds 6 1016 80 10000 2.6 280 18:21 07.03.2020
1726 Clouds 6 1016 80 10000 3.6 270 17:42 07.03.2020
1727 Clouds 7 1016 66 10000 5.1 290 17:20 07.03.2020
1728 Clouds 7 1016 66 10000 5.7 300 16:59 07.03.2020
1729 Clouds 8 1016 66 10000 5.7 290 16:40 07.03.2020
1730 Clouds 8 1016 66 10000 5.7 290 16:22 07.03.2020
1731 Clouds 8 1015 66 10000 6.2 290 15:56 07.03.2020
1732 Clouds 7 1015 66 10000 6.2 290 15:37 07.03.2020
1733 Clouds 8 1015 66 10000 6.2 290 15:19 07.03.2020
1734 Clouds 8 1015 61 10000 5.1 280 14:45 07.03.2020
1735 Clouds 8 1015 61 10000 5.1 280 14:24 07.03.2020
1736 Clouds 7 1014 61 10000 6.7 300 13:58 07.03.2020
1737 Clouds 7 1014 65 10000 7.2 290 13:38 07.03.2020
1738 Clouds 7 1014 65 10000 7.2 290 13:19 07.03.2020
1739 Clouds 7 1014 70 10000 6.2 300 12:41 07.03.2020
1740 Clouds 6 1014 75 10000 5.7 290 12:20 07.03.2020
1741 Clouds 6 1014 75 10000 5.1 290 11:57 07.03.2020
1742 Clouds 5 1013 80 10000 4.1 280 11:39 07.03.2020
1743 Clouds 5 1013 80 10000 4.1 280 11:20 07.03.2020
1744 Clouds 5 1013 80 10000 4.6 300 10:41 07.03.2020
1745 Clouds 5 1013 80 10000 5.1 290 10:20 07.03.2020
1746 Clouds 4 1012 86 10000 4.6 290 09:56 07.03.2020
1747 Clouds 4 1012 86 8000 4.1 290 09:37 07.03.2020
1748 Clouds 4 1012 86 8000 4.1 290 09:18 07.03.2020
1749 Mist 3 1011 93 5000 4.6 310 08:44 07.03.2020
1750 Mist 3 1011 93 5000 4.6 310 08:21 07.03.2020
1751 Mist 3 1011 93 5000 4.6 310 08:21 07.03.2020
1752 Mist 3 1010 93 4500 6.2 310 07:49 07.03.2020
1753 Mist 3 1010 100 4500 5.7 300 07:23 07.03.2020
1754 Clouds 3 1011 90 0 0.89 258 06:55 07.03.2020
1755 Clouds 2 1010 90 0 1.34 297 06:29 07.03.2020
1756 Mist 2 1007 93 5000 3.1 300 05:52 07.03.2020
1757 Mist 3 1007 93 5000 3.1 300 04:43 07.03.2020
1758 Clouds 3 1005 86 10000 4.6 310 02:47 07.03.2020
1759 Clouds 3 1005 86 10000 5.1 310 02:24 07.03.2020
1760 Clouds 4 1004 93 10000 5.1 320 01:26 07.03.2020
1761 Drizzle 4 1003 93 9000 4.1 340 00:39 07.03.2020
1762 Drizzle 4 1003 93 9000 4.1 340 00:20 07.03.2020
1763 Drizzle 4 1003 86 9000 5.1 330 23:45 06.03.2020
1764 Rain 4 1002 86 10000 4.6 340 23:26 06.03.2020
1765 Clouds 4 1002 86 10000 5.1 340 22:48 06.03.2020
1766 Drizzle 4 1002 93 10000 3.6 350 22:22 06.03.2020
1767 Drizzle 4 1001 93 10000 4.1 350 21:59 06.03.2020
1768 Drizzle 4 1000 93 10000 4.1 360 21:41 06.03.2020
1769 Drizzle 4 1000 93 10000 4.1 360 21:18 06.03.2020
1770 Rain 4 999 93 8000 3.1 350 20:39 06.03.2020
1771 Rain 4 999 93 8000 3.1 350 20:20 06.03.2020
1772 Rain 4 999 93 8000 2.6 360 19:51 06.03.2020
1773 Rain 4 998 93 8000 3.1 10 19:33 06.03.2020
1774 Rain 4 998 93 8000 3.1 10 18:59 06.03.2020
1775 Rain 4 998 93 6000 3.6 10 18:40 06.03.2020
1776 Rain 4 997 93 7000 3.6 20 18:19 06.03.2020
1777 Rain 4 997 93 7000 3.6 20 18:19 06.03.2020
1778 Rain 4 997 93 7000 3.6 20 18:19 06.03.2020
1779 Rain 4 997 93 7000 3.6 20 17:55 06.03.2020
1780 Rain 4 996 93 6000 3.6 20 17:36 06.03.2020
1781 Rain 4 996 93 6000 3.6 20 17:18 06.03.2020
1782 Rain 4 995 86 9000 3.6 30 16:42 06.03.2020
1783 Rain 4 995 86 9000 3.6 30 16:20 06.03.2020
1784 Rain 4 995 80 9000 4.1 30 15:45 06.03.2020
1785 Rain 4 995 80 9000 4.1 30 15:25 06.03.2020
1786 Clouds 4 994 80 10000 4.6 30 14:59 06.03.2020
1787 Clouds 5 994 80 10000 4.6 30 14:39 06.03.2020
1788 Clouds 5 994 80 10000 5.1 50 14:19 06.03.2020
1789 Clouds 4 993 86 9000 5.7 50 13:43 06.03.2020
1790 Clouds 4 993 86 9000 5.7 50 13:22 06.03.2020
1791 Rain 4 993 93 7000 5.7 40 12:57 06.03.2020
1792 Rain 4 993 93 7000 5.7 40 12:38 06.03.2020
1793 Rain 4 993 86 7000 5.7 40 12:19 06.03.2020
1794 Rain 4 993 86 7000 5.1 40 11:57 06.03.2020
1795 Rain 4 993 86 8000 4.6 40 11:39 06.03.2020
1796 Rain 4 993 86 8000 4.6 40 11:20 06.03.2020
1797 Rain 4 992 86 8000 5.7 40 10:40 06.03.2020
1798 Rain 4 992 86 8000 5.7 40 10:21 06.03.2020
1799 Rain 4 992 86 8000 5.1 40 09:56 06.03.2020
1800 Rain 4 992 86 7000 4.6 40 09:37 06.03.2020
1801 Rain 4 992 86 7000 4.6 40 09:19 06.03.2020
1802 Rain 4 991 86 7000 5.1 40 08:46 06.03.2020
1803 Rain 4 992 86 8000 4.6 40 08:27 06.03.2020
1804 Rain 4 992 86 8000 5.1 50 07:58 06.03.2020
1805 Rain 4 991 80 10000 5.7 50 07:39 06.03.2020
1806 Rain 4 991 86 10000 4.1 50 06:59 06.03.2020
1807 Rain 4 991 75 10000 4.6 70 06:41 06.03.2020
1808 Rain 4 991 75 10000 4.1 70 05:50 06.03.2020
1809 Rain 4 991 75 10000 4.1 70 05:31 06.03.2020
1810 Rain 5 991 75 10000 4.6 60 04:59 06.03.2020
1811 Clouds 5 991 70 10000 4.1 50 03:46 06.03.2020
1812 Clouds 6 992 76 10000 5.1 60 01:42 06.03.2020
1813 Clouds 6 992 76 10000 5.7 70 01:24 06.03.2020
1814 Clouds 6 993 75 10000 6.2 80 00:48 06.03.2020
1815 Clouds 6 993 75 10000 6.2 90 00:20 06.03.2020
1816 Clouds 6 993 65 10000 6.7 80 23:43 05.03.2020
1817 Clouds 6 993 65 10000 6.7 80 23:24 05.03.2020
1818 Clouds 6 994 65 10000 6.7 80 22:55 05.03.2020
1819 Clouds 6 994 65 10000 6.7 80 22:36 05.03.2020
1820 Clouds 6 994 65 10000 6.7 80 22:18 05.03.2020
1821 Clouds 7 995 61 10000 6.2 90 21:54 05.03.2020
1822 Clouds 7 995 61 10000 6.2 80 21:36 05.03.2020
1823 Clouds 7 995 61 10000 6.2 80 21:18 05.03.2020
1824 Clouds 7 996 65 10000 5.1 90 20:42 05.03.2020
1825 Clouds 7 996 65 10000 5.1 90 20:20 05.03.2020
1826 Clouds 7 996 65 10000 6.2 80 19:59 05.03.2020
1827 Clouds 7 996 65 10000 5.7 90 19:39 05.03.2020
1828 Clouds 7 996 65 10000 5.7 90 19:21 05.03.2020
1829 Clouds 7 996 65 10000 5.1 90 18:58 05.03.2020
1830 Clouds 7 996 61 10000 5.7 90 18:37 05.03.2020
1831 Clouds 7 996 61 10000 5.7 90 18:19 05.03.2020
1832 Clouds 7 996 61 10000 5.1 100 17:57 05.03.2020
1833 Clouds 8 996 57 10000 5.1 100 17:39 05.03.2020
1834 Clouds 8 996 57 10000 5.1 100 17:20 05.03.2020
1835 Clouds 8 998 57 10000 5.7 80 16:41 05.03.2020
1836 Clouds 8 998 57 10000 5.7 80 16:23 05.03.2020
1837 Clouds 9 998 61 10000 4.6 70 15:58 05.03.2020
1838 Clouds 9 998 57 10000 4.1 100 15:38 05.03.2020
1839 Clouds 9 998 57 10000 4.1 100 15:20 05.03.2020
1840 Clouds 9 999 65 10000 4.1 110 14:42 05.03.2020
1841 Clouds 9 999 65 10000 4.1 110 14:23 05.03.2020
1842 Clouds 9 1000 61 10000 5.1 160 13:59 05.03.2020
1843 Clouds 8 1000 65 10000 5.7 150 13:40 05.03.2020
1844 Clouds 8 1000 65 10000 5.7 150 13:21 05.03.2020
1845 Clouds 8 1001 61 10000 4.6 130 12:56 05.03.2020
1846 Clouds 7 1001 70 10000 4.6 110 12:38 05.03.2020
1847 Clouds 7 1001 70 10000 4.6 110 12:18 05.03.2020
1848 Clouds 6 1002 75 10000 3.6 100 11:56 05.03.2020
1849 Clouds 6 1002 75 10000 3.1 140 11:37 05.03.2020
1850 Clouds 5 1002 75 10000 3.1 140 11:18 05.03.2020
1851 Clouds 5 1003 81 10000 2.6 120 10:55 05.03.2020
1852 Clouds 4 1003 80 9000 2.1 110 10:37 05.03.2020
1853 Clouds 4 1003 80 9000 2.1 110 10:19 05.03.2020
1854 Clouds 3 1003 93 8000 2.6 140 09:41 05.03.2020
1855 Clouds 2 1004 86 8000 2.6 120 09:23 05.03.2020
1856 Clouds 2 1004 93 8000 2.1 130 08:43 05.03.2020
1857 Clouds 1 1004 94 7000 2.1 110 08:25 05.03.2020
1858 Fog 0 1004 94 7000 1.5 0 07:46 05.03.2020
1859 Fog 0 1004 94 7000 1.5 100 07:22 05.03.2020
1860 Fog 0 1004 100 9000 1 0 06:48 05.03.2020
1861 Fog 0 1005 94 9000 1.5 80 06:22 05.03.2020
1862 Fog 0 1005 100 800 1.5 170 05:39 05.03.2020
1863 Fog 0 1005 100 8000 0.5 220 04:55 05.03.2020
1864 Fog 1 1006 93 8000 0.5 0 04:22 05.03.2020
1865 Clouds 1 1006 100 8000 1.5 220 03:51 05.03.2020
1866 Clouds 2 1007 93 10000 2.1 220 01:58 05.03.2020
1867 Clouds 2 1007 93 10000 2.1 210 01:22 05.03.2020
1868 Clouds 3 1007 93 10000 1 220 00:26 05.03.2020
1869 Clouds 3 1008 86 10000 2.6 220 23:43 04.03.2020
1870 Clouds 3 1008 86 10000 2.6 220 23:23 04.03.2020
1871 Clouds 3 1008 86 10000 2.1 230 22:59 04.03.2020
1872 Clouds 3 1008 86 10000 2.6 220 22:39 04.03.2020
1873 Clouds 3 1008 86 10000 2.6 220 22:19 04.03.2020
1874 Clouds 3 1008 93 10000 2.1 230 21:58 04.03.2020
1875 Clouds 3 1008 93 10000 1.5 200 21:40 04.03.2020
1876 Clouds 3 1008 93 10000 1.5 200 21:20 04.03.2020
1877 Clouds 4 1008 86 10000 1 0 20:56 04.03.2020
1878 Clouds 4 1008 86 10000 0.5 0 20:37 04.03.2020
1879 Clouds 4 1008 86 10000 0.5 0 20:19 04.03.2020
1880 Rain 5 1008 75 10000 6.2 320 19:42 04.03.2020
1881 Rain 5 1008 75 10000 6.2 320 19:23 04.03.2020
1882 Rain 5 1008 81 10000 4.1 210 18:57 04.03.2020
1883 Clouds 5 1008 81 10000 3.1 230 18:37 04.03.2020
1884 Clouds 5 1008 81 10000 3.1 230 18:18 04.03.2020
1885 Clouds 6 1008 81 10000 1.5 230 17:56 04.03.2020
1886 Clouds 6 1008 70 10000 3.6 240 17:37 04.03.2020
1887 Clouds 6 1008 70 10000 3.6 240 17:19 04.03.2020
1888 Clouds 7 1008 75 10000 2.6 240 16:44 04.03.2020
1889 Clouds 7 1008 75 10000 2.6 240 16:25 04.03.2020
1890 Clouds 6 1008 81 10000 4.6 230 15:59 04.03.2020
1891 Clouds 7 1008 81 10000 4.6 230 15:41 04.03.2020
1892 Clouds 7 1008 81 10000 4.6 230 15:22 04.03.2020
1893 Clouds 7 1008 81 10000 5.1 230 14:55 04.03.2020
1894 Clouds 7 1008 81 10000 5.1 230 14:37 04.03.2020
1895 Clouds 7 1008 81 10000 5.1 230 14:18 04.03.2020
1896 Clouds 6 1008 81 10000 6.7 220 13:56 04.03.2020
1897 Clouds 6 1008 75 10000 5.1 220 13:38 04.03.2020
1898 Clouds 6 1008 75 10000 5.1 220 13:19 04.03.2020
1899 Clouds 6 1008 81 9000 5.1 220 12:45 04.03.2020
1900 Clouds 6 1008 81 9000 5.1 220 12:27 04.03.2020
1901 Clouds 5 1008 86 10000 4.6 220 11:59 04.03.2020
1902 Clouds 5 1008 86 10000 3.6 230 11:41 04.03.2020
1903 Clouds 5 1008 86 10000 3.6 230 11:22 04.03.2020
1904 Clouds 5 1008 86 10000 4.1 210 10:56 04.03.2020
1905 Clouds 4 1008 80 10000 4.1 220 10:38 04.03.2020
1906 Clouds 4 1008 80 10000 4.1 220 10:18 04.03.2020
1907 Clouds 3 1008 86 9000 3.6 230 09:42 04.03.2020
1908 Clouds 3 1008 93 9000 4.1 230 09:21 04.03.2020
1909 Clouds 2 1007 86 10000 3.6 230 08:44 04.03.2020
1910 Clouds 2 1007 86 10000 3.6 230 08:26 04.03.2020
1911 Clouds 2 1007 93 10000 3.1 230 07:56 04.03.2020
1912 Clouds 2 1007 93 10000 3.6 230 07:37 04.03.2020
1913 Clouds 1 1007 93 10000 3.6 230 07:18 04.03.2020
1914 Clouds 1 1007 96 10000 3.1 220 06:41 04.03.2020
1915 Clouds 1 1007 96 10000 3.1 220 06:23 04.03.2020
1916 Clouds 1 1007 96 10000 3.1 220 05:47 04.03.2020
1917 Clouds 1 1006 95 10000 2.1 240 04:23 04.03.2020
1918 Clear 1 1006 95 10000 0.5 0 03:42 04.03.2020
1919 Clear 1 1006 95 10000 0.5 0 03:24 04.03.2020
1920 Clouds 1 1006 86 10000 2.1 230 02:55 04.03.2020
1921 Clouds 1 1006 86 10000 2.1 240 02:20 04.03.2020
1922 Clouds 1 1006 93 10000 2.6 240 01:52 04.03.2020
1923 Clear 1 1005 94 10000 2.1 240 00:50 04.03.2020
1924 Clear 1 1005 94 10000 1.5 240 00:25 04.03.2020
1925 Clear 2 1005 94 10000 2.1 230 23:46 03.03.2020
1926 Clear 2 1005 91 10000 1.5 240 23:28 03.03.2020
1927 Clear 2 1005 86 10000 2.1 250 22:59 03.03.2020
1928 Clear 2 1005 86 10000 2.6 250 22:40 03.03.2020
1929 Clear 3 1005 86 10000 2.6 250 22:20 03.03.2020
1930 Clear 2 1004 91 10000 2.6 250 21:57 03.03.2020
1931 Clear 3 1004 91 10000 2.1 260 21:38 03.03.2020
1932 Clear 3 1004 91 10000 2.1 260 21:19 03.03.2020
1933 Clear 3 1004 91 10000 2.1 260 20:55 03.03.2020
1934 Clouds 3 1004 91 10000 2.1 270 20:36 03.03.2020
1935 Clouds 3 1004 87 10000 2.1 270 20:18 03.03.2020
1936 Clouds 4 1003 87 10000 2.1 280 19:54 03.03.2020
1937 Clouds 4 1003 87 10000 2.1 280 19:36 03.03.2020
1938 Clouds 4 1003 87 10000 2.1 280 19:18 03.03.2020
1939 Clouds 5 1003 87 10000 2.6 300 18:55 03.03.2020
1940 Clouds 5 1002 87 10000 3.6 300 18:36 03.03.2020
1941 Clouds 6 1002 87 10000 3.6 300 18:18 03.03.2020
1942 Clouds 7 1001 87 10000 4.6 290 17:40 03.03.2020
1943 Clouds 7 1001 68 10000 4.6 290 17:21 03.03.2020
1944 Clouds 7 1001 69 10000 4.6 290 17:21 03.03.2020
1945 Clouds 8 1001 68 10000 5.1 290 16:59 03.03.2020
1946 Clouds 8 1000 61 10000 5.7 290 16:38 03.03.2020
1947 Clouds 8 1000 61 10000 5.7 290 16:20 03.03.2020
1948 Clouds 8 1000 61 10000 4.1 300 15:57 03.03.2020
1949 Clouds 8 1000 61 10000 5.1 280 15:39 03.03.2020
1950 Clouds 8 1000 61 10000 5.1 280 15:20 03.03.2020
1951 Clouds 8 999 65 10000 5.1 290 14:41 03.03.2020
1952 Clouds 8 999 65 10000 5.1 290 14:20 03.03.2020
1953 Clouds 8 999 70 10000 6.2 290 13:58 03.03.2020
1954 Clouds 7 999 75 10000 5.7 290 13:40 03.03.2020
1955 Clouds 7 999 75 10000 5.7 290 13:21 03.03.2020
1956 Clouds 7 999 75 10000 5.7 280 12:48 03.03.2020
1957 Clouds 6 999 81 10000 5.7 290 12:27 03.03.2020
1958 Rain 6 998 87 10000 4.6 280 11:59 03.03.2020
1959 Rain 6 998 87 10000 5.1 290 11:38 03.03.2020
1960 Rain 6 998 87 10000 5.1 290 11:19 03.03.2020
1961 Rain 6 998 93 10000 5.7 290 10:56 03.03.2020
1962 Rain 5 997 93 10000 3.1 280 10:38 03.03.2020
1963 Rain 5 997 93 10000 3.1 280 10:19 03.03.2020
1964 Rain 5 997 93 7000 2.6 270 09:45 03.03.2020
1965 Rain 5 997 93 10000 2.1 280 09:23 03.03.2020
1966 Rain 5 996 93 9000 3.1 270 08:59 03.03.2020
1967 Rain 5 996 100 7000 1.5 230 08:39 03.03.2020
1968 Rain 5 996 100 7000 1.5 230 08:21 03.03.2020
1969 Rain 5 996 100 6000 1.5 200 07:44 03.03.2020
1970 Rain 5 996 93 7000 2.1 180 07:24 03.03.2020
1971 Rain 5 995 93 8000 2.1 160 06:54 03.03.2020
1972 Rain 5 995 93 9000 3.1 150 06:27 03.03.2020
1973 Rain 5 995 93 10000 3.1 150 05:49 03.03.2020
1974 Rain 5 995 93 10000 2.6 150 05:31 03.03.2020
1975 Rain 5 994 81 10000 2.6 150 04:44 03.03.2020
1976 Clouds 5 993 81 10000 3.1 130 02:24 03.03.2020
1977 Clouds 5 993 75 10000 3.1 120 01:21 03.03.2020
1978 Clouds 6 993 75 10000 3.1 120 00:40 03.03.2020
1979 Clouds 6 993 75 10000 3.1 120 00:20 03.03.2020
1980 Clouds 6 993 75 10000 3.1 120 23:46 02.03.2020
1981 Clouds 6 992 75 10000 3.1 110 23:23 02.03.2020
1982 Clouds 6 993 70 10000 3.6 110 22:57 02.03.2020
1983 Clouds 6 993 70 10000 3.6 120 22:38 02.03.2020
1984 Clouds 6 993 70 10000 3.6 120 22:19 02.03.2020
1985 Clouds 7 993 70 10000 4.1 120 21:56 02.03.2020
1986 Clouds 7 992 70 10000 4.1 120 21:37 02.03.2020
1987 Clouds 7 992 70 10000 4.1 120 21:19 02.03.2020
1988 Clouds 7 992 65 10000 3.6 120 20:55 02.03.2020
1989 Clouds 7 992 65 10000 3.6 120 20:37 02.03.2020
1990 Clouds 7 992 70 10000 4.6 130 20:18 02.03.2020
1991 Clouds 7 992 65 10000 5.1 130 19:54 02.03.2020
1992 Clouds 7 992 65 10000 4.6 120 19:36 02.03.2020
1993 Clouds 7 992 65 10000 4.6 120 19:18 02.03.2020
1994 Clouds 7 991 65 10000 5.7 130 18:42 02.03.2020
1995 Clouds 8 991 61 10000 5.1 120 18:19 02.03.2020
1996 Clouds 8 991 61 10000 5.1 120 18:19 02.03.2020
1997 Clouds 8 991 61 10000 5.1 120 17:57 02.03.2020
1998 Clouds 8 990 61 10000 4.6 110 17:39 02.03.2020
1999 Clouds 8 990 61 10000 4.6 110 17:20 02.03.2020
2000 Clouds 9 990 57 10000 4.6 130 16:45 02.03.2020
2001 Clouds 9 990 57 10000 4.6 120 16:45 02.03.2020
2002 Clouds 9 990 57 10000 4.6 130 16:45 02.03.2020
2003 Clouds 9 990 57 10000 4.6 130 16:27 02.03.2020
2004 Clouds 9 991 61 10000 5.1 150 15:59 02.03.2020
2005 Clouds 9 991 61 10000 4.1 150 15:41 02.03.2020
2006 Clouds 9 991 61 10000 4.1 150 15:19 02.03.2020
2007 Clouds 9 991 66 10000 4.1 150 14:40 02.03.2020
2008 Clouds 9 991 66 10000 4.1 150 14:20 02.03.2020
2009 Clouds 9 992 70 10000 4.1 170 13:58 02.03.2020
2010 Clouds 9 992 70 10000 4.1 160 13:38 02.03.2020
2011 Clouds 9 992 70 10000 4.1 160 13:18 02.03.2020
2012 Clouds 9 992 70 10000 4.1 160 13:18 02.03.2020
2013 Clouds 8 992 70 10000 4.1 200 12:43 02.03.2020
2014 Clouds 7 992 75 10000 3.6 200 12:19 02.03.2020
2015 Clouds 7 992 81 10000 3.6 220 11:55 02.03.2020
2016 Clouds 7 993 81 10000 4.6 230 11:36 02.03.2020
2017 Clouds 6 993 81 10000 4.6 230 11:18 02.03.2020
2018 Clouds 6 992 87 10000 4.1 220 10:42 02.03.2020
2019 Clouds 6 992 81 10000 6.2 220 10:20 02.03.2020
2020 Clouds 5 992 81 10000 5.1 220 09:59 02.03.2020
2021 Clouds 5 992 86 10000 4.1 220 09:40 02.03.2020
2022 Clouds 5 992 86 10000 4.1 220 09:22 02.03.2020
2023 Clouds 4 992 80 10000 3.6 220 08:43 02.03.2020
2024 Clouds 3 992 86 10000 2.6 220 08:22 02.03.2020
2025 Clouds 3 991 86 10000 2.1 230 07:42 02.03.2020
2026 Clouds 3 991 86 10000 2.1 220 07:20 02.03.2020
2027 Clouds 3 991 80 10000 2.1 210 06:45 02.03.2020
2028 Clouds 3 991 80 10000 2.1 230 05:53 02.03.2020
2029 Rain 4 991 80 10000 2.6 160 04:26 02.03.2020
2030 Clouds 4 991 80 10000 1.5 150 03:23 02.03.2020
2031 Clouds 4 991 75 10000 1.5 150 02:48 02.03.2020
2032 Clouds 4 991 80 10000 1.5 90 01:52 02.03.2020
2033 Clouds 4 991 86 10000 2.1 150 01:31 02.03.2020
2034 Clouds 4 991 75 10000 3.1 160 00:24 02.03.2020
2035 Clouds 4 991 75 10000 3.6 150 23:58 01.03.2020
2036 Clouds 4 991 75 10000 4.1 160 23:40 01.03.2020
2037 Clouds 4 991 75 10000 4.1 160 23:20 01.03.2020
2038 Clouds 4 992 80 10000 1.5 170 22:43 01.03.2020
2039 Clouds 4 992 80 10000 1.5 170 22:21 01.03.2020
2040 Clouds 4 992 80 10000 2.6 310 21:57 01.03.2020
2041 Clouds 4 992 80 10000 2.6 310 21:57 01.03.2020
2042 Clouds 4 992 80 10000 3.6 150 21:38 01.03.2020
2043 Clouds 4 992 80 10000 3.6 150 21:19 01.03.2020
2044 Clouds 4 992 80 10000 3.6 160 20:44 01.03.2020
2045 Rain 4 992 75 10000 3.6 190 20:25 01.03.2020
2046 Clouds 5 992 75 10000 2.6 200 19:59 01.03.2020
2047 Clouds 5 992 75 10000 2.6 200 19:59 01.03.2020
2048 Clouds 4 992 75 10000 2.6 200 19:40 01.03.2020
2049 Rain 5 992 75 10000 3.1 220 19:21 01.03.2020
2050 Rain 5 992 80 10000 3.1 210 18:54 01.03.2020
2051 Rain 5 992 75 10000 5.1 230 18:36 01.03.2020
2052 Rain 6 992 75 10000 5.1 230 18:18 01.03.2020
2053 Rain 6 991 81 10000 7.7 200 17:54 01.03.2020
2054 Rain 6 991 70 10000 6.7 210 17:36 01.03.2020
2055 Rain 6 991 70 10000 6.7 210 17:18 01.03.2020
2056 Rain 7 991 75 10000 7.2 210 16:40 01.03.2020
2057 Rain 7 991 75 10000 7.2 210 16:40 01.03.2020
2058 Rain 7 991 75 10000 7.2 210 16:20 01.03.2020
2059 Rain 7 991 65 10000 8.7 230 15:59 01.03.2020
2060 Rain 8 991 61 10000 10.3 220 15:40 01.03.2020
2061 Rain 8 991 61 10000 10.3 220 15:22 01.03.2020
2062 Rain 8 991 61 10000 7.2 220 14:58 01.03.2020
2063 Rain 9 991 61 10000 9.3 220 14:39 01.03.2020
2064 Rain 9 991 61 10000 9.3 220 14:21 01.03.2020
2065 Rain 8 991 65 10000 9.3 220 13:59 01.03.2020
2066 Rain 8 991 65 10000 9.3 220 13:41 01.03.2020
2067 Clouds 8 991 65 10000 9.8 220 13:20 01.03.2020
2068 Clouds 8 991 65 10000 9.8 220 12:57 01.03.2020
2069 Clouds 8 990 65 10000 10.8 220 12:38 01.03.2020
2070 Clouds 8 990 65 10000 10.8 220 12:20 01.03.2020
2071 Clouds 7 990 61 10000 9.3 220 11:40 01.03.2020
2072 Clouds 7 990 65 10000 10.8 220 11:20 01.03.2020
2073 Clouds 7 990 65 10000 8.7 210 10:56 01.03.2020
2074 Clouds 7 990 70 10000 9.3 210 10:37 01.03.2020
2075 Clouds 6 990 70 10000 9.3 210 10:19 01.03.2020
2076 Clouds 6 990 70 10000 8.7 210 09:46 01.03.2020
2077 Clouds 6 990 70 10000 9.8 210 09:26 01.03.2020
2078 Clouds 6 990 70 10000 9.8 210 08:57 01.03.2020
2079 Clouds 5 990 75 10000 10.3 210 08:38 01.03.2020
2080 Clouds 5 990 75 10000 10.3 210 08:18 01.03.2020
2081 Clouds 5 990 75 10000 9.8 210 07:41 01.03.2020
2082 Clouds 5 990 75 10000 9.8 210 07:23 01.03.2020
2083 Clouds 5 990 75 10000 9.3 210 06:51 01.03.2020
2084 Clouds 5 990 82 10000 9.3 210 06:29 01.03.2020
2085 Clouds 5 990 81 10000 8.2 210 04:18 01.03.2020
2086 Clouds 5 990 70 10000 8.7 210 02:27 01.03.2020
2087 Clouds 5 990 70 10000 9.8 210 01:52 01.03.2020
2088 Clouds 5 990 70 10000 8.2 210 01:21 01.03.2020
2089 Clouds 5 990 75 10000 5.7 220 00:43 01.03.2020
2090 Clouds 5 990 75 10000 5.7 220 00:21 01.03.2020
2091 Clouds 5 990 75 10000 6.7 210 23:49 29.02.2020
2092 Clouds 5 990 75 10000 7.7 220 23:30 29.02.2020
2093 Clouds 5 990 70 10000 8.7 230 22:44 29.02.2020
2094 Clouds 5 990 70 10000 8.7 230 22:24 29.02.2020
2095 Clouds 6 988 75 10000 7.2 240 21:42 29.02.2020
2096 Clouds 6 988 75 10000 7.2 240 21:24 29.02.2020
2097 Clouds 7 988 75 10000 7.7 260 20:44 29.02.2020
2098 Clouds 7 988 75 10000 7.7 260 20:22 29.02.2020
2099 Rain 8 987 81 10000 9.8 250 19:57 29.02.2020
2100 Clouds 8 986 81 4500 13.9 230 19:38 29.02.2020
2101 Clouds 8 986 81 4500 13.9 230 19:19 29.02.2020
2102 Rain 10 984 58 10000 9.3 170 18:43 29.02.2020
2103 Clouds 11 984 58 10000 7.7 170 18:25 29.02.2020
2104 Clouds 12 984 58 10000 8.2 180 17:58 29.02.2020
2105 Rain 12 985 66 10000 8.2 170 17:40 29.02.2020
2106 Rain 12 985 66 10000 8.2 170 17:40 29.02.2020
2107 Rain 12 985 66 10000 8.2 170 17:21 29.02.2020
2108 Clouds 12 985 62 10000 8.7 170 16:56 29.02.2020
2109 Clouds 12 986 62 10000 7.2 170 16:37 29.02.2020
2110 Clouds 12 986 62 10000 7.2 170 16:18 29.02.2020
2111 Clouds 12 987 66 10000 7.2 150 15:41 29.02.2020
2112 Clouds 12 987 66 10000 7.2 150 15:23 29.02.2020
2113 Clouds 12 987 71 10000 7.2 150 14:55 29.02.2020
2114 Clouds 12 988 71 10000 6.2 140 14:37 29.02.2020
2115 Clouds 12 988 71 10000 6.2 140 14:19 29.02.2020
2116 Clouds 11 990 71 10000 7.2 190 13:42 29.02.2020
2117 Clouds 11 990 71 10000 7.2 190 13:23 29.02.2020
2118 Clouds 10 990 76 10000 6.7 190 12:43 29.02.2020
2119 Clouds 10 990 76 10000 6.7 190 12:43 29.02.2020
2120 Clouds 10 991 81 10000 6.7 200 12:23 29.02.2020
2121 Clouds 9 991 81 10000 8.7 200 11:59 29.02.2020
2122 Clouds 8 992 87 10000 5.7 190 11:40 29.02.2020
2123 Clouds 8 992 87 10000 5.7 190 11:22 29.02.2020
2124 Clouds 8 992 81 10000 5.7 200 10:49 29.02.2020
2125 Clouds 7 992 93 10000 6.7 200 10:29 29.02.2020
2126 Clouds 7 992 93 10000 6.7 200 10:29 29.02.2020
2127 -273 0 0 0 0 0 09:51 29.02.2020
2128 Drizzle 6 993 93 4500 7.2 200 09:27 29.02.2020
2129 Rain 6 993 93 6000 5.7 200 08:58 29.02.2020
2130 Rain 6 993 93 9000 4.1 180 08:38 29.02.2020
2131 Rain 5 993 93 9000 4.1 180 08:19 29.02.2020
2132 Rain 5 993 100 9000 4.1 170 07:45 29.02.2020
2133 Rain 4 994 100 9000 4.1 160 07:19 29.02.2020
2134 Rain 4 994 93 9000 4.6 150 06:53 29.02.2020
2135 Rain 4 995 93 10000 5.7 160 06:27 29.02.2020
2136 Drizzle 3 995 93 10000 5.7 150 05:49 29.02.2020
2137 Drizzle 3 996 100 9000 5.7 150 05:29 29.02.2020
2138 Snow 2 998 93 5000 7.2 150 03:46 29.02.2020
2139 Snow 2 999 93 5000 7.2 160 03:23 29.02.2020
2140 Snow 1 999 93 6000 7.7 150 02:51 29.02.2020
2141 Rain 2 1001 93 10000 8.7 160 01:49 29.02.2020
2142 Rain 2 1003 86 10000 7.2 150 00:46 29.02.2020
2143 Rain 2 1004 86 10000 7.7 160 00:26 29.02.2020
2144 Rain 3 1005 86 10000 7.7 180 23:40 28.02.2020
2145 Rain 3 1006 75 10000 7.7 200 23:22 28.02.2020
2146 Clouds 4 1006 65 10000 6.2 180 22:42 28.02.2020
2147 Clouds 4 1007 75 10000 6.2 170 22:22 28.02.2020
2148 Clouds 4 1007 75 10000 6.7 170 21:42 28.02.2020
2149 Clouds 4 1007 75 10000 6.7 170 21:22 28.02.2020
2150 Clouds 4 1007 75 10000 6.7 170 21:22 28.02.2020
2151 Clouds 4 1008 75 10000 5.7 170 20:57 28.02.2020
2152 Clouds 4 1008 75 10000 5.7 170 20:38 28.02.2020
2153 Clouds 4 1008 84 10000 5.7 180 20:20 28.02.2020
2154 Clouds 5 1009 84 10000 4.6 190 19:57 28.02.2020
2155 Clouds 5 1010 84 10000 5.7 190 19:38 28.02.2020
2156 Clouds 5 1010 84 10000 5.7 190 19:20 28.02.2020
2157 Clouds 5 1010 84 10000 5.7 200 18:46 28.02.2020
2158 Clouds 5 1010 84 10000 4.6 210 18:25 28.02.2020
2159 Clouds 5 1011 84 10000 5.1 230 17:57 28.02.2020
2160 Clouds 6 1011 56 10000 6.7 240 17:38 28.02.2020
2161 Clouds 6 1011 56 10000 6.7 240 17:20 28.02.2020
2162 Clouds 7 1012 61 10000 4.1 240 16:41 28.02.2020
2163 Clouds 7 1012 61 10000 4.1 240 16:20 28.02.2020
2164 Clouds 7 1012 72 10000 7.2 240 15:57 28.02.2020
2165 Clouds 8 1012 72 10000 5.7 250 15:39 28.02.2020
2166 Clouds 8 1012 72 10000 5.7 250 15:19 28.02.2020
2167 Clouds 7 1012 72 10000 6.7 260 14:56 28.02.2020
2168 Clouds 8 1012 61 10000 5.7 270 14:38 28.02.2020
2169 Clouds 8 1012 61 10000 5.7 270 14:18 28.02.2020
2170 Clouds 7 1012 71 10000 8.2 260 13:41 28.02.2020
2171 Clouds 7 1012 70 10000 8.2 260 13:20 28.02.2020
2172 Clouds 7 1012 65 10000 7.2 250 12:58 28.02.2020
2173 Clouds 7 1012 65 10000 7.2 250 12:39 28.02.2020
2174 -273 0 0 0 0 0 12:21 28.02.2020
2175 Clouds 7 1011 75 10000 6.7 270 11:41 28.02.2020
2176 Clouds 6 1011 75 10000 6.7 270 11:22 28.02.2020
2177 Clouds 6 1011 80 10000 6.2 250 10:57 28.02.2020
2178 Clouds 5 1011 86 10000 5.7 250 10:37 28.02.2020
2179 Clouds 5 1011 86 10000 5.7 250 10:18 28.02.2020
2180 Clouds 4 1010 93 10000 4.6 250 09:43 28.02.2020
2181 Clouds 3 1010 93 10000 4.6 250 09:20 28.02.2020
2182 Clouds 3 1010 86 10000 3.6 250 08:55 28.02.2020
2183 Clouds 2 1009 93 10000 3.6 240 08:36 28.02.2020
2184 Clouds 2 1009 93 10000 3.6 240 08:18 28.02.2020
2185 Clouds 2 1009 93 10000 2.6 250 07:39 28.02.2020
2186 Clouds 2 1009 93 10000 2.6 250 07:19 28.02.2020
2187 Clouds 2 1008 93 10000 5.7 260 06:41 28.02.2020
2188 Clouds 1 1007 93 10000 3.1 250 05:50 28.02.2020
2189 Clouds 1 1006 100 10000 3.1 240 04:34 28.02.2020
2190 Clouds 1 1005 90 10000 3.1 250 03:43 28.02.2020
2191 Snow 2 1005 93 7000 4.1 240 02:45 28.02.2020
2192 Rain 2 1004 93 8000 3.6 240 02:20 28.02.2020
2193 Rain 2 1003 93 9000 3.6 240 00:46 28.02.2020
2194 Rain 2 1003 93 9000 3.6 240 00:25 28.02.2020
2195 Rain 2 1002 93 10000 3.1 210 23:41 27.02.2020
2196 Rain 2 1002 93 10000 3.1 210 23:19 27.02.2020
2197 Rain 2 1002 93 10000 3.6 220 22:43 27.02.2020
2198 Rain 2 1001 93 10000 2.6 240 22:24 27.02.2020
2199 Rain 2 1001 86 10000 4.6 260 21:57 27.02.2020
2200 Rain 2 1001 86 10000 4.6 260 21:39 27.02.2020
2201 Clouds 2 1000 85 10000 3.6 270 21:19 27.02.2020
2202 Clouds 2 999 85 10000 1.5 270 20:56 27.02.2020
2203 Clouds 2 999 85 10000 1 0 20:38 27.02.2020
2204 Clouds 3 999 82 10000 1 0 20:19 27.02.2020
2205 Clouds 3 999 82 10000 2.1 230 19:54 27.02.2020
2206 Clouds 3 998 82 10000 3.6 240 19:36 27.02.2020
2207 Clouds 3 998 82 10000 4.1 250 19:18 27.02.2020
2208 Clouds 3 998 82 10000 4.1 250 18:40 27.02.2020
2209 Clouds 3 997 82 10000 1.5 260 18:21 27.02.2020
2210 Clouds 4 997 82 10000 2.6 230 17:57 27.02.2020
2211 Clouds 4 997 82 10000 2.6 230 17:57 27.02.2020
2212 Clouds 4 997 82 10000 2.6 230 17:39 27.02.2020
2213 Clouds 5 997 69 10000 3.1 240 17:19 27.02.2020
2214 Clouds 5 997 71 10000 2.1 240 16:56 27.02.2020
2215 Clouds 5 997 71 10000 3.1 220 16:37 27.02.2020
2216 Clouds 5 997 71 10000 3.1 220 16:18 27.02.2020
2217 Clouds 5 997 71 10000 4.1 220 15:56 27.02.2020
2218 Clouds 5 997 71 10000 3.6 220 15:36 27.02.2020
2219 Clouds 5 997 71 10000 3.6 220 15:18 27.02.2020
2220 Clouds 5 997 71 10000 3.6 220 15:18 27.02.2020
2221 Clouds 5 998 75 10000 4.6 220 15:18 27.02.2020
2222 Clouds 6 998 71 10000 5.7 220 14:41 27.02.2020
2223 Clouds 6 998 73 10000 5.7 220 14:23 27.02.2020
2224 Clouds 5 998 75 10000 5.7 220 13:57 27.02.2020
2225 Clouds 5 999 75 10000 5.1 230 13:39 27.02.2020
2226 Clouds 5 999 75 10000 5.1 230 13:39 27.02.2020
2227 Clouds 5 999 75 10000 5.1 230 13:20 27.02.2020
2228 Clouds 5 999 75 10000 6.2 230 12:45 27.02.2020
2229 Clouds 5 999 75 10000 6.7 220 12:45 27.02.2020
2230 Clouds 5 999 75 10000 6.2 230 12:23 27.02.2020
2231 Clouds 4 999 80 10000 4.6 210 11:57 27.02.2020
2232 Clouds 4 1000 80 10000 4.6 220 11:38 27.02.2020
2233 Clouds 4 1000 80 10000 4.6 220 11:20 27.02.2020
2234 Clouds 4 1000 80 10000 4.6 240 10:42 27.02.2020
2235 Clouds 3 1000 85 10000 4.6 240 10:20 27.02.2020
2236 Clouds 3 1000 86 10000 4.1 240 09:46 27.02.2020
2237 Clouds 3 1000 86 10000 3.1 240 09:28 27.02.2020
2238 Clouds 2 1000 86 10000 4.1 230 08:56 27.02.2020
2239 Clouds 2 1000 86 10000 3.6 240 08:38 27.02.2020
2240 Clouds 2 1000 86 10000 3.6 240 08:18 27.02.2020
2241 Clouds 2 1000 86 10000 4.6 240 07:43 27.02.2020
2242 Clouds 2 1000 86 10000 4.1 240 07:24 27.02.2020
2243 Clouds 2 1001 86 10000 4.6 230 06:31 27.02.2020
2244 Clouds 2 1001 86 10000 4.6 250 05:27 27.02.2020
2245 Clouds 2 1001 93 10000 3.6 250 03:33 27.02.2020
2246 Clouds 1 1001 93 10000 4.1 240 02:19 27.02.2020
2247 Clouds 1 1000 93 10000 2.1 260 00:44 27.02.2020
2248 Clouds 1 1000 96 10000 2.1 250 00:24 27.02.2020
2249 Clouds 1 1000 96 10000 2.1 270 23:39 26.02.2020
2250 Clouds 1 1000 90 10000 2.1 270 23:19 26.02.2020
2251 Clouds 1 1000 90 10000 2.1 260 22:56 26.02.2020
2252 Clouds 1 1000 80 10000 2.1 260 22:38 26.02.2020
2253 Clouds 1 1000 80 10000 2.1 260 22:19 26.02.2020
2254 Clouds 2 999 80 10000 2.1 260 21:55 26.02.2020
2255 Clouds 2 999 90 10000 3.1 280 21:36 26.02.2020
2256 Clouds 2 999 90 10000 3.1 280 21:18 26.02.2020
2257 Clouds 2 999 90 10000 3.1 270 20:54 26.02.2020
2258 Clouds 2 999 90 10000 3.1 270 20:36 26.02.2020
2259 Clouds 2 999 84 10000 3.1 270 20:18 26.02.2020
2260 Clouds 3 998 84 10000 2.6 290 19:44 26.02.2020
2261 Clouds 3 998 84 10000 2.6 290 19:20 26.02.2020
2262 Rain 3 997 80 10000 5.1 290 18:57 26.02.2020
2263 Rain 3 997 80 10000 5.1 290 18:39 26.02.2020
2264 Rain 4 996 84 10000 5.7 280 18:21 26.02.2020
2265 Rain 4 996 84 10000 5.1 280 17:42 26.02.2020
2266 Rain 5 996 84 10000 6.2 280 17:23 26.02.2020
2267 Rain 5 995 73 10000 6.7 280 16:57 26.02.2020
2268 Rain 5 995 73 10000 6.7 280 16:39 26.02.2020
2269 -273 0 0 0 0 0 16:21 26.02.2020
2270 Rain 6 994 73 10000 5.7 290 15:47 26.02.2020
2271 Rain 5 994 75 10000 6.2 290 15:29 26.02.2020
2272 Rain 5 994 75 10000 6.2 290 14:59 26.02.2020
2273 Rain 5 994 75 10000 6.2 290 14:40 26.02.2020
2274 Rain 5 993 80 10000 4.6 280 14:21 26.02.2020
2275 Rain 5 993 70 10000 6.7 270 13:43 26.02.2020
2276 Clouds 5 993 75 10000 5.1 270 13:22 26.02.2020
2277 Clouds 4 992 80 10000 4.1 280 12:42 26.02.2020
2278 Clouds 4 992 80 10000 4.1 280 12:22 26.02.2020
2279 Clouds 4 992 86 10000 3.6 280 11:59 26.02.2020
2280 Clouds 4 992 86 10000 3.6 260 11:40 26.02.2020
2281 Clouds 4 992 86 10000 3.6 260 11:22 26.02.2020
2282 Clouds 4 992 86 10000 3.6 260 11:22 26.02.2020
2283 Clouds 4 991 86 10000 4.1 260 10:43 26.02.2020
2284 Clouds 3 991 86 7000 4.1 260 10:24 26.02.2020
2285 Clouds 3 991 93 7000 3.6 260 09:59 26.02.2020
2286 Clouds 2 991 93 6000 2.6 240 09:41 26.02.2020
2287 Clouds 2 991 93 6000 2.6 240 09:21 26.02.2020
2288 Clouds 2 991 93 6000 2.6 240 09:21 26.02.2020
2289 Clouds 2 990 87 6000 1.5 210 08:54 26.02.2020
2290 Clouds 1 990 87 6000 1.5 260 08:36 26.02.2020
2291 Clouds 2 990 97 6000 1.5 260 08:18 26.02.2020
2292 Clouds 1 990 97 9000 2.1 260 07:41 26.02.2020
2293 Clouds 1 990 97 9000 2.6 220 07:21 26.02.2020
2294 Clouds 1 990 97 10000 3.1 220 06:46 26.02.2020
2295 Clouds 1 990 97 10000 3.1 220 06:23 26.02.2020
2296 Clouds 2 990 97 10000 2.1 240 05:48 26.02.2020
2297 Clouds 2 990 92 10000 2.6 240 05:19 26.02.2020
2298 Clouds 2 990 92 10000 2.6 230 03:34 26.02.2020
2299 Clouds 2 990 86 10000 4.1 250 01:59 26.02.2020
2300 Clouds 2 990 89 10000 4.6 240 01:34 26.02.2020
2301 Clouds 2 990 90 10000 4.1 240 00:46 26.02.2020
2302 Clouds 2 991 90 10000 3.6 240 00:21 26.02.2020
2303 Clouds 2 991 90 10000 3.1 240 23:43 25.02.2020
2304 Clouds 3 991 89 10000 4.1 240 23:25 25.02.2020
2305 Clouds 3 991 89 10000 4.1 240 22:58 25.02.2020
2306 Clouds 3 991 89 10000 4.1 240 22:40 25.02.2020
2307 Clouds 3 991 89 10000 4.1 240 22:19 25.02.2020
2308 Clouds 3 992 80 10000 5.1 240 21:38 25.02.2020
2309 Clouds 3 992 80 10000 5.1 240 21:20 25.02.2020
2310 Clouds 3 992 80 10000 5.1 240 21:20 25.02.2020
2311 Clouds 3 992 80 10000 4.6 250 20:57 25.02.2020
2312 Clouds 3 992 86 10000 4.6 250 20:39 25.02.2020
2313 Clouds 3 992 86 10000 4.6 250 20:20 25.02.2020
2314 Clouds 4 992 80 10000 6.2 250 19:59 25.02.2020
2315 Rain 4 992 80 10000 7.2 260 19:40 25.02.2020
2316 Rain 4 992 80 10000 7.2 260 19:19 25.02.2020
2317 Rain 4 992 80 10000 6.7 260 18:42 25.02.2020
2318 Rain 4 992 80 10000 6.7 260 18:21 25.02.2020
2319 Rain 4 992 86 10000 6.7 250 17:58 25.02.2020
2320 Rain 4 992 86 10000 7.7 260 17:38 25.02.2020
2321 Rain 5 992 86 10000 7.7 260 17:19 25.02.2020
2322 Rain 5 992 75 10000 10.3 250 16:58 25.02.2020
2323 Rain 5 992 75 10000 10.3 250 16:58 25.02.2020
2324 Rain 6 992 65 10000 9.8 250 16:40 25.02.2020
2325 Rain 6 992 65 10000 9.8 250 16:22 25.02.2020
2326 Rain 6 992 65 10000 9.8 260 15:56 25.02.2020
2327 Clouds 7 992 65 10000 11.8 260 15:38 25.02.2020
2328 Clouds 7 992 65 10000 11.8 260 15:18 25.02.2020
2329 Clouds 7 992 65 10000 12.3 250 14:56 25.02.2020
2330 Clouds 7 992 71 10000 10.8 250 14:37 25.02.2020
2331 Clouds 7 992 67 10000 10.8 250 14:18 25.02.2020
2332 Clouds 7 992 65 10000 8.7 250 13:55 25.02.2020
2333 Clouds 6 992 65 10000 11.8 240 13:37 25.02.2020
2334 Clouds 6 992 65 10000 11.8 240 13:18 25.02.2020
2335 Rain 7 992 75 10000 9.8 250 12:41 25.02.2020
2336 Rain 7 992 65 9000 13.4 240 12:21 25.02.2020
2337 Rain 7 992 68 10000 9.8 250 11:57 25.02.2020
2338 Rain 7 992 68 10000 9.8 250 11:38 25.02.2020
2339 Rain 7 992 61 10000 11.3 250 11:19 25.02.2020
2340 Clouds 6 992 65 10000 9.3 240 10:59 25.02.2020
2341 Clouds 6 993 65 10000 10.3 240 10:40 25.02.2020
2342 Clouds 6 993 65 10000 10.3 240 10:21 25.02.2020
2343 Clouds 6 993 65 10000 8.7 240 09:41 25.02.2020
2344 Clouds 6 993 77 10000 9.8 240 09:22 25.02.2020
2345 Clouds 6 994 77 10000 9.3 240 08:54 25.02.2020
2346 Clouds 6 994 70 10000 8.7 240 08:36 25.02.2020
2347 Clouds 6 994 70 10000 8.7 240 08:18 25.02.2020
2348 Clouds 5 994 70 10000 8.2 240 07:39 25.02.2020
2349 Clouds 5 994 70 10000 8.2 240 07:19 25.02.2020
2350 Clouds 6 995 70 10000 8.7 250 06:32 25.02.2020
2351 Clouds 6 995 75 10000 7.2 250 05:27 25.02.2020
2352 Drizzle 7 994 93 7000 10.3 280 03:30 25.02.2020
2353 Drizzle 9 994 87 10000 7.7 230 01:32 25.02.2020
2354 Drizzle 9 995 87 10000 7.7 240 00:47 25.02.2020
2355 Drizzle 9 995 87 10000 8.2 240 00:29 25.02.2020
2356 Drizzle 8 995 93 8000 8.7 230 23:42 24.02.2020
2357 Drizzle 8 995 93 8000 8.7 230 23:20 24.02.2020
2358 Drizzle 7 996 100 6000 7.7 230 22:42 24.02.2020
2359 Drizzle 6 996 100 3200 4.6 200 22:20 24.02.2020
2360 Drizzle 6 997 93 3500 3.1 170 21:57 24.02.2020
2361 Drizzle 5 997 93 4500 4.6 140 21:39 24.02.2020
2362 Drizzle 4 997 93 4500 4.6 140 21:20 24.02.2020
2363 Drizzle 3 998 93 6000 5.1 150 20:58 24.02.2020
2364 Rain 3 999 93 8000 7.2 140 20:40 24.02.2020
2365 Rain 2 999 93 8000 7.2 140 20:19 24.02.2020
2366 Rain 2 1000 93 8000 5.7 140 19:57 24.02.2020
2367 Snow 2 1001 100 7000 6.7 130 19:39 24.02.2020
2368 Snow 2 1001 100 7000 6.7 130 19:20 24.02.2020
2369 Snow 1 1002 95 7000 4.6 130 18:55 24.02.2020
2370 Snow 1 1003 95 2000 5.7 120 18:37 24.02.2020
2371 Snow 1 1003 95 2000 5.7 120 18:18 24.02.2020
2372 Rain 2 1006 93 7000 6.2 140 17:40 24.02.2020
2373 Rain 2 1006 93 7000 6.2 140 17:20 24.02.2020
2374 Rain 2 1006 93 7000 6.2 140 17:20 24.02.2020
2375 Rain 2 1007 93 7000 6.2 140 16:58 24.02.2020
2376 Rain 3 1007 93 7000 6.2 140 16:39 24.02.2020
2377 Rain 3 1008 93 8000 6.7 170 16:20 24.02.2020
2378 Rain 3 1008 93 8000 6.7 170 16:20 24.02.2020
2379 Rain 3 1009 86 8000 6.7 180 15:58 24.02.2020
2380 Rain 4 1009 86 8000 6.7 180 15:39 24.02.2020
2381 Rain 5 1010 80 7000 7.7 180 15:21 24.02.2020
2382 Clouds 5 1011 81 10000 5.1 170 14:58 24.02.2020
2383 Clouds 6 1012 75 10000 5.7 190 14:39 24.02.2020
2384 Clouds 6 1012 75 10000 5.7 190 14:19 24.02.2020
2385 Clouds 6 1013 81 10000 5.7 200 13:56 24.02.2020
2386 Clouds 6 1014 87 10000 4.6 200 13:36 24.02.2020
2387 Clouds 6 1014 87 10000 4.6 200 13:18 24.02.2020
2388 Clouds 6 1014 87 10000 4.6 200 13:18 24.02.2020
2389 Clouds 6 1015 87 10000 4.6 200 12:54 24.02.2020
2390 Clouds 6 1015 87 10000 5.7 220 12:36 24.02.2020
2391 Clouds 6 1015 87 10000 5.7 220 12:18 24.02.2020
2392 Clouds 6 1016 87 9000 5.7 220 11:41 24.02.2020
2393 Clouds 6 1016 87 9000 5.7 220 11:41 24.02.2020
2394 Clouds 6 1016 87 9000 5.7 230 11:23 24.02.2020
2395 Clouds 6 1017 87 9000 4.1 230 10:44 24.02.2020
2396 Clouds 6 1017 87 9000 4.1 240 10:25 24.02.2020
2397 Clouds 6 1017 87 10000 3.6 230 09:41 24.02.2020
2398 Clouds 5 1018 87 10000 4.1 250 09:19 24.02.2020
2399 Clouds 5 1018 81 10000 3.1 250 08:57 24.02.2020
2400 Clouds 5 1017 87 10000 3.1 260 08:37 24.02.2020
2401 Clouds 5 1017 87 10000 3.1 260 08:19 24.02.2020
2402 Clouds 5 1017 93 10000 3.6 250 07:41 24.02.2020
2403 Clouds 5 1017 93 10000 3.6 260 07:23 24.02.2020
2404 Rain 5 1017 86 10000 4.6 260 06:34 24.02.2020
2405 Clouds 5 1017 86 10000 5.7 260 05:52 24.02.2020
2406 Clouds 5 1017 80 10000 5.7 260 05:27 24.02.2020
2407 Clouds 5 1016 80 10000 6.7 270 03:27 24.02.2020
2408 Clouds 5 1015 75 10000 6.2 260 02:51 24.02.2020
2409 Clouds 5 1015 80 10000 7.2 270 01:41 24.02.2020
2410 Clouds 5 1014 75 10000 6.7 270 00:52 24.02.2020
2411 Clouds 4 1013 80 10000 6.7 270 00:22 24.02.2020
2412 Clouds 4 1013 86 10000 5.1 260 23:58 23.02.2020
2413 Clouds 4 1012 86 10000 6.2 270 23:40 23.02.2020
2414 Clouds 4 1012 86 10000 6.2 270 23:18 23.02.2020
2415 Clouds 3 1012 86 10000 6.2 270 22:54 23.02.2020
2416 Clouds 3 1011 86 10000 7.7 280 22:36 23.02.2020
2417 Clouds 3 1011 86 10000 7.7 280 22:18 23.02.2020
2418 Rain 3 1010 86 10000 6.7 280 21:43 23.02.2020
2419 Rain 3 1010 86 10000 6.7 280 21:43 23.02.2020
2420 Rain 3 1009 86 10000 8.2 300 21:43 23.02.2020
2421 Rain 3 1009 86 10000 8.2 300 21:19 23.02.2020
2422 Thunderstorm 3 1008 80 10000 7.7 270 20:56 23.02.2020
2423 Rain 3 1007 86 10000 6.7 270 20:38 23.02.2020
2424 Rain 4 1007 86 10000 6.7 270 20:20 23.02.2020
2425 Rain 4 1007 86 10000 5.1 280 19:56 23.02.2020
2426 Rain 4 1007 86 10000 5.1 280 19:38 23.02.2020
2427 Rain 4 1007 86 10000 5.1 280 19:38 23.02.2020
2428 Rain 4 1006 86 10000 11.3 300 19:18 23.02.2020
2429 Rain 4 1005 93 9000 9.3 300 18:55 23.02.2020
2430 Rain 4 1004 86 7000 7.7 280 18:36 23.02.2020
2431 Rain 4 1004 86 7000 7.7 280 18:18 23.02.2020
2432 Rain 4 1003 93 8000 5.7 280 17:56 23.02.2020
2433 Rain 4 1002 93 6000 5.7 290 17:37 23.02.2020
2434 Rain 4 1002 93 6000 5.7 290 17:18 23.02.2020
2435 Drizzle 5 1001 93 7000 3.1 290 16:45 23.02.2020
2436 Drizzle 5 1001 93 7000 3.1 290 16:26 23.02.2020
2437 Rain 5 1000 93 6000 3.6 290 15:58 23.02.2020
2438 Rain 5 1000 93 9000 3.1 280 15:38 23.02.2020
2439 Rain 5 1000 93 9000 3.1 280 15:20 23.02.2020
2440 Rain 5 1001 93 9000 3.6 270 14:57 23.02.2020
2441 Rain 5 1001 93 9000 3.6 270 14:38 23.02.2020
2442 Rain 5 1001 86 10000 4.1 250 14:20 23.02.2020
2443 Rain 5 1002 93 10000 4.1 230 13:57 23.02.2020
2444 Rain 5 1002 93 9000 4.1 230 13:38 23.02.2020
2445 Rain 5 1002 93 9000 4.1 230 13:20 23.02.2020
2446 Rain 5 1003 93 9000 4.1 230 12:42 23.02.2020
2447 Rain 5 1004 93 9000 4.1 230 12:21 23.02.2020
2448 Rain 5 1005 93 10000 3.6 230 11:56 23.02.2020
2449 Rain 5 1005 93 10000 5.1 220 11:37 23.02.2020
2450 Rain 5 1005 93 10000 5.1 220 11:18 23.02.2020
2451 Rain 5 1008 93 8000 4.6 230 10:42 23.02.2020
2452 Rain 5 1008 93 8000 4.6 230 10:24 23.02.2020
2453 Rain 5 1008 93 8000 3.6 220 10:00 23.02.2020
2454 Rain 5 1008 93 8000 3.6 220 09:39 23.02.2020
2455 Rain 5 1009 93 10000 3.1 230 09:21 23.02.2020
2456 Rain 5 1010 86 10000 5.7 260 08:56 23.02.2020
2457 Rain 6 1010 81 10000 5.1 250 08:36 23.02.2020
2458 Rain 6 1010 81 10000 5.1 250 08:18 23.02.2020
2459 Clouds 7 1011 65 10000 7.7 260 07:40 23.02.2020
2460 Clouds 7 1011 70 10000 6.7 260 06:52 23.02.2020
2461 Clouds 7 1011 65 10000 7.2 260 05:50 23.02.2020
2462 Clouds 7 1011 70 10000 7.2 260 04:42 23.02.2020
2463 Clouds 7 1012 79 10000 6.7 260 03:25 23.02.2020
2464 Clouds 7 1012 79 10000 8.7 260 02:35 23.02.2020
2465 Clouds 7 1012 70 10000 7.2 260 01:25 23.02.2020
2466 Clouds 7 1012 65 10000 9.3 260 00:49 23.02.2020
2467 Clouds 6 1012 70 10000 7.2 250 00:27 23.02.2020
2468 Clouds 6 1012 81 10000 4.6 250 23:48 22.02.2020
2469 Rain 6 1012 81 8000 10.8 290 23:30 22.02.2020
2470 Clouds 7 1011 70 10000 8.2 260 22:59 22.02.2020
2471 Clouds 7 1011 70 10000 8.2 260 22:40 22.02.2020
2472 Rain 7 1011 70 10000 11.3 260 22:18 22.02.2020
2473 Clouds 8 1011 57 10000 9.8 260 21:41 22.02.2020
2474 Clouds 8 1011 57 10000 9.8 260 21:23 22.02.2020
2475 Rain 8 1011 61 10000 9.3 260 20:47 22.02.2020
2476 Clouds 8 1011 61 10000 8.7 250 20:25 22.02.2020
2477 Clouds 8 1011 57 10000 9.3 260 19:59 22.02.2020
2478 Clouds 8 1011 57 10000 9.3 260 19:41 22.02.2020
2479 Clouds 8 1011 61 10000 8.7 260 19:21 22.02.2020
2480 Clouds 8 1010 61 10000 10.3 270 18:54 22.02.2020
2481 Clouds 8 1010 66 10000 9.3 270 18:36 22.02.2020
2482 Clouds 8 1010 66 10000 9.3 270 18:18 22.02.2020
2483 Clouds 8 1009 70 10000 8.2 250 17:43 22.02.2020
2484 Clouds 8 1009 70 10000 8.2 250 17:25 22.02.2020
2485 Clouds 8 1008 70 10000 9.8 250 16:58 22.02.2020
2486 Clouds 8 1008 70 10000 9.8 250 16:39 22.02.2020
2487 Rain 8 1008 76 10000 9.3 250 16:20 22.02.2020
2488 Drizzle 8 1008 81 7000 10.8 260 15:45 22.02.2020
2489 Drizzle 8 1008 81 7000 10.8 260 15:45 22.02.2020
2490 Drizzle 8 1008 93 4500 8.7 250 15:27 22.02.2020
2491 Drizzle 8 1007 81 8000 11.3 240 14:58 22.02.2020
2492 Drizzle 8 1007 81 8000 11.3 240 14:39 22.02.2020
2493 Drizzle 8 1008 87 8000 10.3 230 14:20 22.02.2020
2494 Drizzle 8 1008 81 10000 12.3 230 13:42 22.02.2020
2495 Drizzle 8 1008 81 10000 12.3 230 13:20 22.02.2020
2496 Clouds 8 1008 75 10000 13.4 230 12:57 22.02.2020
2497 Clouds 7 1008 75 10000 10.8 230 12:38 22.02.2020
2498 Clouds 7 1008 75 10000 10.8 230 12:20 22.02.2020
2499 Clouds 7 1008 81 10000 9.8 230 11:42 22.02.2020
2500 Rain 7 1008 81 10000 10.3 230 11:23 22.02.2020
2501 Clouds 6 1009 87 10000 9.3 230 10:42 22.02.2020
2502 Rain 6 1009 87 10000 10.3 220 10:21 22.02.2020
2503 Rain 6 1010 87 10000 10.3 220 10:00 22.02.2020
2504 Rain 6 1010 87 10000 10.3 220 09:41 22.02.2020
2505 Rain 6 1010 87 9000 9.3 220 09:22 22.02.2020
2506 Rain 7 1010 81 9000 8.7 220 08:57 22.02.2020
2507 Rain 7 1010 75 10000 10.8 230 08:29 22.02.2020
2508 Clouds 7 1011 70 10000 10.3 230 07:59 22.02.2020
2509 Clouds 7 1011 70 10000 10.3 230 07:39 22.02.2020
2510 Clouds 7 1011 70 10000 10.3 230 07:18 22.02.2020
2511 Clouds 8 1011 70 10000 9.8 230 06:43 22.02.2020
2512 Clouds 8 1013 75 10000 10.8 220 04:45 22.02.2020
2513 Clouds 8 1013 75 10000 9.3 220 04:25 22.02.2020
2514 Clouds 7 1015 75 10000 8.7 230 02:42 22.02.2020
2515 Clouds 7 1016 75 10000 8.2 230 01:51 22.02.2020
2516 Clouds 7 1016 81 10000 7.7 230 01:30 22.02.2020
2517 Clouds 7 1016 81 10000 7.7 220 00:50 22.02.2020
2518 Clouds 7 1016 87 10000 6.7 220 00:32 22.02.2020
2519 Clouds 6 1017 87 10000 7.7 220 23:56 21.02.2020
2520 Clouds 6 1017 87 10000 7.7 220 23:37 21.02.2020
2521 Clouds 6 1017 87 10000 7.7 220 23:18 21.02.2020
2522 Clouds 6 1018 87 10000 7.2 210 22:42 21.02.2020
2523 Clouds 6 1018 87 10000 8.2 210 22:24 21.02.2020
2524 Rain 6 1018 87 10000 7.2 210 21:56 21.02.2020
2525 Rain 6 1018 87 10000 7.7 210 21:37 21.02.2020
2526 Rain 6 1018 87 10000 7.7 210 21:19 21.02.2020
2527 Rain 6 1018 93 9000 7.2 220 20:46 21.02.2020
2528 Rain 6 1019 87 9000 7.2 210 20:27 21.02.2020
2529 Rain 6 1019 87 10000 7.2 210 19:40 21.02.2020
2530 Rain 6 1019 87 10000 7.2 210 19:22 21.02.2020
2531 Rain 7 1019 75 10000 7.7 230 18:44 21.02.2020
2532 Rain 7 1019 75 10000 7.7 230 18:24 21.02.2020
2533 Rain 7 1019 75 10000 7.2 220 17:59 21.02.2020
2534 Rain 7 1019 65 10000 8.2 230 17:39 21.02.2020
2535 Rain 7 1019 65 10000 8.2 230 17:20 21.02.2020
2536 Clouds 7 1019 65 10000 7.7 230 16:57 21.02.2020
2537 Clouds 7 1019 65 10000 7.7 230 16:39 21.02.2020
2538 Clouds 7 1019 65 10000 7.7 230 16:20 21.02.2020
2539 Clouds 7 1019 70 10000 6.7 240 15:44 21.02.2020
2540 Clouds 7 1019 65 10000 8.2 240 15:19 21.02.2020
2541 Clouds 7 1019 65 10000 8.2 240 14:56 21.02.2020
2542 Clouds 7 1019 70 10000 8.7 250 14:38 21.02.2020
2543 Clouds 7 1019 70 10000 7.7 240 14:18 21.02.2020
2544 Clouds 7 1019 70 10000 8.7 250 13:42 21.02.2020
2545 Clouds 7 1019 70 10000 7.7 240 13:23 21.02.2020
2546 Clouds 7 1019 70 10000 6.7 250 12:50 21.02.2020
2547 Clouds 7 1019 70 10000 6.7 250 12:28 21.02.2020
2548 Clouds 6 1019 75 10000 7.7 250 11:59 21.02.2020
2549 Clouds 6 1019 75 10000 7.7 250 11:40 21.02.2020
2550 Clouds 6 1019 75 10000 6.2 250 11:21 21.02.2020
2551 Clouds 6 1018 81 10000 6.7 250 10:56 21.02.2020
2552 Clouds 6 1018 81 10000 5.7 260 10:38 21.02.2020
2553 Clouds 6 1018 81 10000 5.7 260 10:38 21.02.2020
2554 Clouds 5 1018 81 10000 5.7 260 10:19 21.02.2020
2555 Rain 5 1017 86 10000 4.1 260 09:56 21.02.2020
2556 Rain 4 1017 80 10000 5.7 260 09:37 21.02.2020
2557 Rain 4 1017 80 10000 5.7 260 09:18 21.02.2020
2558 Rain 4 1016 86 10000 5.7 250 08:41 21.02.2020
2559 Rain 4 1016 86 10000 5.7 250 08:22 21.02.2020
2560 Clouds 4 1015 86 10000 5.7 250 07:58 21.02.2020
2561 Rain 4 1015 86 10000 5.1 260 07:40 21.02.2020
2562 Rain 4 1015 86 10000 5.1 260 07:18 21.02.2020
2563 Clouds 4 1014 86 10000 5.1 240 06:47 21.02.2020
2564 Clouds 4 1014 86 10000 5.1 240 06:47 21.02.2020
2565 Clouds 4 1014 86 10000 4.1 240 06:28 21.02.2020
2566 Rain 4 1013 80 10000 5.1 270 05:42 21.02.2020
2567 Rain 4 1011 80 5000 8.7 280 04:36 21.02.2020
2568 Rain 4 1011 80 5000 8.7 280 04:18 21.02.2020
2569 Clouds 4 1010 80 10000 4.1 260 03:31 21.02.2020
2570 Rain 4 1008 80 9000 9.3 270 02:29 21.02.2020
2571 Rain 5 1007 80 10000 6.2 280 01:24 21.02.2020
2572 Drizzle 5 1005 87 10000 7.2 280 00:45 21.02.2020
2573 Drizzle 5 1005 87 10000 7.2 280 00:23 21.02.2020
2574 Rain 5 1004 87 10000 7.7 280 23:46 20.02.2020
2575 Rain 5 1004 87 10000 7.7 280 23:46 20.02.2020
2576 Rain 5 1004 87 10000 7.7 280 23:46 20.02.2020
2577 Rain 5 1004 87 10000 7.7 280 23:46 20.02.2020
2578 Rain 5 1003 81 10000 12.3 260 23:25 20.02.2020
2579 Rain 6 1002 93 10000 9.8 210 22:57 20.02.2020
2580 Rain 7 1002 87 10000 8.7 200 22:38 20.02.2020
2581 Rain 7 1002 87 10000 8.7 200 22:20 20.02.2020
2582 Rain 7 1003 81 10000 8.7 200 21:56 20.02.2020
2583 Rain 7 1003 81 10000 8.7 200 21:56 20.02.2020
2584 Rain 7 1003 81 10000 8.2 200 21:37 20.02.2020
2585 Rain 7 1003 81 10000 8.2 200 21:19 20.02.2020
2586 Rain 7 1003 81 10000 8.2 200 21:19 20.02.2020
2587 Rain 7 1004 75 10000 8.7 200 20:55 20.02.2020
2588 Clouds 7 1004 75 10000 6.7 180 20:37 20.02.2020
2589 Clouds 8 1004 75 10000 6.7 180 20:18 20.02.2020
2590 Clouds 8 1005 75 10000 7.7 180 19:58 20.02.2020
2591 Rain 8 1005 81 10000 7.2 180 19:39 20.02.2020
2592 Rain 8 1005 81 10000 7.2 180 19:21 20.02.2020
2593 Rain 8 1007 81 10000 6.2 180 18:39 20.02.2020
2594 Rain 8 1007 81 10000 6.2 180 18:20 20.02.2020
2595 Clouds 8 1007 87 10000 7.2 180 17:56 20.02.2020
2596 Clouds 8 1007 87 10000 7.2 180 17:38 20.02.2020
2597 Clouds 8 1008 81 10000 6.7 190 17:18 20.02.2020
2598 Clouds 8 1008 81 10000 6.7 190 16:55 20.02.2020
2599 Clouds 8 1009 76 10000 7.7 200 16:37 20.02.2020
2600 Clouds 8 1009 76 10000 7.7 200 16:18 20.02.2020
2601 Clouds 8 1009 87 10000 7.2 210 15:42 20.02.2020
2602 Clouds 8 1010 81 10000 9.3 210 15:21 20.02.2020
2603 Drizzle 8 1011 93 7000 4.6 200 14:57 20.02.2020
2604 Clouds 7 1010 87 10000 8.2 200 14:39 20.02.2020
2605 Clouds 7 1010 87 10000 8.2 200 14:20 20.02.2020
2606 Drizzle 7 1011 87 6000 8.2 200 13:46 20.02.2020
2607 Drizzle 7 1011 87 4800 7.7 210 13:21 20.02.2020
2608 Clouds 7 1012 93 10000 7.7 210 12:59 20.02.2020
2609 Drizzle 7 1012 93 9000 8.2 210 12:40 20.02.2020
2610 Drizzle 7 1012 93 9000 8.2 210 12:20 20.02.2020
2611 Drizzle 6 1012 93 9000 7.7 200 11:57 20.02.2020
2612 Drizzle 6 1012 93 9000 7.7 200 11:39 20.02.2020
2613 Drizzle 6 1012 93 9000 7.7 200 11:39 20.02.2020
2614 Clouds 6 1012 87 10000 6.7 200 11:20 20.02.2020
2615 Drizzle 6 1013 93 10000 5.7 190 10:55 20.02.2020
2616 Drizzle 5 1013 93 8000 5.7 190 10:37 20.02.2020
2617 Drizzle 5 1013 93 8000 5.7 190 10:19 20.02.2020
2618 Drizzle 5 1013 93 7000 4.6 180 09:38 20.02.2020
2619 Drizzle 5 1013 93 7000 4.6 180 09:19 20.02.2020
2620 Drizzle 4 1014 93 6000 4.6 170 08:42 20.02.2020
2621 Drizzle 4 1014 93 6000 4.6 170 08:24 20.02.2020
2622 Drizzle 4 1014 93 5000 4.6 170 07:48 20.02.2020
2623 Drizzle 4 1014 93 7000 4.6 170 07:27 20.02.2020
2624 Drizzle 3 1014 93 8000 4.6 160 06:57 20.02.2020
2625 Drizzle 3 1014 93 8000 4.6 160 06:38 20.02.2020
2626 Drizzle 3 1015 86 7000 4.1 180 05:47 20.02.2020
2627 Drizzle 3 1015 93 3000 4.1 190 05:25 20.02.2020
2628 Clouds 3 1015 80 10000 5.7 190 04:48 20.02.2020
2629 Clouds 2 1016 88 10000 4.1 200 03:46 20.02.2020
2630 Clouds 2 1016 88 10000 4.1 220 02:47 20.02.2020
2631 Clouds 2 1017 86 10000 3.6 220 01:25 20.02.2020
2632 Clouds 3 1017 86 10000 5.1 230 00:46 20.02.2020
2633 Clouds 3 1017 80 0 4.6 240 00:24 20.02.2020
2634 Clouds 3 1017 80 10000 4.1 240 23:46 19.02.2020
2635 Clouds 4 1017 80 10000 4.6 240 23:19 19.02.2020
2636 Clouds 4 1017 75 10000 5.1 250 22:43 19.02.2020
2637 Clouds 4 1017 80 10000 5.7 250 22:25 19.02.2020
2638 Clouds 4 1016 80 10000 5.1 240 21:59 19.02.2020
2639 Clouds 4 1016 80 10000 5.1 240 21:40 19.02.2020
2640 Rain 5 1016 86 10000 4.6 250 21:19 19.02.2020
2641 Rain 5 1016 86 10000 4.6 250 20:57 19.02.2020
2642 Rain 5 1016 86 10000 4.6 250 20:57 19.02.2020
2643 Rain 5 1016 86 10000 4.6 270 20:38 19.02.2020
2644 Rain 5 1016 86 10000 4.6 270 20:20 19.02.2020
2645 Rain 5 1016 86 10000 4.6 270 20:20 19.02.2020
2646 Rain 5 1016 86 10000 6.2 260 19:57 19.02.2020
2647 Rain 5 1016 93 10000 5.7 290 19:38 19.02.2020
2648 Rain 5 1016 93 10000 5.7 290 19:19 19.02.2020
2649 Clouds 5 1015 81 10000 5.7 260 18:58 19.02.2020
2650 Clouds 5 1014 81 10000 5.7 270 18:40 19.02.2020
2651 Clouds 5 1014 81 10000 5.7 270 18:21 19.02.2020
2652 Rain 5 1014 93 10000 6.2 280 17:56 19.02.2020
2653 Clouds 5 1013 93 10000 6.2 270 17:38 19.02.2020
2654 Clouds 6 1013 93 10000 6.2 270 17:18 19.02.2020
2655 Rain 6 1013 93 7000 7.2 290 16:42 19.02.2020
2656 Clouds 6 1013 87 10000 5.7 270 16:18 19.02.2020
2657 Clouds 6 1013 87 10000 5.7 270 16:18 19.02.2020
2658 Rain 6 1012 87 10000 6.2 280 15:56 19.02.2020
2659 Rain 6 1012 93 9000 3.1 270 15:37 19.02.2020
2660 Rain 6 1012 93 9000 3.1 270 15:19 19.02.2020
2661 Rain 6 1012 86 8000 6.2 260 14:41 19.02.2020
2662 Clouds 7 1011 75 10000 7.2 260 14:22 19.02.2020
2663 Clouds 7 1011 70 10000 7.2 270 13:43 19.02.2020
2664 Clouds 6 1011 70 10000 9.3 260 13:23 19.02.2020
2665 Rain 6 1010 81 10000 7.7 260 12:58 19.02.2020
2666 Rain 6 1010 75 9000 8.2 260 12:37 19.02.2020
2667 Rain 6 1010 75 9000 8.2 260 12:18 19.02.2020
2668 Rain 6 1010 75 10000 6.7 260 11:54 19.02.2020
2669 Rain 6 1010 75 10000 6.7 260 11:36 19.02.2020
2670 Rain 6 1010 75 10000 6.7 260 11:18 19.02.2020
2671 Rain 6 1009 80 10000 5.7 260 10:54 19.02.2020
2672 Rain 5 1009 80 10000 6.2 260 10:36 19.02.2020
2673 Rain 5 1009 80 10000 6.2 260 10:18 19.02.2020
2674 Clouds 5 1009 80 10000 6.7 260 09:41 19.02.2020
2675 Rain 5 1008 80 10000 7.2 260 09:20 19.02.2020
2676 Rain 5 1008 80 10000 5.1 250 08:55 19.02.2020
2677 Rain 5 1008 86 10000 5.7 240 08:37 19.02.2020
2678 Clouds 5 1007 86 10000 5.7 250 08:18 19.02.2020
2679 Rain 5 1007 86 10000 6.2 250 07:40 19.02.2020
2680 Rain 5 1007 86 10000 6.2 250 07:20 19.02.2020
2681 Rain 5 1007 86 10000 5.1 250 06:46 19.02.2020
2682 Rain 5 1007 86 10000 5.7 250 05:32 19.02.2020
2683 Rain 6 1007 81 10000 9.8 210 03:53 19.02.2020
2684 Rain 6 1008 81 10000 8.7 210 02:45 19.02.2020
2685 Rain 6 1009 75 10000 8.7 220 01:53 19.02.2020
2686 Rain 6 1009 75 10000 8.7 210 01:23 19.02.2020
2687 Clouds 6 1010 75 10000 8.2 210 00:42 19.02.2020
2688 Clouds 6 1010 81 10000 8.2 210 00:22 19.02.2020
2689 Rain 6 1012 87 10000 7.7 220 23:41 18.02.2020
2690 Rain 6 1012 87 10000 7.7 220 23:20 18.02.2020
2691 Clouds 6 1012 81 10000 7.7 220 22:56 18.02.2020
2692 Rain 6 1013 87 10000 7.7 220 22:37 18.02.2020
2693 Rain 6 1013 87 10000 7.7 220 22:19 18.02.2020
2694 Rain 6 1013 87 7000 6.7 220 21:55 18.02.2020
2695 Rain 6 1013 87 9000 6.7 220 21:36 18.02.2020
2696 Rain 6 1013 87 9000 6.7 220 21:18 18.02.2020
2697 Rain 6 1013 81 8000 8.2 220 20:55 18.02.2020
2698 Clouds 6 1014 81 10000 7.7 220 20:37 18.02.2020
2699 Clouds 6 1014 81 10000 7.7 220 20:18 18.02.2020
2700 Clouds 6 1014 81 10000 6.7 220 19:42 18.02.2020
2701 Rain 6 1014 80 10000 7.2 220 19:20 18.02.2020
2702 Rain 6 1014 75 10000 7.2 230 18:58 18.02.2020
2703 Rain 6 1014 75 10000 7.2 230 18:40 18.02.2020
2704 Clouds 6 1014 70 10000 8.2 240 18:19 18.02.2020
2705 Clouds 7 1014 65 10000 7.7 240 17:42 18.02.2020
2706 Clouds 7 1014 70 10000 8.2 230 17:20 18.02.2020
2707 Clouds 7 1014 70 10000 8.2 240 16:58 18.02.2020
2708 Clouds 7 1014 61 10000 8.2 240 16:38 18.02.2020
2709 Clouds 7 1014 61 10000 8.2 240 16:18 18.02.2020
2710 Rain 8 1015 61 10000 7.7 240 15:40 18.02.2020
2711 Rain 8 1015 61 10000 7.7 240 15:20 18.02.2020
2712 Clouds 7 1014 61 10000 7.7 240 14:57 18.02.2020
2713 Clouds 8 1014 61 10000 7.7 240 14:38 18.02.2020
2714 Clouds 8 1014 61 10000 9.8 240 14:20 18.02.2020
2715 Clouds 7 1015 73 10000 9.3 250 13:42 18.02.2020
2716 Clouds 7 1015 73 10000 9.3 250 13:23 18.02.2020
2717 Clouds 7 1015 65 10000 8.7 240 12:59 18.02.2020
2718 Clouds 6 1015 65 10000 9.8 240 12:40 18.02.2020
2719 Clouds 6 1015 65 10000 9.8 240 12:22 18.02.2020
2720 Clouds 6 1014 65 10000 9.3 240 11:44 18.02.2020
2721 Clouds 6 1014 70 10000 9.8 230 11:26 18.02.2020
2722 Clouds 5 1014 75 10000 8.7 250 10:58 18.02.2020
2723 Rain 5 1014 80 10000 7.7 250 10:39 18.02.2020
2724 Rain 5 1014 80 10000 7.7 250 10:18 18.02.2020
2725 Rain 5 1013 70 10000 9.3 240 09:56 18.02.2020
2726 Clouds 5 1013 70 10000 8.2 240 09:37 18.02.2020
2727 Clouds 5 1013 70 10000 8.2 240 09:19 18.02.2020
2728 Rain 5 1013 80 10000 6.7 250 08:43 18.02.2020
2729 Rain 5 1013 80 10000 6.7 250 08:21 18.02.2020
2730 Rain 5 1012 80 10000 8.7 270 07:59 18.02.2020
2731 Rain 5 1012 80 10000 8.7 270 07:41 18.02.2020
2732 Clouds 5 1012 75 10000 6.2 250 07:22 18.02.2020
2733 Rain 5 1011 81 10000 8.2 250 06:43 18.02.2020
2734 Clouds 6 1011 81 10000 5.1 250 06:25 18.02.2020
2735 Clouds 6 1011 81 10000 6.2 240 05:47 18.02.2020
2736 Clouds 6 1011 81 10000 6.2 240 04:52 18.02.2020
2737 Clouds 6 1011 87 10000 5.7 230 03:38 18.02.2020
2738 Rain 6 1011 87 10000 6.7 230 02:54 18.02.2020
2739 Clouds 6 1010 87 10000 6.2 230 01:23 18.02.2020
2740 Rain 6 1010 93 7000 5.1 270 00:22 18.02.2020
2741 Rain 6 1010 93 7000 5.1 270 00:22 18.02.2020
2742 Rain 6 1009 87 10000 7.2 220 23:58 17.02.2020
2743 Rain 6 1009 87 10000 7.7 220 23:38 17.02.2020
2744 Rain 6 1009 87 10000 7.7 220 23:19 17.02.2020
2745 Rain 6 1009 75 10000 7.7 230 22:57 17.02.2020
2746 Rain 6 1009 81 10000 6.2 230 22:38 17.02.2020
2747 Rain 6 1009 81 10000 6.2 230 22:18 17.02.2020
2748 Clouds 6 1009 81 10000 6.7 220 21:39 17.02.2020
2749 Rain 6 1009 81 10000 5.7 220 21:19 17.02.2020
2750 Clouds 6 1009 81 10000 7.2 220 20:55 17.02.2020
2751 Clouds 6 1009 81 10000 6.7 210 20:37 17.02.2020
2752 Clouds 6 1009 81 10000 6.7 210 20:18 17.02.2020
2753 Clouds 6 1009 81 10000 6.7 210 20:18 17.02.2020
2754 Clouds 6 1009 81 10000 6.2 220 19:42 17.02.2020
2755 Clouds 6 1009 75 10000 6.2 230 19:21 17.02.2020
2756 Clouds 6 1008 75 10000 6.7 230 18:56 17.02.2020
2757 Clouds 6 1008 75 10000 6.7 230 18:36 17.02.2020
2758 Clouds 6 1008 75 10000 6.7 230 18:36 17.02.2020
2759 Clouds 6 1008 75 10000 6.7 230 18:36 17.02.2020
2760 Clouds 6 1008 75 10000 6.7 230 18:36 17.02.2020
2761 Clouds 6 1008 75 10000 6.7 230 18:36 17.02.2020
2762 Clouds 7 1008 75 10000 6.7 230 18:18 17.02.2020
2763 Clouds 9 1007 53 10000 8.7 220 17:38 17.02.2020
2764 Clouds 9 1007 53 10000 8.7 220 17:20 17.02.2020
2765 Clouds 10 1007 53 10000 8.7 220 16:59 17.02.2020
2766 Clouds 10 1007 57 10000 10.3 220 16:40 17.02.2020
2767 Clouds 10 1007 57 10000 10.3 220 16:22 17.02.2020
2768 Clouds 10 1008 57 10000 8.7 230 15:46 17.02.2020
2769 Clouds 10 1008 57 10000 10.8 230 15:28 17.02.2020
2770 Clouds 10 1008 57 10000 11.3 230 14:59 17.02.2020
2771 Clouds 10 1008 57 10000 11.3 230 14:41 17.02.2020
2772 Clouds 10 1008 57 10000 10.8 230 14:22 17.02.2020
2773 Clouds 10 1008 57 10000 9.3 230 13:57 17.02.2020
2774 Clouds 10 1008 57 10000 9.3 230 13:57 17.02.2020
2775 Clouds 10 1008 57 10000 9.3 230 13:38 17.02.2020
2776 Clouds 10 1008 61 10000 9.8 240 13:19 17.02.2020
2777 Clouds 9 1008 61 10000 10.8 230 12:43 17.02.2020
2778 Clouds 9 1008 61 10000 10.3 230 12:25 17.02.2020
2779 Clouds 9 1008 61 10000 10.8 230 11:58 17.02.2020
2780 Clouds 9 1008 61 10000 9.8 230 11:39 17.02.2020
2781 Clouds 9 1008 61 10000 9.8 230 11:20 17.02.2020
2782 Clouds 8 1007 61 10000 10.3 230 10:55 17.02.2020
2783 Clouds 8 1007 61 10000 10.8 220 10:37 17.02.2020
2784 Clouds 8 1007 61 10000 10.8 220 10:18 17.02.2020
2785 Clouds 7 1007 65 10000 10.3 230 09:41 17.02.2020
2786 Clouds 7 1007 65 10000 10.3 230 09:21 17.02.2020
2787 Clouds 7 1007 65 10000 9.8 230 08:58 17.02.2020
2788 Clouds 7 1006 65 10000 9.8 240 08:40 17.02.2020
2789 Clouds 7 1006 65 10000 9.8 240 08:20 17.02.2020
2790 Clouds 7 1006 65 10000 9.3 240 07:47 17.02.2020
2791 Clouds 7 1005 61 10000 7.2 240 07:25 17.02.2020
2792 Clouds 7 1005 65 10000 9.8 240 06:52 17.02.2020
2793 Rain 7 1004 70 10000 9.8 240 06:33 17.02.2020
2794 Clouds 7 1004 70 10000 9.8 230 05:59 17.02.2020
2795 Clouds 7 1003 70 10000 9.3 230 05:38 17.02.2020
2796 Clouds 7 1002 70 10000 8.7 240 03:24 17.02.2020
2797 Clouds 8 1001 76 10000 9.3 230 01:59 17.02.2020
2798 Clouds 8 999 76 10000 9.8 240 00:51 17.02.2020
2799 Clouds 8 998 81 10000 8.7 230 00:23 17.02.2020
2800 Clouds 8 998 81 10000 8.7 220 23:54 16.02.2020
2801 Clouds 8 998 81 10000 8.7 220 23:54 16.02.2020
2802 Rain 8 998 87 10000 8.7 240 23:33 16.02.2020
2803 Clouds 8 997 93 10000 7.7 230 22:58 16.02.2020
2804 Rain 8 997 93 10000 5.7 230 22:39 16.02.2020
2805 Rain 8 997 93 10000 5.7 230 22:21 16.02.2020
2806 Rain 8 997 93 8000 5.1 260 21:59 16.02.2020
2807 Rain 8 996 93 5000 8.7 290 21:41 16.02.2020
2808 Rain 8 996 93 5000 8.7 290 21:23 16.02.2020
2809 Rain 9 995 93 8000 11.3 300 20:58 16.02.2020
2810 Clouds 12 990 59 10000 14.9 210 20:40 16.02.2020
2811 Clouds 14 990 59 10000 14.9 210 20:22 16.02.2020
2812 Clouds 15 991 59 10000 15.9 210 19:58 16.02.2020
2813 Clouds 15 991 63 10000 14.4 210 19:40 16.02.2020
2814 Clouds 16 991 63 10000 14.4 210 19:19 16.02.2020
2815 Clouds 16 992 59 10000 14.9 210 18:58 16.02.2020
2816 Clouds 15 993 59 10000 14.4 210 18:40 16.02.2020
2817 Clouds 15 993 59 10000 14.4 210 18:21 16.02.2020
2818 Clouds 15 994 59 10000 14.9 210 17:43 16.02.2020
2819 Clouds 15 994 62 10000 13.4 210 17:20 16.02.2020
2820 Rain 15 995 62 10000 14.4 210 16:56 16.02.2020
2821 Clouds 14 996 67 10000 14.9 210 16:38 16.02.2020
2822 Clouds 14 996 67 10000 14.9 210 16:20 16.02.2020
2823 Clouds 14 996 67 10000 14.9 220 15:56 16.02.2020
2824 Clouds 14 996 67 10000 13.4 210 15:37 16.02.2020
2825 Clouds 14 996 67 10000 13.4 210 15:18 16.02.2020
2826 Clouds 14 997 71 10000 11.8 210 14:38 16.02.2020
2827 Clouds 14 997 71 10000 11.8 210 14:19 16.02.2020
2828 Rain 13 998 71 10000 13.4 210 13:45 16.02.2020
2829 Rain 13 998 71 10000 13.4 210 13:24 16.02.2020
2830 Rain 13 998 82 10000 13.4 210 12:55 16.02.2020
2831 Rain 13 998 82 10000 12.9 210 12:36 16.02.2020
2832 Rain 13 998 82 10000 12.9 210 12:18 16.02.2020
2833 Rain 13 998 76 10000 14.4 210 11:38 16.02.2020
2834 Clouds 12 998 76 10000 13.4 210 11:18 16.02.2020
2835 Clouds 12 998 76 10000 14.4 210 10:56 16.02.2020
2836 Clouds 12 998 76 10000 14.4 210 10:38 16.02.2020
2837 Clouds 12 999 81 10000 12.3 210 10:20 16.02.2020
2838 Clouds 11 999 81 10000 12.3 200 09:55 16.02.2020
2839 Rain 11 999 87 10000 9.3 180 09:36 16.02.2020
2840 Rain 11 999 87 10000 9.3 180 09:18 16.02.2020
2841 Rain 11 1000 76 10000 11.3 190 08:45 16.02.2020
2842 Rain 11 1000 76 10000 7.7 170 08:21 16.02.2020
2843 Rain 12 1001 71 10000 9.3 190 07:55 16.02.2020
2844 Rain 11 1001 76 10000 10.3 200 07:34 16.02.2020
2845 Clouds 12 1002 66 10000 9.3 200 06:35 16.02.2020
2846 Clouds 11 1003 66 10000 8.2 200 04:57 16.02.2020
2847 Clouds 11 1004 58 10000 10.3 200 03:34 16.02.2020
2848 Clouds 10 1005 62 10000 10.8 190 02:32 16.02.2020
2849 Clouds 10 1005 57 10000 10.3 200 01:45 16.02.2020
2850 Clouds 10 1005 57 10000 9.8 190 01:26 16.02.2020
2851 Clouds 10 1006 57 10000 10.3 190 00:59 16.02.2020
2852 Clouds 10 1006 57 10000 10.8 190 00:40 16.02.2020
2853 Clouds 10 1006 61 10000 11.3 200 00:19 16.02.2020
2854 Clouds 9 1008 61 10000 8.2 180 23:42 15.02.2020
2855 Clouds 9 1008 61 10000 8.2 180 23:23 15.02.2020
2856 Clouds 9 1008 66 10000 7.7 180 22:56 15.02.2020
2857 Clouds 9 1009 66 10000 8.2 190 22:38 15.02.2020
2858 Clouds 9 1009 66 10000 8.2 190 22:19 15.02.2020
2859 Clouds 9 1009 66 10000 8.7 190 21:43 15.02.2020
2860 Clouds 9 1009 66 10000 8.2 180 21:24 15.02.2020
2861 Clouds 9 1010 66 10000 7.2 180 20:56 15.02.2020
2862 Clouds 9 1011 66 10000 7.2 180 20:37 15.02.2020
2863 Clouds 9 1011 66 10000 7.2 180 20:19 15.02.2020
2864 Clouds 9 1011 66 10000 6.2 170 19:41 15.02.2020
2865 Clouds 9 1012 66 10000 6.7 170 19:22 15.02.2020
2866 Clouds 9 1012 66 10000 6.2 170 18:41 15.02.2020
2867 Clouds 9 1012 71 10000 6.7 180 18:21 15.02.2020
2868 Clouds 9 1013 71 10000 5.1 170 17:57 15.02.2020
2869 Clouds 10 1013 71 10000 6.2 170 17:37 15.02.2020
2870 Clouds 10 1013 71 10000 6.2 170 17:19 15.02.2020
2871 Clouds 10 1014 71 10000 7.2 190 16:41 15.02.2020
2872 Clouds 10 1014 71 10000 7.2 190 16:23 15.02.2020
2873 Clouds 11 1014 71 10000 5.7 180 15:57 15.02.2020
2874 Clouds 10 1014 76 10000 7.2 200 15:39 15.02.2020
2875 Clouds 10 1014 76 10000 7.2 200 15:20 15.02.2020
2876 Clouds 10 1015 76 10000 6.7 210 14:43 15.02.2020
2877 Clouds 10 1015 71 10000 8.2 210 14:19 15.02.2020
2878 Clouds 9 1015 76 10000 6.7 200 13:43 15.02.2020
2879 Clouds 9 1015 76 10000 7.7 210 13:25 15.02.2020
2880 Clouds 9 1016 71 10000 7.7 210 12:59 15.02.2020
2881 Clouds 9 1016 71 10000 7.7 210 12:41 15.02.2020
2882 Clouds 9 1016 76 10000 8.2 220 12:22 15.02.2020
2883 Clouds 9 1017 70 10000 7.7 210 11:49 15.02.2020
2884 Clouds 8 1017 75 10000 8.2 210 11:30 15.02.2020
2885 Clouds 7 1017 75 10000 8.2 210 10:56 15.02.2020
2886 Clouds 7 1017 75 10000 8.2 210 10:37 15.02.2020
2887 Clouds 7 1017 75 10000 8.2 210 10:18 15.02.2020
2888 Clouds 6 1018 81 10000 4.6 210 09:41 15.02.2020
2889 Clouds 5 1018 81 10000 4.6 210 09:23 15.02.2020
2890 Clouds 5 1017 81 10000 5.7 210 08:44 15.02.2020
2891 Clouds 5 1017 81 10000 5.7 210 08:25 15.02.2020
2892 Clouds 5 1018 81 10000 7.7 210 07:59 15.02.2020
2893 Clouds 5 1018 81 10000 5.1 210 07:38 15.02.2020
2894 Clouds 5 1018 81 10000 5.1 210 07:18 15.02.2020
2895 Clouds 5 1018 81 10000 6.2 200 06:37 15.02.2020
2896 Clouds 5 1018 81 10000 4.1 180 05:55 15.02.2020
2897 Clouds 5 1018 81 10000 6.7 200 04:48 15.02.2020
2898 Clouds 5 1019 81 10000 4.6 190 03:45 15.02.2020
2899 Clouds 5 1020 80 10000 4.6 180 02:58 15.02.2020
2900 Clouds 5 1020 86 10000 4.6 170 02:23 15.02.2020
2901 Clouds 5 1021 80 10000 4.1 170 01:41 15.02.2020
2902 Clouds 5 1021 86 10000 3.6 160 00:58 15.02.2020
2903 Clouds 5 1021 86 10000 3.6 180 00:27 15.02.2020
2904 Clouds 4 1021 80 10000 4.1 170 23:44 14.02.2020
2905 Clouds 4 1021 80 10000 4.1 170 23:21 14.02.2020
2906 Clouds 4 1022 80 10000 3.1 170 22:55 14.02.2020
2907 Clouds 4 1022 80 10000 2.6 170 22:36 14.02.2020
2908 Clouds 4 1022 80 10000 2.6 170 22:18 14.02.2020
2909 Clouds 4 1022 75 10000 2.6 200 21:49 14.02.2020
2910 Clouds 4 1022 75 10000 3.1 220 21:30 14.02.2020
2911 Clouds 4 1022 75 10000 4.1 220 20:45 14.02.2020
2912 Clouds 4 1022 75 10000 4.1 220 20:20 14.02.2020
2913 Clouds 4 1021 80 10000 3.6 220 19:59 14.02.2020
2914 Clouds 5 1021 80 10000 2.1 220 19:40 14.02.2020
2915 Clouds 5 1021 80 10000 2.1 220 19:22 14.02.2020
2916 Clouds 5 1021 80 10000 3.1 230 18:56 14.02.2020
2917 Clouds 5 1021 80 10000 2.6 250 18:38 14.02.2020
2918 Clouds 5 1021 80 10000 2.6 250 18:19 14.02.2020
2919 Clouds 5 1020 75 10000 1 0 17:44 14.02.2020
2920 Clouds 5 1020 75 10000 3.1 250 17:22 14.02.2020
2921 Clouds 5 1020 75 10000 1.5 270 16:59 14.02.2020
2922 Clouds 6 1019 81 10000 1.5 270 16:40 14.02.2020
2923 Clouds 6 1019 81 10000 1.5 270 16:22 14.02.2020
2924 Clouds 6 1019 81 10000 2.1 280 15:56 14.02.2020
2925 Clouds 6 1019 81 10000 2.6 260 15:37 14.02.2020
2926 Clouds 6 1019 81 10000 2.6 260 15:19 14.02.2020
2927 Clouds 5 1018 81 10000 2.1 290 14:58 14.02.2020
2928 Clouds 6 1018 81 10000 1.5 270 14:40 14.02.2020
2929 Clouds 6 1018 81 10000 1.5 270 14:21 14.02.2020
2930 Clouds 5 1018 81 10000 2.6 230 13:55 14.02.2020
2931 Clouds 5 1017 86 10000 2.6 260 13:37 14.02.2020
2932 Clouds 5 1017 86 10000 2.6 260 13:18 14.02.2020
2933 Clouds 5 1017 86 10000 2.1 290 12:56 14.02.2020
2934 Clouds 5 1016 86 7000 2.1 280 12:37 14.02.2020
2935 Clouds 5 1016 86 7000 2.1 280 12:18 14.02.2020
2936 Clouds 5 1016 86 6000 2.1 260 11:55 14.02.2020
2937 Mist 4 1015 93 5000 1.5 300 11:36 14.02.2020
2938 Mist 4 1015 93 5000 1.5 300 11:18 14.02.2020
2939 Mist 4 1014 93 4200 3.1 320 10:41 14.02.2020
2940 Mist 4 1014 93 4200 3.1 320 10:22 14.02.2020
2941 Mist 4 1013 93 3400 2.6 320 09:44 14.02.2020
2942 Rain 4 1013 93 2800 2.6 310 09:23 14.02.2020
2943 Rain 3 1012 93 2500 2.6 320 08:57 14.02.2020
2944 Rain 3 1012 93 3500 2.6 310 08:38 14.02.2020
2945 Rain 3 1012 93 3500 2.6 310 08:20 14.02.2020
2946 Mist 3 1010 93 3800 2.1 290 07:49 14.02.2020
2947 Mist 3 1010 93 3800 2.1 300 07:29 14.02.2020
2948 Mist 3 1008 100 5000 0.5 0 06:39 14.02.2020
2949 Mist 3 1008 100 5000 0.5 0 06:18 14.02.2020
2950 Mist 3 1007 100 5000 0.5 0 05:29 14.02.2020
2951 Mist 3 1005 93 5000 1 170 03:49 14.02.2020
2952 Mist 3 1004 100 5000 0.5 0 02:58 14.02.2020
2953 Clouds 3 1004 100 7000 1 60 01:57 14.02.2020
2954 Clouds 2 1003 93 8000 1.5 160 00:46 14.02.2020
2955 Clouds 2 1002 93 9000 2.6 150 00:27 14.02.2020
2956 Clouds 2 1001 93 10000 2.6 130 23:57 13.02.2020
2957 Clouds 2 1001 93 10000 2.6 130 23:38 13.02.2020
2958 Clouds 2 1001 93 10000 2.6 150 23:18 13.02.2020
2959 Clouds 2 1000 93 10000 3.1 130 22:40 13.02.2020
2960 Clouds 2 1000 93 10000 3.1 130 22:19 13.02.2020
2961 Clouds 2 1000 93 10000 3.6 150 21:58 13.02.2020
2962 Clouds 2 1000 93 10000 3.6 140 21:40 13.02.2020
2963 Clouds 2 1000 93 10000 3.6 140 21:20 13.02.2020
2964 Rain 2 999 93 10000 5.7 140 20:43 13.02.2020
2965 Rain 2 999 93 10000 5.7 140 20:23 13.02.2020
2966 Rain 2 999 93 10000 5.7 140 19:58 13.02.2020
2967 Rain 2 999 93 10000 5.7 140 19:39 13.02.2020
2968 Snow 2 999 93 9000 7.2 140 19:21 13.02.2020
2969 Rain 2 999 86 10000 8.2 140 18:59 13.02.2020
2970 Rain 2 999 93 10000 7.7 140 18:41 13.02.2020
2971 Rain 3 999 93 10000 7.7 140 18:22 13.02.2020
2972 Rain 3 999 93 10000 6.7 130 17:57 13.02.2020
2973 Rain 3 1000 93 10000 7.2 130 17:37 13.02.2020
2974 Rain 3 1000 93 10000 7.2 130 17:19 13.02.2020
2975 Rain 3 1000 93 10000 8.2 130 16:55 13.02.2020
2976 Rain 3 1001 86 10000 6.7 120 16:36 13.02.2020
2977 Rain 3 1001 86 10000 6.7 120 16:36 13.02.2020
2978 Rain 3 1001 86 10000 6.7 120 16:18 13.02.2020
2979 Rain 3 1001 86 9000 7.2 140 15:55 13.02.2020
2980 Rain 4 1002 86 10000 6.7 150 15:36 13.02.2020
2981 Rain 4 1002 86 10000 6.7 150 15:18 13.02.2020
2982 Rain 4 1003 86 10000 6.7 150 14:55 13.02.2020
2983 Rain 4 1004 80 10000 6.7 150 14:37 13.02.2020
2984 Rain 4 1004 80 10000 6.7 150 14:18 13.02.2020
2985 Rain 4 1005 80 10000 6.2 160 13:41 13.02.2020
2986 Rain 4 1005 80 10000 6.2 160 13:18 13.02.2020
2987 Rain 4 1005 77 10000 6.7 160 12:54 13.02.2020
2988 Clouds 4 1006 80 10000 5.7 160 12:36 13.02.2020
2989 Clouds 4 1006 80 10000 5.7 160 12:18 13.02.2020
2990 Clouds 3 1007 77 10000 5.1 160 11:43 13.02.2020
2991 Clouds 3 1007 87 10000 5.1 160 11:19 13.02.2020
2992 Clouds 3 1008 86 10000 5.1 160 10:46 13.02.2020
2993 Clouds 2 1008 87 10000 5.1 160 10:27 13.02.2020
2994 Clouds 2 1009 87 10000 4.6 160 09:51 13.02.2020
2995 Clouds 1 1009 87 10000 3.6 160 09:26 13.02.2020
2996 Clouds 1 1009 87 10000 3.6 190 08:54 13.02.2020
2997 Clouds 1 1010 86 10000 4.6 200 08:36 13.02.2020
2998 Clouds 1 1010 86 10000 4.6 200 08:18 13.02.2020
2999 Clouds 1 1010 86 10000 4.1 210 07:39 13.02.2020
3000 Clouds 1 1010 86 10000 5.7 210 07:20 13.02.2020
3001 Clouds 1 1010 86 10000 5.7 210 06:44 13.02.2020
3002 Clouds 1 1010 86 10000 4.6 220 06:44 13.02.2020
3003 Clouds 1 1010 86 10000 4.6 220 06:19 13.02.2020
3004 Clouds 1 1011 80 10000 4.1 230 05:33 13.02.2020
3005 Clouds 2 1010 80 10000 5.7 240 04:26 13.02.2020
3006 Clouds 2 1011 80 10000 5.1 230 03:52 13.02.2020
3007 Clouds 2 1011 89 10000 4.6 240 03:24 13.02.2020
3008 Clouds 2 1011 89 10000 4.6 260 02:50 13.02.2020
3009 Clouds 2 1010 85 10000 6.2 250 02:19 13.02.2020
3010 Clouds 2 1010 85 10000 6.7 240 01:35 13.02.2020
3011 Clouds 3 1010 86 10000 5.7 250 00:39 13.02.2020
3012 Clouds 3 1010 86 10000 5.7 250 00:21 13.02.2020
3013 Rain 3 1010 86 10000 4.6 250 23:40 12.02.2020
3014 Rain 3 1010 86 10000 4.6 250 23:22 12.02.2020
3015 Clouds 2 1009 93 10000 6.2 240 22:45 12.02.2020
3016 Rain 2 1009 93 10000 8.2 250 22:27 12.02.2020
3017 Clouds 2 1009 83 10000 6.7 250 21:59 12.02.2020
3018 Rain 3 1009 86 9000 8.7 260 21:40 12.02.2020
3019 Rain 3 1009 86 9000 8.7 260 21:20 12.02.2020
3020 Clouds 3 1007 86 10000 9.3 250 20:59 12.02.2020
3021 Clouds 3 1007 86 10000 9.3 250 20:41 12.02.2020
3022 Rain 4 1008 81 10000 9.3 250 20:22 12.02.2020
3023 Rain 4 1008 78 10000 8.2 250 19:56 12.02.2020
3024 Clouds 4 1008 78 10000 8.2 260 19:37 12.02.2020
3025 Clouds 4 1008 80 10000 8.2 260 19:19 12.02.2020
3026 Clouds 4 1007 80 10000 6.7 250 18:47 12.02.2020
3027 Rain 4 1007 80 10000 9.3 250 18:19 12.02.2020
3028 Rain 4 1006 80 10000 7.2 250 17:56 12.02.2020
3029 Rain 4 1006 80 10000 8.7 260 17:37 12.02.2020
3030 Rain 4 1006 75 10000 6.7 270 17:19 12.02.2020
3031 Rain 4 1005 75 10000 7.7 260 16:40 12.02.2020
3032 Rain 4 1005 75 10000 7.7 260 16:22 12.02.2020
3033 Rain 4 1005 80 10000 7.2 250 15:58 12.02.2020
3034 Rain 4 1005 80 10000 7.2 250 15:58 12.02.2020
3035 Clouds 4 1005 80 10000 7.7 250 15:37 12.02.2020
3036 Clouds 4 1005 80 10000 7.7 250 15:18 12.02.2020
3037 Rain 5 1004 73 10000 8.7 260 14:42 12.02.2020
3038 Clouds 5 1004 75 10000 9.3 250 14:21 12.02.2020
3039 Rain 5 1003 75 10000 12.3 250 13:59 12.02.2020
3040 Rain 5 1003 75 10000 12.3 250 13:40 12.02.2020
3041 Rain 5 1003 75 10000 7.7 260 13:21 12.02.2020
3042 Rain 5 1003 86 9000 8.7 250 12:58 12.02.2020
3043 Rain 5 1002 75 10000 10.3 260 12:39 12.02.2020
3044 Rain 5 1002 75 10000 10.3 260 12:39 12.02.2020
3045 Rain 5 1002 75 10000 10.3 260 12:19 12.02.2020
3046 Rain 4 1002 80 10000 10.8 250 11:59 12.02.2020
3047 Rain 4 1002 80 10000 9.3 250 11:40 12.02.2020
3048 Rain 4 1002 80 10000 9.3 250 11:21 12.02.2020
3049 Rain 3 1002 80 10000 9.3 250 11:21 12.02.2020
3050 Rain 3 1001 86 10000 9.8 250 10:58 12.02.2020
3051 Rain 3 1001 86 9000 9.8 250 10:39 12.02.2020
3052 Rain 3 1001 86 9000 9.8 250 10:20 12.02.2020
3053 Rain 3 1001 86 6000 9.8 240 09:42 12.02.2020
3054 Rain 3 1001 86 6000 9.8 240 09:42 12.02.2020
3055 Rain 3 1001 89 10000 10.3 240 09:24 12.02.2020
3056 Rain 3 1000 89 10000 9.8 240 08:59 12.02.2020
3057 Rain 3 1000 89 10000 9.8 240 08:39 12.02.2020
3058 Rain 3 1000 90 10000 10.3 240 08:20 12.02.2020
3059 Rain 3 1000 90 10000 10.3 240 08:20 12.02.2020
3060 Rain 3 1000 90 10000 10.3 240 08:20 12.02.2020
3061 Rain 3 1000 90 10000 10.3 240 07:59 12.02.2020
3062 Rain 2 1000 90 10000 9.3 240 07:41 12.02.2020
3063 Rain 3 1000 90 10000 9.3 240 07:20 12.02.2020
3064 Rain 2 1000 90 10000 10.3 240 06:47 12.02.2020
3065 Clouds 3 1000 90 10000 7.2 240 06:20 12.02.2020
3066 Rain 2 1000 86 10000 9.3 260 05:32 12.02.2020
3067 Clouds 3 999 95 10000 8.7 240 04:43 12.02.2020
3068 Clouds 3 999 95 10000 8.7 240 03:59 12.02.2020
3069 Clouds 3 999 95 10000 9.3 240 03:30 12.02.2020
3070 Clouds 3 999 95 10000 11.3 250 02:54 12.02.2020
3071 Clouds 3 998 95 10000 9.8 240 02:27 12.02.2020
3072 Rain 2 998 93 10000 7.7 240 01:34 12.02.2020
3073 Clouds 2 998 78 4000 9.3 230 00:44 12.02.2020
3074 Clouds 2 998 78 10000 9.3 230 00:25 12.02.2020
3075 Clouds 2 998 93 10000 7.2 230 23:55 11.02.2020
3076 Clouds 2 998 93 10000 8.2 240 23:36 11.02.2020
3077 Clouds 2 998 93 10000 8.2 240 23:18 11.02.2020
3078 Clouds 3 997 80 10000 7.7 250 22:42 11.02.2020
3079 Clouds 3 997 80 10000 7.7 250 22:21 11.02.2020
3080 Clouds 3 997 69 10000 7.7 250 21:57 11.02.2020
3081 Rain 3 997 80 10000 7.7 250 21:39 11.02.2020
3082 Rain 3 997 80 10000 7.7 250 21:19 11.02.2020
3083 Clouds 3 997 80 10000 8.2 240 20:59 11.02.2020
3084 Clouds 3 997 77 10000 7.7 250 20:39 11.02.2020
3085 Clouds 3 997 78 10000 7.7 250 20:20 11.02.2020
3086 Rain 3 997 79 10000 7.7 250 19:59 11.02.2020
3087 Rain 3 997 86 6000 9.8 260 19:41 11.02.2020
3088 Rain 3 997 86 6000 9.8 260 19:23 11.02.2020
3089 Rain 4 996 80 10000 7.7 250 18:55 11.02.2020
3090 Rain 4 995 80 10000 8.2 270 18:37 11.02.2020
3091 Rain 4 995 80 10000 8.2 270 18:19 11.02.2020
3092 Rain 4 995 86 10000 8.2 260 17:55 11.02.2020
3093 Rain 4 995 86 10000 8.7 250 17:36 11.02.2020
3094 Rain 3 995 86 10000 8.7 250 17:18 11.02.2020
3095 Clouds 3 994 93 10000 9.3 250 16:55 11.02.2020
3096 Rain 3 994 80 10000 9.8 240 16:36 11.02.2020
3097 Rain 3 994 80 10000 9.8 240 16:18 11.02.2020
3098 Rain 4 993 80 10000 9.8 240 15:43 11.02.2020
3099 Rain 4 993 86 10000 9.3 240 15:23 11.02.2020
3100 Clouds 4 993 93 10000 8.2 260 14:54 11.02.2020
3101 Rain 4 992 70 10000 8.7 260 14:36 11.02.2020
3102 Rain 5 992 70 10000 8.7 260 14:18 11.02.2020
3103 Rain 5 992 75 10000 9.3 260 13:41 11.02.2020
3104 Rain 5 992 75 10000 9.3 260 13:21 11.02.2020
3105 Clouds 5 992 70 10000 12.3 250 12:58 11.02.2020
3106 Rain 5 992 75 10000 10.8 250 12:40 11.02.2020
3107 Rain 5 992 75 10000 10.8 250 12:20 11.02.2020
3108 Rain 5 992 75 10000 11.8 260 11:54 11.02.2020
3109 Rain 4 991 75 10000 10.3 250 11:36 11.02.2020
3110 Rain 4 991 75 10000 10.3 250 11:18 11.02.2020
3111 Clouds 4 991 75 10000 10.3 250 10:39 11.02.2020
3112 Clouds 4 991 75 10000 10.3 250 10:20 11.02.2020
3113 Clouds 4 990 75 10000 11.8 240 09:56 11.02.2020
3114 Rain 4 989 75 10000 11.8 250 09:38 11.02.2020
3115 Rain 4 989 75 10000 11.8 250 09:20 11.02.2020
3116 Rain 4 989 75 10000 11.8 240 08:46 11.02.2020
3117 Rain 4 989 75 10000 11.8 240 08:24 11.02.2020
3118 Clouds 4 989 80 10000 11.3 240 07:48 11.02.2020
3119 Clouds 3 988 80 10000 9.3 240 07:27 11.02.2020
3120 Clouds 3 988 86 10000 10.3 230 06:55 11.02.2020
3121 Clouds 3 988 86 10000 8.7 230 06:37 11.02.2020
3122 Clouds 3 988 86 10000 8.7 230 06:19 11.02.2020
3123 Clouds 3 989 86 10000 8.2 240 05:26 11.02.2020
3124 Rain 2 988 93 10000 6.7 240 04:53 11.02.2020
3125 Rain 2 988 93 6000 7.7 250 03:26 11.02.2020
3126 Clouds 2 988 93 10000 6.7 240 02:33 11.02.2020
3127 Clouds 2 987 90 10000 5.1 220 01:39 11.02.2020
3128 Clouds 2 987 93 10000 5.1 230 00:50 11.02.2020
3129 Snow 2 987 93 10000 4.6 220 00:23 11.02.2020
3130 Rain 3 986 86 9000 8.2 220 23:40 10.02.2020
3131 Rain 3 986 86 9000 8.2 220 23:21 10.02.2020
3132 Clouds 4 987 75 10000 9.8 230 22:57 10.02.2020
3133 Clouds 4 987 75 10000 8.7 210 22:36 10.02.2020
3134 Clouds 5 987 75 10000 8.7 210 22:18 10.02.2020
3135 Clouds 5 988 75 10000 7.7 210 21:40 10.02.2020
3136 Clouds 5 988 75 10000 7.7 210 21:22 10.02.2020
3137 Clouds 4 989 75 10000 6.7 210 20:56 10.02.2020
3138 Clouds 4 990 80 10000 5.1 210 20:37 10.02.2020
3139 Clouds 4 990 80 10000 5.1 210 20:19 10.02.2020
3140 Clouds 4 991 78 10000 6.2 230 19:57 10.02.2020
3141 Clouds 4 991 78 10000 7.2 230 19:36 10.02.2020
3142 Clouds 4 991 78 10000 7.2 230 19:18 10.02.2020
3143 Clouds 5 992 78 10000 8.7 240 18:56 10.02.2020
3144 Clouds 5 992 70 10000 7.7 240 18:38 10.02.2020
3145 Clouds 5 992 70 10000 7.7 240 18:20 10.02.2020
3146 Clouds 5 992 75 10000 9.8 250 17:54 10.02.2020
3147 Rain 5 991 70 10000 9.3 260 17:36 10.02.2020
3148 Rain 5 991 70 10000 9.3 260 17:18 10.02.2020
3149 Rain 6 991 65 10000 10.8 250 16:56 10.02.2020
3150 Rain 6 991 75 10000 9.8 270 16:37 10.02.2020
3151 Rain 6 991 75 10000 9.8 270 16:18 10.02.2020
3152 Clouds 5 991 80 10000 7.7 270 15:41 10.02.2020
3153 Clouds 6 990 75 8000 12.3 280 15:22 10.02.2020
3154 Rain 6 989 75 10000 12.3 280 14:58 10.02.2020
3155 Rain 6 989 70 10000 9.3 270 14:40 10.02.2020
3156 Rain 6 989 70 10000 9.3 270 14:19 10.02.2020
3157 Rain 6 989 70 10000 9.3 270 14:19 10.02.2020
3158 Clouds 6 988 75 10000 9.8 260 13:56 10.02.2020
3159 Rain 6 988 75 10000 10.3 270 13:37 10.02.2020
3160 Rain 6 988 75 10000 10.3 270 13:18 10.02.2020
3161 Rain 6 987 81 10000 10.3 290 12:43 10.02.2020
3162 Rain 6 987 81 10000 10.3 290 12:43 10.02.2020
3163 Rain 6 987 81 10000 10.3 290 12:24 10.02.2020
3164 Clouds 6 986 86 6000 15.4 280 11:55 10.02.2020
3165 Rain 6 985 81 10000 11.8 270 11:37 10.02.2020
3166 Rain 6 985 81 10000 11.8 270 11:19 10.02.2020
3167 Clouds 7 984 75 10000 9.8 260 10:45 10.02.2020
3168 Clouds 7 984 81 10000 9.8 270 10:26 10.02.2020
3169 Clouds 7 983 81 10000 8.7 260 09:45 10.02.2020
3170 Rain 7 982 81 10000 8.7 250 09:25 10.02.2020
3171 Rain 6 982 81 10000 8.7 250 08:55 10.02.2020
3172 Rain 7 982 81 10000 8.2 260 08:36 10.02.2020
3173 Rain 7 982 81 10000 8.2 260 08:18 10.02.2020
3174 Rain 7 981 87 9000 7.2 250 07:46 10.02.2020
3175 Rain 7 981 87 9000 7.2 250 07:25 10.02.2020
3176 Rain 7 981 81 10000 7.7 250 06:19 10.02.2020
3177 Rain 7 980 87 10000 8.7 250 04:27 10.02.2020
3178 Rain 7 980 87 10000 10.3 250 03:34 10.02.2020
3179 Rain 8 979 81 10000 9.3 230 02:54 10.02.2020
3180 Rain 8 979 81 10000 9.3 230 02:54 10.02.2020
3181 Rain 8 979 87 10000 10.8 220 01:55 10.02.2020
3182 Rain 8 980 93 10000 9.8 220 00:49 10.02.2020
3183 Clouds 8 980 87 10000 8.2 210 00:31 10.02.2020
3184 Clouds 8 980 87 10000 8.2 210 00:31 10.02.2020
3185 Rain 8 982 87 8000 8.2 240 23:56 09.02.2020
3186 Rain 8 982 93 4500 10.8 260 23:38 09.02.2020
3187 Rain 8 982 93 4500 10.8 260 23:19 09.02.2020
3188 Rain 10 981 87 8000 14.4 220 22:40 09.02.2020
3189 Rain 10 982 76 10000 15.9 210 22:21 09.02.2020
3190 Rain 11 982 76 10000 14.9 210 21:44 09.02.2020
3191 Rain 11 983 76 10000 17.5 210 21:25 09.02.2020
3192 Rain 11 984 71 10000 16.5 210 20:58 09.02.2020
3193 Rain 11 985 76 10000 16.5 210 20:40 09.02.2020
3194 Rain 11 985 76 10000 16.5 210 20:18 09.02.2020
3195 Rain 11 987 71 10000 15.9 210 19:40 09.02.2020
3196 Rain 11 987 71 10000 15.9 210 19:21 09.02.2020
3197 Rain 11 987 66 10000 15.4 210 18:57 09.02.2020
3198 Clouds 12 988 58 10000 15.9 210 18:39 09.02.2020
3199 Clouds 12 988 58 10000 15.9 210 18:21 09.02.2020
3200 Clouds 12 989 54 10000 14.9 210 17:43 09.02.2020
3201 Clouds 12 990 50 10000 13.4 200 17:23 09.02.2020
3202 Clouds 12 991 47 10000 14.4 200 16:57 09.02.2020
3203 Clouds 12 992 47 10000 12.3 200 16:38 09.02.2020
3204 Clouds 12 992 47 10000 12.3 200 16:20 09.02.2020
3205 Clouds 12 993 50 10000 11.8 190 15:56 09.02.2020
3206 Clouds 12 994 50 10000 11.8 190 15:38 09.02.2020
3207 Clouds 12 994 50 10000 11.8 190 15:20 09.02.2020
3208 Clouds 11 996 54 10000 13.4 190 14:42 09.02.2020
3209 Clouds 11 997 54 10000 12.9 190 14:23 09.02.2020
3210 Rain 11 998 57 10000 11.8 190 13:55 09.02.2020
3211 Clouds 10 999 61 10000 11.3 190 13:37 09.02.2020
3212 Clouds 10 999 61 10000 11.3 190 13:18 09.02.2020
3213 Clouds 10 1001 61 10000 10.8 190 12:42 09.02.2020
3214 Clouds 10 1001 61 10000 10.8 190 12:42 09.02.2020
3215 Clouds 9 1002 66 10000 10.3 190 12:20 09.02.2020
3216 Clouds 9 1003 66 10000 11.3 190 11:58 09.02.2020
3217 Clouds 9 1005 70 10000 9.8 190 11:39 09.02.2020
3218 Clouds 9 1005 70 10000 9.8 190 11:19 09.02.2020
3219 Clouds 8 1007 70 10000 9.3 190 10:43 09.02.2020
3220 Clouds 8 1007 70 10000 9.3 190 10:23 09.02.2020
3221 Clouds 8 1007 75 10000 7.7 180 09:57 09.02.2020
3222 Clouds 8 1007 75 10000 7.7 180 09:38 09.02.2020
3223 Clouds 7 1008 75 10000 7.7 180 09:19 09.02.2020
3224 Clouds 7 1009 81 10000 7.7 170 08:41 09.02.2020
3225 Clouds 7 1009 81 10000 7.7 170 08:23 09.02.2020
3226 Clouds 6 1010 81 10000 6.2 170 07:52 09.02.2020
3227 Clouds 6 1011 81 10000 6.2 190 07:30 09.02.2020
3228 Clouds 6 1013 81 10000 7.2 200 06:38 09.02.2020
3229 Clouds 7 1013 81 10000 6.7 200 05:56 09.02.2020
3230 Clouds 7 1014 87 10000 6.2 200 05:34 09.02.2020
3231 Clouds 7 1015 81 10000 6.7 210 04:51 09.02.2020
3232 Clouds 6 1015 87 10000 5.7 200 02:58 09.02.2020
3233 Clouds 6 1015 87 10000 5.7 190 02:38 09.02.2020
3234 Clouds 7 1016 87 10000 4.6 200 01:45 09.02.2020
3235 Clouds 7 1016 87 10000 4.1 200 01:27 09.02.2020
3236 Clouds 7 1017 87 10000 4.1 220 00:38 09.02.2020
3237 Clouds 7 1017 87 10000 4.1 220 00:18 09.02.2020
3238 Rain 7 1017 87 10000 5.1 220 23:41 08.02.2020
3239 Clouds 7 1017 75 10000 5.7 210 23:19 08.02.2020
3240 Clouds 7 1017 75 10000 5.1 220 22:41 08.02.2020
3241 Clouds 7 1017 75 10000 4.6 220 22:21 08.02.2020
3242 Clouds 7 1017 70 10000 5.1 210 21:58 08.02.2020
3243 Clouds 7 1017 70 10000 5.1 210 21:39 08.02.2020
3244 Clouds 7 1017 70 10000 5.1 210 21:19 08.02.2020
3245 Clouds 7 1017 70 10000 6.2 210 20:55 08.02.2020
3246 Clouds 7 1017 70 10000 6.2 210 20:55 08.02.2020
3247 Clouds 7 1017 70 10000 5.1 210 20:37 08.02.2020
3248 Clouds 7 1017 70 10000 5.1 210 20:18 08.02.2020
3249 Clouds 7 1017 70 10000 3.6 190 20:18 08.02.2020
3250 Clouds 7 1017 70 10000 3.6 190 19:54 08.02.2020
3251 Clouds 7 1017 70 10000 4.1 170 19:36 08.02.2020
3252 Clouds 7 1017 70 10000 4.1 170 19:18 08.02.2020
3253 Clouds 7 1017 70 10000 4.6 160 18:42 08.02.2020
3254 Clouds 7 1017 70 10000 4.6 160 18:22 08.02.2020
3255 Clouds 7 1018 70 10000 3.6 180 17:43 08.02.2020
3256 Clouds 7 1018 70 10000 3.6 180 17:21 08.02.2020
3257 Clouds 7 1017 70 10000 4.6 150 16:58 08.02.2020
3258 Clouds 7 1017 70 10000 4.6 150 16:38 08.02.2020
3259 Clouds 7 1018 70 10000 5.1 170 16:20 08.02.2020
3260 Clouds 7 1018 65 10000 4.6 170 15:42 08.02.2020
3261 Clouds 7 1018 65 10000 4.1 160 15:19 08.02.2020
3262 Clouds 7 1018 65 10000 3.6 170 14:58 08.02.2020
3263 Clouds 7 1018 65 10000 3.6 170 14:39 08.02.2020
3264 Clouds 7 1019 65 10000 3.1 190 14:18 08.02.2020
3265 Clouds 7 1018 65 10000 5.7 170 13:43 08.02.2020
3266 Clouds 7 1019 65 10000 5.1 180 13:23 08.02.2020
3267 Clouds 7 1019 65 10000 5.1 180 13:23 08.02.2020
3268 Clouds 6 1019 65 10000 5.1 180 12:55 08.02.2020
3269 Clouds 6 1019 66 10000 4.1 170 12:37 08.02.2020
3270 Clouds 6 1019 66 10000 4.1 170 12:19 08.02.2020
3271 Clouds 6 1019 66 10000 4.1 170 12:19 08.02.2020
3272 Clouds 6 1020 66 10000 3.6 170 11:41 08.02.2020
3273 Clear 5 1020 69 10000 4.1 180 11:21 08.02.2020
3274 Clear 4 1020 69 10000 4.6 170 10:55 08.02.2020
3275 Clear 4 1020 71 10000 4.6 150 10:37 08.02.2020
3276 Clear 3 1020 71 10000 4.6 150 10:19 08.02.2020
3277 Clear 2 1020 80 10000 4.1 160 09:46 08.02.2020
3278 Clear 2 1020 80 10000 4.1 160 09:23 08.02.2020
3279 Clear 1 1020 86 10000 3.6 150 08:41 08.02.2020
3280 Clear 1 1020 86 10000 4.1 140 08:41 08.02.2020
3281 Clear 1 1020 86 10000 3.6 150 08:22 08.02.2020
3282 Clear 1 1020 86 10000 3.6 150 07:53 08.02.2020
3283 Clear 1 1020 80 10000 4.1 160 07:33 08.02.2020
3284 Clear 1 1020 80 10000 4.6 150 06:54 08.02.2020
3285 Clear 2 1020 87 10000 4.6 150 06:21 08.02.2020
3286 Clear 2 1021 87 10000 4.1 150 05:33 08.02.2020
3287 Clear 2 1021 88 10000 4.6 150 04:54 08.02.2020
3288 Clear 2 1021 88 10000 5.7 150 04:24 08.02.2020
3289 Clouds 3 1022 88 10000 5.7 150 03:37 08.02.2020
3290 Clouds 3 1023 80 10000 5.1 160 02:29 08.02.2020
3291 Clouds 3 1023 80 10000 5.1 160 02:29 08.02.2020
3292 Clouds 4 1023 75 10000 7.7 160 01:33 08.02.2020
3293 Clouds 4 1024 75 10000 7.2 160 00:47 08.02.2020
3294 Clouds 5 1024 75 10000 7.7 160 00:25 08.02.2020
3295 Clouds 5 1024 75 10000 7.7 150 23:58 07.02.2020
3296 Clouds 5 1025 75 10000 6.7 160 23:39 07.02.2020
3297 Clouds 5 1025 75 10000 6.7 160 23:20 07.02.2020
3298 Clouds 5 1025 80 10000 6.7 170 22:55 07.02.2020
3299 Clouds 5 1025 80 10000 6.2 170 22:36 07.02.2020
3300 Clouds 5 1025 80 10000 6.2 170 22:18 07.02.2020
3301 Clouds 5 1025 80 10000 7.7 150 21:41 07.02.2020
3302 Clouds 5 1025 80 10000 7.7 150 21:21 07.02.2020
3303 Clouds 5 1026 80 10000 6.2 150 20:40 07.02.2020
3304 Clouds 5 1026 80 10000 6.2 150 20:21 07.02.2020
3305 Clouds 5 1026 80 10000 6.2 150 19:56 07.02.2020
3306 Clouds 5 1026 80 10000 6.2 160 19:37 07.02.2020
3307 Clouds 5 1026 80 10000 6.2 160 19:19 07.02.2020
3308 Clouds 5 1026 80 10000 4.1 150 18:46 07.02.2020
3309 Clouds 5 1026 75 10000 6.2 160 18:26 07.02.2020
3310 Clouds 6 1027 81 10000 5.7 140 17:57 07.02.2020
3311 Clouds 6 1027 81 10000 5.7 140 17:39 07.02.2020
3312 Clouds 6 1027 75 10000 7.2 140 17:20 07.02.2020
3313 Clouds 6 1027 75 10000 6.7 150 16:52 07.02.2020
3314 Clouds 6 1027 81 10000 5.7 150 16:24 07.02.2020
3315 Clouds 6 1027 81 10000 5.1 150 15:55 07.02.2020
3316 Clouds 6 1028 81 10000 5.1 150 15:36 07.02.2020
3317 Clouds 6 1028 81 10000 5.1 150 15:18 07.02.2020
3318 Clouds 6 1028 81 10000 4.1 140 14:42 07.02.2020
3319 Clouds 6 1028 81 10000 4.1 150 14:24 07.02.2020
3320 Clouds 6 1029 81 10000 3.6 140 13:57 07.02.2020
3321 Clouds 6 1029 81 10000 3.1 150 13:39 07.02.2020
3322 Clouds 6 1029 81 10000 3.1 150 13:20 07.02.2020
3323 Clouds 6 1029 87 10000 3.6 160 12:45 07.02.2020
3324 Clouds 6 1029 87 10000 2.6 160 12:26 07.02.2020
3325 Clouds 6 1029 87 10000 1 0 11:59 07.02.2020
3326 Clouds 6 1029 87 10000 1 0 11:40 07.02.2020
3327 Clouds 6 1029 87 10000 1 0 11:19 07.02.2020
3328 Clouds 5 1030 87 10000 0.5 20 10:41 07.02.2020
3329 Clouds 5 1030 87 10000 0.5 20 10:22 07.02.2020
3330 Clouds 5 1030 93 10000 0.5 0 09:56 07.02.2020
3331 Clouds 5 1030 93 10000 1 0 09:37 07.02.2020
3332 Clouds 5 1030 93 10000 1 0 09:19 07.02.2020
3333 Clouds 5 1029 93 10000 1 220 08:42 07.02.2020
3334 Clouds 5 1029 93 10000 1 220 08:20 07.02.2020
3335 Clouds 5 1029 93 9000 1.5 230 07:44 07.02.2020
3336 Clouds 5 1029 93 9000 1.5 230 07:26 07.02.2020
3337 Clouds 5 1029 93 8000 1.5 240 06:45 07.02.2020
3338 Clouds 5 1029 93 8000 1.5 240 06:25 07.02.2020
3339 Clouds 5 1029 93 9000 0.5 0 05:44 07.02.2020
3340 Drizzle 5 1029 100 9000 1.5 260 04:42 07.02.2020
3341 Rain 5 1029 87 10000 1.5 300 02:50 07.02.2020
3342 Rain 6 1029 87 10000 2.6 290 01:42 07.02.2020
3343 Clouds 6 1029 81 10000 2.6 290 00:48 07.02.2020
3344 Clouds 6 1029 81 10000 2.6 290 00:20 07.02.2020
3345 Clouds 6 1029 81 10000 3.1 280 23:37 06.02.2020
3346 Clouds 6 1029 81 10000 3.1 280 23:19 06.02.2020
3347 Clouds 6 1029 81 10000 2.6 270 22:44 06.02.2020
3348 Clouds 6 1028 81 10000 3.6 280 22:25 06.02.2020
3349 Clouds 6 1028 81 10000 3.1 280 21:38 06.02.2020
3350 Clouds 6 1028 81 10000 3.1 280 21:20 06.02.2020
3351 Clouds 6 1028 81 10000 4.1 270 20:58 06.02.2020
3352 Clouds 6 1028 81 10000 3.6 260 20:39 06.02.2020
3353 Clouds 6 1028 81 10000 3.6 260 20:19 06.02.2020
3354 Clouds 6 1028 81 10000 3.1 270 19:59 06.02.2020
3355 Clouds 6 1028 87 10000 3.6 270 19:41 06.02.2020
3356 Clouds 6 1028 87 10000 3.6 270 19:23 06.02.2020
3357 Clouds 6 1028 87 10000 3.6 270 18:59 06.02.2020
3358 Clouds 6 1028 87 10000 3.6 270 18:40 06.02.2020
3359 Clouds 6 1028 81 10000 4.1 260 18:22 06.02.2020
3360 Clouds 6 1028 81 10000 4.6 260 17:45 06.02.2020
3361 Clouds 6 1028 75 10000 5.7 260 17:22 06.02.2020
3362 Clouds 6 1028 75 10000 4.6 260 16:59 06.02.2020
3363 Clouds 7 1027 81 10000 3.6 260 16:41 06.02.2020
3364 Clouds 7 1027 81 10000 3.6 260 16:22 06.02.2020
3365 Clouds 7 1027 75 10000 5.1 270 15:43 06.02.2020
3366 Clouds 7 1027 75 10000 5.1 270 15:43 06.02.2020
3367 Clouds 7 1027 75 10000 4.6 260 15:22 06.02.2020
3368 Clouds 7 1028 75 10000 5.1 260 14:51 06.02.2020
3369 Clouds 7 1028 75 10000 4.6 270 14:29 06.02.2020
3370 Clouds 7 1028 75 10000 5.1 270 13:59 06.02.2020
3371 Clouds 7 1028 75 10000 3.6 260 13:41 06.02.2020
3372 Clouds 7 1028 75 10000 3.6 260 13:22 06.02.2020
3373 Clouds 7 1028 81 10000 4.1 270 12:44 06.02.2020
3374 Clouds 7 1028 81 10000 4.1 260 12:19 06.02.2020
3375 Clouds 6 1028 87 10000 4.1 250 11:58 06.02.2020
3376 Drizzle 6 1028 81 10000 4.1 270 11:39 06.02.2020
3377 Drizzle 6 1028 81 10000 4.1 270 11:21 06.02.2020
3378 Drizzle 5 1028 86 10000 4.1 250 10:57 06.02.2020
3379 Clouds 5 1028 86 10000 3.6 260 10:39 06.02.2020
3380 Clouds 5 1028 86 10000 3.6 260 10:21 06.02.2020
3381 Clouds 5 1028 86 10000 3.1 260 09:57 06.02.2020
3382 Clouds 5 1028 86 10000 4.1 260 09:38 06.02.2020
3383 Clouds 5 1028 86 10000 4.1 260 09:19 06.02.2020
3384 Drizzle 5 1028 86 10000 3.6 260 08:42 06.02.2020
3385 Drizzle 5 1028 86 10000 3.6 260 08:22 06.02.2020
3386 Clouds 4 1027 86 10000 4.6 250 07:51 06.02.2020
3387 Clouds 4 1028 86 10000 4.6 260 07:28 06.02.2020
3388 Clouds 4 1028 80 10000 4.1 260 06:46 06.02.2020
3389 Clouds 4 1028 80 10000 4.1 260 06:18 06.02.2020
3390 Clouds 4 1028 86 10000 4.6 250 04:54 06.02.2020
3391 Clouds 4 1029 86 10000 4.6 270 03:44 06.02.2020
3392 Clouds 4 1029 80 10000 4.1 240 02:58 06.02.2020
3393 Clouds 4 1029 80 10000 3.6 260 01:42 06.02.2020
3394 Clouds 4 1030 80 10000 4.6 260 00:59 06.02.2020
3395 Clouds 4 1030 80 10000 4.1 260 00:28 06.02.2020
3396 Clouds 4 1030 80 10000 5.1 260 23:55 05.02.2020
3397 Clouds 4 1031 80 10000 5.1 260 23:36 05.02.2020
3398 Clouds 4 1031 80 10000 5.1 260 23:18 05.02.2020
3399 Clouds 4 1031 75 10000 3.6 260 22:40 05.02.2020
3400 Clouds 4 1031 75 10000 3.6 260 22:22 05.02.2020
3401 Clouds 4 1031 75 10000 3.6 260 21:57 05.02.2020
3402 Clouds 4 1031 75 10000 3.6 250 21:39 05.02.2020
3403 Clouds 4 1031 75 10000 3.6 250 21:20 05.02.2020
3404 Clouds 4 1031 75 10000 2.6 260 20:39 05.02.2020
3405 Clouds 4 1031 75 10000 2.6 260 20:21 05.02.2020
3406 Clouds 4 1032 75 10000 2.6 250 19:59 05.02.2020
3407 Clouds 4 1032 75 10000 3.1 270 19:40 05.02.2020
3408 Clouds 5 1032 75 10000 3.1 270 19:19 05.02.2020
3409 Clouds 5 1032 70 10000 3.6 270 18:57 05.02.2020
3410 Clouds 5 1032 70 10000 4.1 270 18:39 05.02.2020
3411 Clouds 5 1032 70 10000 4.1 270 18:19 05.02.2020
3412 Clouds 5 1032 70 10000 4.1 270 17:39 05.02.2020
3413 Clouds 5 1032 70 10000 4.1 270 17:20 05.02.2020
3414 Clouds 5 1032 71 10000 4.1 260 16:58 05.02.2020
3415 Clouds 6 1032 71 10000 5.1 280 16:40 05.02.2020
3416 Clouds 6 1032 71 10000 4.1 260 16:40 05.02.2020
3417 Clouds 6 1032 71 10000 5.1 280 16:22 05.02.2020
3418 Clouds 6 1032 71 10000 4.1 250 15:56 05.02.2020
3419 Clouds 6 1032 71 10000 4.1 260 15:38 05.02.2020
3420 Clouds 6 1032 71 10000 4.1 260 15:18 05.02.2020
3421 Clouds 6 1033 56 10000 4.1 250 14:42 05.02.2020
3422 Clouds 7 1033 56 10000 4.1 250 14:22 05.02.2020
3423 Clear 7 1033 56 10000 3.6 260 13:57 05.02.2020
3424 Clear 6 1033 52 10000 2.6 240 13:38 05.02.2020
3425 Clear 6 1033 52 10000 2.6 240 13:19 05.02.2020
3426 Clear 4 1034 60 10000 2.6 270 12:40 05.02.2020
3427 -273 0 0 0 0 0 12:21 05.02.2020
3428 Clear 3 1034 64 10000 3.1 310 11:42 05.02.2020
3429 Clear 2 1034 64 10000 3.1 310 11:23 05.02.2020
3430 Clear 2 1033 74 10000 3.1 300 10:59 05.02.2020
3431 Clear 1 1033 74 10000 2.1 300 10:39 05.02.2020
3432 Clear 1 1033 74 10000 2.1 300 10:19 05.02.2020
3433 Clear 1 1033 74 10000 2.1 300 10:19 05.02.2020
3434 Clear 0 1033 75 10000 2.1 280 09:44 05.02.2020
3435 Clear -1 1032 86 10000 1 0 09:22 05.02.2020
3436 Clear -1 1032 92 10000 1.5 280 08:58 05.02.2020
3437 Clear -1 1031 92 10000 1.5 250 08:39 05.02.2020
3438 Clear -1 1031 92 10000 1.5 250 08:21 05.02.2020
3439 Clear -1 1031 92 10000 2.1 280 07:44 05.02.2020
3440 Clear -1 1030 86 10000 2.1 290 07:26 05.02.2020
3441 Clear -1 1030 86 10000 2.1 300 06:42 05.02.2020
3442 Clear -1 1029 92 10000 2.1 310 06:22 05.02.2020
3443 Clear 0 1028 84 10000 2.6 310 05:48 05.02.2020
3444 Clear 0 1028 84 10000 3.1 320 05:18 05.02.2020
3445 Clear 0 1028 84 10000 3.1 320 04:44 05.02.2020
3446 Clear 1 1026 80 10000 2.6 320 03:21 05.02.2020
3447 Clouds 2 1025 74 10000 3.6 320 02:23 05.02.2020
3448 Clouds 2 1023 74 10000 4.1 340 01:35 05.02.2020
3449 Clouds 3 1022 74 10000 5.1 340 00:39 05.02.2020
3450 Clouds 3 1021 69 10000 6.7 330 23:43 04.02.2020
3451 Clouds 4 1021 69 10000 6.7 330 23:23 04.02.2020
3452 Clouds 4 1020 82 10000 4.6 330 22:59 04.02.2020
3453 Clouds 4 1019 75 10000 5.1 340 22:41 04.02.2020
3454 Clouds 4 1019 75 10000 5.1 340 22:21 04.02.2020
3455 Clouds 4 1018 75 10000 6.7 320 21:59 04.02.2020
3456 Clouds 4 1017 75 10000 6.7 320 21:40 04.02.2020
3457 Clouds 5 1017 75 10000 6.7 320 21:19 04.02.2020
3458 Clouds 5 1016 75 10000 7.7 320 20:59 04.02.2020
3459 Clouds 5 1015 75 10000 6.7 310 20:38 04.02.2020
3460 Clouds 5 1015 75 10000 6.7 310 20:20 04.02.2020
3461 Clouds 5 1015 75 10000 6.7 310 20:20 04.02.2020
3462 Clouds 5 1015 75 10000 6.7 310 20:20 04.02.2020
3463 Clouds 5 1015 75 10000 6.7 310 20:20 04.02.2020
3464 Clouds 5 1015 75 10000 7.2 300 19:57 04.02.2020
3465 Clouds 5 1014 75 10000 5.7 300 19:39 04.02.2020
3466 Clouds 5 1014 75 10000 5.7 300 19:21 04.02.2020
3467 Clouds 5 1013 75 10000 6.2 310 18:55 04.02.2020
3468 Clouds 5 1012 75 10000 6.2 310 18:36 04.02.2020
3469 Clouds 5 1012 75 10000 6.2 310 18:18 04.02.2020
3470 Clouds 6 1011 75 10000 8.2 300 17:42 04.02.2020
3471 Clouds 6 1011 75 10000 6.7 300 17:21 04.02.2020
3472 Clouds 6 1010 70 10000 7.2 300 16:55 04.02.2020
3473 Clouds 6 1010 70 10000 8.2 300 16:36 04.02.2020
3474 Clouds 6 1010 70 10000 8.2 300 16:18 04.02.2020
3475 Clouds 6 1009 70 10000 6.7 300 15:55 04.02.2020
3476 Clouds 6 1009 75 10000 5.7 300 15:37 04.02.2020
3477 Clouds 7 1009 75 10000 5.7 300 15:18 04.02.2020
3478 Clouds 7 1008 81 10000 3.6 290 14:42 04.02.2020
3479 Rain 7 1008 86 10000 6.7 290 14:23 04.02.2020
3480 Clouds 7 1007 75 10000 6.7 270 13:57 04.02.2020
3481 Clouds 6 1007 81 10000 5.1 270 13:39 04.02.2020
3482 Clouds 6 1007 81 10000 5.1 270 13:19 04.02.2020
3483 Clouds 6 1007 86 10000 4.1 260 12:44 04.02.2020
3484 Clouds 5 1006 86 10000 5.1 250 12:25 04.02.2020
3485 Rain 5 1006 93 10000 5.1 270 11:58 04.02.2020
3486 Rain 5 1006 93 10000 5.1 270 11:39 04.02.2020
3487 Rain 4 1006 93 10000 4.6 250 11:21 04.02.2020
3488 Rain 4 1005 86 10000 5.7 260 10:55 04.02.2020
3489 Clouds 4 1005 93 10000 3.1 250 10:36 04.02.2020
3490 Clouds 4 1005 93 10000 3.1 250 10:36 04.02.2020
3491 Clouds 4 1005 93 10000 3.1 250 10:18 04.02.2020
3492 Rain 4 1005 86 8000 3.6 280 09:40 04.02.2020
3493 Clouds 3 1004 86 10000 4.1 260 09:22 04.02.2020
3494 Rain 3 1003 86 10000 6.7 290 08:50 04.02.2020
3495 Rain 3 1003 86 10000 3.6 250 08:29 04.02.2020
3496 Rain 3 1003 86 10000 3.6 250 08:29 04.02.2020
3497 Clouds 3 1002 80 10000 4.1 270 07:59 04.02.2020
3498 Clouds 3 1002 93 10000 5.1 250 07:39 04.02.2020
3499 Clouds 3 1002 93 10000 5.1 250 07:21 04.02.2020
3500 Rain 3 1002 86 10000 3.1 260 06:42 04.02.2020
3501 Rain 3 1001 86 10000 4.1 280 05:40 04.02.2020
3502 Rain 4 1001 86 5000 3.6 260 05:22 04.02.2020
3503 Clouds 4 1000 86 10000 3.1 250 03:50 04.02.2020
3504 Clouds 4 1001 86 10000 3.1 260 03:31 04.02.2020
3505 Clouds 4 1001 80 10000 3.6 260 02:53 04.02.2020
3506 Clouds 4 1001 80 10000 3.1 270 02:31 04.02.2020
3507 Clouds 5 1001 80 10000 3.1 250 01:52 04.02.2020
3508 Clouds 5 1001 75 10000 3.6 260 01:33 04.02.2020
3509 Clouds 5 1002 81 10000 3.1 250 00:44 04.02.2020
3510 Clouds 5 1002 81 10000 4.1 250 00:21 04.02.2020
3511 Clouds 5 1002 81 10000 4.1 250 23:39 03.02.2020
3512 Clouds 5 1003 81 10000 4.1 240 23:19 03.02.2020
3513 Clouds 6 1004 81 10000 4.6 250 22:39 03.02.2020
3514 Clouds 6 1004 81 10000 4.1 250 22:39 03.02.2020
3515 Clouds 6 1004 81 10000 4.6 250 22:20 03.02.2020
3516 Clouds 6 1005 81 10000 6.2 260 21:55 03.02.2020
3517 Clouds 6 1005 75 10000 6.2 260 21:37 03.02.2020
3518 Clouds 6 1005 75 10000 6.2 260 21:18 03.02.2020
3519 Clouds 6 1005 75 10000 6.2 260 21:18 03.02.2020
3520 Clouds 6 1005 81 10000 5.7 260 20:42 03.02.2020
3521 Clouds 7 1005 81 10000 5.7 260 20:19 03.02.2020
3522 Clouds 7 1005 81 10000 5.7 260 20:19 03.02.2020
3523 Rain 7 1006 75 10000 6.7 270 19:57 03.02.2020
3524 Rain 7 1006 81 10000 4.6 270 19:39 03.02.2020
3525 Rain 7 1006 81 10000 4.6 270 19:19 03.02.2020
3526 Clouds 7 1006 81 10000 6.2 270 18:54 03.02.2020
3527 Clouds 7 1006 81 10000 5.1 270 18:36 03.02.2020
3528 Clouds 7 1006 81 10000 5.1 270 18:18 03.02.2020
3529 Clouds 7 1006 81 10000 5.1 270 18:18 03.02.2020
3530 Clouds 7 1006 81 10000 6.7 270 17:40 03.02.2020
3531 Clouds 7 1006 81 10000 6.7 270 17:20 03.02.2020
3532 Clouds 8 1006 87 10000 6.7 270 16:59 03.02.2020
3533 Drizzle 8 1006 93 6000 5.7 270 16:39 03.02.2020
3534 Drizzle 8 1006 93 6000 5.7 270 16:20 03.02.2020
3535 Drizzle 8 1006 93 5000 6.7 280 15:55 03.02.2020
3536 Drizzle 8 1006 93 4500 5.7 260 15:37 03.02.2020
3537 Drizzle 8 1006 93 4500 5.7 260 15:18 03.02.2020
3538 Rain 8 1006 87 8000 5.7 260 14:42 03.02.2020
3539 Rain 9 1006 87 6000 5.7 260 14:23 03.02.2020
3540 Rain 9 1005 87 8000 5.1 250 13:56 03.02.2020
3541 Rain 8 1006 87 10000 5.7 260 13:37 03.02.2020
3542 Rain 8 1006 87 10000 5.7 260 13:37 03.02.2020
3543 Rain 8 1006 87 10000 5.7 260 13:19 03.02.2020
3544 Clouds 8 1006 87 10000 6.2 260 12:55 03.02.2020
3545 Rain 8 1006 87 9000 5.7 260 12:36 03.02.2020
3546 Rain 8 1006 87 9000 5.7 260 12:18 03.02.2020
3547 Clouds 8 1006 87 10000 5.1 260 11:38 03.02.2020
3548 Rain 8 1005 87 10000 5.1 250 11:19 03.02.2020
3549 Rain 8 1005 93 8000 4.6 240 10:57 03.02.2020
3550 Rain 8 1005 93 8000 4.6 250 10:38 03.02.2020
3551 Rain 8 1005 93 8000 4.6 250 10:20 03.02.2020
3552 Clouds 7 1005 87 10000 3.6 250 09:39 03.02.2020
3553 Clouds 7 1005 87 10000 3.6 250 09:20 03.02.2020
3554 Clouds 7 1005 93 10000 4.1 260 08:41 03.02.2020
3555 Clouds 7 1004 93 10000 4.6 270 08:23 03.02.2020
3556 Drizzle 6 1004 93 6000 3.6 260 07:57 03.02.2020
3557 Rain 6 1004 100 6000 3.1 230 07:39 03.02.2020
3558 Rain 6 1004 100 6000 3.1 230 07:20 03.02.2020
3559 Rain 6 1004 93 10000 2.1 240 06:42 03.02.2020
3560 Clouds 6 1004 93 10000 3.1 240 06:24 03.02.2020
3561 Rain 6 1004 93 8000 3.6 240 05:35 03.02.2020
3562 Rain 6 1004 93 10000 3.1 240 04:50 03.02.2020
3563 Rain 6 1004 93 10000 3.1 240 04:50 03.02.2020
3564 Clouds 5 1004 100 10000 2.1 220 02:58 03.02.2020
3565 Drizzle 5 1004 100 7000 2.1 220 02:33 03.02.2020
3566 Drizzle 5 1005 100 7000 1.5 220 01:25 03.02.2020
3567 Drizzle 5 1005 100 7000 2.1 220 00:45 03.02.2020
3568 Drizzle 5 1005 93 8000 2.6 230 00:21 03.02.2020
3569 Clouds 5 1005 93 10000 2.1 230 23:38 02.02.2020
3570 Clouds 5 1005 93 10000 2.1 230 23:20 02.02.2020
3571 Clouds 5 1005 93 10000 2.1 220 22:57 02.02.2020
3572 Clouds 5 1005 93 10000 2.1 230 22:37 02.02.2020
3573 Clouds 5 1005 93 10000 2.1 230 22:19 02.02.2020
3574 Rain 5 1005 93 10000 1 240 21:54 02.02.2020
3575 Rain 5 1005 93 10000 1 250 21:36 02.02.2020
3576 Rain 5 1005 93 10000 1 250 21:18 02.02.2020
3577 Rain 5 1005 100 10000 1 0 20:55 02.02.2020
3578 Drizzle 5 1005 100 7000 2.1 290 20:36 02.02.2020
3579 Drizzle 5 1005 100 7000 2.1 290 20:18 02.02.2020
3580 Drizzle 5 1005 93 7000 1.5 260 19:42 02.02.2020
3581 Drizzle 5 1004 100 7000 1.5 250 19:23 02.02.2020
3582 Drizzle 6 1004 100 7000 2.1 220 18:59 02.02.2020
3583 Drizzle 6 1004 100 7000 2.1 230 18:39 02.02.2020
3584 Drizzle 6 1004 100 7000 2.1 230 18:21 02.02.2020
3585 Drizzle 6 1004 93 7000 1 0 17:58 02.02.2020
3586 Drizzle 6 1004 93 6000 1 0 17:38 02.02.2020
3587 Drizzle 6 1004 93 6000 1 0 17:19 02.02.2020
3588 Rain 6 1003 87 9000 2.6 290 16:58 02.02.2020
3589 Rain 6 1003 81 10000 3.1 310 16:39 02.02.2020
3590 Rain 7 1003 81 10000 3.1 310 16:19 02.02.2020
3591 Rain 7 1003 81 10000 1.5 280 15:59 02.02.2020
3592 Clouds 7 1003 81 10000 2.1 280 15:39 02.02.2020
3593 Clouds 7 1003 81 10000 2.1 280 15:20 02.02.2020
3594 Clouds 7 1003 81 10000 3.1 270 14:57 02.02.2020
3595 Clouds 7 1003 81 10000 3.1 270 14:39 02.02.2020
3596 Clouds 7 1003 81 10000 3.1 260 14:18 02.02.2020
3597 Clouds 7 1004 87 10000 2.6 250 13:55 02.02.2020
3598 Clouds 7 1004 81 10000 3.1 260 13:36 02.02.2020
3599 Clouds 7 1004 81 10000 3.1 260 13:18 02.02.2020
3600 Clouds 7 1005 87 10000 3.6 260 12:42 02.02.2020
3601 Clouds 7 1005 87 10000 3.1 260 12:22 02.02.2020
3602 Clouds 6 1005 87 10000 3.6 260 11:56 02.02.2020
3603 Clouds 6 1005 93 10000 3.1 240 11:38 02.02.2020
3604 Clouds 6 1005 93 10000 3.1 240 11:18 02.02.2020
3605 Clouds 6 1005 93 10000 3.1 230 10:55 02.02.2020
3606 Clouds 6 1005 93 10000 3.1 230 10:55 02.02.2020
3607 Clouds 6 1005 87 10000 3.1 250 10:36 02.02.2020
3608 Clouds 6 1005 87 10000 3.1 250 10:18 02.02.2020
3609 Clouds 5 1005 87 10000 3.1 270 09:41 02.02.2020
3610 Clouds 6 1005 87 10000 3.1 270 09:21 02.02.2020
3611 Clouds 5 1005 93 10000 3.1 260 08:58 02.02.2020
3612 Drizzle 5 1005 93 10000 3.6 270 08:40 02.02.2020
3613 Drizzle 5 1005 93 10000 3.6 270 08:21 02.02.2020
3614 Drizzle 6 1004 93 10000 4.6 280 07:45 02.02.2020
3615 Drizzle 6 1004 93 6000 6.2 290 07:27 02.02.2020
3616 Rain 6 1004 93 10000 5.1 270 06:41 02.02.2020
3617 Rain 6 1004 93 10000 5.1 270 06:23 02.02.2020
3618 Rain 6 1003 93 9000 6.2 280 05:47 02.02.2020
3619 Drizzle 7 1002 93 5000 7.7 250 04:38 02.02.2020
3620 Drizzle 7 1002 93 5000 7.7 250 03:25 02.02.2020
3621 Rain 7 1001 81 9000 7.7 260 02:29 02.02.2020
3622 Rain 8 1001 81 9000 8.7 260 01:52 02.02.2020
3623 Rain 8 1000 75 10000 9.8 250 01:22 02.02.2020
3624 Rain 8 1000 70 10000 8.2 260 00:43 02.02.2020
3625 Rain 8 1000 70 10000 8.2 260 00:22 02.02.2020
3626 Rain 8 999 70 10000 9.8 260 23:46 01.02.2020
3627 Rain 8 999 70 10000 7.7 250 23:21 01.02.2020
3628 Clouds 8 999 70 10000 7.2 250 22:51 01.02.2020
3629 Clouds 8 999 75 10000 7.7 250 22:20 01.02.2020
3630 Clouds 8 999 70 10000 6.7 250 21:59 01.02.2020
3631 Clouds 8 999 66 10000 7.2 250 21:39 01.02.2020
3632 Clouds 8 999 66 10000 7.2 250 21:18 01.02.2020
3633 Clouds 8 999 70 10000 8.2 260 20:41 01.02.2020
3634 Clouds 8 999 70 10000 8.2 260 20:20 01.02.2020
3635 Clouds 8 998 70 10000 7.2 270 19:57 01.02.2020
3636 Rain 9 998 66 10000 7.2 270 19:39 01.02.2020
3637 Rain 9 998 66 10000 7.2 270 19:19 01.02.2020
3638 Rain 9 998 71 10000 9.8 260 18:58 01.02.2020
3639 Rain 9 998 71 10000 9.8 260 18:40 01.02.2020
3640 Clouds 9 998 76 10000 6.2 240 18:21 01.02.2020
3641 Clouds 9 997 76 10000 5.7 250 17:58 01.02.2020
3642 Clouds 10 997 71 10000 7.2 260 17:39 01.02.2020
3643 Clouds 10 997 71 10000 7.2 260 17:19 01.02.2020
3644 Clouds 10 997 76 10000 5.1 250 16:43 01.02.2020
3645 Clouds 10 997 81 10000 6.2 260 16:25 01.02.2020
3646 Clouds 11 997 81 10000 6.7 260 15:59 01.02.2020
3647 Rain 11 997 87 10000 7.2 240 15:40 01.02.2020
3648 Rain 11 997 87 10000 7.2 240 15:22 01.02.2020
3649 Clouds 11 997 81 10000 5.7 240 14:54 01.02.2020
3650 Clouds 11 997 81 10000 5.7 250 14:36 01.02.2020
3651 Clouds 11 997 81 10000 5.7 250 14:18 01.02.2020
3652 Clouds 11 997 81 10000 6.2 240 13:42 01.02.2020
3653 Clouds 11 997 87 10000 5.1 250 13:18 01.02.2020
3654 Clouds 11 997 87 10000 5.7 230 12:43 01.02.2020
3655 Clouds 11 997 93 10000 5.7 240 12:24 01.02.2020
3656 Rain 11 998 93 10000 5.7 250 11:55 01.02.2020
3657 Drizzle 11 998 93 4500 5.1 240 11:37 01.02.2020
3658 Drizzle 11 998 93 4500 5.1 240 11:18 01.02.2020
3659 Drizzle 11 998 93 5000 5.7 240 10:54 01.02.2020
3660 Drizzle 11 998 93 8000 6.2 230 10:36 01.02.2020
3661 Drizzle 11 998 93 8000 6.2 230 10:18 01.02.2020
3662 Rain 11 998 93 10000 6.7 230 09:41 01.02.2020
3663 Rain 11 999 93 9000 7.2 230 09:22 01.02.2020
3664 Drizzle 11 998 93 5000 6.7 220 08:58 01.02.2020
3665 Drizzle 11 999 93 5000 6.7 220 08:27 01.02.2020
3666 Drizzle 11 999 93 6000 6.7 230 07:46 01.02.2020
3667 Rain 11 999 93 10000 7.2 230 07:24 01.02.2020
3668 Clouds 11 999 93 10000 7.7 240 06:49 01.02.2020
3669 Rain 11 999 93 10000 6.7 230 05:55 01.02.2020
3670 Rain 11 1000 93 9000 6.7 230 05:37 01.02.2020
3671 Rain 11 1000 93 8000 6.7 230 03:40 01.02.2020
3672 Clouds 11 1000 81 10000 7.2 230 03:20 01.02.2020
3673 Clouds 11 1001 81 10000 8.2 230 02:41 01.02.2020
3674 Clouds 11 1001 81 10000 8.2 230 02:22 01.02.2020
3675 Clouds 11 1001 81 10000 7.7 230 01:49 01.02.2020
3676 Clouds 11 1001 81 10000 6.7 230 01:30 01.02.2020
3677 Rain 11 1001 87 9000 7.2 230 00:27 01.02.2020
3678 Clouds 11 1001 81 10000 7.7 230 23:43 31.01.2020
3679 Clouds 11 1002 81 10000 8.2 230 23:20 31.01.2020
3680 Clouds 11 1002 87 10000 7.2 230 22:59 31.01.2020
3681 Clouds 11 1002 87 9000 5.1 230 22:40 31.01.2020
3682 Clouds 10 1002 87 9000 5.1 230 22:21 31.01.2020
3683 Clouds 10 1003 87 9000 5.7 240 21:56 31.01.2020
3684 Rain 10 1003 87 8000 7.2 230 21:38 31.01.2020
3685 Rain 10 1003 87 8000 7.2 230 21:19 31.01.2020
3686 Rain 10 1003 93 7000 7.2 240 20:56 31.01.2020
3687 Rain 10 1004 93 8000 6.7 240 20:37 31.01.2020
3688 Rain 10 1003 81 10000 6.7 240 20:19 31.01.2020
3689 Rain 10 1003 81 10000 6.7 240 19:56 31.01.2020
3690 Rain 10 1003 76 10000 7.2 240 19:37 31.01.2020
3691 Rain 10 1003 76 10000 7.2 240 19:18 31.01.2020
3692 Clouds 10 1003 76 10000 6.7 230 18:42 31.01.2020
3693 Clouds 10 1003 76 10000 6.7 230 18:23 31.01.2020
3694 Clouds 10 1003 76 10000 4.6 240 17:55 31.01.2020
3695 Clouds 10 1003 76 10000 5.7 240 17:36 31.01.2020
3696 Clouds 10 1003 76 10000 5.7 240 17:18 31.01.2020
3697 Clouds 10 1003 76 10000 5.7 240 16:55 31.01.2020
3698 Clouds 10 1004 76 10000 6.2 240 16:37 31.01.2020
3699 Clouds 10 1004 76 10000 6.2 240 16:18 31.01.2020
3700 Clouds 10 1003 76 10000 6.7 230 15:41 31.01.2020
3701 Clouds 10 1004 76 10000 5.1 230 15:21 31.01.2020
3702 Clouds 10 1004 76 10000 4.6 240 14:58 31.01.2020
3703 Clouds 10 1004 76 10000 5.1 240 14:39 31.01.2020
3704 Clouds 10 1004 76 10000 5.1 240 14:20 31.01.2020
3705 Clouds 9 1004 71 10000 5.7 250 13:43 31.01.2020
3706 Clouds 9 1004 71 10000 6.2 240 13:25 31.01.2020
3707 Clouds 9 1003 76 10000 6.2 240 12:45 31.01.2020
3708 Clouds 9 1004 71 10000 6.7 250 12:26 31.01.2020
3709 Clouds 9 1004 76 10000 5.7 250 11:56 31.01.2020
3710 Clouds 9 1004 76 10000 7.2 250 11:38 31.01.2020
3711 Clouds 9 1004 76 10000 7.2 250 11:20 31.01.2020
3712 Clouds 9 1003 76 10000 6.2 260 10:55 31.01.2020
3713 Clouds 8 1003 76 10000 6.2 260 10:37 31.01.2020
3714 Clouds 8 1003 76 10000 6.2 260 10:18 31.01.2020
3715 Clouds 8 1002 81 10000 6.7 270 09:42 31.01.2020
3716 Clouds 8 1002 81 10000 7.2 270 09:42 31.01.2020
3717 Clouds 8 1002 81 10000 6.7 270 09:22 31.01.2020
3718 Clouds 8 1002 81 10000 6.7 270 08:57 31.01.2020
3719 Clouds 8 1002 81 10000 6.7 270 08:39 31.01.2020
3720 Clouds 8 1001 81 10000 7.2 270 08:20 31.01.2020
3721 Clouds 8 1000 76 10000 9.3 270 07:49 31.01.2020
3722 Clouds 8 1000 76 10000 7.7 270 07:19 31.01.2020
3723 Clouds 8 999 76 10000 8.7 270 06:37 31.01.2020
3724 Clouds 8 998 81 10000 8.7 280 05:56 31.01.2020
3725 Clouds 8 997 81 10000 9.3 270 05:26 31.01.2020
3726 Clouds 9 996 81 10000 9.3 270 04:36 31.01.2020
3727 Clouds 9 995 87 10000 8.7 270 02:50 31.01.2020
3728 Drizzle 9 994 93 5000 7.2 240 01:31 31.01.2020
3729 Drizzle 8 993 93 5000 8.7 230 00:40 31.01.2020
3730 Drizzle 8 993 93 5000 8.7 230 00:22 31.01.2020
3731 Clouds 8 995 87 10000 8.7 210 23:42 30.01.2020
3732 Clouds 7 995 87 10000 8.7 210 23:23 30.01.2020
3733 Drizzle 7 996 81 9000 8.7 210 22:39 30.01.2020
3734 Drizzle 7 996 81 9000 8.7 210 22:21 30.01.2020
3735 Clouds 8 996 81 10000 8.2 210 21:59 30.01.2020
3736 Rain 7 997 81 9000 8.7 210 21:41 30.01.2020
3737 Clouds 8 997 81 10000 8.2 200 21:19 30.01.2020
3738 Clouds 8 997 81 10000 8.2 200 20:57 30.01.2020
3739 Clouds 8 998 81 10000 7.2 210 20:38 30.01.2020
3740 Clouds 8 998 81 10000 7.2 210 20:20 30.01.2020
3741 Clouds 7 999 81 10000 5.7 210 19:55 30.01.2020
3742 Clouds 7 999 81 10000 5.7 200 19:36 30.01.2020
3743 Clouds 7 999 81 10000 5.7 200 19:18 30.01.2020
3744 Clouds 7 1001 81 10000 5.7 210 18:39 30.01.2020
3745 Clouds 7 1001 81 10000 5.7 210 18:19 30.01.2020
3746 Clouds 7 1001 75 10000 5.7 200 17:55 30.01.2020
3747 Clouds 7 1002 75 10000 5.1 230 17:36 30.01.2020
3748 Clouds 7 1002 75 10000 5.1 230 17:18 30.01.2020
3749 Clouds 8 1002 75 10000 5.1 230 16:56 30.01.2020
3750 Clouds 7 1003 81 10000 5.1 240 16:36 30.01.2020
3751 Clouds 8 1003 81 10000 5.1 240 16:18 30.01.2020
3752 Clouds 8 1003 81 10000 6.2 240 15:41 30.01.2020
3753 Clouds 8 1003 81 10000 6.2 240 15:19 30.01.2020
3754 Clouds 7 1003 81 10000 5.7 240 14:44 30.01.2020
3755 Clouds 7 1003 81 10000 5.7 240 14:26 30.01.2020
3756 Clouds 7 1003 81 10000 6.7 240 13:43 30.01.2020
3757 Clouds 7 1004 87 10000 6.2 250 13:25 30.01.2020
3758 Clouds 7 1004 87 10000 6.7 250 12:59 30.01.2020
3759 Drizzle 7 1003 93 8000 6.2 250 12:40 30.01.2020
3760 Drizzle 7 1003 93 8000 6.2 250 12:22 30.01.2020
3761 Drizzle 7 1003 93 5000 7.2 250 11:54 30.01.2020
3762 Drizzle 7 1003 93 3500 7.7 250 11:36 30.01.2020
3763 Drizzle 7 1003 93 3500 7.7 250 11:18 30.01.2020
3764 Drizzle 7 1003 93 4500 7.2 250 10:42 30.01.2020
3765 Drizzle 7 1003 93 3000 7.2 250 10:21 30.01.2020
3766 Drizzle 7 1003 93 5000 7.7 250 09:47 30.01.2020
3767 Rain 7 1003 93 8000 6.7 250 09:29 30.01.2020
3768 Rain 6 1003 93 7000 7.2 250 08:59 30.01.2020
3769 Rain 6 1003 93 7000 7.2 240 08:39 30.01.2020
3770 Rain 6 1003 93 7000 7.2 240 08:20 30.01.2020
3771 Rain 6 1002 93 8000 8.2 240 07:49 30.01.2020
3772 Rain 6 1002 93 9000 8.2 240 07:28 30.01.2020
3773 Rain 6 1002 93 10000 8.2 230 06:47 30.01.2020
3774 Rain 6 1002 93 9000 8.7 230 06:28 30.01.2020
3775 Rain 5 1003 93 10000 9.3 230 05:44 30.01.2020
3776 Rain 5 1003 93 10000 8.2 240 05:22 30.01.2020
3777 Rain 4 1003 93 10000 8.7 210 03:55 30.01.2020
3778 Rain 4 1004 93 10000 7.2 210 03:37 30.01.2020
3779 Rain 4 1004 93 10000 8.2 210 02:42 30.01.2020
3780 Clouds 3 1006 93 10000 7.2 230 00:43 30.01.2020
3781 Clouds 3 1006 93 10000 7.2 230 00:21 30.01.2020
3782 Clouds 3 1006 93 10000 7.2 230 23:47 29.01.2020
3783 Clouds 3 1006 86 10000 6.2 230 23:22 29.01.2020
3784 Clouds 3 1006 86 10000 5.7 230 22:58 29.01.2020
3785 Clouds 3 1006 93 10000 4.6 240 22:39 29.01.2020
3786 Clouds 3 1006 93 10000 4.6 240 22:19 29.01.2020
3787 Clouds 3 1006 86 10000 5.1 240 21:58 29.01.2020
3788 Clouds 3 1006 86 10000 5.1 240 21:39 29.01.2020
3789 Clouds 3 1005 86 10000 5.1 250 21:19 29.01.2020
3790 Clouds 4 1005 86 10000 5.1 240 20:58 29.01.2020
3791 Clouds 4 1005 86 10000 5.1 250 20:39 29.01.2020
3792 Clouds 3 1005 86 10000 5.1 250 20:21 29.01.2020
3793 Clouds 4 1004 93 10000 5.1 250 19:57 29.01.2020
3794 Clouds 4 1004 93 10000 5.7 250 19:37 29.01.2020
3795 Clouds 4 1004 93 10000 5.7 250 19:19 29.01.2020
3796 Clouds 4 1003 93 10000 5.1 250 18:54 29.01.2020
3797 Clouds 4 1003 93 10000 4.6 260 18:36 29.01.2020
3798 Clouds 4 1003 93 10000 4.6 260 18:18 29.01.2020
3799 Rain 4 1002 93 8000 4.6 260 17:40 29.01.2020
3800 Rain 4 1002 93 8000 4.6 260 17:22 29.01.2020
3801 Rain 4 1002 93 8000 4.6 260 17:22 29.01.2020
3802 Rain 3 1002 93 6000 5.1 250 16:43 29.01.2020
3803 Rain 4 1001 93 10000 5.7 240 16:23 29.01.2020
3804 Rain 4 1000 93 8000 6.2 260 15:59 29.01.2020
3805 Rain 4 1000 93 8000 6.2 260 15:38 29.01.2020
3806 Rain 4 1000 93 10000 7.7 250 15:20 29.01.2020
3807 Rain 4 999 93 10000 7.2 260 14:45 29.01.2020
3808 Rain 4 999 86 10000 4.6 250 14:22 29.01.2020
3809 Rain 4 999 93 8000 4.1 250 13:57 29.01.2020
3810 Rain 4 998 86 9000 4.6 260 13:39 29.01.2020
3811 Rain 4 998 86 9000 4.6 260 13:20 29.01.2020
3812 Rain 4 998 93 8000 8.2 270 12:56 29.01.2020
3813 Rain 4 998 93 8000 8.2 270 12:37 29.01.2020
3814 Rain 4 997 86 10000 6.7 250 12:19 29.01.2020
3815 Rain 4 997 86 10000 8.2 240 11:45 29.01.2020
3816 Rain 3 997 86 10000 8.2 240 11:22 29.01.2020
3817 Rain 4 996 93 10000 4.1 240 10:54 29.01.2020
3818 Rain 3 997 93 10000 2.6 240 10:36 29.01.2020
3819 Rain 3 997 93 10000 2.6 240 10:18 29.01.2020
3820 Snow 3 997 93 5000 4.6 290 09:40 29.01.2020
3821 Snow 3 997 93 5000 4.6 290 09:21 29.01.2020
3822 Rain 3 996 86 6000 6.7 250 08:57 29.01.2020
3823 Rain 3 995 93 9000 5.7 250 08:38 29.01.2020
3824 Rain 3 995 93 9000 5.7 250 08:20 29.01.2020
3825 Rain 3 995 86 10000 8.2 230 07:44 29.01.2020
3826 Rain 3 995 86 10000 6.7 240 07:24 29.01.2020
3827 Rain 3 995 86 10000 7.7 230 06:54 29.01.2020
3828 Clouds 3 995 86 10000 7.2 230 06:36 29.01.2020
3829 Clouds 3 995 86 10000 6.2 240 06:18 29.01.2020
3830 Clouds 3 994 86 10000 7.7 230 05:43 29.01.2020
3831 Clouds 3 994 86 10000 7.7 230 05:25 29.01.2020
3832 Clouds 3 994 93 10000 5.7 240 04:37 29.01.2020
3833 Rain 3 994 86 10000 4.6 250 02:43 29.01.2020
3834 Clouds 3 993 86 10000 6.2 250 02:18 29.01.2020
3835 Clouds 3 993 86 10000 6.2 250 00:43 29.01.2020
3836 Clouds 3 993 86 10000 6.2 250 00:24 29.01.2020
3837 Clouds 3 992 86 10000 7.7 250 23:56 28.01.2020
3838 Clouds 3 992 86 10000 6.7 260 23:37 28.01.2020
3839 Clouds 3 992 86 10000 6.7 260 23:18 28.01.2020
3840 Clouds 3 991 86 10000 7.7 260 22:40 28.01.2020
3841 Snow 3 991 100 8000 5.1 260 22:21 28.01.2020
3842 Snow 2 991 78 3000 5.1 270 21:42 28.01.2020
3843 Snow 2 991 78 3000 5.1 270 21:23 28.01.2020
3844 Snow 2 991 78 3000 5.1 270 21:23 28.01.2020
3845 Snow 2 990 78 3000 7.7 260 20:58 28.01.2020
3846 Snow 2 990 78 3000 7.7 260 20:40 28.01.2020
3847 Snow 2 990 96 2000 5.1 250 20:21 28.01.2020
3848 Snow 2 989 96 3000 5.7 250 19:39 28.01.2020
3849 Snow 2 989 96 3000 5.7 250 19:39 28.01.2020
3850 Snow 2 989 96 3000 7.2 240 19:21 28.01.2020
3851 Snow 2 988 96 4000 6.2 240 18:59 28.01.2020
3852 Snow 2 988 96 4000 6.2 240 18:40 28.01.2020
3853 Clouds 2 988 93 7000 6.7 250 18:22 28.01.2020
3854 Rain 3 988 86 8000 9.8 240 17:59 28.01.2020
3855 Rain 4 987 80 10000 8.2 230 17:38 28.01.2020
3856 Rain 4 987 80 10000 8.2 230 17:38 28.01.2020
3857 Rain 4 987 80 10000 8.2 230 17:19 28.01.2020
3858 Clouds 4 987 80 10000 8.7 240 16:56 28.01.2020
3859 Rain 5 986 86 10000 6.7 230 16:37 28.01.2020
3860 Rain 5 986 86 10000 6.7 230 16:19 28.01.2020
3861 Rain 5 986 86 9000 8.7 230 15:44 28.01.2020
3862 Rain 6 986 81 9000 9.3 220 15:19 28.01.2020
3863 Clouds 6 986 81 10000 8.2 220 14:57 28.01.2020
3864 Rain 6 986 81 10000 6.7 200 14:38 28.01.2020
3865 Rain 6 986 81 10000 6.7 200 14:38 28.01.2020
3866 Rain 6 986 81 10000 6.7 200 14:38 28.01.2020
3867 Rain 6 986 81 10000 6.7 200 14:18 28.01.2020
3868 Rain 6 986 81 10000 4.6 200 13:40 28.01.2020
3869 Rain 6 986 87 10000 5.1 200 13:22 28.01.2020
3870 Rain 6 987 81 10000 7.2 200 12:43 28.01.2020
3871 Clouds 6 987 81 10000 7.7 200 12:24 28.01.2020
3872 Clouds 6 987 81 10000 6.7 200 11:56 28.01.2020
3873 Clouds 6 987 81 10000 6.2 210 11:38 28.01.2020
3874 Clouds 6 987 81 10000 6.2 210 11:19 28.01.2020
3875 Clouds 6 988 81 10000 7.7 210 10:41 28.01.2020
3876 Clouds 6 988 87 10000 6.2 210 10:23 28.01.2020
3877 Clouds 6 988 87 10000 7.7 210 09:58 28.01.2020
3878 Clouds 6 988 87 10000 7.2 200 09:38 28.01.2020
3879 Clouds 6 988 87 10000 7.2 200 09:19 28.01.2020
3880 Clouds 6 988 87 10000 6.2 200 08:43 28.01.2020
3881 Clouds 6 988 87 10000 5.7 200 08:22 28.01.2020
3882 Clouds 6 989 87 10000 5.7 210 07:42 28.01.2020
3883 Clouds 6 989 93 10000 6.7 230 07:23 28.01.2020
3884 Rain 6 989 93 10000 6.7 190 06:44 28.01.2020
3885 Rain 6 989 93 10000 6.2 170 06:23 28.01.2020
3886 Rain 6 990 87 10000 5.7 160 05:35 28.01.2020
3887 Rain 5 992 93 8000 5.7 160 04:40 28.01.2020
3888 Clouds 5 993 93 10000 5.1 140 03:41 28.01.2020
3889 Clouds 5 994 93 10000 5.7 160 02:43 28.01.2020
3890 Clouds 5 994 93 10000 4.6 160 02:24 28.01.2020
3891 Clouds 5 995 100 8000 3.6 130 01:50 28.01.2020
3892 Clouds 6 996 93 10000 3.6 150 00:58 28.01.2020
3893 Clouds 6 997 93 9000 4.6 170 00:39 28.01.2020
3894 Clouds 6 997 93 8000 3.6 150 00:19 28.01.2020
3895 Clouds 6 997 93 8000 3.6 150 23:42 27.01.2020
3896 Clouds 6 998 93 9000 3.6 170 23:18 27.01.2020
3897 Drizzle 6 999 93 8000 4.1 160 22:44 27.01.2020
3898 Drizzle 6 999 93 8000 4.1 160 22:20 27.01.2020
3899 Drizzle 6 999 93 8000 4.1 160 22:20 27.01.2020
3900 Drizzle 6 999 93 8000 4.1 160 22:20 27.01.2020
3901 Drizzle 7 1000 93 5000 4.1 170 21:57 27.01.2020
3902 Drizzle 6 1000 93 6000 3.6 160 21:38 27.01.2020
3903 Drizzle 7 1000 93 6000 3.6 160 21:19 27.01.2020
3904 Drizzle 7 1001 93 9000 4.1 160 20:56 27.01.2020
3905 Drizzle 7 1001 93 6000 3.6 160 20:37 27.01.2020
3906 Drizzle 7 1001 93 6000 3.6 160 20:19 27.01.2020
3907 Drizzle 7 1001 93 9000 4.1 180 19:42 27.01.2020
3908 Drizzle 7 1002 93 4500 4.6 190 19:24 27.01.2020
3909 Clouds 7 1002 93 10000 4.1 200 19:00 27.01.2020
3910 Clouds 7 1002 81 10000 4.1 170 18:39 27.01.2020
3911 Clouds 7 1002 93 10000 4.1 200 18:39 27.01.2020
3912 Clouds 7 1002 81 10000 4.1 170 18:21 27.01.2020
3913 Clouds 7 1003 87 10000 4.6 170 17:57 27.01.2020
3914 Clouds 7 1003 87 10000 4.6 170 17:57 27.01.2020
3915 Clouds 7 1003 87 10000 4.1 180 17:37 27.01.2020
3916 Clouds 7 1003 87 10000 4.1 180 17:18 27.01.2020
3917 Clouds 7 1003 87 10000 4.1 180 16:55 27.01.2020
3918 Clouds 7 1004 87 10000 6.7 210 16:36 27.01.2020
3919 Clouds 7 1004 87 10000 6.7 210 16:18 27.01.2020
3920 Clouds 7 1004 87 10000 6.2 210 15:41 27.01.2020
3921 Clouds 7 1004 87 10000 6.2 210 15:20 27.01.2020
3922 Clouds 7 1004 87 10000 5.7 210 14:57 27.01.2020
3923 Clouds 7 1005 87 10000 6.2 210 14:39 27.01.2020
3924 Clouds 7 1005 87 10000 6.2 210 14:20 27.01.2020
3925 Rain 7 1006 93 8000 6.2 210 13:42 27.01.2020
3926 Rain 7 1006 93 8000 6.2 210 13:22 27.01.2020
3927 Rain 7 1006 93 8000 6.7 210 12:58 27.01.2020
3928 Clouds 7 1006 87 10000 6.7 210 12:39 27.01.2020
3929 Clouds 7 1006 87 10000 6.7 210 12:21 27.01.2020
3930 Rain 6 1006 87 8000 6.7 210 11:43 27.01.2020
3931 Rain 6 1006 87 8000 6.7 210 11:22 27.01.2020
3932 Rain 6 1006 87 8000 7.7 210 10:56 27.01.2020
3933 Rain 6 1007 87 10000 6.2 200 10:38 27.01.2020
3934 Rain 5 1007 87 10000 6.2 200 10:20 27.01.2020
3935 Rain 5 1007 87 9000 6.7 200 09:39 27.01.2020
3936 Rain 5 1007 87 8000 6.7 200 09:19 27.01.2020
3937 Rain 5 1007 93 9000 5.7 200 08:56 27.01.2020
3938 Rain 5 1007 93 9000 4.6 170 08:38 27.01.2020
3939 Rain 4 1007 93 9000 4.6 170 08:18 27.01.2020
3940 Rain 4 1007 93 9000 5.1 170 07:46 27.01.2020
3941 Rain 4 1008 86 9000 4.6 160 07:26 27.01.2020
3942 Rain 4 1008 93 10000 4.6 160 06:38 27.01.2020
3943 Rain 4 1009 86 10000 4.6 160 05:46 27.01.2020
3944 Clouds 3 1010 86 10000 4.1 150 04:37 27.01.2020
3945 Clouds 3 1010 93 9000 2.1 120 03:35 27.01.2020
3946 Clouds 3 1011 86 8000 4.1 150 01:56 27.01.2020
3947 Clouds 3 1011 93 8000 5.1 160 01:27 27.01.2020
3948 Clouds 2 1012 93 8000 4.1 150 00:42 27.01.2020
3949 Clouds 2 1012 93 7000 4.1 150 00:22 27.01.2020
3950 Clouds 2 1012 93 7000 3.6 150 23:46 26.01.2020
3951 Clouds 2 1012 93 7000 3.6 150 23:27 26.01.2020
3952 Clouds 2 1013 93 8000 3.6 150 22:59 26.01.2020
3953 Clouds 2 1013 93 8000 4.1 160 22:39 26.01.2020
3954 Clouds 2 1013 93 8000 4.1 160 22:20 26.01.2020
3955 Clouds 2 1013 93 8000 4.6 160 21:58 26.01.2020
3956 Clouds 3 1013 93 9000 4.6 160 21:40 26.01.2020
3957 Clouds 3 1013 93 9000 4.6 160 21:21 26.01.2020
3958 Clouds 3 1013 93 8000 4.1 150 20:58 26.01.2020
3959 Clouds 3 1014 93 8000 4.1 150 20:39 26.01.2020
3960 Clouds 3 1014 93 8000 4.1 150 20:19 26.01.2020
3961 Clouds 2 1014 93 7000 4.1 160 19:59 26.01.2020
3962 Clouds 2 1014 93 7000 4.1 160 19:59 26.01.2020
3963 Clouds 2 1014 93 7000 4.1 160 19:39 26.01.2020
3964 Clouds 2 1014 93 7000 5.1 160 19:21 26.01.2020
3965 Clouds 2 1014 93 7000 5.1 160 18:58 26.01.2020
3966 Clouds 2 1014 93 6000 5.1 150 18:39 26.01.2020
3967 Clouds 2 1014 93 6000 5.1 150 18:39 26.01.2020
3968 Clouds 2 1014 93 6000 5.1 150 18:21 26.01.2020
3969 Mist 2 1014 93 5000 5.1 140 17:57 26.01.2020
3970 Mist 2 1014 93 5000 5.1 150 17:38 26.01.2020
3971 Mist 2 1014 93 5000 5.1 150 17:18 26.01.2020
3972 Mist 2 1014 93 5000 5.1 150 17:18 26.01.2020
3973 Mist 2 1014 93 5000 5.1 150 17:18 26.01.2020
3974 Clouds 2 1015 93 6000 5.7 150 16:57 26.01.2020
3975 Clouds 2 1015 93 6000 5.7 150 16:57 26.01.2020
3976 Clouds 2 1015 93 6000 5.1 140 16:39 26.01.2020
3977 Clouds 2 1015 93 6000 5.1 140 16:20 26.01.2020
3978 Clouds 2 1015 93 6000 5.1 140 16:19 26.01.2020
3979 Clouds 2 1013 95 0 2.33 153 15:45 26.01.2020
3980 Clouds 2 1013 95 0 2.33 153 15:22 26.01.2020
3981 Clouds 2 1015 93 0 0.45 119 14:58 26.01.2020
3982 Clouds 2 1016 92 0 0.45 132 14:39 26.01.2020
3983 Clouds 2 1015 92 0 1.34 112 14:19 26.01.2020
3984 Clouds 2 1016 91 0 1.34 112 13:41 26.01.2020
3985 Clouds 2 1015 95 0 1.93 190 13:20 26.01.2020
3986 Clouds 2 1017 90 0 1.34 177 12:57 26.01.2020
3987 Clouds 2 1016 75 0 2.08 187 12:38 26.01.2020
3988 Clouds 2 1015 95 0 2.08 187 12:20 26.01.2020
3989 Clouds 2 1016 95 0 2.08 187 11:57 26.01.2020
3990 Clouds 2 1015 99 0 1.79 180 11:38 26.01.2020
3991 Clouds 2 1017 76 8000 3.6 160 11:18 26.01.2020
3992 Clouds 1 1017 76 8000 3.6 160 10:57 26.01.2020
3993 Clouds 1 1017 76 8000 3.6 160 10:38 26.01.2020
3994 Clouds 1 1017 76 8000 3.6 160 10:38 26.01.2020
3995 Clouds 1 1018 76 7000 4.6 170 10:20 26.01.2020
3996 Clouds 1 1017 76 8000 3.6 160 10:20 26.01.2020
3997 Clouds 1 1018 76 7000 4.6 170 09:56 26.01.2020
3998 Clouds 1 1018 76 7000 4.6 170 09:38 26.01.2020
3999 Clouds 1 1018 76 7000 4.6 170 09:20 26.01.2020
4000 Clouds 1 1018 76 8000 5.1 170 08:42 26.01.2020
4001 Clouds 1 1018 79 8000 5.1 170 08:22 26.01.2020
4002 Clouds 1 1018 79 9000 4.1 160 07:56 26.01.2020
4003 Clouds 1 1018 79 9000 2.1 180 07:37 26.01.2020
4004 Clouds 1 1018 79 9000 2.1 180 07:19 26.01.2020
4005 Clouds 1 1018 86 8000 3.6 210 06:29 26.01.2020
4006 Clouds 1 1018 86 9000 3.6 210 05:30 26.01.2020
4007 Clouds 0 1018 81 8000 3.6 210 04:44 26.01.2020
4008 Clouds 1 1019 81 7000 3.6 230 02:40 26.01.2020
4009 Clouds 1 1019 100 6000 4.6 210 01:47 26.01.2020
4010 Drizzle 1 1019 100 5000 3.6 230 01:24 26.01.2020
4011 Clouds 2 1019 93 6000 4.6 220 00:44 26.01.2020
4012 Clouds 2 1019 93 6000 4.6 230 00:26 26.01.2020
4013 Clouds 2 1020 93 0 1.79 187 23:40 25.01.2020
4014 Clouds 2 1018 95 0 2.12 219 23:21 25.01.2020
4015 Clouds 2 1020 93 0 1.79 216 22:58 25.01.2020
4016 Clouds 2 1020 86 0 2.12 219 22:40 25.01.2020
4017 Clouds 2 1018 95 0 2.12 219 22:19 25.01.2020
4018 Clouds 3 1018 96 0 2.12 219 21:57 25.01.2020
4019 Clouds 1 1020 83 0 2.12 219 21:38 25.01.2020
4020 Clouds 3 1018 96 0 2.12 219 21:19 25.01.2020
4021 Clouds 3 1020 94 0 0.89 206 20:44 25.01.2020
4022 Clouds 3 1018 96 0 2.08 226 20:25 25.01.2020
4023 Clouds 3 1018 96 0 2.08 226 19:55 25.01.2020
4024 Clouds 3 1020 89 0 2.14 221 19:37 25.01.2020
4025 Clouds 3 1018 96 0 2.14 221 19:18 25.01.2020
4026 Clouds 3 1018 96 0 2.08 226 18:42 25.01.2020
4027 Clouds 3 1020 89 0 2.14 221 18:22 25.01.2020
4028 Clouds 3 1020 95 0 0.89 224 17:58 25.01.2020
4029 Clouds 3 1019 74 0 2.08 226 17:38 25.01.2020
4030 Clouds 3 1018 96 0 2.56 236 17:19 25.01.2020
4031 Clouds 3 1020 88 0 2.56 236 16:43 25.01.2020
4032 Clouds 3 1018 96 0 2.56 236 16:23 25.01.2020
4033 Clouds 3 1020 94 0 1.34 208 15:58 25.01.2020
4034 Clouds 3 1020 88 0 2.56 236 15:58 25.01.2020
4035 Clouds 3 1021 87 0 2.56 236 15:39 25.01.2020
4036 Clouds 3 1018 96 0 2.56 236 15:21 25.01.2020
4037 Clouds 3 1019 96 0 2.56 236 14:44 25.01.2020
4038 Clouds 3 1019 96 0 3.31 238 14:19 25.01.2020
4039 Clouds 3 1019 97 0 3.31 238 13:56 25.01.2020
4040 Clouds 3 1021 94 0 1.34 184 13:38 25.01.2020
4041 Clouds 3 1019 96 0 3.36 239 13:18 25.01.2020
4042 Clouds 3 1019 96 0 3.36 239 13:18 25.01.2020
4043 Drizzle 3 1021 93 5000 4.1 220 12:42 25.01.2020
4044 Drizzle 3 1021 93 5000 4.1 220 12:21 25.01.2020
4045 Drizzle 3 1021 93 5000 4.1 220 11:43 25.01.2020
4046 Drizzle 3 1021 93 7000 3.1 220 11:21 25.01.2020
4047 Drizzle 3 1021 93 7000 2.6 230 10:56 25.01.2020
4048 Clouds 3 1020 93 7000 3.1 220 10:38 25.01.2020
4049 Clouds 3 1020 93 7000 3.1 220 10:19 25.01.2020
4050 Drizzle 3 1020 93 6000 3.6 230 09:40 25.01.2020
4051 Drizzle 3 1020 93 6000 3.6 230 09:21 25.01.2020
4052 Drizzle 3 1020 93 3800 3.6 230 08:43 25.01.2020
4053 Drizzle 3 1020 93 3800 3.6 230 08:21 25.01.2020
4054 Drizzle 3 1020 93 3500 3.1 240 07:43 25.01.2020
4055 Drizzle 2 1019 100 4000 3.6 230 06:51 25.01.2020
4056 Drizzle 2 1019 100 4600 3.1 240 06:27 25.01.2020
4057 Drizzle 2 1019 100 4800 2.6 250 05:45 25.01.2020
4058 Drizzle 2 1020 93 3000 4.1 230 04:26 25.01.2020
4059 Drizzle 2 1020 93 3300 3.6 230 03:50 25.01.2020
4060 Drizzle 2 1020 93 3600 3.6 240 02:54 25.01.2020
4061 Drizzle 2 1020 93 3600 4.6 230 01:59 25.01.2020
4062 Drizzle 2 1020 93 3600 4.6 230 01:59 25.01.2020
4063 Drizzle 2 1020 93 3900 4.6 240 01:37 25.01.2020
4064 Drizzle 2 1020 93 4500 3.6 240 00:43 25.01.2020
4065 Drizzle 2 1020 93 4500 4.1 240 00:24 25.01.2020
4066 Drizzle 2 1020 93 4700 4.1 230 23:57 24.01.2020
4067 Drizzle 2 1020 93 4000 4.1 230 23:38 24.01.2020
4068 Drizzle 2 1020 93 4000 4.1 230 23:20 24.01.2020
4069 Drizzle 2 1020 100 3200 5.1 230 22:42 24.01.2020
4070 Drizzle 2 1020 100 3200 5.1 230 22:24 24.01.2020
4071 Drizzle 2 1020 100 4500 4.1 230 21:43 24.01.2020
4072 Mist 2 1020 93 5000 3.6 240 21:21 24.01.2020
4073 Mist 2 1020 100 5000 4.1 240 20:57 24.01.2020
4074 Mist 2 1020 100 5000 4.1 230 20:39 24.01.2020
4075 Mist 2 1020 100 5000 4.1 230 20:20 24.01.2020
4076 Mist 2 1020 100 4800 4.6 230 19:57 24.01.2020
4077 Mist 2 1020 100 4800 4.6 230 19:57 24.01.2020
4078 -273 0 0 0 0 0 19:38 24.01.2020
4079 Drizzle 2 1021 100 4000 4.6 230 19:38 24.01.2020
4080 Drizzle 2 1020 100 4000 4.6 230 19:20 24.01.2020
4081 Drizzle 2 1020 100 4000 4.6 230 18:43 24.01.2020
4082 Drizzle 2 1020 100 3200 4.1 230 18:24 24.01.2020
4083 Drizzle 2 1020 100 4000 3.6 240 17:54 24.01.2020
4084 Drizzle 2 1020 100 3500 5.1 230 17:36 24.01.2020
4085 Drizzle 2 1020 100 3500 5.1 230 17:18 24.01.2020
4086 Drizzle 2 1020 100 2500 5.1 230 16:39 24.01.2020
4087 Drizzle 2 1020 100 2500 5.1 230 16:20 24.01.2020
4088 Drizzle 3 1020 100 2500 4.1 230 15:43 24.01.2020
4089 Drizzle 3 1020 100 2500 4.1 230 15:23 24.01.2020
4090 Drizzle 3 1020 100 2400 4.1 220 14:59 24.01.2020
4091 Drizzle 3 1020 93 2800 4.6 220 14:40 24.01.2020
4092 Drizzle 3 1020 93 2800 4.6 220 14:21 24.01.2020
4093 Drizzle 3 1021 93 2100 5.1 220 13:43 24.01.2020
4094 Drizzle 2 1021 93 2100 4.1 230 13:23 24.01.2020
4095 Mist 2 1021 93 2800 3.1 220 12:45 24.01.2020
4096 Mist 2 1021 93 2800 3.1 220 12:45 24.01.2020
4097 Mist 2 1021 93 2800 3.1 220 12:23 24.01.2020
4098 Mist 2 1021 93 2000 4.1 210 11:58 24.01.2020
4099 Mist 2 1021 100 1700 3.6 210 11:39 24.01.2020
4100 Mist 2 1021 100 1700 3.6 210 11:18 24.01.2020
4101 Mist 2 1022 93 1400 3.6 230 10:43 24.01.2020
4102 Mist 1 1022 93 1400 3.6 230 10:21 24.01.2020
4103 Fog 1 1022 100 600 2.6 240 09:55 24.01.2020
4104 Fog 1 1022 100 350 2.6 240 09:37 24.01.2020
4105 Fog 1 1022 100 350 2.6 240 09:18 24.01.2020
4106 Fog 1 1022 100 800 2.6 240 08:40 24.01.2020
4107 Fog 1 1022 100 800 2.6 240 08:19 24.01.2020
4108 Mist 1 1022 100 1000 3.1 240 07:49 24.01.2020
4109 Mist 1 1022 86 1900 4.1 240 07:28 24.01.2020
4110 Mist 1 1022 86 1800 3.1 230 06:48 24.01.2020
4111 Mist 1 1022 86 2200 3.1 230 06:28 24.01.2020
4112 Fog 0 1022 86 1600 3.1 270 05:57 24.01.2020
4113 Mist 1 1023 91 2400 3.1 250 04:54 24.01.2020
4114 Mist 1 1024 100 1500 2.1 250 02:53 24.01.2020
4115 Fog 1 1025 100 750 2.6 230 02:24 24.01.2020
4116 Fog 1 1025 100 750 1.5 240 01:42 24.01.2020
4117 Fog 1 1025 100 1100 1.5 260 01:24 24.01.2020
4118 Clouds 2 1026 94 6000 2.1 260 00:23 24.01.2020
4119 Clear 2 1026 94 6000 2.1 230 23:49 23.01.2020
4120 Clear 2 1026 95 6000 1 260 23:31 23.01.2020
4121 Clouds 3 1027 95 8000 1.5 240 22:59 23.01.2020
4122 Clouds 3 1027 95 9000 1 0 22:38 23.01.2020
4123 Clouds 3 1027 95 9000 1 0 22:19 23.01.2020
4124 Clouds 3 1027 86 10000 2.1 280 21:57 23.01.2020
4125 Clouds 4 1027 80 10000 1.5 270 21:39 23.01.2020
4126 Clouds 4 1027 80 10000 1.5 270 21:20 23.01.2020
4127 Clouds 4 1027 80 10000 2.6 240 20:58 23.01.2020
4128 Clouds 4 1028 75 10000 3.6 250 20:38 23.01.2020
4129 Clouds 4 1028 75 10000 3.6 250 20:38 23.01.2020
4130 Clouds 4 1028 75 10000 3.6 250 20:19 23.01.2020
4131 Clouds 4 1028 75 10000 3.6 250 20:19 23.01.2020
4132 Clouds 4 1028 75 10000 3.1 260 19:56 23.01.2020
4133 Clouds 4 1028 75 10000 3.1 240 19:38 23.01.2020
4134 Clouds 5 1028 75 10000 3.1 240 19:19 23.01.2020
4135 Clouds 5 1028 75 10000 2.6 240 18:55 23.01.2020
4136 Clouds 5 1028 75 10000 3.1 240 18:36 23.01.2020
4137 Clouds 5 1028 75 10000 3.1 240 18:18 23.01.2020
4138 Clouds 5 1029 75 10000 3.1 230 17:43 23.01.2020
4139 Clouds 6 1029 75 10000 3.6 240 17:20 23.01.2020
4140 Clouds 6 1029 75 10000 3.6 240 16:58 23.01.2020
4141 Clouds 6 1029 70 10000 4.1 240 16:37 23.01.2020
4142 Clouds 6 1029 70 10000 4.1 240 16:18 23.01.2020
4143 Clouds 6 1029 70 10000 4.6 230 15:57 23.01.2020
4144 Clouds 6 1030 70 10000 3.6 240 15:37 23.01.2020
4145 Clouds 6 1030 70 10000 3.6 240 15:18 23.01.2020
4146 Clouds 6 1030 70 10000 4.1 240 14:56 23.01.2020
4147 Clouds 6 1031 75 10000 4.6 230 14:38 23.01.2020
4148 Clouds 6 1031 75 10000 4.1 240 14:20 23.01.2020
4149 Clouds 6 1031 70 10000 4.6 270 13:44 23.01.2020
4150 Clouds 6 1031 70 10000 4.6 270 13:20 23.01.2020
4151 Clouds 6 1032 70 10000 3.6 240 12:55 23.01.2020
4152 Clouds 6 1032 81 10000 3.1 260 12:36 23.01.2020
4153 Clouds 6 1032 81 10000 3.1 260 12:18 23.01.2020
4154 Clouds 6 1033 81 10000 2.6 260 11:43 23.01.2020
4155 Clouds 5 1033 81 10000 2.6 260 11:24 23.01.2020
4156 Clouds 5 1033 81 10000 2.1 250 10:58 23.01.2020
4157 Clouds 5 1033 81 10000 2.1 250 10:40 23.01.2020
4158 Clouds 5 1033 93 10000 2.6 240 10:18 23.01.2020
4159 Clouds 5 1033 93 10000 2.6 270 09:40 23.01.2020
4160 Clouds 5 1033 93 10000 2.6 270 09:21 23.01.2020
4161 Clouds 5 1033 93 9000 2.6 260 08:56 23.01.2020
4162 Drizzle 5 1033 93 10000 2.6 270 08:37 23.01.2020
4163 Drizzle 5 1033 93 10000 2.6 270 08:18 23.01.2020
4164 Clouds 4 1033 93 10000 2.1 260 07:37 23.01.2020
4165 Clouds 4 1033 93 10000 2.1 260 07:18 23.01.2020
4166 Clouds 4 1033 86 10000 2.1 260 06:44 23.01.2020
4167 Clouds 4 1033 93 10000 2.1 240 06:18 23.01.2020
4168 Clear 4 1034 86 10000 2.1 240 04:25 23.01.2020
4169 Clouds 4 1034 93 10000 0.5 0 03:36 23.01.2020
4170 Clouds 4 1035 87 10000 1.5 290 01:55 23.01.2020
4171 Clouds 4 1035 87 10000 2.1 290 00:46 23.01.2020
4172 Clouds 4 1035 87 10000 2.1 290 00:24 23.01.2020
4173 Clouds 4 1035 87 10000 2.1 290 23:46 22.01.2020
4174 Clouds 4 1035 87 10000 2.1 300 23:28 22.01.2020
4175 Clouds 4 1035 87 10000 2.6 280 22:55 22.01.2020
4176 Clouds 5 1034 87 10000 2.6 290 22:36 22.01.2020
4177 Clouds 5 1034 87 10000 2.6 290 22:18 22.01.2020
4178 Clouds 5 1034 87 10000 3.6 290 21:38 22.01.2020
4179 Clouds 5 1034 87 10000 3.6 290 21:20 22.01.2020
4180 Clouds 5 1034 87 10000 2.6 280 20:56 22.01.2020
4181 Clouds 5 1034 81 10000 2.6 290 20:36 22.01.2020
4182 Clouds 5 1034 81 10000 2.6 290 20:36 22.01.2020
4183 Clouds 5 1034 81 10000 2.6 290 20:18 22.01.2020
4184 Clouds 5 1034 75 10000 2.6 290 19:55 22.01.2020
4185 Clouds 5 1033 75 10000 2.1 300 19:36 22.01.2020
4186 Clouds 5 1033 75 10000 2.1 300 19:18 22.01.2020
4187 Clouds 6 1033 75 10000 3.1 300 18:55 22.01.2020
4188 Clouds 5 1033 93 10000 2.6 290 18:36 22.01.2020
4189 Clouds 6 1033 75 10000 3.1 290 18:18 22.01.2020
4190 Clouds 6 1033 75 10000 3.1 290 18:18 22.01.2020
4191 Clouds 6 1032 81 10000 3.1 290 17:40 22.01.2020
4192 Clouds 6 1032 81 10000 3.1 290 17:21 22.01.2020
4193 Clouds 7 1032 81 10000 3.6 300 16:58 22.01.2020
4194 Clouds 7 1032 81 10000 4.1 310 16:39 22.01.2020
4195 Clouds 7 1032 81 10000 4.1 310 16:21 22.01.2020
4196 Clouds 7 1032 75 10000 4.6 300 15:56 22.01.2020
4197 Clouds 7 1032 75 10000 4.6 300 15:38 22.01.2020
4198 Clouds 7 1032 75 10000 4.6 290 15:18 22.01.2020
4199 Clouds 7 1032 75 10000 7.2 320 14:39 22.01.2020
4200 Clouds 7 1032 75 10000 7.2 320 14:21 22.01.2020
4201 Clouds 7 1033 75 10000 6.2 320 13:59 22.01.2020
4202 Clouds 7 1032 81 10000 3.93 311 13:38 22.01.2020
4203 Clouds 7 1032 81 10000 3.98 308 13:19 22.01.2020
4204 Clouds 7 1033 81 10000 5.7 310 12:57 22.01.2020
4205 Clouds 7 1033 81 10000 5.7 310 12:39 22.01.2020
4206 Clouds 7 1033 87 10000 4.1 290 12:20 22.01.2020
4207 Clouds 7 1032 87 10000 1 0 11:58 22.01.2020
4208 Clouds 6 1032 87 10000 3.6 300 11:40 22.01.2020
4209 Clouds 6 1032 87 10000 3.6 300 11:19 22.01.2020
4210 Clouds 6 1032 87 10000 3.6 290 10:59 22.01.2020
4211 Clouds 6 1032 93 9000 4.6 280 10:41 22.01.2020
4212 Clouds 6 1032 93 9000 4.6 280 10:18 22.01.2020
4213 Drizzle 5 1032 93 4700 3.53 303 09:42 22.01.2020
4214 Drizzle 5 1032 93 4700 3.53 303 09:42 22.01.2020
4215 Drizzle 5 1032 93 4700 3.53 303 09:24 22.01.2020
4216 Drizzle 5 1032 93 3500 3.53 303 08:57 22.01.2020
4217 Drizzle 5 1032 93 2500 3.53 303 08:39 22.01.2020
4218 Drizzle 6 1032 93 2500 3.75 268 08:20 22.01.2020
4219 Drizzle 6 1031 100 2500 3.75 268 07:46 22.01.2020
4220 Mist 5 1032 93 2700 5.7 270 07:28 22.01.2020
4221 Mist 5 1032 93 3900 5.7 270 06:46 22.01.2020
4222 Drizzle 5 1032 93 3000 5.1 280 06:26 22.01.2020
4223 Drizzle 5 1031 93 2300 5.7 260 05:26 22.01.2020
4224 Clouds 5 1034 100 3700 4.6 260 03:30 22.01.2020
4225 Clouds 5 1033 100 2800 4.6 250 02:57 22.01.2020
4226 Drizzle 5 1034 93 6000 3.6 250 01:43 22.01.2020
4227 Drizzle 5 1034 86 7000 4.1 250 00:44 22.01.2020
4228 Clouds 5 1035 86 10000 4.6 250 00:26 22.01.2020
4229 Clouds 5 1035 86 10000 4.1 250 23:38 21.01.2020
4230 Clouds 5 1035 86 10000 4.1 250 23:20 21.01.2020
4231 Clouds 5 1035 86 10000 4.1 250 22:59 21.01.2020
4232 Clouds 5 1035 86 9000 3.6 250 22:39 21.01.2020
4233 Clouds 5 1035 86 9000 3.6 250 22:20 21.01.2020
4234 Clouds 5 1035 86 9000 4.1 260 21:56 21.01.2020
4235 Clouds 5 1036 86 9000 4.1 260 21:37 21.01.2020
4236 Clouds 5 1036 86 9000 4.1 260 21:19 21.01.2020
4237 Clouds 5 1036 80 9000 4.1 260 20:55 21.01.2020
4238 Clouds 5 1036 80 9000 3.6 260 20:37 21.01.2020
4239 Clouds 5 1036 80 9000 3.6 260 20:18 21.01.2020
4240 Clouds 5 1036 80 10000 4.1 260 19:55 21.01.2020
4241 Clouds 5 1036 80 10000 4.1 270 19:37 21.01.2020
4242 Clouds 4 1036 80 10000 4.1 270 19:18 21.01.2020
4243 Clouds 4 1036 80 9000 5.1 250 18:54 21.01.2020
4244 Clouds 4 1036 86 9000 4.6 260 18:36 21.01.2020
4245 Clouds 4 1036 86 9000 4.6 260 18:18 21.01.2020
4246 Clouds 4 1036 80 9000 4.6 260 17:42 21.01.2020
4247 Clouds 5 1037 80 10000 5.1 250 17:20 21.01.2020
4248 Clouds 5 1037 80 10000 5.1 250 16:58 21.01.2020
4249 Clouds 5 1037 80 10000 4.1 260 16:37 21.01.2020
4250 Clouds 5 1037 80 10000 4.1 260 16:18 21.01.2020
4251 Clouds 5 1037 80 10000 5.1 240 15:41 21.01.2020
4252 Clouds 5 1037 80 10000 5.1 240 15:21 21.01.2020
4253 Clouds 5 1038 80 10000 4.1 260 14:59 21.01.2020
4254 Clouds 5 1038 80 10000 4.6 250 14:37 21.01.2020
4255 Clouds 5 1038 80 10000 4.6 250 14:19 21.01.2020
4256 Clouds 5 1039 80 10000 4.6 250 13:40 21.01.2020
4257 Clouds 5 1039 80 10000 4.6 260 13:19 21.01.2020
4258 Clouds 5 1039 80 10000 6.2 250 12:43 21.01.2020
4259 Clouds 5 1039 80 10000 6.2 250 12:43 21.01.2020
4260 Clouds 5 1039 80 10000 6.2 250 12:25 21.01.2020
4261 Clouds 4 1040 86 8000 6.2 260 11:57 21.01.2020
4262 Clouds 4 1040 86 8000 6.2 260 11:39 21.01.2020
4263 Clouds 4 1039 86 7000 5.7 260 11:21 21.01.2020
4264 Clouds 4 1040 86 7000 5.1 260 10:55 21.01.2020
4265 Clouds 4 1039 93 7000 5.7 260 10:37 21.01.2020
4266 Clouds 4 1039 93 7000 5.7 260 10:18 21.01.2020
4267 Clouds 4 1040 93 6000 6.2 260 09:41 21.01.2020
4268 Clouds 3 1039 93 6000 6.2 260 09:22 21.01.2020
4269 Mist 3 1039 93 4200 4.6 250 08:49 21.01.2020
4270 Clouds 3 1039 93 6000 5.1 250 08:29 21.01.2020
4271 Clouds 3 1039 93 6000 5.7 250 07:59 21.01.2020
4272 Clouds 3 1039 93 6000 5.7 250 07:40 21.01.2020
4273 Clouds 3 1039 93 6000 4.6 240 07:21 21.01.2020
4274 Mist 3 1039 93 5000 3.6 240 06:49 21.01.2020
4275 Clouds 3 1040 93 6000 3.6 230 06:29 21.01.2020
4276 Clouds 3 1040 93 6000 3.6 230 06:29 21.01.2020
4277 Clouds 3 1040 93 6000 3.6 230 06:29 21.01.2020
4278 Clouds 3 1040 93 7000 3.6 240 05:42 21.01.2020
4279 Clouds 4 1040 93 7000 3.1 240 04:40 21.01.2020
4280 Clouds 4 1041 86 7000 3.1 240 02:57 21.01.2020
4281 Clouds 4 1041 86 9000 3.6 240 01:55 21.01.2020
4282 Clouds 4 1042 86 9000 4.6 230 01:26 21.01.2020
4283 Clouds 4 1042 93 9000 4.1 240 00:37 21.01.2020
4284 Clouds 4 1042 93 9000 4.6 230 23:59 20.01.2020
4285 Clouds 4 1042 93 9000 4.6 230 23:41 20.01.2020
4286 Clouds 4 1043 93 9000 4.6 230 23:19 20.01.2020
4287 Clouds 4 1043 93 9000 5.1 230 22:58 20.01.2020
4288 Clouds 4 1043 93 9000 5.1 230 22:38 20.01.2020
4289 Clouds 4 1043 93 9000 4.6 230 22:20 20.01.2020
4290 Clouds 4 1043 93 9000 4.6 230 22:20 20.01.2020
4291 Clouds 4 1043 93 10000 4.1 230 21:58 20.01.2020
4292 Clouds 4 1043 93 10000 4.1 240 21:37 20.01.2020
4293 Clouds 4 1043 93 10000 4.1 240 21:19 20.01.2020
4294 Clouds 4 1043 86 10000 4.1 240 20:57 20.01.2020
4295 Clouds 4 1043 86 10000 4.1 230 20:38 20.01.2020
4296 Clouds 4 1043 86 10000 4.1 230 20:18 20.01.2020
4297 Clouds 5 1043 86 10000 4.1 230 19:56 20.01.2020
4298 Clouds 5 1043 86 10000 4.1 230 19:56 20.01.2020
4299 Clouds 5 1044 93 10000 3.6 230 19:38 20.01.2020
4300 Clouds 5 1043 81 10000 3.6 230 19:18 20.01.2020
4301 Clouds 5 1043 81 10000 3.6 230 18:44 20.01.2020
4302 Clouds 5 1043 81 10000 4.1 240 18:23 20.01.2020
4303 Clouds 5 1043 87 10000 4.6 230 17:59 20.01.2020
4304 Clouds 6 1044 87 10000 3.6 230 17:36 20.01.2020
4305 Clouds 6 1044 87 10000 3.6 230 17:36 20.01.2020
4306 Clouds 6 1044 87 10000 3.6 230 17:18 20.01.2020
4307 Clouds 6 1044 75 10000 4.6 240 16:44 20.01.2020
4308 Clouds 6 1044 75 10000 4.6 240 16:25 20.01.2020
4309 Clouds 7 1044 81 10000 3.6 250 15:58 20.01.2020
4310 Clouds 7 1044 81 10000 4.1 240 15:40 20.01.2020
4311 Clouds 7 1044 81 10000 4.1 240 15:21 20.01.2020
4312 Clouds 7 1044 81 10000 5.1 240 14:56 20.01.2020
4313 Clouds 7 1044 87 10000 3.6 250 14:37 20.01.2020
4314 Clouds 7 1044 87 10000 3.6 250 14:19 20.01.2020
4315 Clouds 7 1045 81 10000 4.6 250 13:42 20.01.2020
4316 Clouds 6 1045 81 10000 4.1 250 13:23 20.01.2020
4317 Clouds 6 1045 81 10000 3.6 240 12:56 20.01.2020
4318 Clouds 6 1045 87 10000 3.1 250 12:38 20.01.2020
4319 Clouds 6 1045 87 10000 3.1 250 12:19 20.01.2020
4320 Clouds 5 1046 87 10000 3.1 250 11:43 20.01.2020
4321 Clouds 5 1046 87 10000 3.1 240 11:24 20.01.2020
4322 Clouds 5 1045 93 10000 2.6 250 10:58 20.01.2020
4323 Clouds 5 1045 93 10000 2.6 250 10:40 20.01.2020
4324 Clouds 4 1045 93 7000 2.6 250 10:20 20.01.2020
4325 Clouds 4 1045 93 6000 2.1 230 09:41 20.01.2020
4326 Clouds 4 1045 93 6000 2.1 240 09:23 20.01.2020
4327 Clouds 4 1045 93 6000 2.1 240 08:55 20.01.2020
4328 Clouds 4 1044 93 8000 2.1 250 08:31 20.01.2020
4329 Clouds 4 1044 93 9000 2.6 240 07:55 20.01.2020
4330 Clouds 3 1044 93 9000 2.6 220 07:37 20.01.2020
4331 Clouds 3 1044 93 9000 2.6 220 07:19 20.01.2020
4332 Clouds 3 1044 100 9000 2.1 240 06:40 20.01.2020
4333 Clouds 3 1044 100 9000 0.5 0 06:20 20.01.2020
4334 Clouds 3 1044 97 8000 1 0 05:38 20.01.2020
4335 Clouds 3 1044 96 8000 1 0 05:19 20.01.2020
4336 Clouds 2 1044 96 9000 1 310 03:55 20.01.2020
4337 Clouds 2 1043 95 10000 0.5 0 01:58 20.01.2020
4338 Clouds 1 1043 100 10000 0.5 0 01:39 20.01.2020
4339 Clouds 1 1043 100 9000 1 270 00:56 20.01.2020
4340 Clear 1 1043 92 9000 1 320 00:38 20.01.2020
4341 Clear 1 1043 92 9000 1 320 00:20 20.01.2020
4342 Clear 1 1042 100 10000 1 0 23:38 19.01.2020
4343 Clear 1 1042 100 10000 1 0 23:18 19.01.2020
4344 Clear 1 1042 100 10000 0.5 0 22:55 19.01.2020
4345 Clear 1 1042 94 10000 0.5 0 22:37 19.01.2020
4346 Clear 1 1042 94 10000 0.5 0 22:19 19.01.2020
4347 Clear 1 1041 94 10000 1.5 310 21:56 19.01.2020
4348 Clear 2 1041 86 10000 2.1 320 21:38 19.01.2020
4349 Clear 2 1041 86 10000 2.1 320 21:19 19.01.2020
4350 Clear 2 1041 94 10000 2.1 300 20:56 19.01.2020
4351 Clear 2 1040 93 10000 2.6 320 20:38 19.01.2020
4352 Clear 2 1040 93 10000 2.6 320 20:19 19.01.2020
4353 Clear 2 1040 92 10000 2.1 310 19:55 19.01.2020
4354 Clear 2 1039 86 10000 1.5 300 19:37 19.01.2020
4355 Clear 2 1039 86 10000 1.5 300 19:19 19.01.2020
4356 Clear 3 1039 92 10000 0.5 0 18:55 19.01.2020
4357 Clear 3 1038 92 10000 1 0 18:37 19.01.2020
4358 Clear 3 1038 92 10000 1 0 18:19 19.01.2020
4359 Clouds 4 1038 92 10000 2.1 310 17:57 19.01.2020
4360 Clouds 4 1038 92 10000 2.6 310 17:39 19.01.2020
4361 Clouds 5 1038 77 10000 2.6 310 17:20 19.01.2020
4362 Clouds 5 1037 77 10000 3.6 310 16:57 19.01.2020
4363 Clouds 5 1036 77 10000 5.1 310 16:38 19.01.2020
4364 Clear 5 1037 70 10000 3.6 300 16:19 19.01.2020
4365 Clouds 6 1036 77 10000 5.1 320 15:57 19.01.2020
4366 Clouds 6 1035 77 10000 6.7 320 15:37 19.01.2020
4367 Clouds 7 1035 77 10000 6.7 320 15:19 19.01.2020
4368 Clouds 7 1035 65 10000 6.7 320 14:57 19.01.2020
4369 Clear 7 1035 65 10000 6.2 320 14:38 19.01.2020
4370 Clear 7 1035 65 10000 6.2 320 14:18 19.01.2020
4371 Clear 7 1035 65 10000 6.2 320 14:18 19.01.2020
4372 Clear 7 1035 61 10000 6.7 320 13:56 19.01.2020
4373 Clear 7 1035 65 10000 6.2 320 13:37 19.01.2020
4374 Clear 7 1035 65 10000 6.2 320 13:19 19.01.2020
4375 Clear 6 1034 70 10000 5.7 310 12:55 19.01.2020
4376 Clear 6 1034 70 10000 4.6 300 12:36 19.01.2020
4377 Clear 6 1034 70 10000 4.6 300 12:18 19.01.2020
4378 Clear 5 1034 81 10000 4.6 290 11:42 19.01.2020
4379 Clear 4 1034 86 10000 4.1 290 11:20 19.01.2020
4380 Clouds 4 1033 86 10000 3.6 280 10:56 19.01.2020
4381 Clouds 3 1033 93 10000 1.5 270 10:38 19.01.2020
4382 Clouds 3 1033 93 10000 1.5 270 10:19 19.01.2020
4383 Clouds 2 1032 93 10000 2.1 270 09:55 19.01.2020
4384 Clouds 2 1031 100 10000 0.5 0 09:36 19.01.2020
4385 Rain 2 1031 93 9000 1.5 270 09:18 19.01.2020
4386 Rain 2 1031 93 9000 1.5 270 08:44 19.01.2020
4387 Rain 1 1030 86 10000 1.5 280 08:26 19.01.2020
4388 Clouds 1 1029 93 10000 2.1 270 07:42 19.01.2020
4389 Clouds 1 1029 93 10000 2.1 270 07:22 19.01.2020
4390 Clouds 1 1029 93 10000 2.6 250 06:53 19.01.2020
4391 Clouds 1 1029 93 10000 2.6 260 06:21 19.01.2020
4392 Clouds 2 1026 86 10000 3.1 260 02:47 19.01.2020
4393 Clouds 2 1026 86 10000 3.6 260 02:24 19.01.2020
4394 Clouds 2 1025 86 10000 3.1 260 01:28 19.01.2020
4395 Clouds 2 1025 93 10000 3.1 240 00:54 19.01.2020
4396 Rain 2 1024 93 10000 2.6 250 00:31 19.01.2020
4397 Rain 2 1024 93 10000 2.6 250 23:59 18.01.2020
4398 Clouds 3 1024 93 10000 2.6 250 23:41 18.01.2020
4399 Clouds 3 1024 93 10000 2.6 250 23:23 18.01.2020
4400 Clouds 3 1024 93 10000 2.6 250 23:23 18.01.2020
4401 Clouds 3 1024 86 10000 2.6 250 22:56 18.01.2020
4402 Rain 3 1024 93 10000 3.1 260 22:38 18.01.2020
4403 Rain 3 1024 93 10000 3.1 260 22:20 18.01.2020
4404 Clouds 3 1023 86 10000 3.1 260 21:57 18.01.2020
4405 Clouds 3 1023 86 10000 3.6 250 21:38 18.01.2020
4406 Clouds 3 1023 86 10000 3.6 250 21:20 18.01.2020
4407 Clouds 3 1023 86 10000 3.1 250 20:44 18.01.2020
4408 Clouds 3 1023 86 10000 4.1 240 20:22 18.01.2020
4409 Clouds 3 1022 86 10000 3.1 240 19:59 18.01.2020
4410 Clouds 3 1022 86 10000 4.1 230 19:41 18.01.2020
4411 Clouds 3 1022 86 10000 4.1 230 19:22 18.01.2020
4412 Clouds 4 1022 80 10000 4.1 240 18:43 18.01.2020
4413 Clouds 4 1022 80 10000 3.6 240 18:24 18.01.2020
4414 Clouds 4 1021 80 10000 4.1 250 17:57 18.01.2020
4415 Clouds 4 1021 80 10000 4.1 250 17:39 18.01.2020
4416 Clouds 4 1021 80 10000 4.1 250 17:20 18.01.2020
4417 Clouds 5 1021 80 10000 4.1 250 16:56 18.01.2020
4418 Rain 5 1020 86 10000 5.7 250 16:37 18.01.2020
4419 Rain 5 1020 86 10000 5.7 250 16:19 18.01.2020
4420 Rain 5 1020 86 10000 5.7 240 15:43 18.01.2020
4421 Rain 5 1020 86 10000 6.7 230 15:24 18.01.2020
4422 Rain 5 1020 80 10000 6.7 240 14:59 18.01.2020
4423 Rain 5 1020 80 10000 6.7 240 14:40 18.01.2020
4424 Clouds 5 1020 80 10000 6.7 240 14:19 18.01.2020
4425 Clouds 5 1019 80 10000 7.2 240 13:55 18.01.2020
4426 Clouds 5 1019 80 10000 7.2 230 13:36 18.01.2020
4427 Clouds 5 1019 80 10000 7.2 230 13:18 18.01.2020
4428 Clouds 5 1019 80 10000 7.7 240 12:40 18.01.2020
4429 Clouds 5 1019 80 10000 7.7 240 12:21 18.01.2020
4430 Clouds 5 1020 80 10000 8.7 220 11:45 18.01.2020
4431 Clouds 5 1019 80 10000 7.2 230 11:24 18.01.2020
4432 Clouds 4 1019 80 10000 8.2 220 10:58 18.01.2020
4433 Clouds 4 1019 86 10000 7.7 230 10:39 18.01.2020
4434 Clouds 4 1019 86 10000 7.7 230 10:20 18.01.2020
4435 Clouds 4 1019 80 10000 6.7 220 09:50 18.01.2020
4436 Clouds 4 1018 86 10000 6.7 230 09:32 18.01.2020
4437 Clouds 4 1018 80 10000 6.2 230 08:59 18.01.2020
4438 Clouds 4 1018 80 10000 6.2 230 08:41 18.01.2020
4439 Clouds 4 1018 80 10000 6.7 230 08:19 18.01.2020
4440 Clouds 4 1018 80 10000 6.2 230 07:52 18.01.2020
4441 Clouds 5 1017 80 10000 6.7 230 07:32 18.01.2020
4442 Clouds 5 1017 80 10000 6.2 230 06:48 18.01.2020
4443 Clouds 5 1017 80 10000 6.7 230 06:19 18.01.2020
4444 Clouds 5 1017 75 10000 6.7 240 05:30 18.01.2020
4445 Clouds 6 1015 70 10000 5.7 240 03:39 18.01.2020
4446 Clouds 7 1014 75 10000 6.2 240 02:20 18.01.2020
4447 Clouds 7 1014 75 10000 6.7 240 01:36 18.01.2020
4448 Clouds 7 1013 81 10000 6.7 240 00:38 18.01.2020
4449 Clouds 7 1013 87 10000 6.7 240 00:19 18.01.2020
4450 Clouds 8 1013 93 9000 5.1 230 23:44 17.01.2020
4451 Clouds 8 1013 93 9000 5.1 230 23:21 17.01.2020
4452 Clouds 8 1013 93 7000 5.7 230 22:59 17.01.2020
4453 Clouds 8 1013 93 6000 4.6 230 22:40 17.01.2020
4454 Clouds 8 1013 93 6000 4.6 230 22:19 17.01.2020
4455 Drizzle 8 1012 93 5000 5.1 220 21:42 17.01.2020
4456 Drizzle 8 1012 93 5000 5.1 210 21:24 17.01.2020
4457 Rain 8 1012 93 7000 5.1 220 20:59 17.01.2020
4458 Rain 8 1012 93 9000 4.1 220 20:41 17.01.2020
4459 Rain 8 1012 93 9000 4.1 220 20:20 17.01.2020
4460 Rain 8 1012 93 10000 4.1 230 19:57 17.01.2020
4461 Rain 8 1012 81 10000 5.7 220 19:38 17.01.2020
4462 Rain 8 1012 81 10000 5.7 220 19:20 17.01.2020
4463 Rain 8 1012 71 10000 5.7 210 18:57 17.01.2020
4464 Rain 9 1012 71 10000 5.7 210 18:38 17.01.2020
4465 Clouds 9 1012 71 10000 5.7 200 18:20 17.01.2020
4466 Clouds 9 1012 71 10000 4.6 190 17:40 17.01.2020
4467 Clouds 9 1012 71 10000 4.6 190 17:21 17.01.2020
4468 Clouds 9 1012 71 10000 3.6 180 16:57 17.01.2020
4469 Clouds 9 1012 71 10000 4.6 190 16:38 17.01.2020
4470 Clouds 9 1012 71 10000 3.6 210 16:19 17.01.2020
4471 Clouds 10 1012 71 10000 3.6 210 15:45 17.01.2020
4472 Clouds 10 1012 66 10000 4.1 210 15:26 17.01.2020
4473 Clouds 10 1013 66 10000 4.1 180 14:45 17.01.2020
4474 Clouds 10 1013 66 10000 4.6 190 14:27 17.01.2020
4475 Clouds 10 1013 62 10000 6.2 170 13:58 17.01.2020
4476 Clouds 10 1013 62 10000 6.2 170 13:38 17.01.2020
4477 Clouds 10 1014 66 10000 6.2 170 13:19 17.01.2020
4478 Clouds 10 1015 70 10000 5.1 170 12:44 17.01.2020
4479 Clouds 9 1015 70 10000 5.1 170 12:22 17.01.2020
4480 Clouds 8 1015 75 10000 6.7 140 11:40 17.01.2020
4481 Clouds 8 1015 75 10000 6.7 140 11:19 17.01.2020
4482 Clouds 7 1016 75 10000 6.2 150 10:44 17.01.2020
4483 Clouds 7 1016 81 10000 5.1 150 10:23 17.01.2020
4484 Clouds 6 1016 81 10000 5.7 160 09:59 17.01.2020
4485 Clouds 6 1016 81 10000 5.1 160 09:41 17.01.2020
4486 Clouds 6 1016 81 10000 5.1 160 09:20 17.01.2020
4487 Clouds 6 1016 81 10000 6.7 160 08:46 17.01.2020
4488 Clouds 6 1017 81 10000 6.2 160 08:25 17.01.2020
4489 Clouds 6 1017 81 10000 6.2 160 08:25 17.01.2020
4490 Clouds 6 1017 81 10000 6.7 150 07:56 17.01.2020
4491 Clouds 6 1017 81 10000 6.7 150 07:56 17.01.2020
4492 Clouds 6 1017 81 10000 6.7 160 07:36 17.01.2020
4493 Clouds 6 1017 81 10000 6.7 160 07:18 17.01.2020
4494 Clouds 5 1017 87 10000 6.7 160 06:41 17.01.2020
4495 Clouds 5 1018 86 10000 4.6 150 05:59 17.01.2020
4496 Clouds 5 1018 88 0 3.67 166 03:44 17.01.2020
4497 Clouds 5 1022 81 0 3.67 166 02:55 17.01.2020
4498 Clouds 5 1020 94 0 0.45 139 02:28 17.01.2020
4499 Clouds 5 1021 94 0 0.45 143 01:32 17.01.2020
4500 Clouds 5 1021 94 0 0.45 144 00:58 17.01.2020
4501 Clouds 5 1020 95 0 0.45 180 00:29 17.01.2020
4502 Clouds 5 1022 86 10000 4.6 140 23:54 16.01.2020
4503 Clouds 5 1022 86 10000 4.6 140 23:54 16.01.2020
4504 Clouds 5 1022 86 10000 4.6 140 23:36 16.01.2020
4505 Clouds 5 1022 86 10000 5.1 140 23:18 16.01.2020
4506 Clouds 5 1023 86 10000 5.7 140 22:40 16.01.2020
4507 Clouds 5 1023 86 10000 5.7 140 22:21 16.01.2020
4508 Clouds 5 1023 81 10000 5.1 150 21:57 16.01.2020
4509 Clouds 5 1024 81 10000 5.1 150 21:37 16.01.2020
4510 Clouds 5 1024 81 10000 5.1 150 21:19 16.01.2020
4511 Clouds 5 1024 81 10000 5.7 150 20:56 16.01.2020
4512 Clouds 5 1024 81 10000 5.7 150 20:38 16.01.2020
4513 Clouds 5 1024 81 10000 5.7 150 20:18 16.01.2020
4514 Clouds 6 1024 75 10000 5.7 150 19:56 16.01.2020
4515 Clouds 6 1024 81 10000 5.1 140 19:37 16.01.2020
4516 Clouds 6 1024 81 10000 5.1 140 19:19 16.01.2020
4517 Clouds 6 1024 81 10000 5.1 140 19:19 16.01.2020
4518 Clouds 6 1025 81 10000 4.1 140 18:55 16.01.2020
4519 Clouds 6 1025 87 10000 4.1 140 18:37 16.01.2020
4520 Clouds 6 1025 87 10000 4.1 140 18:18 16.01.2020
4521 Clouds 6 1025 87 10000 4.1 140 17:42 16.01.2020
4522 Clouds 6 1025 81 10000 4.1 140 17:23 16.01.2020
4523 Clouds 7 1025 75 10000 3.1 160 16:57 16.01.2020
4524 Clouds 7 1025 75 10000 3.6 160 16:39 16.01.2020
4525 Clouds 8 1025 75 10000 3.6 160 16:19 16.01.2020
4526 Clouds 8 1025 75 10000 2.1 190 15:44 16.01.2020
4527 Clouds 8 1025 75 10000 4.1 210 15:23 16.01.2020
4528 Clouds 9 1025 76 10000 2.6 180 14:57 16.01.2020
4529 Clouds 8 1025 76 10000 2.6 180 14:39 16.01.2020
4530 Clouds 8 1025 75 10000 3.1 190 14:20 16.01.2020
4531 Clouds 8 1026 76 10000 5.1 210 13:45 16.01.2020
4532 Clouds 8 1026 81 10000 4.1 210 13:26 16.01.2020
4533 Clouds 7 1026 81 10000 4.6 210 12:47 16.01.2020
4534 Clouds 7 1026 81 10000 4.6 210 12:29 16.01.2020
4535 Clouds 7 1026 81 10000 4.6 210 12:29 16.01.2020
4536 Clouds 7 1026 81 10000 4.6 210 12:29 16.01.2020
4537 Clouds 7 1026 81 10000 4.6 220 11:59 16.01.2020
4538 Clouds 6 1026 87 10000 5.1 220 11:41 16.01.2020
4539 Clouds 6 1026 87 10000 5.1 220 11:23 16.01.2020
4540 Clouds 5 1026 93 10000 5.1 220 10:55 16.01.2020
4541 Clouds 5 1026 93 9000 4.6 220 10:36 16.01.2020
4542 Clouds 5 1026 93 9000 4.6 220 10:18 16.01.2020
4543 Clouds 4 1025 93 8000 5.1 220 09:42 16.01.2020
4544 Clouds 4 1024 93 8000 5.1 230 09:24 16.01.2020
4545 Clouds 4 1024 93 8000 5.1 220 08:58 16.01.2020
4546 Clouds 4 1024 93 10000 4.6 230 08:39 16.01.2020
4547 Clouds 4 1024 93 10000 4.6 230 08:18 16.01.2020
4548 Clouds 4 1023 93 10000 4.6 220 07:42 16.01.2020
4549 Clouds 4 1023 93 10000 4.6 220 07:23 16.01.2020
4550 Clouds 4 1023 93 10000 4.6 220 07:23 16.01.2020
4551 Clouds 4 1023 93 10000 5.1 220 06:52 16.01.2020
4552 Clouds 5 1022 93 10000 5.1 220 06:34 16.01.2020
4553 Clouds 5 1022 86 10000 5.1 230 05:49 16.01.2020
4554 Clouds 5 1022 87 10000 4.6 230 04:50 16.01.2020
4555 Clouds 5 1021 87 10000 5.7 230 03:57 16.01.2020
4556 Clouds 5 1020 87 10000 4.6 230 02:47 16.01.2020
4557 Clouds 5 1020 93 10000 4.6 230 02:21 16.01.2020
4558 Clouds 6 1018 87 10000 4.6 230 00:43 16.01.2020
4559 Clouds 6 1018 87 10000 4.1 240 00:23 16.01.2020
4560 Clouds 6 1017 87 10000 4.1 250 23:45 15.01.2020
4561 Clouds 6 1016 93 10000 3.6 250 23:22 15.01.2020
4562 Clouds 6 1016 93 10000 3.1 240 22:57 15.01.2020
4563 Clouds 7 1015 87 10000 3.1 260 22:38 15.01.2020
4564 Clouds 7 1015 87 10000 3.1 260 22:18 15.01.2020
4565 Clouds 7 1014 87 10000 4.1 270 21:56 15.01.2020
4566 Rain 7 1013 87 10000 6.2 270 21:37 15.01.2020
4567 Rain 8 1013 87 10000 6.2 270 21:37 15.01.2020
4568 Rain 8 1013 87 10000 6.2 270 21:18 15.01.2020
4569 Rain 9 1012 81 10000 8.2 230 20:55 15.01.2020
4570 Rain 10 1011 76 10000 7.2 240 20:37 15.01.2020
4571 Rain 11 1010 66 10000 9.3 230 20:19 15.01.2020
4572 Rain 11 1010 66 10000 9.3 230 19:54 15.01.2020
4573 Clouds 11 1010 62 10000 10.3 220 19:36 15.01.2020
4574 Clouds 12 1010 62 10000 10.3 220 19:18 15.01.2020
4575 Clouds 12 1009 58 10000 9.8 210 18:56 15.01.2020
4576 Clouds 12 1009 58 10000 9.3 210 18:37 15.01.2020
4577 Clouds 12 1009 58 10000 9.3 210 18:37 15.01.2020
4578 Clouds 12 1009 58 10000 9.3 210 18:19 15.01.2020
4579 Rain 12 1009 58 10000 10.3 210 17:55 15.01.2020
4580 Clouds 12 1008 58 10000 10.3 210 17:37 15.01.2020
4581 Clouds 12 1008 58 10000 10.3 210 17:18 15.01.2020
4582 Clouds 12 1008 58 10000 8.2 200 16:40 15.01.2020
4583 Clouds 12 1008 58 10000 8.2 200 16:21 15.01.2020
4584 Clouds 12 1008 58 10000 7.2 200 15:57 15.01.2020
4585 Clouds 13 1008 58 10000 7.7 200 15:39 15.01.2020
4586 Clouds 13 1008 58 10000 7.7 200 15:18 15.01.2020
4587 Clouds 13 1008 58 10000 6.7 200 14:43 15.01.2020
4588 Clouds 13 1007 54 10000 9.8 210 14:20 15.01.2020
4589 Clouds 13 1008 54 10000 11.8 210 13:46 15.01.2020
4590 Clouds 13 1007 54 10000 12.3 210 13:27 15.01.2020
4591 Clouds 13 1007 54 10000 10.8 210 12:59 15.01.2020
4592 Clouds 13 1007 54 10000 10.8 210 12:40 15.01.2020
4593 Clouds 13 1007 58 10000 10.8 220 12:20 15.01.2020
4594 Clouds 12 1008 62 10000 11.8 210 11:58 15.01.2020
4595 Clouds 12 1008 62 10000 11.8 210 11:37 15.01.2020
4596 Clouds 12 1007 62 10000 10.8 210 11:19 15.01.2020
4597 Clouds 12 1007 62 10000 10.3 200 10:46 15.01.2020
4598 Clouds 12 1007 62 10000 10.3 200 10:27 15.01.2020
4599 Clouds 12 1007 66 10000 10.3 210 09:54 15.01.2020
4600 Clouds 11 1007 66 10000 10.8 210 09:36 15.01.2020
4601 Clouds 11 1007 66 10000 10.8 210 09:18 15.01.2020
4602 Clouds 11 1006 66 10000 11.3 210 08:41 15.01.2020
4603 Rain 11 1006 66 10000 11.3 210 08:23 15.01.2020
4604 Clouds 11 1006 71 10000 9.8 210 07:53 15.01.2020
4605 Clouds 11 1006 71 10000 9.8 210 07:32 15.01.2020
4606 Clouds 11 1006 71 10000 9.8 210 06:47 15.01.2020
4607 Clouds 11 1005 71 10000 10.8 210 06:21 15.01.2020
4608 Clouds 11 1005 71 10000 10.3 210 04:45 15.01.2020
4609 Clouds 11 1004 71 10000 10.3 210 02:39 15.01.2020
4610 Clouds 11 1004 71 10000 10.8 220 01:28 15.01.2020
4611 Clouds 11 1004 71 10000 10.8 220 01:28 15.01.2020
4612 Clouds 11 1004 71 10000 10.8 210 00:59 15.01.2020
4613 Clouds 11 1004 71 10000 10.8 210 00:36 15.01.2020
4614 Clouds 11 1004 71 10000 10.8 210 00:18 15.01.2020
4615 Clouds 11 1004 71 10000 10.8 210 23:45 14.01.2020
4616 Clouds 11 1004 71 10000 10.8 210 23:24 14.01.2020
4617 Clouds 11 1003 76 10000 10.8 210 22:54 14.01.2020
4618 Clouds 11 1003 71 10000 10.8 200 22:36 14.01.2020
4619 Clouds 11 1003 71 10000 10.8 200 22:18 14.01.2020
4620 Clouds 10 1003 71 10000 11.3 200 21:55 14.01.2020
4621 Clouds 10 1003 71 10000 9.8 190 21:37 14.01.2020
4622 Clouds 10 1003 71 10000 8.2 190 21:19 14.01.2020
4623 Clouds 10 1004 76 10000 8.7 190 20:42 14.01.2020
4624 -273 0 0 0 0 0 20:22 14.01.2020
4625 Clouds 10 1004 76 10000 8.7 190 19:57 14.01.2020
4626 Clouds 10 1004 81 10000 7.7 190 19:38 14.01.2020
4627 Clouds 10 1004 81 10000 7.7 190 19:20 14.01.2020
4628 Clouds 10 1004 81 10000 7.7 190 19:20 14.01.2020
4629 Rain 9 1004 81 10000 6.7 190 18:58 14.01.2020
4630 Clouds 9 1004 81 10000 8.7 200 18:39 14.01.2020
4631 Clouds 9 1004 81 10000 8.7 200 18:19 14.01.2020
4632 Clouds 9 1004 81 10000 8.7 200 18:19 14.01.2020
4633 Clouds 9 1004 81 10000 7.7 210 17:39 14.01.2020
4634 Clouds 9 1004 81 10000 7.7 210 17:20 14.01.2020
4635 Clouds 9 1004 81 10000 8.7 210 16:59 14.01.2020
4636 Clouds 9 1004 81 10000 8.7 210 16:41 14.01.2020
4637 Clouds 9 1004 81 10000 6.2 200 16:21 14.01.2020
4638 Clouds 9 1004 81 10000 7.7 210 15:55 14.01.2020
4639 Clouds 9 1004 81 10000 8.2 220 15:37 14.01.2020
4640 Clouds 9 1004 81 10000 8.2 220 15:18 14.01.2020
4641 Clouds 9 1004 81 10000 7.7 230 14:43 14.01.2020
4642 Clouds 9 1004 81 10000 7.7 230 14:20 14.01.2020
4643 Rain 9 1004 87 10000 8.2 220 13:54 14.01.2020
4644 Rain 9 1004 93 10000 8.7 220 13:36 14.01.2020
4645 Rain 9 1004 93 10000 8.7 220 13:18 14.01.2020
4646 Rain 9 1004 87 10000 10.3 210 12:40 14.01.2020
4647 Rain 9 1004 87 10000 10.3 210 12:20 14.01.2020
4648 Rain 9 1004 87 10000 10.3 210 12:20 14.01.2020
4649 Rain 9 1004 87 10000 10.3 210 12:20 14.01.2020
4650 Rain 9 1003 87 10000 10.3 220 11:43 14.01.2020
4651 Rain 8 1003 87 10000 9.8 210 11:23 14.01.2020
4652 Rain 8 1003 87 10000 10.8 210 10:59 14.01.2020
4653 Rain 8 1002 87 10000 8.7 200 10:39 14.01.2020
4654 Rain 8 1002 87 10000 8.7 200 10:20 14.01.2020
4655 Rain 8 1002 87 10000 8.7 200 09:58 14.01.2020
4656 Rain 8 1002 93 10000 9.3 200 09:40 14.01.2020
4657 Rain 8 1002 93 10000 9.3 200 09:20 14.01.2020
4658 Rain 8 1002 93 10000 9.8 200 08:48 14.01.2020
4659 Rain 7 1002 93 10000 7.7 180 08:25 14.01.2020
4660 Rain 8 1002 87 10000 6.7 180 07:53 14.01.2020
4661 Rain 7 1003 87 10000 7.2 180 07:33 14.01.2020
4662 Rain 7 1003 87 10000 7.2 180 06:54 14.01.2020
4663 Rain 7 1003 81 10000 8.7 180 06:33 14.01.2020
4664 Clouds 7 1004 75 10000 8.7 180 05:27 14.01.2020
4665 Clouds 6 1005 75 10000 6.7 160 03:52 14.01.2020
4666 Clouds 6 1006 81 10000 6.2 160 02:43 14.01.2020
4667 Clouds 5 1007 86 10000 6.7 150 01:55 14.01.2020
4668 Clouds 5 1008 81 10000 7.2 150 00:51 14.01.2020
4669 Clouds 5 1009 86 10000 6.7 160 00:33 14.01.2020
4670 Clouds 5 1009 86 10000 6.7 160 00:33 14.01.2020
4671 Clouds 5 1009 81 10000 7.2 160 23:55 13.01.2020
4672 Clouds 5 1010 86 10000 7.2 160 23:37 13.01.2020
4673 Clouds 5 1010 86 10000 7.2 160 23:18 13.01.2020
4674 Clouds 5 1010 86 10000 5.7 160 22:42 13.01.2020
4675 Clouds 4 1011 86 10000 6.7 160 22:22 13.01.2020
4676 Clouds 5 1011 86 10000 7.2 150 21:57 13.01.2020
4677 Clouds 5 1012 86 10000 6.2 150 21:38 13.01.2020
4678 Clouds 5 1012 86 10000 6.2 150 21:19 13.01.2020
4679 Clouds 5 1012 87 10000 5.1 150 20:59 13.01.2020
4680 Clouds 5 1012 87 10000 5.1 150 20:59 13.01.2020
4681 Clouds 4 1012 93 10000 2.6 150 20:41 13.01.2020
4682 Clouds 4 1012 93 10000 2.6 150 20:22 13.01.2020
4683 Clouds 5 1013 87 10000 5.7 170 19:59 13.01.2020
4684 Clouds 5 1014 81 10000 4.1 180 19:40 13.01.2020
4685 Clouds 5 1014 81 10000 4.1 180 19:20 13.01.2020
4686 Clouds 5 1014 81 10000 4.6 190 18:57 13.01.2020
4687 Clouds 5 1014 81 10000 4.6 190 18:37 13.01.2020
4688 Clouds 5 1014 81 10000 4.1 180 18:19 13.01.2020
4689 Clouds 5 1015 81 10000 4.1 180 17:55 13.01.2020
4690 Clouds 5 1015 81 10000 4.6 180 17:36 13.01.2020
4691 Clouds 6 1015 81 10000 4.6 180 17:18 13.01.2020
4692 Clouds 7 1012 92 0 3.21 208 16:40 13.01.2020
4693 Clouds 7 1012 92 0 3.21 208 16:40 13.01.2020
4694 Clouds 7 1014 66 0 3.21 208 16:21 13.01.2020
4695 Clouds 7 1013 87 0 3.21 208 15:55 13.01.2020
4696 Clouds 7 1015 64 0 3.21 208 15:36 13.01.2020
4697 Clouds 7 1013 88 0 3.21 208 15:18 13.01.2020
4698 Clouds 7 1014 91 0 3.21 208 14:42 13.01.2020
4699 Clouds 7 1016 91 0 0.89 202 14:23 13.01.2020
4700 Clouds 7 1017 80 0 3.98 233 13:58 13.01.2020
4701 Clouds 7 1018 83 0 0.45 197 13:39 13.01.2020
4702 Clouds 7 1014 98 0 1.34 225 13:39 13.01.2020
4703 Clouds 7 1015 95 0 3.67 228 13:21 13.01.2020
4704 Clouds 7 1018 87 10000 4.1 220 12:56 13.01.2020
4705 Clouds 7 1018 87 10000 4.1 220 12:37 13.01.2020
4706 Clouds 7 1018 87 10000 4.1 220 12:37 13.01.2020
4707 Clouds 6 1018 87 10000 4.1 220 12:19 13.01.2020
4708 Clouds 6 1018 87 10000 4.1 220 12:19 13.01.2020
4709 Clouds 6 1018 87 10000 4.1 220 12:19 13.01.2020
4710 Clouds 6 1018 93 10000 4.1 220 11:39 13.01.2020
4711 Clouds 6 1018 93 10000 4.1 220 11:20 13.01.2020
4712 Clouds 6 1018 93 10000 5.7 220 10:57 13.01.2020
4713 Clouds 5 1018 87 10000 4.6 200 10:39 13.01.2020
4714 Clouds 5 1018 87 10000 4.6 200 10:39 13.01.2020
4715 Clouds 5 1018 87 10000 4.6 200 10:20 13.01.2020
4716 Clouds 5 1018 87 10000 4.6 200 10:20 13.01.2020
4717 Clouds 5 1018 93 10000 3.6 210 09:58 13.01.2020
4718 Clouds 5 1018 93 10000 4.1 210 09:40 13.01.2020
4719 Clouds 5 1018 93 10000 4.1 210 09:21 13.01.2020
4720 Clouds 5 1018 93 10000 3.6 200 08:41 13.01.2020
4721 Clouds 5 1018 93 10000 3.1 220 08:20 13.01.2020
4722 Clouds 5 1018 93 10000 4.1 220 07:52 13.01.2020
4723 Clouds 5 1018 100 10000 3.6 220 07:33 13.01.2020
4724 Clouds 5 1018 93 10000 3.6 210 06:43 13.01.2020
4725 Clouds 5 1018 93 10000 3.6 210 06:22 13.01.2020
4726 Clouds 5 1018 87 10000 4.1 240 05:36 13.01.2020
4727 Clouds 6 1018 93 10000 3.6 250 04:25 13.01.2020
4728 Clouds 6 1018 87 10000 4.6 250 03:26 13.01.2020
4729 Clouds 6 1018 93 10000 4.1 260 02:47 13.01.2020
4730 Drizzle 6 1018 93 5000 4.1 270 02:29 13.01.2020
4731 Drizzle 7 1017 93 9000 5.7 270 01:23 13.01.2020
4732 Drizzle 7 1016 93 9000 5.7 260 00:42 13.01.2020
4733 Drizzle 7 1016 93 9000 5.7 260 00:24 13.01.2020
4734 Drizzle 7 1016 93 10000 5.7 250 23:56 12.01.2020
4735 Drizzle 7 1015 87 9000 7.7 250 23:37 12.01.2020
4736 Drizzle 7 1015 87 9000 7.7 250 23:19 12.01.2020
4737 Drizzle 7 1014 93 8000 6.7 240 22:42 12.01.2020
4738 Drizzle 7 1014 93 8000 6.7 240 22:24 12.01.2020
4739 Rain 8 1014 93 9000 5.7 240 21:57 12.01.2020
4740 Drizzle 8 1014 93 10000 7.2 230 21:39 12.01.2020
4741 Drizzle 8 1014 93 10000 7.2 230 21:20 12.01.2020
4742 Clouds 7 1014 87 10000 7.2 230 20:57 12.01.2020
4743 Rain 7 1014 87 10000 8.7 230 20:39 12.01.2020
4744 Rain 7 1014 87 10000 8.7 230 20:20 12.01.2020
4745 Rain 7 1013 93 10000 8.7 230 19:56 12.01.2020
4746 Rain 7 1013 93 8000 8.7 230 19:38 12.01.2020
4747 Rain 7 1013 93 8000 8.7 230 19:38 12.01.2020
4748 Rain 7 1013 93 8000 8.7 230 19:19 12.01.2020
4749 Clouds 7 1013 93 10000 8.2 230 18:57 12.01.2020
4750 Clouds 7 1013 93 10000 8.7 220 18:39 12.01.2020
4751 Clouds 7 1013 93 10000 8.7 220 18:21 12.01.2020
4752 Clouds 6 1013 87 10000 8.7 230 17:57 12.01.2020
4753 Clouds 6 1013 93 10000 9.3 220 17:38 12.01.2020
4754 Clouds 6 1013 93 10000 9.3 220 17:19 12.01.2020
4755 Clouds 6 1013 93 6000 9.3 220 16:55 12.01.2020
4756 Rain 6 1013 93 5000 8.2 220 16:37 12.01.2020
4757 Rain 6 1013 93 5000 8.2 220 16:18 12.01.2020
4758 Drizzle 5 1014 93 3500 8.2 220 15:42 12.01.2020
4759 Drizzle 5 1014 93 3500 8.2 220 15:24 12.01.2020
4760 Rain 5 1014 93 4500 8.2 210 14:57 12.01.2020
4761 Rain 5 1014 93 4500 7.2 210 14:38 12.01.2020
4762 Rain 5 1014 93 4500 7.2 210 14:19 12.01.2020
4763 Drizzle 5 1015 93 4500 7.7 210 13:54 12.01.2020
4764 Drizzle 5 1015 93 5000 7.2 210 13:36 12.01.2020
4765 Drizzle 5 1015 93 5000 7.2 210 13:18 12.01.2020
4766 Rain 5 1015 86 7000 8.7 220 12:42 12.01.2020
4767 Rain 5 1016 86 10000 9.3 210 12:20 12.01.2020
4768 Rain 5 1016 86 10000 8.2 220 11:59 12.01.2020
4769 Rain 5 1016 75 10000 7.2 220 11:39 12.01.2020
4770 Rain 5 1016 75 10000 7.2 220 11:20 12.01.2020
4771 Clouds 5 1017 75 10000 8.2 220 10:42 12.01.2020
4772 Clouds 5 1016 75 10000 8.7 220 10:22 12.01.2020
4773 Clouds 5 1016 80 10000 8.2 220 09:59 12.01.2020
4774 Clouds 5 1016 80 10000 8.2 220 09:41 12.01.2020
4775 Clouds 5 1016 80 10000 8.7 210 09:20 12.01.2020
4776 Rain 5 1017 80 10000 8.2 210 08:45 12.01.2020
4777 Rain 5 1017 80 10000 8.2 210 08:21 12.01.2020
4778 Rain 6 1018 81 10000 8.7 220 07:44 12.01.2020
4779 Rain 6 1018 81 10000 8.7 220 07:25 12.01.2020
4780 Rain 6 1018 81 10000 8.2 220 06:50 12.01.2020
4781 Clouds 6 1018 75 10000 8.2 220 06:32 12.01.2020
4782 Clouds 6 1019 75 10000 7.7 220 05:47 12.01.2020
4783 Clouds 6 1019 75 10000 7.7 220 04:52 12.01.2020
4784 Clouds 6 1019 75 10000 8.2 220 03:29 12.01.2020
4785 Clouds 6 1020 75 10000 8.7 220 02:43 12.01.2020
4786 Clouds 6 1020 75 10000 8.7 220 02:22 12.01.2020
4787 Clouds 6 1021 75 10000 8.2 220 01:30 12.01.2020
4788 Clouds 6 1021 75 10000 8.2 220 00:45 12.01.2020
4789 Clouds 6 1021 75 10000 9.3 220 00:22 12.01.2020
4790 Clouds 6 1021 75 10000 10.3 220 23:56 11.01.2020
4791 Clouds 6 1021 75 10000 9.3 220 23:37 11.01.2020
4792 Clouds 6 1021 75 10000 9.3 220 23:18 11.01.2020
4793 Clouds 6 1022 75 10000 9.3 220 22:56 11.01.2020
4794 Clouds 6 1022 75 10000 8.7 210 22:37 11.01.2020
4795 Clouds 6 1022 75 10000 8.7 210 22:18 11.01.2020
4796 Clouds 6 1023 75 10000 8.7 210 21:44 11.01.2020
4797 Clouds 5 1023 75 10000 8.7 210 21:19 11.01.2020
4798 Clouds 5 1024 70 10000 7.7 220 20:56 11.01.2020
4799 Clouds 5 1024 70 10000 7.2 220 20:38 11.01.2020
4800 Clouds 5 1024 70 10000 7.2 220 20:19 11.01.2020
4801 Clouds 5 1024 80 10000 6.2 220 19:56 11.01.2020
4802 Clouds 5 1024 75 10000 8.7 210 19:38 11.01.2020
4803 Clouds 5 1024 75 10000 8.7 210 19:20 11.01.2020
4804 Clouds 5 1024 75 10000 9.3 210 18:55 11.01.2020
4805 Clouds 5 1024 80 10000 8.7 200 18:36 11.01.2020
4806 Clouds 5 1024 80 10000 8.7 200 18:18 11.01.2020
4807 Clouds 5 1024 80 10000 8.7 200 18:18 11.01.2020
4808 Clouds 5 1024 80 10000 8.7 200 18:18 11.01.2020
4809 Clouds 5 1024 80 10000 8.7 200 18:18 11.01.2020
4810 Clouds 5 1025 80 10000 8.7 210 17:57 11.01.2020
4811 Clouds 5 1025 80 10000 8.2 200 17:39 11.01.2020
4812 Clouds 5 1025 80 10000 8.2 200 17:18 11.01.2020
4813 Clouds 5 1026 80 10000 7.7 210 16:43 11.01.2020
4814 Clouds 5 1026 80 10000 7.7 210 16:24 11.01.2020
4815 Clouds 5 1026 80 10000 7.7 210 15:56 11.01.2020
4816 Clouds 5 1026 75 10000 7.7 210 15:38 11.01.2020
4817 Clouds 5 1026 75 10000 7.7 210 15:19 11.01.2020
4818 Clouds 5 1026 80 10000 7.7 210 14:46 11.01.2020
4819 Clouds 5 1027 75 10000 8.2 220 14:25 11.01.2020
4820 Clouds 5 1027 80 10000 8.7 220 13:57 11.01.2020
4821 Clouds 5 1027 80 10000 6.7 210 13:38 11.01.2020
4822 Clouds 5 1027 80 10000 6.7 210 13:20 11.01.2020
4823 Clouds 5 1027 80 10000 7.2 210 12:56 11.01.2020
4824 Clouds 5 1028 80 10000 7.2 210 12:37 11.01.2020
4825 Clouds 5 1028 80 10000 7.2 210 12:19 11.01.2020
4826 Clouds 4 1029 86 10000 5.1 210 11:42 11.01.2020
4827 Clouds 4 1029 86 10000 5.1 210 11:24 11.01.2020
4828 Clouds 3 1029 86 10000 5.7 220 10:47 11.01.2020
4829 Clouds 3 1029 86 10000 5.7 220 10:47 11.01.2020
4830 Clouds 3 1029 93 10000 4.6 220 10:25 11.01.2020
4831 Clouds 2 1028 86 10000 4.6 210 09:44 11.01.2020
4832 Clouds 2 1028 100 10000 3.6 220 09:21 11.01.2020
4833 Clouds 2 1028 100 10000 3.6 220 09:21 11.01.2020
4834 Clouds 2 1028 88 10000 3.6 210 08:59 11.01.2020
4835 Clouds 2 1028 89 10000 3.6 210 08:40 11.01.2020
4836 Clouds 2 1028 95 10000 3.6 210 08:19 11.01.2020
4837 Clouds 2 1028 100 10000 3.1 210 07:43 11.01.2020
4838 Clouds 2 1028 100 10000 3.1 210 07:24 11.01.2020
4839 Clouds 2 1028 93 10000 2.6 250 06:43 11.01.2020
4840 Clouds 3 1028 86 10000 3.1 260 05:31 11.01.2020
4841 Clouds 3 1027 93 10000 2.1 250 04:43 11.01.2020
4842 Clouds 3 1027 93 10000 2.1 250 04:25 11.01.2020
4843 Clouds 3 1027 80 10000 2.1 270 02:48 11.01.2020
4844 Clouds 4 1026 80 10000 3.1 280 01:48 11.01.2020
4845 Clouds 4 1026 80 10000 3.1 280 01:30 11.01.2020
4846 Clouds 4 1026 75 10000 4.6 300 00:58 11.01.2020
4847 Clouds 4 1025 75 10000 5.1 300 00:29 11.01.2020
4848 Clouds 4 1025 80 10000 4.1 290 23:59 10.01.2020
4849 Clouds 4 1024 80 10000 4.1 290 23:39 10.01.2020
4850 Clouds 4 1024 80 10000 4.1 290 23:20 10.01.2020
4851 Clouds 4 1024 80 10000 5.1 290 22:55 10.01.2020
4852 Clouds 4 1023 80 10000 5.1 290 22:37 10.01.2020
4853 Clouds 4 1023 80 10000 5.1 290 22:18 10.01.2020
4854 Clouds 4 1022 80 10000 5.1 290 21:54 10.01.2020
4855 Clouds 4 1021 75 10000 5.1 290 21:36 10.01.2020
4856 Clouds 4 1021 75 10000 5.1 290 21:18 10.01.2020
4857 Clouds 4 1021 80 10000 6.2 300 20:42 10.01.2020
4858 Clouds 4 1021 80 10000 6.2 300 20:24 10.01.2020
4859 Clouds 4 1021 80 10000 6.2 300 20:24 10.01.2020
4860 Clouds 4 1020 80 10000 6.2 310 19:55 10.01.2020
4861 Clouds 5 1019 80 10000 5.1 310 19:37 10.01.2020
4862 Clouds 5 1019 80 10000 5.1 310 19:19 10.01.2020
4863 Clouds 5 1019 80 10000 7.2 310 18:41 10.01.2020
4864 Clouds 5 1018 80 10000 9.3 310 18:19 10.01.2020
4865 Clouds 5 1018 80 10000 9.3 310 18:19 10.01.2020
4866 Clouds 5 1017 86 10000 8.2 300 17:57 10.01.2020
4867 Drizzle 5 1016 86 8000 8.2 300 17:39 10.01.2020
4868 Drizzle 5 1016 86 8000 8.2 300 17:20 10.01.2020
4869 Clouds 6 1015 81 10000 8.7 290 16:56 10.01.2020
4870 Clouds 6 1014 93 10000 7.2 290 16:37 10.01.2020
4871 Clouds 6 1014 93 10000 7.2 290 16:19 10.01.2020
4872 Clouds 7 1013 93 10000 7.2 280 15:56 10.01.2020
4873 Drizzle 7 1012 87 7000 5.7 260 15:36 10.01.2020
4874 Drizzle 7 1012 87 7000 5.7 260 15:18 10.01.2020
4875 Drizzle 7 1012 87 5000 5.7 250 14:54 10.01.2020
4876 Clouds 8 1011 76 10000 6.7 240 14:36 10.01.2020
4877 Clouds 8 1011 76 10000 6.7 240 14:18 10.01.2020
4878 Rain 8 1011 76 10000 6.7 250 13:43 10.01.2020
4879 Rain 8 1011 81 10000 7.2 240 13:25 10.01.2020
4880 Clouds 8 1011 81 10000 5.7 240 12:58 10.01.2020
4881 Clouds 8 1011 81 10000 6.2 230 12:39 10.01.2020
4882 Clouds 8 1011 81 10000 6.2 230 12:39 10.01.2020
4883 Clouds 8 1011 81 10000 6.2 230 12:19 10.01.2020
4884 Clouds 8 1011 81 10000 6.2 230 12:19 10.01.2020
4885 Clouds 9 1011 81 10000 6.7 230 11:56 10.01.2020
4886 Clouds 8 1010 81 10000 6.2 240 11:38 10.01.2020
4887 Clouds 8 1010 81 10000 6.2 240 11:38 10.01.2020
4888 Clouds 8 1010 81 10000 6.2 240 11:18 10.01.2020
4889 Clouds 8 1010 81 10000 6.2 230 10:58 10.01.2020
4890 Clouds 8 1010 81 10000 6.7 240 10:36 10.01.2020
4891 Clouds 8 1010 81 10000 6.7 240 10:18 10.01.2020
4892 Clouds 8 1010 81 10000 5.7 240 09:43 10.01.2020
4893 Clouds 8 1009 81 10000 6.2 240 09:24 10.01.2020
4894 Clouds 9 1009 87 10000 4.6 240 08:43 10.01.2020
4895 Clouds 9 1009 87 10000 4.6 240 08:24 10.01.2020
4896 Clouds 9 1009 87 10000 4.6 240 08:24 10.01.2020
4897 Clouds 9 1008 87 10000 5.1 260 07:58 10.01.2020
4898 Clouds 9 1008 87 10000 5.1 260 07:39 10.01.2020
4899 Rain 10 1008 93 10000 6.2 230 07:19 10.01.2020
4900 Rain 11 1007 93 9000 5.1 220 06:27 10.01.2020
4901 Rain 11 1007 93 8000 5.7 220 05:59 10.01.2020
4902 Rain 11 1007 100 6000 5.7 220 04:44 10.01.2020
4903 Drizzle 11 1007 100 8000 6.2 210 03:31 10.01.2020
4904 Drizzle 11 1007 100 5000 5.7 210 02:52 10.01.2020
4905 Drizzle 11 1007 100 5000 5.7 210 01:53 10.01.2020
4906 Drizzle 11 1007 100 5000 6.2 210 01:30 10.01.2020
4907 Drizzle 11 1007 100 6000 6.7 210 00:49 10.01.2020
4908 Drizzle 11 1007 100 6000 5.7 210 00:31 10.01.2020
4909 Drizzle 11 1007 100 8000 5.1 210 23:57 09.01.2020
4910 Drizzle 11 1007 100 8000 5.1 210 23:57 09.01.2020
4911 Drizzle 11 1007 100 9000 6.2 210 23:36 09.01.2020
4912 Drizzle 11 1007 100 9000 6.2 210 23:18 09.01.2020
4913 Clouds 11 1007 100 7000 5.1 210 22:56 09.01.2020
4914 Drizzle 11 1007 93 4000 5.7 210 22:37 09.01.2020
4915 Drizzle 11 1007 93 4000 5.7 210 22:18 09.01.2020
4916 Rain 11 1008 93 9000 4.6 210 21:55 09.01.2020
4917 Rain 11 1007 93 10000 4.6 210 21:37 09.01.2020
4918 Rain 11 1007 93 10000 4.6 210 21:18 09.01.2020
4919 Drizzle 11 1007 100 9000 5.7 210 20:55 09.01.2020
4920 Drizzle 11 1007 100 9000 5.7 210 20:37 09.01.2020
4921 Drizzle 11 1007 100 9000 5.1 210 20:18 09.01.2020
4922 Drizzle 11 1008 93 7000 5.7 210 19:39 09.01.2020
4923 Drizzle 11 1008 93 10000 5.7 210 19:21 09.01.2020
4924 Drizzle 11 1008 93 10000 5.7 210 18:57 09.01.2020
4925 Drizzle 11 1008 100 4000 5.7 210 18:39 09.01.2020
4926 Clouds 11 1007 93 10000 6.2 210 18:21 09.01.2020
4927 Drizzle 11 1008 93 7000 5.7 210 17:57 09.01.2020
4928 Drizzle 11 1008 93 7000 5.7 210 17:39 09.01.2020
4929 Clouds 11 1008 93 10000 5.7 210 17:18 09.01.2020
4930 Drizzle 11 1008 93 6000 6.2 220 16:42 09.01.2020
4931 Drizzle 11 1008 93 6000 6.2 220 16:21 09.01.2020
4932 Clouds 10 1008 93 10000 7.2 210 15:43 09.01.2020
4933 Rain 10 1008 93 8000 7.7 210 15:23 09.01.2020
4934 Rain 10 1008 93 10000 7.7 210 14:59 09.01.2020
4935 Rain 10 1008 93 10000 7.7 210 14:41 09.01.2020
4936 Rain 10 1008 87 10000 8.2 210 14:19 09.01.2020
4937 Rain 10 1009 87 9000 6.7 200 13:56 09.01.2020
4938 Rain 10 1009 93 10000 6.2 200 13:38 09.01.2020
4939 Rain 10 1009 87 7000 6.2 190 13:19 09.01.2020
4940 Clouds 9 1010 93 10000 5.7 190 12:56 09.01.2020
4941 Clouds 9 1010 93 10000 5.7 190 12:38 09.01.2020
4942 Drizzle 9 1010 100 10000 5.7 170 12:18 09.01.2020
4943 Drizzle 9 1011 93 9000 6.2 170 11:42 09.01.2020
4944 Drizzle 9 1011 93 9000 6.2 170 11:24 09.01.2020
4945 Clouds 9 1012 93 10000 6.2 160 10:59 09.01.2020
4946 Clouds 8 1012 93 10000 6.2 160 10:41 09.01.2020
4947 Drizzle 8 1013 93 6000 6.7 170 10:21 09.01.2020
4948 Drizzle 8 1013 93 4100 7.2 160 09:49 09.01.2020
4949 Drizzle 8 1013 93 4100 7.2 160 09:25 09.01.2020
4950 Drizzle 8 1013 93 6000 6.7 150 08:59 09.01.2020
4951 Drizzle 8 1014 93 3200 5.1 170 08:40 09.01.2020
4952 Mist 8 1015 93 5000 5.1 160 08:22 09.01.2020
4953 Rain 8 1015 93 4800 4.1 160 07:57 09.01.2020
4954 Rain 8 1015 93 4800 4.1 160 07:37 09.01.2020
4955 Rain 8 1016 93 4800 3.1 160 07:19 09.01.2020
4956 Mist 7 1016 100 5000 3.6 160 06:38 09.01.2020
4957 Mist 7 1017 93 5000 2.6 140 06:18 09.01.2020
4958 Mist 7 1017 93 4800 2.1 160 05:40 09.01.2020
4959 Clouds 7 1018 93 10000 1.5 150 04:42 09.01.2020
4960 Clouds 7 1020 93 10000 2.1 150 03:28 09.01.2020
4961 Clouds 6 1020 93 9000 2.1 150 02:47 09.01.2020
4962 Clouds 7 1020 100 9000 1 190 01:56 09.01.2020
4963 Clouds 7 1020 93 10000 1 220 01:34 09.01.2020
4964 Clouds 7 1021 93 10000 2.1 190 00:40 09.01.2020
4965 Clouds 7 1021 93 10000 1 0 00:20 09.01.2020
4966 Clouds 7 1021 100 10000 2.1 210 23:41 08.01.2020
4967 Clouds 7 1021 93 9000 1 0 23:23 08.01.2020
4968 Clouds 7 1021 100 10000 1 250 22:58 08.01.2020
4969 Clouds 7 1021 100 10000 1 250 22:38 08.01.2020
4970 Clouds 7 1021 100 10000 1.5 280 22:20 08.01.2020
4971 Clouds 7 1021 93 10000 1.5 260 21:56 08.01.2020
4972 Clouds 7 1021 93 10000 1.5 260 21:38 08.01.2020
4973 Clouds 7 1021 93 10000 2.1 250 21:19 08.01.2020
4974 Clouds 8 1021 93 10000 2.1 250 20:57 08.01.2020
4975 Clouds 8 1021 93 10000 2.1 270 20:38 08.01.2020
4976 Clouds 8 1021 93 10000 2.1 260 20:20 08.01.2020
4977 Clouds 8 1021 93 10000 2.1 260 19:56 08.01.2020
4978 Clouds 8 1021 93 10000 2.1 260 19:56 08.01.2020
4979 Clouds 8 1021 93 10000 2.1 260 19:56 08.01.2020
4980 Clouds 8 1021 93 10000 2.6 260 19:37 08.01.2020
4981 Clouds 8 1021 93 10000 2.6 260 19:37 08.01.2020
4982 Clouds 8 1021 93 10000 2.6 260 19:18 08.01.2020
4983 Clouds 8 1021 93 10000 2.6 260 18:55 08.01.2020
4984 Clouds 9 1020 93 10000 3.1 270 18:37 08.01.2020
4985 Clouds 9 1020 100 10000 3.1 270 18:18 08.01.2020
4986 Clouds 9 1020 93 10000 5.1 280 17:47 08.01.2020
4987 Clouds 9 1020 93 10000 5.1 280 17:24 08.01.2020
4988 Clouds 10 1019 100 10000 3.6 270 16:57 08.01.2020
4989 Clouds 10 1019 100 10000 3.6 270 16:39 08.01.2020
4990 Clouds 10 1019 100 10000 3.6 260 16:19 08.01.2020
4991 Clouds 10 1019 100 10000 3.6 260 16:19 08.01.2020
4992 Clouds 10 1019 100 10000 3.6 260 15:58 08.01.2020
4993 Drizzle 10 1018 100 4500 4.1 250 15:39 08.01.2020
4994 Drizzle 10 1018 100 5000 3.6 240 15:19 08.01.2020
4995 Drizzle 10 1018 100 4000 4.1 250 14:55 08.01.2020
4996 Drizzle 10 1018 100 4000 4.1 250 14:37 08.01.2020
4997 Drizzle 10 1018 93 4500 5.1 240 14:19 08.01.2020
4998 Drizzle 10 1018 93 3500 5.1 250 13:39 08.01.2020
4999 Drizzle 9 1018 93 6000 6.7 240 13:18 08.01.2020
5000 Clouds 9 1018 93 6000 5.7 240 12:41 08.01.2020
5001 Clouds 9 1018 93 6000 6.2 240 12:19 08.01.2020
5002 Clouds 9 1018 93 6000 6.2 230 11:55 08.01.2020
5003 Clouds 9 1018 93 6000 6.2 230 11:55 08.01.2020
5004 Clouds 9 1018 93 6000 6.2 230 11:37 08.01.2020
5005 Drizzle 9 1018 93 6000 6.7 230 11:18 08.01.2020
5006 Drizzle 8 1017 100 6000 6.7 230 10:54 08.01.2020
5007 Drizzle 8 1017 100 6000 6.7 230 10:36 08.01.2020
5008 Drizzle 8 1017 93 4200 6.2 230 10:18 08.01.2020
5009 Drizzle 8 1017 93 5000 7.2 230 09:41 08.01.2020
5010 Drizzle 8 1017 93 8000 6.7 230 09:19 08.01.2020
5011 Drizzle 8 1017 93 8000 6.7 230 08:56 08.01.2020
5012 Rain 8 1017 93 8000 7.7 220 08:37 08.01.2020
5013 Clouds 8 1017 87 10000 7.2 220 08:18 08.01.2020
5014 Rain 7 1017 93 10000 7.2 220 07:48 08.01.2020
5015 Rain 7 1017 93 10000 7.7 220 07:29 08.01.2020
5016 Rain 7 1017 93 10000 7.2 220 07:29 08.01.2020
5017 Clouds 7 1017 87 10000 7.2 220 06:45 08.01.2020
5018 Clouds 7 1017 87 10000 7.2 220 06:19 08.01.2020
5019 Rain 7 1018 81 10000 7.2 230 05:41 08.01.2020
5020 Rain 7 1018 81 10000 7.2 230 05:41 08.01.2020
5021 Rain 7 1018 81 10000 7.7 230 04:56 08.01.2020
5022 Rain 7 1017 75 10000 7.2 210 04:24 08.01.2020
5023 Rain 7 1018 75 10000 7.7 210 02:45 08.01.2020
5024 Clouds 7 1018 75 10000 8.7 210 02:21 08.01.2020
5025 Rain 7 1019 75 10000 8.7 210 01:46 08.01.2020
5026 Clouds 7 1019 81 10000 7.7 210 01:19 08.01.2020
5027 Clouds 6 1020 81 10000 8.7 210 00:27 08.01.2020
5028 Clouds 6 1020 81 10000 8.7 210 23:57 07.01.2020
5029 Rain 6 1021 81 10000 8.2 210 23:39 07.01.2020
5030 Clouds 6 1021 81 10000 7.7 210 23:20 07.01.2020
5031 Clouds 6 1021 81 10000 7.7 210 23:20 07.01.2020
5032 Clouds 6 1022 81 10000 7.2 220 22:40 07.01.2020
5033 Clouds 6 1022 81 10000 7.7 220 22:20 07.01.2020
5034 Clouds 6 1022 81 10000 7.7 220 21:57 07.01.2020
5035 Clouds 6 1022 87 10000 5.7 210 21:38 07.01.2020
5036 Clouds 6 1022 81 10000 8.7 210 21:20 07.01.2020
5037 Clouds 6 1022 87 10000 5.7 210 20:55 07.01.2020
5038 Clouds 5 1022 87 10000 5.7 210 20:37 07.01.2020
5039 Clouds 5 1022 87 10000 6.7 200 20:19 07.01.2020
5040 Clouds 5 1022 87 10000 6.7 200 19:38 07.01.2020
5041 Clouds 5 1023 87 10000 6.7 200 19:20 07.01.2020
5042 Clouds 5 1023 87 10000 6.7 200 18:58 07.01.2020
5043 Clouds 5 1023 87 10000 7.2 210 18:40 07.01.2020
5044 Clouds 5 1024 87 10000 6.2 210 18:19 07.01.2020
5045 Clouds 5 1024 87 10000 6.2 210 18:00 07.01.2020
5046 Clouds 6 1024 87 10000 4.6 210 17:39 07.01.2020
5047 Clouds 6 1024 87 10000 3.6 220 17:21 07.01.2020
5048 Clouds 6 1024 87 10000 3.6 220 16:57 07.01.2020
5049 Clouds 6 1024 81 10000 4.1 220 16:38 07.01.2020
5050 Clouds 7 1024 81 10000 4.6 230 16:19 07.01.2020
5051 Clouds 7 1024 81 10000 4.6 230 15:58 07.01.2020
5052 Clouds 7 1024 75 10000 5.1 240 15:40 07.01.2020
5053 Clouds 7 1024 75 10000 5.7 250 15:22 07.01.2020
5054 Clouds 7 1023 75 10000 6.7 240 14:55 07.01.2020
5055 Clouds 7 1023 75 10000 6.7 240 14:37 07.01.2020
5056 Clouds 7 1023 81 10000 4.6 230 14:18 07.01.2020
5057 Clouds 7 1023 81 10000 4.6 250 13:40 07.01.2020
5058 Clouds 7 1023 81 10000 4.1 260 13:19 07.01.2020
5059 Clouds 7 1023 81 10000 4.1 240 12:42 07.01.2020
5060 Clouds 7 1023 81 10000 4.1 240 12:42 07.01.2020
5061 Clouds 7 1023 87 9000 4.1 240 12:21 07.01.2020
5062 Clouds 7 1023 87 9000 4.1 230 11:59 07.01.2020
5063 Clouds 7 1023 87 9000 4.1 230 11:40 07.01.2020
5064 Clouds 7 1023 87 9000 4.6 230 11:21 07.01.2020
5065 Clouds 6 1022 93 8000 3.6 230 10:42 07.01.2020
5066 Clouds 6 1022 93 8000 3.6 230 10:24 07.01.2020
5067 Drizzle 6 1022 93 7000 3.6 240 09:59 07.01.2020
5068 Clouds 5 1022 93 6000 4.1 230 09:38 07.01.2020
5069 Mist 5 1021 93 5000 4.6 230 09:20 07.01.2020
5070 Mist 5 1021 93 4800 3.6 240 08:47 07.01.2020
5071 Mist 5 1021 93 4800 3.6 240 08:28 07.01.2020
5072 Mist 5 1020 93 4500 4.6 240 07:55 07.01.2020
5073 Mist 4 1020 93 4200 4.1 240 07:35 07.01.2020
5074 Drizzle 4 1019 93 3500 4.1 230 06:54 07.01.2020
5075 Drizzle 4 1019 93 3500 4.1 230 06:35 07.01.2020
5076 Drizzle 3 1019 93 3500 3.6 230 05:58 07.01.2020
5077 Drizzle 3 1019 93 3500 3.6 230 05:39 07.01.2020
5078 Clouds 2 1018 90 10000 4.6 230 03:44 07.01.2020
5079 Clouds 2 1018 90 10000 4.1 220 02:38 07.01.2020
5080 Clouds 2 1018 90 10000 4.1 230 01:59 07.01.2020
5081 Clouds 1 1018 86 10000 2.6 210 01:36 07.01.2020
5082 Clouds 2 1018 89 10000 3.1 170 00:55 07.01.2020
5083 Clouds 2 1018 89 10000 3.6 170 00:20 07.01.2020
5084 Clouds 2 1018 89 10000 3.6 170 23:56 06.01.2020
5085 Clouds 2 1018 89 10000 3.6 170 23:37 06.01.2020
5086 Clouds 2 1019 86 10000 3.1 160 23:19 06.01.2020
5087 Clouds 2 1019 80 10000 4.1 180 22:44 06.01.2020
5088 Clouds 3 1019 80 10000 4.1 180 22:24 06.01.2020
5089 Clouds 3 1019 80 10000 4.1 190 21:58 06.01.2020
5090 Clouds 4 1019 75 10000 4.1 190 21:39 06.01.2020
5091 Clouds 4 1020 75 10000 4.6 190 21:20 06.01.2020
5092 Clouds 4 1020 75 10000 4.6 190 21:20 06.01.2020
5093 Clouds 4 1020 75 10000 4.6 190 21:20 06.01.2020
5094 Clouds 4 1020 75 10000 4.6 190 20:57 06.01.2020
5095 Clouds 4 1020 75 10000 5.1 200 20:39 06.01.2020
5096 Clouds 5 1020 75 10000 5.1 200 20:20 06.01.2020
5097 Clouds 5 1021 81 10000 6.2 190 19:57 06.01.2020
5098 Clouds 5 1021 81 10000 6.2 190 19:38 06.01.2020
5099 Clouds 5 1021 81 10000 4.6 200 19:20 06.01.2020
5100 Clouds 5 1021 81 10000 4.1 190 18:48 06.01.2020
5101 Clouds 5 1021 81 10000 3.6 190 18:25 06.01.2020
5102 Clouds 5 1021 87 10000 4.6 210 17:59 06.01.2020
5103 Clouds 5 1021 87 10000 4.6 210 17:39 06.01.2020
5104 Clouds 5 1022 87 10000 5.7 210 17:19 06.01.2020
5105 Clouds 5 1022 87 10000 5.1 210 16:55 06.01.2020
5106 Clouds 6 1022 87 10000 5.1 210 16:36 06.01.2020
5107 Clouds 6 1022 87 10000 5.1 200 16:18 06.01.2020
5108 Clouds 6 1023 87 10000 5.1 210 15:42 06.01.2020
5109 Clouds 6 1023 87 10000 4.6 210 15:20 06.01.2020
5110 Clouds 6 1023 87 10000 4.6 210 14:59 06.01.2020
5111 Clouds 6 1023 81 10000 4.6 210 14:41 06.01.2020
5112 Clouds 6 1023 81 10000 4.6 210 14:41 06.01.2020
5113 Clouds 6 1024 87 10000 4.1 210 14:21 06.01.2020
5114 Clouds 6 1024 87 10000 4.1 210 13:58 06.01.2020
5115 Clouds 6 1024 93 10000 3.6 210 13:38 06.01.2020
5116 Drizzle 6 1024 93 7000 4.6 220 13:19 06.01.2020
5117 Drizzle 6 1025 93 4000 4.6 220 12:43 06.01.2020
5118 Drizzle 6 1025 93 4000 4.6 230 12:21 06.01.2020
5119 Drizzle 6 1025 93 4000 4.6 230 11:59 06.01.2020
5120 Clouds 5 1025 93 6000 4.6 230 11:41 06.01.2020
5121 Clouds 5 1025 93 6000 4.6 230 11:23 06.01.2020
5122 Drizzle 5 1026 100 4800 4.6 230 10:58 06.01.2020
5123 Drizzle 5 1026 100 4800 4.6 230 10:39 06.01.2020
5124 Mist 5 1026 100 4500 4.1 230 10:20 06.01.2020
5125 Drizzle 5 1026 100 3000 4.1 230 09:39 06.01.2020
5126 Clouds 5 1026 93 6000 4.1 230 09:20 06.01.2020
5127 Drizzle 5 1026 93 4800 4.6 230 08:51 06.01.2020
5128 Drizzle 5 1026 93 4800 4.6 230 08:33 06.01.2020
5129 Clouds 5 1026 93 6000 3.6 240 07:57 06.01.2020
5130 Clouds 5 1026 93 6000 3.6 240 07:36 06.01.2020
5131 Drizzle 5 1026 93 5000 5.1 230 06:47 06.01.2020
5132 Drizzle 5 1026 93 4900 4.1 230 06:27 06.01.2020
5133 Drizzle 5 1026 93 5000 4.6 230 05:48 06.01.2020
5134 Drizzle 5 1027 93 4600 4.6 230 04:53 06.01.2020
5135 Drizzle 5 1027 86 7000 5.1 230 04:20 06.01.2020
5136 Clouds 5 1027 93 10000 5.1 230 03:25 06.01.2020
5137 Clouds 5 1028 87 10000 5.1 240 02:25 06.01.2020
5138 Drizzle 5 1028 86 8000 5.7 230 01:46 06.01.2020
5139 Drizzle 5 1028 86 8000 5.7 230 01:28 06.01.2020
5140 Clouds 5 1028 81 10000 5.1 230 00:44 06.01.2020
5141 Clouds 5 1028 81 10000 5.1 230 00:44 06.01.2020
5142 Clouds 5 1028 81 10000 5.1 230 00:24 06.01.2020
5143 Clouds 5 1028 81 10000 5.1 230 23:57 05.01.2020
5144 Clouds 6 1028 81 10000 5.1 230 23:37 05.01.2020
5145 Clouds 5 1029 81 10000 5.1 230 23:19 05.01.2020
5146 Clouds 6 1029 87 10000 5.1 230 22:40 05.01.2020
5147 Drizzle 5 1029 87 9000 5.1 230 22:20 05.01.2020
5148 Clouds 5 1029 87 9000 5.1 230 21:56 05.01.2020
5149 Clouds 5 1029 87 9000 5.1 230 21:38 05.01.2020
5150 Clouds 5 1029 87 8000 4.6 230 21:20 05.01.2020
5151 Drizzle 5 1029 93 7000 5.1 230 20:56 05.01.2020
5152 Drizzle 5 1029 93 7000 5.1 230 20:38 05.01.2020
5153 Drizzle 5 1029 93 6000 5.1 220 20:19 05.01.2020
5154 Drizzle 5 1029 93 6000 5.1 220 20:19 05.01.2020
5155 Drizzle 6 1029 93 6000 5.1 220 19:58 05.01.2020
5156 Clouds 5 1030 93 7000 4.6 220 19:38 05.01.2020
5157 Drizzle 5 1030 93 5000 4.6 230 19:20 05.01.2020
5158 Drizzle 5 1030 93 5000 4.6 230 19:20 05.01.2020
5159 Drizzle 5 1030 93 5000 4.6 230 18:55 05.01.2020
5160 Mist 5 1030 93 5000 5.1 210 18:37 05.01.2020
5161 Mist 5 1030 93 5000 5.1 210 18:37 05.01.2020
5162 Mist 5 1030 93 5000 5.1 210 18:19 05.01.2020
5163 Mist 5 1030 93 5000 5.1 210 17:57 05.01.2020
5164 Mist 5 1030 93 5000 4.6 220 17:38 05.01.2020
5165 Mist 5 1030 93 5000 4.6 220 17:38 05.01.2020
5166 Mist 5 1030 93 5000 4.6 220 17:38 05.01.2020
5167 Mist 5 1030 93 5000 4.6 220 17:38 05.01.2020
5168 Mist 5 1030 93 5000 4.6 220 17:19 05.01.2020
5169 Mist 5 1030 93 5000 4.6 220 16:56 05.01.2020
5170 Mist 5 1031 93 5000 4.1 230 16:38 05.01.2020
5171 Drizzle 5 1031 93 5000 4.6 220 16:19 05.01.2020
5172 Clouds 4 1031 93 6000 5.1 220 15:38 05.01.2020
5173 Clouds 4 1031 93 6000 5.1 220 15:38 05.01.2020
5174 Clouds 4 1031 93 7000 5.1 220 15:20 05.01.2020
5175 Clouds 4 1031 93 7000 5.1 220 14:56 05.01.2020
5176 Clouds 4 1031 86 9000 3.6 220 14:38 05.01.2020
5177 Drizzle 4 1031 86 10000 4.1 210 14:19 05.01.2020
5178 Clouds 4 1031 86 10000 3.6 210 13:56 05.01.2020
5179 Clouds 4 1031 86 10000 3.6 210 13:38 05.01.2020
5180 Clouds 4 1031 86 10000 3.6 210 13:19 05.01.2020
5181 Clouds 4 1031 86 10000 3.6 210 13:19 05.01.2020
5182 Clouds 4 1032 86 10000 3.6 210 12:55 05.01.2020
5183 Clouds 4 1032 86 10000 3.6 210 12:37 05.01.2020
5184 Clouds 3 1032 80 10000 3.6 200 12:19 05.01.2020
5185 Clouds 3 1032 86 10000 2.6 210 11:44 05.01.2020
5186 Clouds 2 1032 86 10000 3.1 230 11:20 05.01.2020
5187 Clouds 2 1032 86 10000 3.1 230 11:20 05.01.2020
5188 Clear 2 1032 86 10000 3.1 210 10:58 05.01.2020
5189 Clear 2 1032 86 10000 3.1 210 10:40 05.01.2020
5190 Clear 2 1032 89 10000 2.6 230 10:19 05.01.2020
5191 Clear 0 1032 89 10000 2.1 210 09:42 05.01.2020
5192 Clouds 0 1032 86 10000 2.1 230 09:22 05.01.2020
5193 Clouds 0 1032 86 10000 1.5 240 08:52 05.01.2020
5194 Clouds 0 1032 86 10000 1.5 240 08:32 05.01.2020
5195 Clouds 0 1032 94 10000 2.6 240 07:59 05.01.2020
5196 Clouds 1 1032 94 10000 2.1 260 07:39 05.01.2020
5197 Clouds 1 1032 94 10000 2.1 260 07:39 05.01.2020
5198 Clouds 1 1032 94 10000 2.1 260 07:20 05.01.2020
5199 Clouds 1 1031 94 10000 2.6 260 06:44 05.01.2020
5200 Clouds 2 1031 94 10000 2.6 260 05:38 05.01.2020
5201 Clouds 2 1031 69 10000 3.1 260 04:55 05.01.2020
5202 Clouds 2 1031 69 10000 1 0 04:18 05.01.2020
5203 Clouds 2 1031 69 10000 1 0 04:18 05.01.2020
5204 Clouds 2 1031 69 10000 1 0 04:18 05.01.2020
5205 Clouds 2 1031 69 10000 2.1 270 03:18 05.01.2020
5206 Clouds 2 1031 69 10000 2.1 270 02:32 05.01.2020
5207 Clouds 2 1030 74 10000 3.1 280 01:49 05.01.2020
5208 Clouds 2 1030 74 10000 3.6 280 01:20 05.01.2020
5209 Clouds 2 1030 74 10000 3.6 280 00:57 05.01.2020
5210 Clouds 1 1029 74 10000 3.6 270 00:39 05.01.2020
5211 Clouds 2 1029 80 10000 3.6 270 00:19 05.01.2020
5212 Clouds 1 1029 86 10000 1 0 23:41 04.01.2020
5213 Clouds 1 1029 86 10000 1 0 23:41 04.01.2020
5214 Clouds 2 1028 83 10000 2.6 270 23:20 04.01.2020
5215 Clouds 2 1028 83 10000 2.6 270 22:56 04.01.2020
5216 Clouds 2 1028 83 10000 3.1 280 22:38 04.01.2020
5217 Clouds 2 1028 83 10000 3.6 270 22:20 04.01.2020
5218 Clear 3 1027 83 10000 3.6 280 21:55 04.01.2020
5219 Clear 3 1027 83 10000 3.6 280 21:37 04.01.2020
5220 Clear 3 1027 83 10000 2.6 290 21:18 04.01.2020
5221 Clear 3 1026 83 10000 3.1 290 20:55 04.01.2020
5222 Clear 3 1026 83 10000 3.1 290 20:36 04.01.2020
5223 Clear 3 1026 83 10000 3.1 290 20:36 04.01.2020
5224 Clouds 3 1025 76 10000 3.6 280 20:18 04.01.2020
5225 Clouds 3 1025 76 10000 4.6 300 19:41 04.01.2020
5226 Clouds 4 1024 76 10000 6.2 290 19:23 04.01.2020
5227 Clouds 4 1024 76 10000 6.2 290 18:57 04.01.2020
5228 Clouds 4 1024 76 10000 5.7 290 18:38 04.01.2020
5229 Clouds 4 1023 76 10000 5.1 290 18:20 04.01.2020
5230 Clouds 4 1023 76 10000 5.1 290 17:56 04.01.2020
5231 Clouds 4 1023 76 10000 5.1 290 17:38 04.01.2020
5232 Clouds 4 1022 69 10000 5.7 290 17:20 04.01.2020
5233 Clouds 4 1021 69 10000 5.1 290 16:42 04.01.2020
5234 Clouds 5 1021 69 10000 5.1 290 16:24 04.01.2020
5235 Clouds 5 1021 69 10000 5.7 300 15:57 04.01.2020
5236 Clouds 5 1020 70 10000 6.2 300 15:39 04.01.2020
5237 Rain 5 1019 75 10000 7.2 300 15:19 04.01.2020
5238 Rain 5 1019 75 10000 7.2 300 14:57 04.01.2020
5239 Rain 5 1019 75 10000 8.2 310 14:39 04.01.2020
5240 Clouds 6 1018 81 10000 6.2 300 14:19 04.01.2020
5241 Rain 5 1018 81 10000 7.2 290 13:55 04.01.2020
5242 Rain 6 1018 81 10000 7.2 290 13:37 04.01.2020
5243 Rain 6 1018 81 10000 7.2 290 13:37 04.01.2020
5244 Clouds 6 1018 81 10000 8.7 310 13:18 04.01.2020
5245 Clouds 6 1018 81 10000 8.7 310 13:18 04.01.2020
5246 Rain 6 1018 87 9000 9.8 310 12:42 04.01.2020
5247 Rain 6 1016 87 7000 10.8 280 12:20 04.01.2020
5248 Rain 6 1016 87 7000 10.8 280 12:20 04.01.2020
5249 Rain 6 1016 87 7000 10.8 280 12:20 04.01.2020
5250 Rain 6 1017 87 9000 9.3 270 11:59 04.01.2020
5251 Rain 6 1017 87 9000 9.3 270 11:40 04.01.2020
5252 Rain 6 1017 87 10000 7.7 260 11:19 04.01.2020
5253 Rain 6 1017 87 10000 7.7 260 10:58 04.01.2020
5254 Rain 6 1017 93 10000 6.7 260 10:38 04.01.2020
5255 Rain 6 1017 87 10000 6.2 250 10:19 04.01.2020
5256 Rain 6 1017 87 10000 7.2 250 09:42 04.01.2020
5257 Rain 6 1018 87 10000 7.2 260 09:24 04.01.2020
5258 Rain 6 1018 87 10000 6.2 260 08:44 04.01.2020
5259 Rain 6 1018 87 10000 6.2 260 08:25 04.01.2020
5260 Clouds 5 1018 86 10000 6.2 270 07:51 04.01.2020
5261 Clouds 5 1018 86 10000 7.2 260 07:33 04.01.2020
5262 Clouds 5 1019 86 10000 7.2 260 06:43 04.01.2020
5263 Clouds 5 1019 86 10000 4.6 250 05:57 04.01.2020
5264 Clouds 4 1019 86 10000 5.1 250 04:50 04.01.2020
5265 Clouds 4 1019 86 10000 5.1 250 04:29 04.01.2020
5266 Clouds 4 1020 86 10000 5.1 250 03:28 04.01.2020
5267 Clouds 4 1020 86 10000 4.1 250 02:46 04.01.2020
5268 Clouds 4 1020 86 10000 5.1 260 02:18 04.01.2020
5269 Clouds 4 1020 86 10000 4.6 260 01:41 04.01.2020
5270 Clouds 4 1020 86 10000 4.1 260 01:23 04.01.2020
5271 Clouds 4 1020 86 10000 4.1 250 00:29 04.01.2020
5272 Clouds 4 1019 93 10000 3.6 250 23:57 03.01.2020
5273 Rain 4 1019 86 10000 4.6 260 23:37 03.01.2020
5274 Clouds 4 1019 86 10000 3.6 260 23:18 03.01.2020
5275 Clouds 4 1018 86 10000 4.1 270 22:40 03.01.2020
5276 Clouds 4 1018 93 10000 3.6 270 22:19 03.01.2020
5277 Clouds 5 1018 93 10000 4.1 280 21:57 03.01.2020
5278 Clouds 5 1018 93 10000 4.1 280 21:38 03.01.2020
5279 Clouds 5 1017 93 10000 3.6 280 21:19 03.01.2020
5280 Clouds 5 1016 93 10000 3.1 280 20:56 03.01.2020
5281 Clouds 5 1016 93 10000 3.1 280 20:38 03.01.2020
5282 Clouds 5 1016 93 10000 3.6 300 20:18 03.01.2020
5283 Rain 5 1015 93 10000 5.7 320 19:55 03.01.2020
5284 Rain 5 1015 93 10000 5.7 320 19:37 03.01.2020
5285 Rain 5 1014 87 10000 5.7 330 19:18 03.01.2020
5286 Rain 6 1014 87 10000 5.1 340 18:41 03.01.2020
5287 Rain 6 1012 93 10000 7.2 340 18:23 03.01.2020
5288 Rain 7 1011 100 7000 4.1 280 17:55 03.01.2020
5289 Rain 7 1011 100 7000 4.1 280 17:36 03.01.2020
5290 Rain 7 1011 100 7000 4.1 280 17:36 03.01.2020
5291 Rain 7 1011 100 8000 3.6 250 17:18 03.01.2020
5292 Rain 7 1011 100 7000 4.1 250 16:42 03.01.2020
5293 Rain 8 1011 100 7000 4.1 250 16:22 03.01.2020
5294 Rain 8 1011 100 7000 4.1 250 16:22 03.01.2020
5295 Drizzle 8 1011 93 4400 5.1 230 15:43 03.01.2020
5296 Drizzle 8 1011 93 5000 5.7 230 15:19 03.01.2020
5297 Drizzle 8 1011 93 5000 5.7 230 15:19 03.01.2020
5298 Drizzle 8 1011 93 5000 5.7 230 14:59 03.01.2020
5299 Drizzle 8 1011 93 3500 6.2 230 14:38 03.01.2020
5300 Drizzle 8 1011 93 3300 6.2 230 14:19 03.01.2020
5301 Drizzle 7 1011 93 3500 6.2 230 13:43 03.01.2020
5302 Drizzle 7 1011 93 3500 6.2 230 13:24 03.01.2020
5303 Drizzle 7 1011 93 5000 6.7 230 12:58 03.01.2020
5304 Drizzle 7 1011 93 6000 6.7 230 12:39 03.01.2020
5305 Drizzle 7 1012 100 3500 6.7 230 12:21 03.01.2020
5306 Drizzle 7 1012 93 6000 6.2 230 11:44 03.01.2020
5307 Drizzle 7 1012 93 4000 6.7 230 11:21 03.01.2020
5308 Drizzle 6 1013 93 5000 7.2 230 10:44 03.01.2020
5309 Drizzle 6 1013 100 4000 7.7 220 10:26 03.01.2020
5310 Drizzle 6 1013 100 4000 7.7 220 09:58 03.01.2020
5311 Drizzle 6 1013 93 3500 7.2 210 09:39 03.01.2020
5312 Drizzle 6 1013 93 3500 7.2 210 09:21 03.01.2020
5313 Drizzle 6 1013 93 3500 7.7 210 08:57 03.01.2020
5314 Drizzle 5 1013 93 3500 7.7 210 08:38 03.01.2020
5315 Drizzle 5 1013 93 5000 7.7 210 08:19 03.01.2020
5316 Drizzle 5 1013 87 3500 7.7 210 07:40 03.01.2020
5317 Drizzle 5 1013 87 3500 7.7 210 07:40 03.01.2020
5318 Drizzle 5 1013 93 5000 7.2 210 07:18 03.01.2020
5319 Clouds 5 1013 87 10000 7.7 210 06:50 03.01.2020
5320 Clouds 5 1014 86 10000 7.7 210 06:32 03.01.2020
5321 Clouds 5 1014 86 10000 7.2 210 05:45 03.01.2020
5322 Clouds 4 1015 86 10000 6.7 210 04:23 03.01.2020
5323 Clouds 4 1016 86 10000 7.2 210 02:57 03.01.2020
5324 Clouds 4 1016 86 10000 6.7 210 02:33 03.01.2020
5325 Clouds 3 1017 93 10000 6.7 210 01:45 03.01.2020
5326 Clouds 3 1018 86 10000 6.7 220 00:53 03.01.2020
5327 Clouds 3 1018 86 10000 6.7 220 00:31 03.01.2020
5328 Clouds 3 1019 93 7000 4.1 210 23:57 02.01.2020
5329 Clouds 2 1019 93 7000 4.1 210 23:38 02.01.2020
5330 Clouds 2 1019 93 8000 6.2 210 23:19 02.01.2020
5331 Clouds 2 1019 93 7000 6.2 210 22:57 02.01.2020
5332 Clouds 2 1020 100 5000 3.6 200 22:39 02.01.2020
5333 Drizzle 2 1020 93 5000 5.7 210 22:18 02.01.2020
5334 Drizzle 1 1020 93 5000 5.7 200 21:42 02.01.2020
5335 Drizzle 1 1021 93 4500 5.7 210 21:23 02.01.2020
5336 Drizzle 1 1021 93 4500 5.7 210 21:00 02.01.2020
5337 Drizzle 1 1021 93 4500 5.1 210 21:00 02.01.2020
5338 Drizzle 1 1021 93 4500 5.1 210 21:00 02.01.2020
5339 Drizzle 1 1021 93 4500 5.7 210 21:00 02.01.2020
5340 Mist 1 1021 100 3000 3.6 220 20:39 02.01.2020
5341 Drizzle 0 1021 84 4700 4.6 210 20:21 02.01.2020
5342 Drizzle 0 1021 84 3200 3.6 180 19:56 02.01.2020
5343 Drizzle 0 1021 84 3200 3.6 180 19:38 02.01.2020
5344 Drizzle 0 1022 84 2600 5.1 200 19:19 02.01.2020
5345 Mist 0 1022 84 1800 4.6 210 18:58 02.01.2020
5346 Mist 0 1022 84 1800 4.6 210 18:40 02.01.2020
5347 Mist 0 1022 84 1800 5.7 220 18:22 02.01.2020
5348 Mist 0 1022 84 1800 5.7 220 17:57 02.01.2020
5349 Mist 0 1022 84 1400 5.7 220 17:37 02.01.2020
5350 Mist 0 1022 84 2200 6.2 220 17:19 02.01.2020
5351 Mist -1 1022 84 2400 6.2 230 16:57 02.01.2020
5352 Mist 0 1022 84 2400 6.2 230 16:38 02.01.2020
5353 Mist 0 1022 84 2400 6.2 230 16:38 02.01.2020
5354 Mist 0 1023 84 3300 5.7 230 16:20 02.01.2020
5355 Mist 0 1023 84 2800 5.1 230 15:56 02.01.2020
5356 Mist 0 1023 84 2800 5.1 230 15:37 02.01.2020
5357 Mist -1 1023 100 2200 5.1 240 15:19 02.01.2020
5358 Mist -1 1023 100 2400 5.7 230 14:55 02.01.2020
5359 Mist -1 1023 100 2400 5.7 230 14:55 02.01.2020
5360 Mist 0 1023 100 2400 5.7 230 14:55 02.01.2020
5361 Mist 0 1023 100 2400 5.7 230 14:36 02.01.2020
5362 Mist 0 1024 100 2000 4.6 230 14:18 02.01.2020
5363 Mist 0 1024 92 3800 4.1 250 13:47 02.01.2020
5364 Mist 0 1024 79 5000 4.6 250 13:29 02.01.2020
5365 Clouds 0 1025 76 6000 6.2 230 12:45 02.01.2020
5366 Clouds 0 1025 76 6000 6.2 230 12:25 02.01.2020
5367 Clouds 0 1025 76 6000 6.2 230 12:25 02.01.2020
5368 Clear 0 1025 80 10000 5.7 210 11:58 02.01.2020
5369 Clear 0 1025 80 10000 5.7 210 11:40 02.01.2020
5370 Clear 0 1026 83 10000 3.1 220 11:19 02.01.2020
5371 Clear 0 1026 83 10000 3.1 210 10:44 02.01.2020
5372 Clouds -1 1026 86 9000 2.6 220 10:25 02.01.2020
5373 Clouds -1 1026 92 8000 2.6 210 09:48 02.01.2020
5374 Clouds -1 1026 92 8000 2.6 210 09:29 02.01.2020
5375 Mist -1 1026 100 3000 2.6 200 08:47 02.01.2020
5376 Mist -1 1026 100 2800 3.1 230 08:27 02.01.2020
5377 Mist -1 1026 100 2000 3.1 230 07:53 02.01.2020
5378 Mist -1 1026 100 2000 3.1 230 07:30 02.01.2020
5379 Mist -1 1026 92 1000 4.1 210 06:46 02.01.2020
5380 Mist -1 1026 92 1400 2.6 220 06:27 02.01.2020
5381 Mist -1 1027 100 1400 2.6 230 05:29 02.01.2020
5382 Mist -2 1027 100 1200 4.1 220 04:32 02.01.2020
5383 Mist -2 1027 100 1200 2.1 240 02:48 02.01.2020
5384 Mist -2 1028 100 2500 2.6 230 01:59 02.01.2020
5385 Mist -2 1028 100 2500 3.1 240 01:39 02.01.2020
5386 Mist -2 1029 92 3000 4.6 260 00:59 02.01.2020
5387 Mist -2 1029 92 3000 4.6 260 00:34 02.01.2020
5388 Mist -2 1029 92 3200 2.1 270 23:58 01.01.2020
5389 Mist -2 1029 92 3200 2.1 270 23:40 01.01.2020
5390 Mist -2 1029 100 3200 1.5 260 23:19 01.01.2020
5391 Mist -2 1029 92 4000 2.1 230 22:38 01.01.2020
5392 Mist -2 1029 100 4000 2.1 220 22:20 01.01.2020
5393 Mist -2 1029 100 4000 2.1 220 22:20 01.01.2020
5394 Mist -2 1029 92 5000 1 230 21:56 01.01.2020
5395 Mist -2 1029 92 5000 1 230 21:38 01.01.2020
5396 Mist -2 1029 100 5000 2.6 220 21:19 01.01.2020
5397 Mist -2 1029 100 5000 2.6 220 20:56 01.01.2020
5398 Mist -2 1029 92 5000 3.6 200 20:56 01.01.2020
5399 Mist -2 1029 92 5000 3.6 200 20:38 01.01.2020
5400 Mist -2 1029 92 5000 3.6 200 20:38 01.01.2020
5401 Mist -1 1030 92 5000 3.6 220 20:19 01.01.2020
5402 Mist -1 1030 92 5000 3.6 220 20:19 01.01.2020
5403 Mist -1 1030 92 5000 3.6 220 19:55 01.01.2020
5404 Clouds -1 1030 92 6000 3.6 240 19:55 01.01.2020
5405 Clouds -1 1030 92 6000 3.6 240 19:55 01.01.2020
5406 Mist -1 1030 92 5000 3.6 220 19:55 01.01.2020
5407 Mist -1 1030 92 5000 3.6 220 19:55 01.01.2020
5408 Clouds -1 1030 92 6000 3.6 240 19:37 01.01.2020
5409 Clouds -1 1030 92 6000 3.6 230 19:19 01.01.2020
5410 Clouds -1 1030 92 6000 3.6 230 18:56 01.01.2020
5411 Mist -1 1030 100 5000 2.1 250 18:36 01.01.2020
5412 Mist -1 1030 100 3500 1.5 220 18:18 01.01.2020
5413 Mist -1 1031 100 3500 2.6 250 17:56 01.01.2020
5414 Mist -1 1031 100 3500 2.6 250 17:38 01.01.2020
5415 Fog 0 1030 100 300 2.6 240 17:19 01.01.2020
5416 Fog 0 1031 93 150 2.1 240 16:55 01.01.2020
5417 Fog 0 1031 93 150 2.1 240 16:36 01.01.2020
5418 Fog 1 1031 93 600 0.5 0 16:18 01.01.2020
5419 Fog 1 1031 93 600 0.5 0 15:54 01.01.2020
5420 Fog 1 1031 93 700 1.5 220 15:36 01.01.2020
5421 Fog 1 1031 93 3000 2.1 220 15:18 01.01.2020
5422 Fog 1 1031 93 6000 3.1 220 14:41 01.01.2020
5423 Fog 2 1031 93 6000 3.1 220 14:22 01.01.2020
5424 Fog 2 1032 85 7000 3.6 220 13:56 01.01.2020
5425 Fog 2 1032 85 7000 3.6 220 13:56 01.01.2020
5426 Clouds 2 1032 85 10000 3.6 220 13:37 01.01.2020
5427 Clouds 2 1032 86 10000 2.6 220 13:19 01.01.2020
5428 Clouds 2 1032 93 10000 2.6 220 12:57 01.01.2020
5429 Clouds 2 1032 93 10000 2.6 220 12:39 01.01.2020
5430 Clouds 2 1033 86 10000 2.6 230 12:19 01.01.2020
5431 Clouds 2 1033 86 10000 2.6 230 11:56 01.01.2020
5432 Clouds 2 1033 86 9000 2.6 230 11:37 01.01.2020
5433 Clouds 1 1033 93 8000 2.1 230 11:18 01.01.2020
5434 Clouds 1 1033 93 8000 2.1 230 10:54 01.01.2020
5435 Clouds 1 1033 100 10000 2.1 230 10:36 01.01.2020
5436 Clouds 1 1033 93 8000 2.6 220 10:18 01.01.2020
5437 Clouds 0 1033 93 8000 2.6 220 09:38 01.01.2020
5438 Clouds 0 1033 92 6000 2.1 210 09:19 01.01.2020
5439 Clouds 0 1033 92 6000 2.1 210 08:56 01.01.2020
5440 Mist 0 1033 100 2500 1 0 08:37 01.01.2020
5441 Fog 0 1033 100 800 0.5 0 08:19 01.01.2020
5442 Fog -1 1033 100 900 0.5 0 07:55 01.01.2020
5443 Fog -1 1033 100 900 0.5 0 07:37 01.01.2020
5444 Fog -1 1033 100 900 0.5 0 07:37 01.01.2020
5445 Mist 0 1033 100 2000 1.5 220 06:45 01.01.2020
5446 Mist 0 1033 100 2000 1.5 220 06:22 01.01.2020
5447 Mist 1 1033 96 5000 1.5 260 05:45 01.01.2020
5448 Fog 0 1033 96 1100 1 190 03:48 01.01.2020
5449 Fog 0 1033 96 1100 1 190 03:28 01.01.2020
5450 Fog 1 1033 100 400 1.5 270 02:59 01.01.2020
5451 Fog 1 1033 100 300 1 0 02:41 01.01.2020
5452 Fog 1 1033 95 250 2.1 240 02:21 01.01.2020
5453 Fog 1 1034 95 300 0.5 0 01:40 01.01.2020
5454 Fog 1 1034 93 800 0.5 10 01:21 01.01.2020
5455 Mist 1 1034 93 3200 1 0 00:45 01.01.2020
5456 Clouds 2 1034 86 7000 2.1 280 00:26 01.01.2020
5457 Clear 1 1035 93 8000 1.5 260 23:56 31.12.2019
5458 Clouds 2 1034 86 7000 2.6 290 23:36 31.12.2019
5459 Clouds 2 1034 86 7000 2.1 300 23:18 31.12.2019
5460 Clouds 2 1034 86 9000 3.1 280 22:55 31.12.2019
5461 Clouds 2 1034 86 9000 3.1 280 22:36 31.12.2019
5462 Clouds 2 1034 86 9000 3.6 260 22:18 31.12.2019
5463 Clouds 2 1034 86 9000 3.1 270 21:43 31.12.2019
5464 Clouds 2 1034 86 9000 2.6 270 21:25 31.12.2019
5465 Clouds 3 1033 93 9000 2.1 260 20:57 31.12.2019
5466 Clouds 3 1033 93 9000 2.1 260 20:39 31.12.2019
5467 Clear 3 1033 86 10000 2.1 260 20:20 31.12.2019
5468 Clear 3 1033 86 10000 2.1 260 19:58 31.12.2019
5469 Clear 3 1033 86 10000 2.6 270 19:40 31.12.2019
5470 Clouds 4 1033 80 10000 4.1 270 19:21 31.12.2019
5471 Clouds 4 1033 80 10000 4.1 280 18:57 31.12.2019
5472 Clouds 4 1033 80 10000 4.1 280 18:38 31.12.2019
5473 Clear 5 1032 80 10000 3.6 290 18:19 31.12.2019
5474 Clouds 5 1032 75 10000 4.1 290 17:56 31.12.2019
5475 Clouds 5 1032 75 10000 4.1 290 17:56 31.12.2019
5476 Clouds 5 1032 75 10000 4.1 290 17:36 31.12.2019
5477 Clouds 5 1032 81 10000 4.6 290 17:18 31.12.2019
5478 Clouds 5 1032 81 10000 4.6 290 16:56 31.12.2019
5479 Clouds 6 1031 75 10000 4.6 290 16:37 31.12.2019
5480 Clouds 6 1031 75 10000 4.6 290 16:18 31.12.2019
5481 Clouds 7 1031 75 10000 4.6 290 15:56 31.12.2019
5482 Clouds 7 1031 70 10000 4.6 300 15:38 31.12.2019
5483 Clouds 7 1031 75 10000 5.1 290 15:20 31.12.2019
5484 Clouds 8 1030 75 10000 5.7 290 14:56 31.12.2019
5485 Clouds 8 1030 75 10000 5.7 290 14:37 31.12.2019
5486 Clouds 8 1030 75 10000 6.7 290 14:19 31.12.2019
5487 Clouds 8 1030 75 10000 6.7 290 13:56 31.12.2019
5488 Clouds 8 1030 75 10000 6.2 290 13:38 31.12.2019
5489 Clouds 8 1030 75 10000 5.7 280 13:20 31.12.2019
5490 Clouds 8 1030 75 10000 6.7 290 12:56 31.12.2019
5491 Clouds 8 1030 75 10000 6.7 290 12:38 31.12.2019
5492 Clouds 7 1030 75 10000 5.1 290 12:19 31.12.2019
5493 Clouds 7 1029 75 10000 5.1 290 11:56 31.12.2019
5494 Clear 7 1030 81 10000 5.7 270 11:37 31.12.2019
5495 Clouds 7 1029 81 10000 4.6 280 11:19 31.12.2019
5496 Clouds 7 1029 81 10000 5.1 280 10:56 31.12.2019
5497 Clouds 6 1029 81 10000 5.1 280 10:37 31.12.2019
5498 Clouds 6 1028 75 10000 5.7 280 10:19 31.12.2019
5499 Clouds 6 1028 75 10000 5.7 280 09:58 31.12.2019
5500 Clouds 6 1028 81 10000 4.6 280 09:38 31.12.2019
5501 Clouds 5 1027 81 10000 5.1 270 09:19 31.12.2019
5502 Clouds 5 1027 81 10000 5.1 270 08:57 31.12.2019
5503 Clouds 5 1027 81 10000 5.1 270 08:37 31.12.2019
5504 Clouds 5 1027 81 10000 4.1 280 08:18 31.12.2019
5505 Clouds 5 1026 81 10000 4.1 270 07:41 31.12.2019
5506 Clouds 5 1026 87 10000 4.1 280 07:19 31.12.2019
5507 Clouds 6 1026 87 10000 4.6 290 06:48 31.12.2019
5508 Clouds 6 1025 87 10000 5.1 290 05:55 31.12.2019
5509 Clouds 6 1024 93 8000 4.6 280 04:27 31.12.2019
5510 Drizzle 6 1022 93 4500 5.1 270 03:27 31.12.2019
5511 Drizzle 5 1022 93 4000 4.6 260 02:49 31.12.2019
5512 Drizzle 5 1022 93 4500 5.1 250 01:55 31.12.2019
5513 Drizzle 5 1022 93 4000 5.1 270 01:34 31.12.2019
5514 Clouds 5 1022 80 10000 5.1 250 00:59 31.12.2019
5515 Clouds 5 1022 80 10000 5.1 250 00:41 31.12.2019
5516 Clouds 5 1022 75 10000 5.7 260 00:21 31.12.2019
5517 Clouds 5 1022 75 10000 5.7 260 23:56 30.12.2019
5518 Clouds 5 1022 91 10000 6.2 260 23:37 30.12.2019
5519 Clouds 5 1022 65 10000 5.7 260 23:19 30.12.2019
5520 Clouds 5 1022 65 10000 5.7 260 22:56 30.12.2019
5521 Clouds 5 1022 60 10000 5.1 250 22:37 30.12.2019
5522 Clear 5 1022 56 10000 5.1 240 22:19 30.12.2019
5523 Clear 5 1022 56 10000 5.1 240 21:56 30.12.2019
5524 Clear 5 1022 52 10000 4.6 250 21:38 30.12.2019
5525 Clear 5 1022 45 10000 5.1 250 21:18 30.12.2019
5526 Clear 5 1022 45 10000 5.1 250 21:18 30.12.2019
5527 Clear 5 1022 45 10000 5.1 250 20:56 30.12.2019
5528 Clear 5 1022 45 10000 6.2 250 20:38 30.12.2019
5529 Clouds 5 1022 45 10000 5.7 240 20:19 30.12.2019
5530 Clouds 5 1022 45 10000 5.7 240 19:57 30.12.2019
5531 Clouds 5 1022 41 10000 5.1 240 19:37 30.12.2019
5532 Clouds 5 1022 41 10000 4.6 240 19:19 30.12.2019
5533 Clouds 5 1023 41 10000 5.1 240 18:56 30.12.2019
5534 Clouds 5 1023 41 10000 5.1 240 18:38 30.12.2019
5535 Clouds 5 1023 41 10000 5.1 250 18:20 30.12.2019
5536 Clouds 5 1023 41 10000 4.6 240 17:55 30.12.2019
5537 Clouds 5 1023 39 10000 5.1 240 17:36 30.12.2019
5538 Clouds 5 1023 45 10000 4.1 230 17:18 30.12.2019
5539 Clouds 5 1023 45 10000 4.1 230 16:55 30.12.2019
5540 Clouds 6 1023 48 10000 5.1 220 16:36 30.12.2019
5541 Clouds 6 1023 39 10000 4.6 230 16:18 30.12.2019
5542 Clouds 7 1023 39 10000 5.7 220 15:55 30.12.2019
5543 Clouds 7 1023 39 10000 5.7 220 15:36 30.12.2019
5544 Clouds 7 1024 36 10000 6.2 230 15:18 30.12.2019
5545 Clouds 8 1024 34 10000 5.1 240 14:42 30.12.2019
5546 Clouds 8 1024 31 10000 5.7 240 14:19 30.12.2019
5547 Clouds 8 1024 31 10000 5.7 240 13:56 30.12.2019
5548 Clouds 8 1024 33 10000 6.2 230 13:37 30.12.2019
5549 Clouds 7 1025 39 10000 3.6 230 13:19 30.12.2019
5550 Clouds 7 1025 33 10000 4.6 240 12:43 30.12.2019
5551 Clouds 7 1025 36 10000 5.7 230 12:22 30.12.2019
5552 Clouds 7 1025 36 10000 5.7 230 11:59 30.12.2019
5553 Clouds 6 1026 39 10000 5.7 220 11:40 30.12.2019
5554 Clouds 6 1026 41 10000 6.2 230 11:19 30.12.2019
5555 Clouds 6 1026 41 10000 6.2 230 11:19 30.12.2019
5556 Clouds 5 1026 41 10000 6.2 230 10:57 30.12.2019
5557 Clouds 5 1026 38 10000 5.1 230 10:38 30.12.2019
5558 Clouds 5 1026 38 10000 5.7 230 10:18 30.12.2019
5559 Clouds 5 1026 41 10000 5.7 220 09:41 30.12.2019
5560 Clouds 5 1026 38 10000 5.1 220 09:20 30.12.2019
5561 Clouds 5 1026 38 10000 5.1 220 08:55 30.12.2019
5562 Clouds 5 1026 38 10000 4.6 220 08:36 30.12.2019
5563 Clouds 5 1027 38 10000 5.1 220 08:18 30.12.2019
5564 Clouds 5 1027 38 10000 5.1 220 08:18 30.12.2019
5565 Clouds 5 1027 44 10000 4.6 220 07:40 30.12.2019
5566 Clouds 5 1027 44 10000 5.1 220 06:58 30.12.2019
5567 Clouds 4 1027 44 10000 5.1 220 06:23 30.12.2019
5568 Clouds 4 1029 48 10000 5.1 220 04:23 30.12.2019
5569 Clouds 4 1029 44 10000 4.1 220 03:39 30.12.2019
5570 Clouds 4 1030 51 10000 5.1 220 02:41 30.12.2019
5571 Clouds 4 1030 44 10000 4.6 230 02:20 30.12.2019
5572 Clouds 3 1030 51 10000 3.6 220 01:26 30.12.2019
5573 Clouds 3 1031 51 10000 4.1 220 00:47 30.12.2019
5574 Clouds 3 1031 51 10000 4.6 220 00:26 30.12.2019
5575 Clouds 3 1031 59 10000 5.1 210 23:40 29.12.2019
5576 Clouds 2 1032 59 10000 3.6 220 23:22 29.12.2019
5577 Clouds 2 1032 59 10000 4.6 220 22:57 29.12.2019
5578 Clouds 2 1032 59 10000 4.6 220 22:38 29.12.2019
5579 Clouds 2 1032 59 10000 5.7 220 22:20 29.12.2019
5580 Clouds 2 1032 59 10000 4.6 210 21:55 29.12.2019
5581 Clouds 2 1032 59 10000 4.6 210 21:36 29.12.2019
5582 Clouds 2 1033 59 10000 3.6 220 21:18 29.12.2019
5583 Clouds 2 1033 69 10000 2.1 210 20:55 29.12.2019
5584 Clouds 2 1033 69 10000 2.1 210 20:55 29.12.2019
5585 Clouds 2 1033 69 10000 2.1 210 20:37 29.12.2019
5586 Clouds 2 1033 69 10000 2.1 210 20:37 29.12.2019
5587 Clouds 2 1033 69 10000 4.1 220 20:18 29.12.2019
5588 Clouds 1 1033 69 10000 2.1 190 19:55 29.12.2019
5589 Clouds 1 1033 69 10000 2.1 190 19:37 29.12.2019
5590 Clouds 1 1033 69 10000 4.1 210 19:18 29.12.2019
5591 Clouds 1 1034 69 10000 4.1 220 18:54 29.12.2019
5592 Clouds 1 1034 69 10000 4.1 220 18:36 29.12.2019
5593 Clouds 1 1034 69 10000 4.6 220 18:18 29.12.2019
5594 Clouds 1 1034 69 10000 3.1 190 17:55 29.12.2019
5595 Clouds 1 1034 69 10000 3.1 190 17:36 29.12.2019
5596 Clouds 1 1034 69 10000 4.6 200 17:18 29.12.2019
5597 Clouds 1 1035 69 10000 4.6 210 16:55 29.12.2019
5598 Clouds 1 1035 69 10000 4.6 210 16:36 29.12.2019
5599 Clouds 1 1035 69 10000 3.6 220 16:18 29.12.2019
5600 Clouds 1 1035 69 10000 3.6 220 15:55 29.12.2019
5601 Clouds 1 1035 74 10000 2.1 220 15:37 29.12.2019
5602 Clouds 1 1035 80 10000 2.1 220 15:18 29.12.2019
5603 Clouds 1 1035 69 10000 5.1 210 14:55 29.12.2019
5604 Clouds 1 1035 69 10000 5.1 210 14:37 29.12.2019
5605 Clouds 1 1035 69 10000 4.6 220 14:18 29.12.2019
5606 Clouds 1 1035 69 10000 4.6 220 13:55 29.12.2019
5607 Clouds 1 1035 69 10000 4.6 210 13:37 29.12.2019
5608 Clouds 1 1036 80 10000 2.1 200 13:18 29.12.2019
5609 Clouds 0 1036 80 10000 2.1 210 12:41 29.12.2019
5610 Clouds 0 1036 80 10000 3.1 150 12:23 29.12.2019
5611 Clouds 0 1037 67 10000 3.1 160 11:55 29.12.2019
5612 Clouds 0 1037 67 10000 3.1 160 11:37 29.12.2019
5613 Clouds 0 1037 75 10000 2.1 180 11:19 29.12.2019
5614 Clouds -1 1037 75 10000 2.6 160 10:41 29.12.2019
5615 Clouds -1 1037 75 10000 2.1 160 10:22 29.12.2019
5616 Clouds -1 1037 75 10000 2.1 160 09:56 29.12.2019
5617 Clouds -1 1037 86 10000 3.1 150 09:38 29.12.2019
5618 Clouds -1 1037 86 10000 3.1 160 09:19 29.12.2019
5619 Clouds -2 1038 86 10000 2.6 170 08:46 29.12.2019
5620 Clouds -2 1038 86 10000 3.1 160 08:24 29.12.2019
5621 Clouds -2 1038 86 10000 3.1 160 07:55 29.12.2019
5622 Clouds -2 1038 92 10000 3.6 150 07:28 29.12.2019
5623 Clouds -2 1038 86 10000 3.6 160 06:55 29.12.2019
5624 Clouds -2 1038 86 10000 3.6 160 06:25 29.12.2019
5625 Clouds -2 1038 92 10000 2.6 140 05:51 29.12.2019
5626 Clouds -3 1039 92 10000 2.1 150 04:36 29.12.2019
5627 Clouds -2 1039 92 10000 2.1 160 03:51 29.12.2019
5628 Clouds -2 1040 86 10000 1.5 180 03:20 29.12.2019
5629 Clouds -2 1039 86 10000 2.1 160 02:20 29.12.2019
5630 Clouds -1 1039 86 10000 4.1 160 01:31 29.12.2019
5631 Clouds -1 1039 86 10000 4.1 160 01:31 29.12.2019
5632 Clouds -1 1039 86 10000 4.1 160 01:31 29.12.2019
5633 Clouds -1 1039 86 10000 4.1 140 00:58 29.12.2019
5634 Clouds -1 1040 86 10000 3.1 150 00:40 29.12.2019
5635 Clouds -1 1040 81 10000 4.1 160 00:21 29.12.2019
5636 Clouds -1 1040 81 10000 3.1 160 23:42 28.12.2019
5637 Clouds -1 1041 80 10000 3.1 180 23:18 28.12.2019
5638 Clouds -1 1041 80 10000 3.1 160 22:39 28.12.2019
5639 Clouds -1 1041 80 10000 3.1 160 22:39 28.12.2019
5640 Clouds -1 1041 80 10000 4.1 160 22:20 28.12.2019
5641 Clouds -1 1041 80 10000 4.6 160 21:58 28.12.2019
5642 Clouds -1 1041 80 10000 4.6 160 21:39 28.12.2019
5643 Clouds -1 1041 80 10000 3.6 150 21:21 28.12.2019
5644 Clouds -1 1041 80 10000 3.6 150 21:21 28.12.2019
5645 Clouds -1 1042 80 10000 3.1 160 20:57 28.12.2019
5646 Clouds -1 1042 82 10000 3.1 160 20:37 28.12.2019
5647 Clouds -1 1042 82 10000 3.1 160 20:37 28.12.2019
5648 Clouds 0 1042 82 10000 3.1 150 20:19 28.12.2019
5649 Clouds 0 1042 82 10000 3.1 150 19:58 28.12.2019
5650 Clouds 0 1042 82 10000 3.1 150 19:39 28.12.2019
5651 Clouds 0 1042 82 10000 4.1 150 19:20 28.12.2019
5652 Clouds 0 1042 82 10000 4.1 150 18:57 28.12.2019
5653 Clouds 0 1041 82 10000 4.6 150 18:39 28.12.2019
5654 Clouds 0 1041 82 10000 4.6 160 18:19 28.12.2019
5655 Clouds 0 1041 82 10000 4.6 150 17:55 28.12.2019
5656 Clouds 0 1041 82 10000 4.6 150 17:36 28.12.2019
5657 Clouds 0 1041 84 10000 3.6 160 17:18 28.12.2019
5658 Clouds 0 1042 84 10000 4.1 160 16:46 28.12.2019
5659 Clouds 0 1042 84 10000 4.6 160 16:26 28.12.2019
5660 Clouds 0 1042 74 10000 3.6 160 15:46 28.12.2019
5661 Clouds 0 1042 74 10000 3.6 160 15:24 28.12.2019
5662 Clouds 1 1042 74 10000 3.6 160 14:59 28.12.2019
5663 Clouds 1 1042 74 10000 3.6 150 14:39 28.12.2019
5664 Clouds 1 1042 74 10000 3.6 160 14:20 28.12.2019
5665 Clouds 1 1042 74 10000 3.6 160 13:56 28.12.2019
5666 Clouds 1 1042 74 10000 4.6 150 13:37 28.12.2019
5667 Clouds 1 1042 80 10000 3.1 150 13:18 28.12.2019
5668 Clouds 1 1042 80 10000 2.1 140 12:43 28.12.2019
5669 Clouds 0 1042 80 10000 2.6 120 12:24 28.12.2019
5670 Clouds 0 1043 79 10000 1.5 100 11:56 28.12.2019
5671 Clouds 0 1043 79 10000 1.5 100 11:56 28.12.2019
5672 Clouds 0 1043 79 10000 1.5 100 11:38 28.12.2019
5673 Clouds 0 1043 88 10000 1 0 11:19 28.12.2019
5674 Clouds -1 1042 92 10000 0.5 60 10:44 28.12.2019
5675 Clouds -2 1042 86 10000 0.5 60 10:22 28.12.2019
5676 Clouds -2 1042 92 10000 1 0 09:58 28.12.2019
5677 Clouds -2 1042 92 10000 1 0 09:40 28.12.2019
5678 Clouds -2 1042 92 10000 0.5 0 09:20 28.12.2019
5679 Clouds -2 1042 100 10000 1 0 08:44 28.12.2019
5680 Clouds -2 1041 92 10000 1 60 08:26 28.12.2019
5681 Clouds -2 1041 92 10000 1 60 07:55 28.12.2019
5682 Clouds -2 1041 92 10000 1.5 80 07:32 28.12.2019
5683 Fog -2 1041 92 10000 0.5 0 06:41 28.12.2019
5684 Clouds -2 1041 92 10000 0.5 0 05:19 28.12.2019
5685 Clouds -1 1040 100 10000 0.5 60 03:47 28.12.2019
5686 Clouds -2 1040 92 10000 1.5 320 02:49 28.12.2019
5687 Clouds -2 1040 100 10000 0.5 0 02:19 28.12.2019
5688 Clouds -2 1040 92 10000 2.1 340 01:50 28.12.2019
5689 Clouds -2 1039 92 10000 1 310 01:20 28.12.2019
5690 Clouds -1 1039 92 10000 0.5 0 00:41 28.12.2019
5691 Clouds -1 1039 92 10000 1 290 00:23 28.12.2019
5692 Clouds -1 1038 92 10000 1 0 23:45 27.12.2019
5693 Clouds -1 1038 92 10000 1 0 23:21 27.12.2019
5694 Clouds -1 1038 92 10000 1 0 22:58 27.12.2019
5695 Clouds -1 1038 92 10000 1.5 330 22:39 27.12.2019
5696 Clouds 0 1038 92 10000 0.5 50 22:21 27.12.2019
5697 Clouds 0 1038 92 10000 0.5 50 21:59 27.12.2019
5698 Clouds 0 1038 85 10000 1 0 21:40 27.12.2019
5699 Clouds 1 1038 85 10000 1.5 360 21:22 27.12.2019
5700 Clouds 1 1037 80 10000 1 0 20:42 27.12.2019
5701 Clouds 1 1037 74 10000 1 0 20:24 27.12.2019
5702 Clouds 1 1037 74 10000 1 0 19:57 27.12.2019
5703 Clouds 2 1037 80 10000 2.1 10 19:38 27.12.2019
5704 Clouds 2 1036 80 10000 1 0 19:19 27.12.2019
5705 Clouds 2 1036 80 10000 1 0 18:55 27.12.2019
5706 Clouds 2 1036 77 10000 1.5 360 18:36 27.12.2019
5707 Clouds 2 1036 74 10000 1.5 360 18:18 27.12.2019
5708 Clouds 2 1035 77 10000 2.1 30 17:42 27.12.2019
5709 Clouds 2 1034 75 10000 2.1 30 17:20 27.12.2019
5710 Clouds 2 1034 75 10000 3.1 50 16:59 27.12.2019
5711 Clouds 3 1034 75 10000 3.1 50 16:41 27.12.2019
5712 Clouds 3 1034 75 10000 3.1 50 16:41 27.12.2019
5713 Clouds 3 1033 75 10000 3.1 40 16:22 27.12.2019
5714 Clouds 3 1033 75 10000 3.1 40 15:57 27.12.2019
5715 Clouds 3 1033 75 10000 1 0 15:37 27.12.2019
5716 Clouds 3 1033 86 10000 1 0 15:18 27.12.2019
5717 Clouds 3 1032 75 10000 1.5 10 14:55 27.12.2019
5718 Clouds 3 1032 75 10000 1.5 10 14:37 27.12.2019
5719 Clouds 3 1032 76 10000 2.1 10 14:19 27.12.2019
5720 Clouds 3 1032 76 10000 2.1 30 13:44 27.12.2019
5721 Clouds 3 1032 74 10000 2.1 30 13:22 27.12.2019
5722 Clouds 3 1032 75 10000 2.6 50 12:49 27.12.2019
5723 Clouds 3 1032 75 10000 2.6 50 12:29 27.12.2019
5724 Clouds 3 1031 75 10000 2.6 30 11:59 27.12.2019
5725 Clouds 3 1031 74 10000 3.1 20 11:41 27.12.2019
5726 Clouds 2 1031 80 10000 2.6 30 11:20 27.12.2019
5727 Clouds 2 1030 91 10000 2.1 20 10:47 27.12.2019
5728 Clouds 2 1030 91 10000 2.1 20 10:24 27.12.2019
5729 Clouds 2 1029 91 10000 2.1 10 09:58 27.12.2019
5730 Clouds 2 1029 91 10000 2.1 10 09:39 27.12.2019
5731 Clouds 2 1028 91 10000 2.6 20 09:21 27.12.2019
5732 Clouds 2 1028 80 10000 4.6 50 08:49 27.12.2019
5733 Clouds 2 1028 80 10000 4.6 50 08:30 27.12.2019
5734 Clouds 2 1027 96 10000 3.6 40 07:48 27.12.2019
5735 Clouds 2 1027 96 10000 3.6 40 07:26 27.12.2019
5736 Clouds 3 1026 86 10000 3.1 50 06:33 27.12.2019
5737 Clouds 3 1025 93 10000 2.1 50 04:58 27.12.2019
5738 Clouds 3 1024 100 6000 0.5 0 02:53 27.12.2019
5739 Clouds 2 1023 93 6000 0.5 40 01:59 27.12.2019
5740 Clouds 3 1023 93 6000 0.5 40 01:24 27.12.2019
5741 Clouds 3 1023 93 7000 0.5 210 00:58 27.12.2019
5742 Rain 3 1023 93 8000 0.69 264 00:40 27.12.2019
5743 Rain 3 1024 100 8000 0.69 264 00:21 27.12.2019
5744 Clouds 3 1023 93 9000 0.69 264 23:41 26.12.2019
5745 Clouds 3 1023 93 10000 0.5 0 23:22 26.12.2019
5746 Clouds 3 1023 100 10000 1.86 251 22:45 26.12.2019
5747 Clouds 3 1023 100 10000 1.86 251 22:23 26.12.2019
5748 Clouds 3 1023 93 10000 1 0 21:59 26.12.2019
5749 Clouds 4 1023 93 10000 0.5 0 21:38 26.12.2019
5750 Clouds 4 1023 100 10000 0.5 0 21:20 26.12.2019
5751 Clouds 4 1023 100 10000 0.5 0 20:46 26.12.2019
5752 Fog 3 1023 100 10000 0.5 0 20:23 26.12.2019
5753 Fog 3 1023 100 10000 0.5 0 19:59 26.12.2019
5754 Clouds 3 1023 93 10000 0.5 0 19:40 26.12.2019
5755 Clouds 4 1023 100 10000 1 320 19:22 26.12.2019
5756 Clouds 4 1023 100 10000 1 320 18:58 26.12.2019
5757 Clouds 4 1023 93 10000 1.5 310 18:39 26.12.2019
5758 Clouds 4 1022 86 10000 2.1 240 18:19 26.12.2019
5759 Clouds 4 1022 86 10000 2.1 240 17:57 26.12.2019
5760 Clouds 5 1023 93 10000 2.1 240 17:38 26.12.2019
5761 Clouds 5 1022 93 10000 1.5 270 17:18 26.12.2019
5762 Clouds 5 1022 93 10000 1.5 250 16:43 26.12.2019
5763 Clouds 5 1022 87 10000 2.6 250 16:23 26.12.2019
5764 Clouds 5 1022 87 10000 2.6 250 15:56 26.12.2019
5765 Clouds 5 1022 87 10000 2.6 250 15:56 26.12.2019
5766 Clouds 5 1022 87 10000 2.6 260 15:38 26.12.2019
5767 Clouds 6 1022 87 10000 3.1 270 15:18 26.12.2019
5768 Rain 6 1022 87 10000 3.1 260 14:40 26.12.2019
5769 Clouds 6 1022 87 10000 2.6 260 14:22 26.12.2019
5770 Clouds 6 1023 87 10000 3.6 260 13:44 26.12.2019
5771 Clouds 6 1023 87 10000 3.6 260 13:44 26.12.2019
5772 Clouds 6 1023 87 10000 3.6 260 13:23 26.12.2019
5773 Clouds 6 1023 87 10000 3.6 270 12:58 26.12.2019
5774 Rain 6 1023 87 10000 3.6 280 12:58 26.12.2019
5775 Rain 6 1023 87 10000 3.6 280 12:39 26.12.2019
5776 Rain 6 1023 87 10000 3.6 270 12:21 26.12.2019
5777 Clouds 6 1023 87 10000 4.1 280 11:58 26.12.2019
5778 Clouds 5 1023 87 10000 4.1 280 11:39 26.12.2019
5779 Rain 5 1023 87 10000 3.1 270 11:20 26.12.2019
5780 Clouds 5 1023 93 10000 3.6 270 10:49 26.12.2019
5781 Rain 5 1023 93 10000 3.1 260 10:24 26.12.2019
5782 Clouds 5 1023 93 10000 3.6 250 09:54 26.12.2019
5783 Clouds 4 1023 93 10000 3.1 270 09:32 26.12.2019
5784 Clouds 4 1023 93 10000 3.1 270 08:58 26.12.2019
5785 Clouds 4 1022 93 10000 3.1 260 08:38 26.12.2019
5786 Clouds 5 1022 93 10000 2.6 260 08:20 26.12.2019
5787 Clouds 4 1022 93 10000 3.1 260 07:35 26.12.2019
5788 Rain 4 1022 93 10000 3.1 260 06:57 26.12.2019
5789 Clouds 5 1022 93 10000 3.1 270 06:37 26.12.2019
5790 Clouds 5 1022 93 10000 2.6 270 06:19 26.12.2019
5791 Clouds 5 1022 93 10000 2.6 270 05:40 26.12.2019
5792 Clouds 5 1022 93 10000 2.1 290 04:33 26.12.2019
5793 Rain 5 1022 93 10000 3.1 280 03:31 26.12.2019
5794 Rain 5 1022 87 10000 3.1 280 02:46 26.12.2019
5795 Rain 5 1022 87 10000 3.1 280 02:25 26.12.2019
5796 Rain 5 1022 87 10000 2.6 270 02:25 26.12.2019
5797 Rain 5 1022 87 10000 3.6 270 01:44 26.12.2019
5798 Rain 5 1022 93 10000 3.6 260 01:24 26.12.2019
5799 Rain 5 1022 93 10000 3.6 260 00:44 26.12.2019
5800 Clouds 5 1022 100 10000 2.1 250 00:23 26.12.2019
5801 Clouds 5 1022 100 10000 2.1 250 23:57 25.12.2019
5802 Rain 5 1021 87 10000 2.6 270 23:37 25.12.2019
5803 Rain 5 1021 87 10000 3.1 260 23:18 25.12.2019
5804 Clouds 5 1021 87 10000 3.6 270 22:55 25.12.2019
5805 Clouds 5 1021 93 10000 3.6 270 22:37 25.12.2019
5806 Clouds 5 1021 93 10000 2.6 250 22:18 25.12.2019
5807 Clouds 5 1021 100 10000 2.6 250 21:55 25.12.2019
5808 Clouds 5 1021 87 10000 2.6 260 21:37 25.12.2019
5809 Rain 5 1021 87 10000 2.6 270 21:18 25.12.2019
5810 Clouds 5 1021 87 10000 2.6 270 20:40 25.12.2019
5811 Rain 5 1020 87 10000 3.1 250 20:21 25.12.2019
5812 Rain 5 1020 87 10000 3.1 250 19:59 25.12.2019
5813 Clouds 5 1020 93 10000 1.5 250 19:41 25.12.2019
5814 Clouds 5 1020 87 10000 1 0 19:21 25.12.2019
5815 Clouds 5 1020 81 10000 3.1 340 18:40 25.12.2019
5816 Clouds 6 1020 81 10000 3.6 320 18:21 25.12.2019
5817 Clouds 6 1020 81 10000 3.6 320 17:58 25.12.2019
5818 Clouds 6 1018 88 0 1.88 288 17:39 25.12.2019
5819 Clouds 6 1018 94 0 3.09 300 17:18 25.12.2019
5820 Clouds 6 1019 93 10000 3.1 290 16:55 25.12.2019
5821 Clouds 6 1019 93 10000 3.1 290 16:36 25.12.2019
5822 Clouds 6 1018 93 10000 3.1 290 16:18 25.12.2019
5823 Clouds 6 1018 93 10000 2.6 290 15:56 25.12.2019
5824 Clouds 6 1017 87 10000 3.6 280 15:37 25.12.2019
5825 Clouds 7 1017 87 10000 3.1 290 15:18 25.12.2019
5826 Clouds 7 1017 87 10000 3.6 280 14:54 25.12.2019
5827 Clouds 6 1017 87 10000 3.6 280 14:36 25.12.2019
5828 Clouds 6 1016 87 10000 3.1 290 14:18 25.12.2019
5829 Clouds 6 1016 93 10000 3.1 290 13:41 25.12.2019
5830 Clouds 6 1015 93 10000 3.6 300 13:20 25.12.2019
5831 Clouds 6 1015 100 8000 2.6 290 12:44 25.12.2019
5832 Clouds 6 1015 93 6000 3.6 280 12:22 25.12.2019
5833 Mist 5 1014 93 5000 2.6 270 11:58 25.12.2019
5834 Mist 5 1014 93 5000 2.6 270 11:40 25.12.2019
5835 Mist 5 1014 100 5000 1.5 260 11:21 25.12.2019
5836 Mist 5 1014 100 5000 1.5 250 10:39 25.12.2019
5837 Rain 5 1013 93 4000 1.5 250 10:21 25.12.2019
5838 Rain 4 1013 93 4000 1.5 270 09:59 25.12.2019
5839 Rain 4 1013 93 4000 1.5 270 09:40 25.12.2019
5840 Rain 4 1012 100 4000 1.5 260 09:22 25.12.2019
5841 Rain 4 1012 100 4800 1 270 08:43 25.12.2019
5842 Rain 4 1011 100 6000 1 310 08:24 25.12.2019
5843 Rain 4 1011 100 6000 1 310 08:24 25.12.2019
5844 Rain 4 1011 100 7000 2.1 300 07:44 25.12.2019
5845 Clouds 4 1011 93 8000 1.5 280 07:23 25.12.2019
5846 Clouds 4 1010 100 7000 1 0 06:24 25.12.2019
5847 Clouds 4 1010 93 7000 1 330 05:51 25.12.2019
5848 Clouds 4 1009 100 7000 0.5 330 04:47 25.12.2019
5849 Clouds 4 1009 100 7000 0.5 0 04:25 25.12.2019
5850 Clouds 4 1009 100 7000 0.5 280 03:46 25.12.2019
5851 Clouds 4 1009 100 7000 1 0 03:18 25.12.2019
5852 Clouds 4 1008 100 7000 1 320 02:32 25.12.2019
5853 Mist 4 1008 100 4800 1.5 10 01:54 25.12.2019
5854 Rain 4 1007 100 8000 1 310 01:24 25.12.2019
5855 Fog 4 1007 100 8000 1.5 310 00:46 25.12.2019
5856 Fog 4 1007 100 8000 0.5 330 00:27 25.12.2019
5857 Fog 4 1007 100 8000 0.5 330 23:55 24.12.2019
5858 Fog 4 1006 100 9000 0.5 0 23:36 24.12.2019
5859 Fog 4 1006 100 9000 1 320 23:18 24.12.2019
5860 Drizzle 4 1006 100 10000 1 340 22:38 24.12.2019
5861 Drizzle 4 1006 100 10000 0.5 0 22:20 24.12.2019
5862 Drizzle 4 1006 100 10000 0.5 0 22:20 24.12.2019
5863 Drizzle 4 1006 100 10000 0.5 0 22:20 24.12.2019
5864 Drizzle 5 1005 93 10000 0.5 0 21:42 24.12.2019
5865 Drizzle 5 1005 93 10000 1.5 40 21:22 24.12.2019
5866 Drizzle 5 1005 93 10000 1.5 40 21:22 24.12.2019
5867 Drizzle 5 1005 93 10000 1 0 20:45 24.12.2019
5868 Drizzle 5 1005 93 10000 1.5 40 20:24 24.12.2019
5869 Drizzle 5 1005 93 10000 1.5 40 19:57 24.12.2019
5870 Drizzle 5 1005 93 10000 1 0 19:39 24.12.2019
5871 Rain 5 1004 93 10000 2.1 50 19:19 24.12.2019
5872 Rain 5 1004 93 10000 1.5 50 18:43 24.12.2019
5873 Rain 5 1004 93 10000 1.5 50 18:24 24.12.2019
5874 Rain 5 1004 93 10000 1.5 50 17:58 24.12.2019
5875 Rain 5 1004 93 10000 1.5 40 17:38 24.12.2019
5876 Rain 5 1004 93 10000 1 0 17:20 24.12.2019
5877 Rain 5 1004 93 10000 2.1 180 16:55 24.12.2019
5878 Rain 5 1004 93 10000 2.1 180 16:37 24.12.2019
5879 Rain 6 1004 87 8000 3.6 210 16:19 24.12.2019
5880 Rain 6 1004 93 6000 3.1 190 15:54 24.12.2019
5881 Rain 6 1004 93 6000 3.1 190 15:36 24.12.2019
5882 Rain 6 1004 100 5000 3.1 150 15:18 24.12.2019
5883 Rain 6 1004 100 5000 3.1 150 14:55 24.12.2019
5884 Rain 6 1004 100 6000 3.1 150 14:36 24.12.2019
5885 Rain 6 1005 93 6000 3.6 150 14:18 24.12.2019
5886 Drizzle 7 1005 87 5000 4.1 150 13:55 24.12.2019
5887 Drizzle 7 1005 87 5000 4.1 150 13:37 24.12.2019
5888 Clouds 7 1006 87 10000 3.6 160 13:19 24.12.2019
5889 Clouds 7 1006 81 10000 3.1 150 12:55 24.12.2019
5890 Clouds 7 1006 81 10000 3.1 150 12:36 24.12.2019
5891 Clouds 7 1007 81 10000 2.6 200 12:18 24.12.2019
5892 Clouds 6 1007 81 10000 2.6 200 11:55 24.12.2019
5893 Clouds 6 1007 81 10000 3.1 190 11:36 24.12.2019
5894 Clouds 6 1008 81 10000 4.6 200 11:18 24.12.2019
5895 Clouds 6 1008 81 10000 4.6 200 11:18 24.12.2019
5896 Clouds 6 1008 81 10000 4.6 200 10:55 24.12.2019
5897 Clouds 6 1008 81 10000 4.6 200 10:55 24.12.2019
5898 Clouds 6 1009 87 10000 4.6 200 10:37 24.12.2019
5899 Clouds 6 1009 87 10000 5.7 210 10:19 24.12.2019
5900 Clouds 6 1009 87 10000 6.7 210 09:54 24.12.2019
5901 Clouds 6 1009 87 10000 6.7 210 09:36 24.12.2019
5902 Clouds 6 1009 87 10000 6.2 210 09:18 24.12.2019
5903 Clouds 6 1009 93 10000 5.1 220 08:44 24.12.2019
5904 Clouds 6 1009 87 10000 5.1 220 08:20 24.12.2019
5905 Clouds 6 1009 87 10000 5.1 220 07:46 24.12.2019
5906 Clouds 6 1009 87 10000 4.6 220 07:25 24.12.2019
5907 Clouds 6 1009 87 10000 4.6 220 07:25 24.12.2019
5908 Clouds 6 1010 87 10000 4.1 220 06:58 24.12.2019
5909 Clouds 6 1010 87 10000 4.1 220 06:38 24.12.2019
5910 Clouds 6 1010 87 10000 4.6 220 06:19 24.12.2019
5911 Clouds 6 1010 87 10000 5.1 230 05:20 24.12.2019
5912 Clouds 6 1010 93 10000 4.1 230 04:44 24.12.2019
5913 Rain 6 1010 87 10000 4.6 230 03:50 24.12.2019
5914 Rain 6 1010 93 10000 5.1 230 03:22 24.12.2019
5915 Rain 7 1009 87 9000 4.1 230 02:23 24.12.2019
5916 Rain 7 1009 87 8000 4.1 250 01:50 24.12.2019
5917 Rain 7 1009 87 10000 4.1 230 01:22 24.12.2019
5918 Clouds 7 1009 93 10000 4.1 230 00:45 24.12.2019
5919 Clouds 7 1009 93 10000 4.1 230 00:24 24.12.2019
5920 Clouds 7 1009 93 10000 4.1 240 23:59 23.12.2019
5921 Rain 7 1008 93 7000 5.1 250 23:40 23.12.2019
5922 Rain 7 1008 87 10000 3.6 240 23:22 23.12.2019
5923 Rain 7 1008 87 10000 3.6 240 22:56 23.12.2019
5924 Clouds 7 1008 93 10000 4.1 240 22:56 23.12.2019
5925 Clouds 7 1008 93 10000 4.1 240 22:37 23.12.2019
5926 Rain 7 1007 93 10000 4.1 250 22:18 23.12.2019
5927 Rain 7 1007 93 10000 4.1 240 21:55 23.12.2019
5928 Rain 7 1007 93 10000 4.1 240 21:36 23.12.2019
5929 Rain 7 1007 93 9000 4.1 240 21:18 23.12.2019
5930 Rain 7 1007 93 9000 4.1 240 20:57 23.12.2019
5931 Rain 6 1007 87 10000 4.1 240 20:39 23.12.2019
5932 Rain 6 1006 93 10000 3.1 250 20:18 23.12.2019
5933 Clouds 6 1006 87 10000 3.6 250 19:56 23.12.2019
5934 Clouds 6 1006 87 10000 3.6 250 19:38 23.12.2019
5935 Clouds 6 1006 87 10000 4.1 240 19:19 23.12.2019
5936 Clouds 6 1005 87 10000 5.1 240 18:57 23.12.2019
5937 Clouds 6 1005 87 10000 5.1 240 18:38 23.12.2019
5938 Clouds 6 1005 87 10000 3.6 240 18:20 23.12.2019
5939 Clouds 6 1005 87 10000 2.6 250 17:56 23.12.2019
5940 Clouds 7 1005 87 10000 2.6 250 17:37 23.12.2019
5941 Clouds 7 1004 81 10000 4.1 260 17:19 23.12.2019
5942 Rain 7 1004 87 10000 3.6 260 16:55 23.12.2019
5943 Rain 7 1004 87 10000 3.6 260 16:36 23.12.2019
5944 Clouds 7 1004 87 10000 4.6 260 16:18 23.12.2019
5945 Clouds 7 1004 87 10000 4.6 260 15:55 23.12.2019
5946 Rain 7 1003 81 10000 5.7 250 15:36 23.12.2019
5947 Rain 8 1003 81 10000 5.1 250 15:18 23.12.2019
5948 Rain 8 1002 81 10000 5.7 250 14:45 23.12.2019
5949 Clouds 8 1002 81 10000 5.7 250 14:26 23.12.2019
5950 Clouds 8 1002 81 10000 5.7 250 14:26 23.12.2019
5951 Clouds 8 1001 81 10000 4.1 240 13:59 23.12.2019
5952 Clouds 8 1001 81 10000 4.1 240 13:41 23.12.2019
5953 Clouds 8 1001 81 10000 4.1 250 13:22 23.12.2019
5954 Clouds 8 1000 81 10000 5.1 240 12:59 23.12.2019
5955 Clouds 7 1000 81 10000 5.1 240 12:40 23.12.2019
5956 Clouds 7 1000 81 10000 4.6 250 12:21 23.12.2019
5957 Clouds 7 1000 81 10000 5.1 240 11:56 23.12.2019
5958 Clouds 7 1000 81 10000 5.1 240 11:38 23.12.2019
5959 Clouds 7 999 87 10000 4.6 240 11:20 23.12.2019
5960 Clouds 7 999 87 10000 4.6 240 11:20 23.12.2019
5961 Clouds 7 999 87 10000 5.1 230 10:55 23.12.2019
5962 Clouds 7 999 87 10000 4.6 240 10:55 23.12.2019
5963 Clouds 7 999 87 10000 5.1 230 10:37 23.12.2019
5964 Rain 7 998 87 10000 4.1 230 10:18 23.12.2019
5965 Rain 7 998 93 10000 4.1 250 09:54 23.12.2019
5966 Rain 7 998 93 10000 4.1 250 09:36 23.12.2019
5967 Rain 7 997 87 10000 4.6 240 09:18 23.12.2019
5968 Rain 7 997 93 10000 4.6 250 08:41 23.12.2019
5969 Rain 7 996 93 10000 5.1 250 08:22 23.12.2019
5970 Rain 7 996 93 10000 5.1 250 07:56 23.12.2019
5971 Clouds 7 996 93 10000 3.6 250 07:38 23.12.2019
5972 Clouds 6 995 93 10000 4.6 250 07:18 23.12.2019
5973 Rain 7 995 87 10000 4.6 250 06:39 23.12.2019
5974 Rain 7 994 87 10000 4.1 250 06:21 23.12.2019
5975 Clouds 7 993 93 10000 4.1 250 05:45 23.12.2019
5976 Rain 7 992 93 10000 5.1 250 04:44 23.12.2019
5977 Rain 6 991 93 10000 4.6 270 03:59 23.12.2019
5978 Rain 6 990 93 6000 2.1 180 02:48 23.12.2019
5979 Rain 6 989 93 7000 2.1 170 02:20 23.12.2019
5980 Rain 5 989 93 7000 2.1 170 01:51 23.12.2019
5981 Rain 5 989 93 7000 2.1 170 01:32 23.12.2019
5982 Rain 5 989 93 7000 2.1 170 01:32 23.12.2019
5983 Rain 5 989 93 7000 2.1 170 01:32 23.12.2019
5984 Drizzle 5 989 93 7000 3.6 140 00:54 23.12.2019
5985 Drizzle 5 989 93 7000 3.6 140 00:35 23.12.2019
5986 Drizzle 5 988 100 6000 3.1 150 23:57 22.12.2019
5987 Clouds 5 988 100 8000 3.6 140 23:39 22.12.2019
5988 Drizzle 5 988 93 6000 3.1 130 23:20 22.12.2019
5989 Drizzle 5 988 93 6000 3.1 130 22:57 22.12.2019
5990 Drizzle 5 988 93 6000 3.1 140 22:38 22.12.2019
5991 Drizzle 5 988 93 6000 3.1 140 22:38 22.12.2019
5992 Drizzle 5 988 93 6000 3.1 130 22:19 22.12.2019
5993 Drizzle 5 987 93 4000 3.6 130 21:56 22.12.2019
5994 Drizzle 5 987 93 4000 3.6 130 21:38 22.12.2019
5995 Drizzle 5 987 93 4000 3.6 130 21:38 22.12.2019
5996 Drizzle 5 987 93 4000 3.6 130 21:38 22.12.2019
5997 Clouds 4 987 86 10000 3.6 130 21:20 22.12.2019
5998 Rain 4 987 86 10000 4.1 130 20:55 22.12.2019
5999 Rain 5 987 86 10000 4.1 130 20:37 22.12.2019
6000 Rain 5 987 86 10000 4.1 130 20:37 22.12.2019
6001 Rain 4 987 86 10000 4.1 120 20:18 22.12.2019
6002 Clouds 4 987 86 10000 4.1 130 19:40 22.12.2019
6003 Clouds 4 987 86 10000 4.6 130 19:21 22.12.2019
6004 Clouds 5 986 86 10000 4.6 120 18:58 22.12.2019
6005 Clouds 5 986 86 10000 4.6 120 18:38 22.12.2019
6006 Clouds 4 986 86 10000 4.1 120 18:19 22.12.2019
6007 Clouds 5 986 86 10000 4.1 120 17:55 22.12.2019
6008 Clouds 5 986 86 10000 4.1 120 17:37 22.12.2019
6009 Clouds 5 986 86 10000 3.6 120 17:18 22.12.2019
6010 Clouds 5 986 86 10000 3.6 120 16:56 22.12.2019
6011 Clouds 5 986 86 10000 3.6 120 16:37 22.12.2019
6012 Clouds 5 986 86 10000 5.1 130 16:19 22.12.2019
6013 Clouds 5 985 81 10000 4.6 120 15:54 22.12.2019
6014 Clouds 5 985 81 10000 4.6 120 15:36 22.12.2019
6015 Clouds 5 985 81 10000 4.6 130 15:18 22.12.2019
6016 Clouds 5 985 86 10000 5.1 130 14:39 22.12.2019
6017 Clouds 5 985 86 10000 4.6 130 14:19 22.12.2019
6018 Clouds 5 985 86 10000 4.6 130 13:56 22.12.2019
6019 Clouds 5 985 86 10000 4.1 120 13:38 22.12.2019
6020 Clouds 5 986 86 10000 4.1 130 13:20 22.12.2019
6021 Clouds 5 986 86 10000 4.1 130 12:57 22.12.2019
6022 Clouds 4 985 86 10000 4.6 130 12:39 22.12.2019
6023 Clouds 4 985 86 10000 4.1 130 12:20 22.12.2019
6024 Clouds 4 986 86 10000 4.1 130 11:59 22.12.2019
6025 Clouds 4 986 86 10000 4.1 130 11:39 22.12.2019
6026 Rain 4 986 93 10000 4.1 130 11:20 22.12.2019
6027 Rain 4 986 93 10000 4.1 130 10:58 22.12.2019
6028 Rain 3 986 86 10000 3.6 130 10:40 22.12.2019
6029 Rain 3 986 86 10000 4.6 120 10:21 22.12.2019
6030 Clouds 3 986 86 10000 4.1 130 09:58 22.12.2019
6031 Clouds 3 986 86 10000 4.1 130 09:40 22.12.2019
6032 Clouds 3 985 86 10000 4.1 130 09:21 22.12.2019
6033 Clouds 3 985 93 10000 4.1 120 08:59 22.12.2019
6034 Clouds 3 985 93 10000 4.1 120 08:37 22.12.2019
6035 Clouds 3 985 86 10000 4.1 120 08:18 22.12.2019
6036 Clouds 3 985 93 10000 4.6 130 07:38 22.12.2019
6037 Clouds 3 985 86 10000 4.1 120 07:19 22.12.2019
6038 Clouds 3 985 86 10000 4.6 120 06:40 22.12.2019
6039 Clouds 4 985 86 10000 3.6 120 05:53 22.12.2019
6040 Clouds 4 985 86 10000 3.6 140 05:21 22.12.2019
6041 Clouds 4 985 86 10000 4.1 110 04:29 22.12.2019
6042 Clouds 4 986 86 10000 3.6 130 03:53 22.12.2019
6043 Clouds 4 986 80 10000 4.6 150 02:40 22.12.2019
6044 Clouds 4 986 80 10000 4.6 150 02:40 22.12.2019
6045 Clouds 4 986 86 10000 4.1 120 01:47 22.12.2019
6046 Clouds 4 987 93 10000 4.1 140 01:28 22.12.2019
6047 Clouds 4 987 86 10000 4.1 140 00:46 22.12.2019
6048 Clouds 4 987 86 10000 4.1 140 00:23 22.12.2019
6049 Clouds 4 987 86 10000 4.1 140 23:56 21.12.2019
6050 Clouds 5 987 86 10000 4.1 130 23:38 21.12.2019
6051 Clouds 4 988 86 10000 3.1 130 23:19 21.12.2019
6052 Clouds 5 988 86 10000 3.6 140 22:41 21.12.2019
6053 Clouds 5 988 93 10000 3.1 140 22:19 21.12.2019
6054 Clouds 5 988 93 10000 3.1 140 21:57 21.12.2019
6055 Clouds 5 988 86 10000 3.6 140 21:38 21.12.2019
6056 Clouds 5 989 86 10000 4.1 150 21:20 21.12.2019
6057 Clouds 6 989 86 10000 4.1 150 20:59 21.12.2019
6058 Clouds 6 989 87 10000 3.6 160 20:39 21.12.2019
6059 Clouds 6 989 87 10000 5.1 150 20:21 21.12.2019
6060 Clouds 6 989 87 10000 5.1 150 19:58 21.12.2019
6061 Clouds 6 989 81 10000 5.1 150 19:40 21.12.2019
6062 Clouds 6 989 81 10000 5.1 140 19:19 21.12.2019
6063 Clouds 6 989 81 10000 5.1 150 18:45 21.12.2019
6064 Clouds 6 989 81 10000 5.1 140 18:24 21.12.2019
6065 Clouds 6 989 81 10000 5.1 140 17:58 21.12.2019
6066 Clouds 7 990 81 10000 5.1 150 17:39 21.12.2019
6067 Clouds 7 990 87 10000 4.6 150 17:21 21.12.2019
6068 Clouds 7 990 87 10000 4.6 150 16:59 21.12.2019
6069 Clouds 7 990 87 10000 4.1 150 16:41 21.12.2019
6070 Clouds 7 990 81 10000 4.1 150 16:19 21.12.2019
6071 Clouds 7 990 81 10000 4.1 150 15:57 21.12.2019
6072 Clouds 8 990 81 10000 4.1 160 15:39 21.12.2019
6073 Clouds 8 990 76 10000 3.6 160 15:20 21.12.2019
6074 Clouds 8 990 76 10000 3.6 160 14:57 21.12.2019
6075 Clouds 9 990 76 10000 4.6 170 14:38 21.12.2019
6076 Clouds 9 991 76 10000 4.6 160 14:20 21.12.2019
6077 Clouds 9 991 71 10000 3.1 170 13:56 21.12.2019
6078 Clouds 9 991 71 10000 3.1 170 13:38 21.12.2019
6079 Clouds 9 991 76 10000 4.1 210 13:18 21.12.2019
6080 Clouds 9 991 76 10000 3.6 190 12:55 21.12.2019
6081 Clouds 8 991 76 10000 3.6 190 12:37 21.12.2019
6082 Clouds 8 991 76 10000 4.6 210 12:18 21.12.2019
6083 Clouds 7 991 81 10000 3.6 210 11:44 21.12.2019
6084 Clouds 7 991 81 10000 3.6 210 11:26 21.12.2019
6085 Clouds 7 991 81 10000 3.6 210 10:57 21.12.2019
6086 Clouds 6 991 75 10000 4.6 210 10:39 21.12.2019
6087 Clouds 6 992 87 10000 4.1 220 10:21 21.12.2019
6088 Clouds 6 991 87 10000 3.6 220 09:56 21.12.2019
6089 Clouds 6 991 87 10000 3.6 220 09:38 21.12.2019
6090 Clouds 6 991 87 10000 4.1 210 09:19 21.12.2019
6091 Clouds 6 991 81 10000 5.1 210 08:46 21.12.2019
6092 Clouds 6 991 81 10000 5.1 210 08:26 21.12.2019
6093 Clouds 6 991 87 10000 3.6 220 07:47 21.12.2019
6094 Clouds 6 991 81 10000 5.1 210 07:23 21.12.2019
6095 Clouds 6 991 81 10000 5.1 210 07:23 21.12.2019
6096 Clouds 7 991 87 10000 4.6 210 06:46 21.12.2019
6097 Clouds 7 990 87 10000 5.1 210 06:28 21.12.2019
6098 Clouds 7 990 87 10000 5.1 210 05:58 21.12.2019
6099 Clouds 7 990 87 10000 4.1 210 04:59 21.12.2019
6100 Clouds 7 990 93 10000 3.6 210 04:33 21.12.2019
6101 Clouds 7 990 87 10000 3.6 220 03:56 21.12.2019
6102 Clouds 7 990 87 10000 4.6 210 02:23 21.12.2019
6103 Clouds 8 989 93 10000 2.6 200 01:43 21.12.2019
6104 Clouds 8 988 93 10000 1.5 210 01:24 21.12.2019
6105 Rain 8 988 100 10000 1.5 220 00:40 21.12.2019
6106 Rain 8 988 93 10000 2.1 260 00:21 21.12.2019
6107 Rain 8 988 93 7000 3.6 270 23:39 20.12.2019
6108 Rain 8 988 100 9000 4.1 170 23:21 20.12.2019
6109 Rain 8 988 100 9000 4.1 170 22:59 20.12.2019
6110 Rain 8 987 93 10000 4.1 170 22:39 20.12.2019
6111 Rain 8 987 93 10000 4.1 160 22:19 20.12.2019
6112 Rain 8 987 93 10000 4.1 150 21:42 20.12.2019
6113 Rain 8 987 87 10000 5.1 150 21:21 20.12.2019
6114 Rain 8 987 87 10000 5.1 150 20:59 20.12.2019
6115 Rain 8 987 87 10000 5.1 150 20:38 20.12.2019
6116 Rain 8 987 76 10000 6.2 150 20:19 20.12.2019
6117 Rain 8 987 76 10000 6.2 150 19:57 20.12.2019
6118 Clouds 8 987 76 10000 4.1 140 19:38 20.12.2019
6119 Clouds 8 987 76 10000 4.6 140 19:19 20.12.2019
6120 Clouds 8 987 76 10000 5.1 130 18:42 20.12.2019
6121 Clouds 8 987 76 10000 4.6 130 18:23 20.12.2019
6122 Rain 8 988 75 10000 4.6 130 17:58 20.12.2019
6123 Rain 8 988 75 10000 4.6 130 17:40 20.12.2019
6124 Clouds 8 988 75 10000 4.6 130 17:20 20.12.2019
6125 Clouds 8 988 75 10000 4.1 130 16:59 20.12.2019
6126 Clouds 8 988 75 10000 5.7 130 16:38 20.12.2019
6127 Clouds 8 988 75 10000 5.7 130 16:20 20.12.2019
6128 Clouds 8 988 75 10000 5.7 130 16:20 20.12.2019
6129 Clouds 8 989 75 10000 6.7 140 15:56 20.12.2019
6130 Clouds 8 989 75 10000 6.2 140 15:38 20.12.2019
6131 Clouds 8 989 75 10000 6.2 140 15:19 20.12.2019
6132 Clouds 8 989 75 10000 6.2 140 14:43 20.12.2019
6133 Clouds 8 989 75 10000 6.2 140 14:25 20.12.2019
6134 Clouds 8 990 70 10000 5.7 150 13:59 20.12.2019
6135 Clouds 8 990 70 10000 5.7 150 13:41 20.12.2019
6136 Clouds 8 989 75 10000 5.7 130 13:20 20.12.2019
6137 Clouds 7 990 75 10000 5.7 130 12:57 20.12.2019
6138 Clouds 7 991 75 10000 5.7 130 12:37 20.12.2019
6139 Clouds 7 991 75 10000 5.7 130 12:19 20.12.2019
6140 Clouds 7 991 81 10000 5.7 130 11:58 20.12.2019
6141 Clouds 6 991 81 10000 5.7 130 11:39 20.12.2019
6142 Clouds 6 992 87 10000 5.7 120 11:19 20.12.2019
6143 Clouds 5 993 87 10000 5.1 120 10:57 20.12.2019
6144 Clouds 5 993 87 10000 5.1 120 10:39 20.12.2019
6145 Clouds 5 993 87 10000 5.1 120 10:39 20.12.2019
6146 Clouds 5 995 93 7000 3.6 120 10:20 20.12.2019
6147 Clouds 5 995 93 7000 3.6 120 09:54 20.12.2019
6148 Clouds 4 995 100 7000 3.6 130 09:36 20.12.2019
6149 Clouds 4 995 100 7000 3.6 130 09:18 20.12.2019
6150 Clouds 4 995 100 6000 5.1 120 08:42 20.12.2019
6151 Mist 4 996 93 5000 5.1 130 08:22 20.12.2019
6152 Mist 5 996 93 5000 4.6 120 07:58 20.12.2019
6153 Mist 5 997 93 5000 5.1 120 07:40 20.12.2019
6154 Mist 5 997 93 5000 5.1 120 07:19 20.12.2019
6155 Mist 5 997 93 5000 5.1 120 06:51 20.12.2019
6156 Mist 5 997 93 4800 5.1 120 06:31 20.12.2019
6157 Mist 5 998 93 3500 4.6 120 05:53 20.12.2019
6158 Mist 5 999 100 3500 4.6 120 05:34 20.12.2019
6159 Mist 5 1000 100 4500 3.6 130 04:33 20.12.2019
6160 Mist 6 1001 93 4000 5.7 140 03:30 20.12.2019
6161 Mist 6 1002 93 4500 3.6 120 02:43 20.12.2019
6162 Clouds 6 1003 93 10000 3.6 130 01:49 20.12.2019
6163 Clouds 6 1003 93 10000 3.6 130 01:49 20.12.2019
6164 Clouds 6 1003 93 10000 4.6 140 01:30 20.12.2019
6165 Clouds 6 1003 93 10000 3.6 140 00:43 20.12.2019
6166 Clouds 7 1004 87 10000 2.6 120 00:25 20.12.2019
6167 Clouds 7 1004 87 10000 5.1 140 23:44 19.12.2019
6168 Clouds 7 1005 87 10000 5.1 140 23:26 19.12.2019
6169 Clouds 7 1005 81 10000 4.6 140 22:59 19.12.2019
6170 Clouds 7 1005 81 10000 5.7 140 22:37 19.12.2019
6171 Clouds 7 1005 81 10000 5.7 140 22:19 19.12.2019
6172 Clouds 7 1005 81 10000 6.2 130 21:55 19.12.2019
6173 Clouds 7 1006 81 10000 6.2 140 21:37 19.12.2019
6174 Clouds 7 1006 81 10000 6.2 140 21:18 19.12.2019
6175 Clouds 8 1007 76 10000 6.7 160 20:56 19.12.2019
6176 Clouds 8 1007 76 10000 5.1 140 20:36 19.12.2019
6177 Clouds 8 1007 76 10000 5.1 140 20:18 19.12.2019
6178 Clouds 8 1007 76 10000 4.1 140 19:57 19.12.2019
6179 Clouds 8 1007 76 10000 4.1 140 19:57 19.12.2019
6180 Clouds 8 1008 76 10000 4.6 140 19:39 19.12.2019
6181 Clouds 8 1008 76 10000 4.6 140 19:39 19.12.2019
6182 Clouds 8 1008 81 10000 6.2 130 19:19 19.12.2019
6183 Clouds 8 1008 81 10000 6.2 130 19:19 19.12.2019
6184 Clouds 8 1008 81 10000 6.2 130 18:55 19.12.2019
6185 Clouds 8 1008 76 10000 5.1 140 18:37 19.12.2019
6186 Clouds 8 1008 76 10000 5.1 140 18:18 19.12.2019
6187 Clouds 8 1008 81 10000 5.1 140 17:54 19.12.2019
6188 Clouds 8 1009 76 10000 6.7 120 17:36 19.12.2019
6189 Clear 8 1009 76 10000 4.6 130 17:18 19.12.2019
6190 Clear 8 1009 76 10000 4.6 130 16:54 19.12.2019
6191 Clear 9 1010 76 10000 4.6 150 16:36 19.12.2019
6192 Clear 9 1010 76 10000 4.6 150 16:18 19.12.2019
6193 Clear 9 1010 76 10000 5.1 140 15:54 19.12.2019
6194 Clear 9 1010 76 10000 5.7 140 15:36 19.12.2019
6195 Clear 10 1010 76 10000 5.7 140 15:18 19.12.2019
6196 Clear 10 1011 76 10000 5.1 140 14:42 19.12.2019
6197 Clouds 10 1011 76 10000 5.1 140 14:20 19.12.2019
6198 Clouds 10 1011 76 10000 5.1 140 13:58 19.12.2019
6199 Clouds 10 1012 81 10000 5.7 150 13:38 19.12.2019
6200 Clouds 9 1012 76 10000 6.2 150 13:19 19.12.2019
6201 Clouds 9 1012 76 10000 6.2 150 12:57 19.12.2019
6202 Clouds 8 1013 81 10000 6.2 150 12:38 19.12.2019
6203 Clouds 8 1013 81 10000 6.2 150 12:19 19.12.2019
6204 Clouds 7 1013 87 10000 7.7 150 11:58 19.12.2019
6205 Clouds 7 1013 81 10000 6.2 150 11:39 19.12.2019
6206 Clouds 6 1013 81 10000 6.2 150 11:18 19.12.2019
6207 Clouds 6 1013 81 10000 6.2 150 11:18 19.12.2019
6208 Clouds 6 1014 87 10000 6.7 150 10:56 19.12.2019
6209 Clouds 5 1014 93 10000 6.2 140 10:37 19.12.2019
6210 Clouds 5 1014 93 10000 6.2 140 10:19 19.12.2019
6211 Clouds 5 1014 87 10000 6.2 140 09:54 19.12.2019
6212 Clouds 5 1014 93 10000 6.2 140 09:36 19.12.2019
6213 Clouds 5 1014 86 10000 5.7 140 09:18 19.12.2019
6214 Clouds 5 1014 86 10000 5.1 140 08:41 19.12.2019
6215 Clouds 5 1014 86 10000 5.1 140 08:19 19.12.2019
6216 Clouds 4 1014 86 10000 5.7 140 07:58 19.12.2019
6217 Clouds 4 1015 86 10000 5.1 140 07:38 19.12.2019
6218 Clouds 4 1015 86 10000 5.1 140 07:19 19.12.2019
6219 Clouds 4 1015 86 10000 4.6 140 06:50 19.12.2019
6220 Clouds 4 1015 86 10000 4.6 140 06:30 19.12.2019
6221 Clouds 4 1015 86 10000 4.6 140 05:55 19.12.2019
6222 Clouds 4 1015 86 10000 5.1 140 05:36 19.12.2019
6223 Clouds 4 1015 93 10000 4.6 140 04:52 19.12.2019
6224 Clouds 4 1016 93 10000 3.6 130 03:23 19.12.2019
6225 Clouds 4 1017 93 10000 3.6 130 02:24 19.12.2019
6226 Clouds 4 1018 93 10000 2.6 120 01:23 19.12.2019
6227 Clouds 4 1018 93 10000 2.6 130 00:44 19.12.2019
6228 Clouds 4 1018 86 10000 3.1 120 00:25 19.12.2019
6229 Clouds 4 1019 93 10000 3.1 130 23:59 18.12.2019
6230 Clouds 4 1019 93 10000 3.1 130 23:41 18.12.2019
6231 Clouds 4 1019 86 10000 3.6 140 23:19 18.12.2019
6232 Clouds 4 1019 93 10000 2.6 140 22:56 18.12.2019
6233 Clouds 4 1019 93 10000 3.1 130 22:37 18.12.2019
6234 Clouds 4 1019 93 10000 3.1 130 22:19 18.12.2019
6235 Clouds 4 1019 86 10000 3.1 140 21:57 18.12.2019
6236 Clouds 4 1019 81 10000 3.1 160 21:39 18.12.2019
6237 Clouds 4 1019 81 10000 3.1 160 21:19 18.12.2019
6238 Clouds 4 1018 86 10000 2.1 140 20:55 18.12.2019
6239 Clouds 5 1018 87 10000 1.5 150 20:37 18.12.2019
6240 Clouds 5 1018 87 10000 1.5 150 20:19 18.12.2019
6241 Clouds 5 1018 87 10000 2.6 210 19:55 18.12.2019
6242 Clouds 5 1018 93 10000 2.1 210 19:37 18.12.2019
6243 Clouds 5 1018 93 10000 2.1 210 19:18 18.12.2019
6244 Clouds 5 1018 86 10000 2.6 210 18:45 18.12.2019
6245 Clouds 6 1018 93 10000 2.6 210 18:25 18.12.2019
6246 Clouds 6 1018 87 10000 3.1 230 17:58 18.12.2019
6247 Clouds 6 1018 87 10000 3.6 230 17:40 18.12.2019
6248 Clouds 6 1018 87 10000 3.6 230 17:20 18.12.2019
6249 Clouds 7 1018 87 10000 3.6 240 16:58 18.12.2019
6250 Clouds 7 1018 87 10000 3.6 240 16:40 18.12.2019
6251 Clouds 7 1017 87 10000 4.1 230 16:22 18.12.2019
6252 Clouds 7 1017 87 10000 4.1 230 15:57 18.12.2019
6253 Clouds 7 1017 87 10000 4.1 240 15:38 18.12.2019
6254 Clouds 7 1016 81 10000 4.1 230 15:20 18.12.2019
6255 Clouds 7 1016 81 10000 4.1 230 14:56 18.12.2019
6256 Clouds 7 1016 81 10000 3.6 240 14:36 18.12.2019
6257 Clouds 7 1016 87 10000 4.6 230 14:18 18.12.2019
6258 Clouds 7 1015 87 10000 4.6 230 13:54 18.12.2019
6259 Clouds 7 1015 87 10000 4.6 230 13:36 18.12.2019
6260 Clouds 7 1015 93 10000 4.6 230 13:18 18.12.2019
6261 Clouds 7 1015 93 10000 4.6 230 13:18 18.12.2019
6262 Clouds 7 1015 87 10000 4.1 220 12:40 18.12.2019
6263 Clouds 7 1015 87 10000 4.1 220 12:40 18.12.2019
6264 Clouds 7 1015 87 10000 4.6 230 12:21 18.12.2019
6265 Clouds 7 1015 87 10000 4.6 230 11:57 18.12.2019
6266 Clouds 6 1015 87 10000 4.6 230 11:39 18.12.2019
6267 Clouds 6 1015 87 10000 3.6 230 11:20 18.12.2019
6268 Clouds 6 1015 87 10000 3.6 230 10:58 18.12.2019
6269 Clouds 6 1014 87 10000 4.6 230 10:39 18.12.2019
6270 Clouds 6 1013 87 10000 4.1 250 10:20 18.12.2019
6271 Clouds 6 1013 87 10000 4.1 250 09:58 18.12.2019
6272 Clouds 6 1012 87 10000 5.7 250 09:20 18.12.2019
6273 Clouds 6 1012 93 10000 4.6 240 08:55 18.12.2019
6274 Clouds 6 1012 93 10000 4.6 240 08:37 18.12.2019
6275 Clouds 6 1011 93 10000 4.1 240 08:19 18.12.2019
6276 Clouds 6 1011 93 10000 4.1 230 07:42 18.12.2019
6277 Clouds 6 1010 93 10000 4.1 230 07:21 18.12.2019
6278 Clouds 6 1010 87 10000 3.1 240 06:52 18.12.2019
6279 Clouds 6 1009 87 10000 4.6 240 06:26 18.12.2019
6280 Clouds 6 1009 81 10000 4.1 250 05:37 18.12.2019
6281 Clouds 7 1008 87 10000 5.1 280 04:35 18.12.2019
6282 Rain 10 1003 87 10000 7.2 240 02:50 18.12.2019
6283 Rain 10 1003 87 10000 7.2 240 02:30 18.12.2019
6284 Rain 10 1001 87 10000 7.2 220 01:47 18.12.2019
6285 Rain 10 1001 87 10000 7.2 220 01:28 18.12.2019
6286 Rain 10 1001 87 10000 8.2 210 00:59 18.12.2019
6287 Rain 10 1001 87 5000 8.7 210 00:39 18.12.2019
6288 Rain 11 1000 71 10000 5.1 210 00:21 18.12.2019
6289 Clouds 11 1000 66 10000 4.6 180 23:54 17.12.2019
6290 Clouds 11 1000 66 10000 4.6 180 23:36 17.12.2019
6291 Clouds 12 1000 66 10000 5.1 180 23:18 17.12.2019
6292 Clouds 11 1000 66 10000 5.7 170 22:54 17.12.2019
6293 Clouds 11 1000 66 10000 5.7 170 22:36 17.12.2019
6294 Clouds 11 1001 66 10000 6.2 170 22:18 17.12.2019
6295 Clouds 12 1001 66 10000 5.7 170 21:55 17.12.2019
6296 Clouds 11 1001 66 10000 5.7 170 21:36 17.12.2019
6297 Clouds 11 1001 66 10000 5.1 160 21:18 17.12.2019
6298 Clouds 11 1001 66 10000 6.2 160 20:40 17.12.2019
6299 Clouds 11 1001 66 10000 5.7 170 20:19 17.12.2019
6300 Clouds 11 1001 66 10000 5.7 170 19:59 17.12.2019
6301 Clouds 11 1001 76 10000 5.1 170 19:41 17.12.2019
6302 Clouds 11 1001 76 10000 5.1 170 19:41 17.12.2019
6303 Clouds 11 1001 76 10000 5.1 170 19:41 17.12.2019
6304 Clouds 11 1001 71 10000 5.7 170 19:20 17.12.2019
6305 Clouds 11 1001 71 10000 6.2 170 18:58 17.12.2019
6306 Clouds 11 1001 71 10000 6.2 170 18:40 17.12.2019
6307 Clouds 11 1001 76 10000 6.2 170 18:21 17.12.2019
6308 Clouds 11 1001 76 10000 5.1 170 17:58 17.12.2019
6309 Clouds 11 1001 76 10000 5.1 170 17:39 17.12.2019
6310 Clouds 11 1001 76 10000 5.7 170 17:19 17.12.2019
6311 Clouds 11 1001 71 10000 5.7 160 16:56 17.12.2019
6312 Clouds 11 1001 71 10000 5.7 160 16:37 17.12.2019
6313 Clouds 11 1001 71 10000 5.7 160 16:37 17.12.2019
6314 Clouds 11 1001 66 10000 5.1 190 16:19 17.12.2019
6315 Clouds 12 1001 66 10000 5.7 190 15:55 17.12.2019
6316 Clouds 11 1001 66 10000 5.7 190 15:37 17.12.2019
6317 Clouds 12 1001 66 10000 4.6 180 15:18 17.12.2019
6318 Clouds 12 1001 66 10000 5.1 190 14:55 17.12.2019
6319 Clouds 11 1001 66 10000 5.1 190 14:36 17.12.2019
6320 Clouds 11 1000 66 10000 4.1 160 14:18 17.12.2019
6321 Clouds 11 1000 71 10000 4.1 150 13:55 17.12.2019
6322 Clouds 11 1000 71 10000 4.1 150 13:37 17.12.2019
6323 Clouds 11 1001 76 10000 4.1 150 13:18 17.12.2019
6324 Clouds 11 1001 76 10000 4.1 170 12:41 17.12.2019
6325 Clouds 10 1001 76 10000 4.1 170 12:19 17.12.2019
6326 Clouds 10 1001 76 10000 4.1 170 12:19 17.12.2019
6327 Clouds 10 1001 76 10000 4.1 170 12:19 17.12.2019
6328 Clouds 9 1001 76 10000 4.1 170 11:59 17.12.2019
6329 Clouds 9 1001 76 10000 5.1 170 11:37 17.12.2019
6330 Clouds 8 1001 81 10000 4.6 160 11:19 17.12.2019
6331 Clouds 8 1001 81 10000 4.6 160 11:19 17.12.2019
6332 Clouds 8 1001 87 10000 3.1 170 10:59 17.12.2019
6333 Clouds 7 1001 87 10000 3.1 170 10:41 17.12.2019
6334 Clouds 7 1001 87 10000 3.1 170 10:41 17.12.2019
6335 Clouds 7 1001 87 10000 4.1 150 10:22 17.12.2019
6336 Clouds 6 1001 87 10000 4.1 150 09:59 17.12.2019
6337 Clouds 6 1001 93 10000 3.6 130 09:41 17.12.2019
6338 Clouds 6 1001 93 10000 3.1 140 09:20 17.12.2019
6339 Clouds 6 1001 87 10000 2.6 150 08:56 17.12.2019
6340 Clouds 6 1001 87 10000 2.6 150 08:38 17.12.2019
6341 Clouds 6 1001 93 10000 2.6 160 08:19 17.12.2019
6342 Clouds 6 1000 93 10000 3.1 140 07:54 17.12.2019
6343 Clouds 6 1000 93 10000 3.1 140 07:36 17.12.2019
6344 Clouds 6 1001 93 10000 3.6 150 07:18 17.12.2019
6345 Clouds 6 1000 93 10000 3.6 130 06:35 17.12.2019
6346 Clouds 6 1001 100 9000 3.1 130 05:56 17.12.2019
6347 Clouds 6 1001 93 10000 2.6 110 05:36 17.12.2019
6348 Clouds 6 1002 100 10000 3.1 130 04:33 17.12.2019
6349 Clouds 6 1003 93 10000 2.1 90 02:47 17.12.2019
6350 Rain 6 1003 93 10000 1.5 90 01:56 17.12.2019
6351 Rain 6 1004 93 10000 2.1 120 01:20 17.12.2019
6352 Clouds 6 1004 93 10000 1 0 00:38 17.12.2019
6353 Clouds 6 1004 93 10000 2.6 130 00:20 17.12.2019
6354 Clouds 6 1004 87 10000 2.6 110 23:42 16.12.2019
6355 Clouds 6 1004 87 10000 2.6 110 23:42 16.12.2019
6356 Clouds 6 1004 87 10000 2.6 110 23:42 16.12.2019
6357 Clouds 6 1005 93 10000 1.5 100 23:19 16.12.2019
6358 Clouds 6 1005 93 10000 2.6 110 22:58 16.12.2019
6359 Clouds 6 1005 93 10000 2.6 110 22:38 16.12.2019
6360 Clouds 6 1005 87 10000 2.1 110 22:20 16.12.2019
6361 Clouds 6 1005 93 10000 1.5 0 21:56 16.12.2019
6362 Clouds 6 1005 93 10000 1.5 0 21:38 16.12.2019
6363 Clouds 6 1005 87 10000 2.6 140 21:20 16.12.2019
6364 Clouds 6 1005 87 10000 3.1 140 20:58 16.12.2019
6365 Clouds 6 1005 87 10000 3.1 140 20:39 16.12.2019
6366 Clouds 6 1005 87 10000 3.1 150 20:19 16.12.2019
6367 Clouds 6 1005 87 10000 2.6 150 19:56 16.12.2019
6368 Clouds 6 1005 87 10000 2.6 150 19:37 16.12.2019
6369 Clouds 6 1005 93 10000 1.5 160 19:19 16.12.2019
6370 Clouds 7 1005 87 10000 2.6 160 18:58 16.12.2019
6371 Clouds 7 1005 87 10000 2.6 160 18:58 16.12.2019
6372 Clouds 7 1005 87 10000 2.6 160 18:40 16.12.2019
6373 Clouds 7 1005 87 10000 2.6 160 18:40 16.12.2019
6374 Clouds 7 1005 87 10000 2.6 200 18:20 16.12.2019
6375 Clouds 7 1005 87 10000 3.1 210 17:58 16.12.2019
6376 Clouds 7 1005 87 10000 3.1 210 17:39 16.12.2019
6377 Clouds 7 1005 87 10000 2.1 180 17:21 16.12.2019
6378 Clouds 7 1005 81 10000 4.6 210 16:57 16.12.2019
6379 Clouds 7 1005 81 10000 4.6 210 16:39 16.12.2019
6380 Clouds 7 1005 81 10000 5.1 210 16:20 16.12.2019
6381 Clouds 7 1005 81 10000 5.1 210 15:59 16.12.2019
6382 Clouds 7 1005 81 10000 5.1 210 15:39 16.12.2019
6383 Clouds 7 1005 81 10000 5.1 210 15:20 16.12.2019
6384 Clouds 7 1005 81 10000 5.7 210 14:57 16.12.2019
6385 Clouds 7 1005 81 10000 5.7 210 14:37 16.12.2019
6386 Clouds 7 1005 81 10000 5.7 210 14:37 16.12.2019
6387 Clouds 7 1005 81 10000 5.7 210 14:19 16.12.2019
6388 Clouds 7 1005 81 10000 5.7 210 14:19 16.12.2019
6389 Clouds 7 1005 81 10000 5.7 210 14:19 16.12.2019
6390 Clouds 7 1005 81 10000 5.1 210 13:56 16.12.2019
6391 Clouds 7 1005 81 10000 5.1 210 13:37 16.12.2019
6392 Clouds 7 1005 81 10000 6.7 200 13:19 16.12.2019
6393 Clouds 7 1005 75 10000 3.6 190 12:58 16.12.2019
6394 Clouds 7 1005 75 10000 3.6 190 12:39 16.12.2019
6395 Clouds 6 1006 81 10000 3.6 180 12:19 16.12.2019
6396 Clouds 6 1006 81 10000 4.6 180 11:58 16.12.2019
6397 Clouds 6 1006 81 10000 4.6 180 11:40 16.12.2019
6398 Clouds 5 1006 81 10000 4.6 180 11:20 16.12.2019
6399 Clouds 5 1006 80 10000 6.2 180 10:57 16.12.2019
6400 Clouds 5 1006 80 10000 6.2 180 10:39 16.12.2019
6401 Clouds 5 1006 80 10000 6.2 170 10:20 16.12.2019
6402 Clouds 4 1006 75 10000 6.7 180 09:45 16.12.2019
6403 Clouds 4 1006 75 10000 6.7 180 09:27 16.12.2019
6404 Clouds 4 1005 75 10000 4.1 170 08:57 16.12.2019
6405 Clouds 4 1005 75 10000 4.1 170 08:38 16.12.2019
6406 Clouds 4 1005 75 10000 5.1 180 08:18 16.12.2019
6407 Clouds 4 1005 75 10000 4.1 180 07:47 16.12.2019
6408 Clouds 4 1005 75 10000 4.1 180 07:28 16.12.2019
6409 Clouds 4 1005 75 10000 4.6 190 06:45 16.12.2019
6410 Clouds 4 1005 75 10000 4.6 190 06:26 16.12.2019
6411 Clouds 4 1006 75 10000 5.1 200 05:54 16.12.2019
6412 Clouds 4 1006 75 10000 5.1 200 05:35 16.12.2019
6413 Clouds 4 1006 75 10000 4.6 210 04:27 16.12.2019
6414 Clouds 4 1006 86 10000 4.6 210 02:36 16.12.2019
6415 Clouds 5 1005 80 10000 5.1 220 01:45 16.12.2019
6416 Clouds 6 1005 81 10000 6.2 230 00:54 16.12.2019
6417 Clouds 6 1005 81 10000 6.2 230 00:36 16.12.2019
6418 Clouds 6 1004 75 10000 6.2 230 00:18 16.12.2019
6419 Clouds 6 1004 75 10000 7.2 230 23:40 15.12.2019
6420 Clouds 7 1004 70 10000 7.7 230 23:21 15.12.2019
6421 Clouds 7 1003 75 10000 6.7 230 22:56 15.12.2019
6422 Clouds 7 1003 75 10000 6.7 230 22:38 15.12.2019
6423 Clouds 7 1003 81 10000 7.2 230 22:19 15.12.2019
6424 Clouds 7 1003 81 10000 7.2 230 21:57 15.12.2019
6425 Rain 7 1002 81 10000 7.2 230 21:38 15.12.2019
6426 Clouds 7 1002 70 10000 7.7 230 21:19 15.12.2019
6427 Clouds 7 1001 75 10000 7.2 230 20:58 15.12.2019
6428 Clouds 7 1001 75 10000 7.2 230 20:39 15.12.2019
6429 Clouds 7 1001 75 10000 7.2 230 20:39 15.12.2019
6430 Clouds 7 1001 75 10000 6.7 220 20:20 15.12.2019
6431 Clouds 7 1000 75 10000 6.7 230 19:58 15.12.2019
6432 Clouds 7 1000 75 10000 6.7 230 19:40 15.12.2019
6433 Clouds 7 1000 75 10000 8.7 230 19:20 15.12.2019
6434 Clouds 7 1000 75 10000 8.7 230 18:57 15.12.2019
6435 Clouds 7 999 70 10000 8.2 240 18:39 15.12.2019
6436 Rain 7 998 75 10000 7.7 240 18:19 15.12.2019
6437 Rain 7 998 75 10000 7.7 240 18:19 15.12.2019
6438 Clouds 7 998 65 10000 8.7 230 17:56 15.12.2019
6439 Clouds 7 998 65 10000 8.7 230 17:56 15.12.2019
6440 Clouds 7 998 65 10000 8.7 230 17:38 15.12.2019
6441 Rain 7 997 65 10000 7.7 240 17:19 15.12.2019
6442 Rain 7 997 61 10000 8.2 240 16:57 15.12.2019
6443 Rain 7 997 61 10000 8.2 240 16:39 15.12.2019
6444 Rain 7 996 61 10000 10.3 240 16:20 15.12.2019
6445 Clouds 8 995 61 10000 9.8 240 15:56 15.12.2019
6446 Clouds 8 995 61 10000 9.8 240 15:38 15.12.2019
6447 Clouds 8 995 61 10000 9.8 240 15:19 15.12.2019
6448 Clouds 8 995 61 10000 9.8 240 14:56 15.12.2019
6449 Clouds 8 994 69 10000 9.8 240 14:37 15.12.2019
6450 Clouds 8 994 62 10000 10.8 240 14:18 15.12.2019
6451 Clouds 8 994 55 10000 10.8 240 13:58 15.12.2019
6452 Clouds 8 993 49 10000 10.3 240 13:37 15.12.2019
6453 Clouds 8 993 55 10000 11.3 240 13:19 15.12.2019
6454 Clouds 8 992 55 10000 12.3 240 12:56 15.12.2019
6455 Clouds 8 992 55 10000 12.3 240 12:38 15.12.2019
6456 Clouds 8 992 61 10000 10.3 240 12:20 15.12.2019
6457 Clouds 8 991 61 10000 11.3 230 11:56 15.12.2019
6458 Clouds 8 991 61 10000 11.3 230 11:36 15.12.2019
6459 Clouds 8 990 70 10000 10.8 230 11:18 15.12.2019
6460 Clouds 7 990 81 10000 8.7 220 10:55 15.12.2019
6461 Clouds 7 990 81 10000 10.8 210 10:36 15.12.2019
6462 Clouds 6 990 81 10000 10.8 210 10:18 15.12.2019
6463 Clouds 6 989 87 10000 9.3 210 09:40 15.12.2019
6464 Clouds 5 989 87 10000 5.7 180 09:20 15.12.2019
6465 Clouds 5 989 87 10000 5.7 180 08:58 15.12.2019
6466 Clouds 5 989 93 10000 6.7 170 08:39 15.12.2019
6467 Rain 4 989 93 6000 8.2 170 08:21 15.12.2019
6468 Clouds 4 989 75 10000 7.7 160 07:56 15.12.2019
6469 Clouds 4 989 75 10000 7.7 160 07:34 15.12.2019
6470 Clouds 4 991 80 10000 5.7 150 06:51 15.12.2019
6471 Clouds 3 992 86 10000 6.2 150 06:20 15.12.2019
6472 Clouds 3 993 84 10000 4.6 150 05:26 15.12.2019
6473 Clouds 3 994 84 10000 5.1 180 04:47 15.12.2019
6474 Clouds 3 995 84 10000 4.1 190 03:31 15.12.2019
6475 Clouds 3 995 84 10000 4.6 220 02:34 15.12.2019
6476 Clouds 4 995 72 10000 6.7 220 01:47 15.12.2019
6477 Clouds 4 995 80 10000 7.7 230 01:28 15.12.2019
6478 Clouds 4 995 80 10000 7.7 230 00:58 15.12.2019
6479 Clouds 4 995 80 10000 7.2 230 00:40 15.12.2019
6480 Clouds 4 994 80 10000 7.7 230 00:21 15.12.2019
6481 Clouds 4 993 80 10000 7.7 230 23:40 14.12.2019
6482 Clouds 4 993 80 10000 7.7 230 23:40 14.12.2019
6483 Rain 4 993 75 10000 8.2 240 23:21 14.12.2019
6484 Rain 4 992 75 10000 7.7 240 22:58 14.12.2019
6485 Rain 4 993 75 10000 8.2 240 22:58 14.12.2019
6486 Rain 4 992 75 10000 7.7 240 22:40 14.12.2019
6487 Clouds 4 991 70 10000 8.7 250 22:21 14.12.2019
6488 Clouds 5 991 75 10000 7.2 240 21:56 14.12.2019
6489 Clouds 5 991 75 10000 7.2 240 21:38 14.12.2019
6490 Clouds 5 990 75 10000 7.7 230 21:19 14.12.2019
6491 Clouds 5 990 75 10000 7.7 230 20:57 14.12.2019
6492 Clouds 5 990 75 10000 7.2 220 20:38 14.12.2019
6493 Clouds 5 989 75 10000 7.7 210 20:19 14.12.2019
6494 Clouds 5 989 75 10000 6.7 210 19:56 14.12.2019
6495 Clouds 5 989 75 10000 6.7 210 19:37 14.12.2019
6496 Clouds 5 988 80 10000 6.7 220 19:18 14.12.2019
6497 Clouds 5 988 80 10000 7.2 220 18:56 14.12.2019
6498 Clouds 5 988 80 10000 7.2 220 18:37 14.12.2019
6499 Clouds 5 988 80 10000 5.1 230 18:19 14.12.2019
6500 Clouds 5 988 80 10000 7.7 230 17:43 14.12.2019
6501 Rain 5 988 80 10000 7.2 230 17:23 14.12.2019
6502 Rain 5 987 75 10000 8.2 240 16:58 14.12.2019
6503 Rain 5 987 75 10000 8.2 240 16:38 14.12.2019
6504 Rain 5 987 75 10000 8.2 240 16:38 14.12.2019
6505 Rain 5 986 75 10000 7.7 240 16:18 14.12.2019
6506 Clouds 5 986 75 10000 8.2 240 15:43 14.12.2019
6507 Rain 5 985 81 10000 8.2 230 15:22 14.12.2019
6508 Rain 5 985 81 10000 8.2 230 14:59 14.12.2019
6509 Rain 5 985 81 10000 7.2 230 14:38 14.12.2019
6510 Clouds 5 984 81 10000 7.2 230 14:19 14.12.2019
6511 Clouds 5 984 81 10000 7.7 230 13:56 14.12.2019
6512 Clouds 5 984 81 10000 7.7 230 13:38 14.12.2019
6513 Clouds 5 984 86 10000 7.7 230 13:18 14.12.2019
6514 Clouds 4 983 86 10000 6.2 220 12:55 14.12.2019
6515 Clouds 4 983 86 10000 6.2 220 12:37 14.12.2019
6516 Rain 4 983 93 10000 5.1 230 12:18 14.12.2019
6517 Rain 4 983 86 9000 8.2 230 11:55 14.12.2019
6518 Clouds 4 982 80 10000 6.2 230 11:36 14.12.2019
6519 Clouds 4 982 80 10000 6.2 230 11:18 14.12.2019
6520 Clouds 4 982 86 10000 6.2 230 10:55 14.12.2019
6521 Clouds 4 982 86 10000 6.2 230 10:37 14.12.2019
6522 Rain 4 982 86 10000 5.1 220 10:18 14.12.2019
6523 Clouds 4 981 86 10000 6.7 210 09:40 14.12.2019
6524 Clouds 4 981 86 10000 6.7 210 09:40 14.12.2019
6525 Clouds 4 981 86 10000 6.2 210 09:20 14.12.2019
6526 Clouds 4 981 86 10000 6.2 210 09:20 14.12.2019
6527 Clouds 4 981 86 10000 6.2 200 08:45 14.12.2019
6528 Clouds 4 980 86 10000 6.7 210 08:20 14.12.2019
6529 Clouds 4 980 86 10000 6.7 210 07:58 14.12.2019
6530 Clouds 4 980 86 10000 6.7 210 07:38 14.12.2019
6531 Clouds 4 980 86 10000 6.7 210 07:19 14.12.2019
6532 Clouds 4 980 86 10000 6.7 210 06:41 14.12.2019
6533 Clouds 3 980 86 10000 5.7 210 06:22 14.12.2019
6534 Rain 3 980 93 5000 4.6 200 05:25 14.12.2019
6535 Mist 2 981 93 5000 3.6 170 03:34 14.12.2019
6536 Rain 1 982 100 5000 3.1 160 02:23 14.12.2019
6537 Snow 1 982 100 5000 3.1 160 01:44 14.12.2019
6538 Snow 1 982 100 5000 3.1 170 00:59 14.12.2019
6539 Snow 1 982 100 5000 3.1 170 00:40 14.12.2019
6540 Snow 1 982 96 6000 2.6 160 00:20 14.12.2019
6541 Rain 1 982 96 8000 3.6 160 23:41 13.12.2019
6542 Rain 1 982 95 10000 3.1 160 23:19 13.12.2019
6543 Rain 1 982 95 10000 3.6 150 22:57 13.12.2019
6544 Rain 1 982 95 10000 3.6 150 22:38 13.12.2019
6545 Clouds 1 982 95 10000 3.1 150 22:18 13.12.2019
6546 Clouds 1 982 95 10000 3.6 140 21:46 13.12.2019
6547 Clouds 1 982 95 10000 3.6 130 21:22 13.12.2019
6548 Clouds 1 982 95 10000 3.6 130 20:59 13.12.2019
6549 Clouds 1 982 80 10000 3.6 130 20:40 13.12.2019
6550 Clouds 1 982 80 10000 3.6 120 20:21 13.12.2019
6551 Clouds 1 982 80 10000 3.6 120 19:57 13.12.2019
6552 Clouds 1 981 80 10000 4.6 120 19:39 13.12.2019
6553 Clouds 1 981 80 10000 4.6 120 19:20 13.12.2019
6554 Clouds 1 981 80 10000 5.1 120 18:56 13.12.2019
6555 Clouds 1 981 80 10000 4.6 120 18:38 13.12.2019
6556 Clouds 1 981 80 10000 4.6 120 18:38 13.12.2019
6557 Clouds 1 981 80 10000 4.6 120 18:18 13.12.2019
6558 Clouds 2 981 80 10000 4.1 110 17:41 13.12.2019
6559 Clouds 1 981 80 10000 4.1 110 17:19 13.12.2019
6560 Clouds 2 981 80 10000 4.6 120 16:58 13.12.2019
6561 Clouds 2 980 80 10000 5.1 120 16:39 13.12.2019
6562 Clouds 2 980 80 10000 5.1 120 16:20 13.12.2019
6563 Clouds 2 980 80 10000 4.1 110 15:43 13.12.2019
6564 Clouds 2 980 80 10000 5.7 120 15:23 13.12.2019
6565 Clouds 2 980 80 10000 6.2 110 14:58 13.12.2019
6566 Clouds 2 980 80 10000 5.1 110 14:40 13.12.2019
6567 Clouds 2 980 80 10000 5.1 110 14:20 13.12.2019
6568 Clouds 2 979 80 10000 5.7 100 13:57 13.12.2019
6569 Clouds 2 980 80 10000 6.7 110 13:37 13.12.2019
6570 Clouds 2 980 80 10000 6.7 110 13:19 13.12.2019
6571 Clouds 2 980 80 10000 7.2 120 12:42 13.12.2019
6572 Clouds 2 980 80 10000 7.2 120 12:20 13.12.2019
6573 Clouds 2 980 86 10000 6.7 120 11:57 13.12.2019
6574 Clouds 2 980 86 10000 6.7 120 11:57 13.12.2019
6575 Clouds 1 980 86 10000 7.2 110 11:39 13.12.2019
6576 Clouds 1 980 86 10000 7.2 110 11:39 13.12.2019
6577 Clouds 1 980 86 10000 7.2 110 11:20 13.12.2019
6578 Clouds 1 981 86 10000 6.2 110 10:42 13.12.2019
6579 Clouds 1 980 86 10000 7.2 110 10:42 13.12.2019
6580 Clouds 1 980 86 10000 7.2 110 10:42 13.12.2019
6581 Clouds 1 981 86 10000 6.2 110 10:23 13.12.2019
6582 Clouds 1 981 86 10000 6.2 120 09:56 13.12.2019
6583 Clouds 1 981 86 10000 6.7 120 09:38 13.12.2019
6584 Clouds 1 981 86 10000 6.7 120 09:18 13.12.2019
6585 Clouds 1 981 86 10000 6.7 120 09:18 13.12.2019
6586 Clouds 1 982 86 10000 6.2 120 08:41 13.12.2019
6587 Clouds 1 982 86 10000 6.2 120 08:23 13.12.2019
6588 Clouds 1 982 86 10000 5.7 130 07:46 13.12.2019
6589 Clouds 1 982 86 10000 6.7 130 07:21 13.12.2019
6590 Clear 1 983 86 10000 6.2 120 06:54 13.12.2019
6591 Clear 1 983 86 10000 5.7 120 06:29 13.12.2019
6592 Clear 1 983 86 10000 6.7 110 05:46 13.12.2019
6593 Clear 1 984 86 10000 5.1 120 05:27 13.12.2019
6594 Clear 1 985 80 10000 7.7 120 04:35 13.12.2019
6595 Clear 2 986 80 10000 6.2 120 03:47 13.12.2019
6596 Clear 2 988 83 10000 6.7 140 02:34 13.12.2019
6597 Clear 2 989 86 10000 7.2 140 01:48 13.12.2019
6598 Clouds 2 990 86 10000 6.7 140 00:57 13.12.2019
6599 Clouds 2 991 86 10000 6.7 150 00:37 13.12.2019
6600 Clouds 2 991 86 10000 5.7 140 23:59 12.12.2019
6601 Clouds 2 992 86 10000 5.7 150 23:40 12.12.2019
6602 Clouds 2 992 86 10000 5.7 150 23:22 12.12.2019
6603 Clouds 2 992 86 10000 6.2 150 22:56 12.12.2019
6604 Clouds 2 993 86 10000 5.1 140 22:37 12.12.2019
6605 Clouds 2 993 86 10000 5.1 140 22:19 12.12.2019
6606 Clouds 2 994 93 10000 5.1 150 21:55 12.12.2019
6607 Clouds 2 994 93 10000 5.1 150 21:55 12.12.2019
6608 Clouds 2 994 93 10000 5.1 150 21:55 12.12.2019
6609 Clouds 2 994 86 10000 5.1 160 21:37 12.12.2019
6610 Clouds 2 994 86 10000 5.1 160 21:19 12.12.2019
6611 Clouds 2 995 93 10000 5.1 150 20:57 12.12.2019
6612 Clouds 3 995 93 10000 2.6 140 20:38 12.12.2019
6613 Clouds 3 995 93 10000 2.6 140 20:20 12.12.2019
6614 Clouds 3 996 86 10000 4.6 160 19:55 12.12.2019
6615 Clouds 3 996 86 10000 5.7 170 19:37 12.12.2019
6616 Clouds 3 996 86 10000 5.7 170 19:18 12.12.2019
6617 Clouds 3 996 93 10000 5.1 170 18:55 12.12.2019
6618 Clouds 4 996 86 10000 4.1 190 18:36 12.12.2019
6619 Clouds 4 996 86 10000 4.1 190 18:18 12.12.2019
6620 Clouds 4 997 86 10000 4.6 190 17:55 12.12.2019
6621 Clouds 4 997 86 10000 4.6 190 17:55 12.12.2019
6622 Clouds 4 997 86 10000 4.1 200 17:37 12.12.2019
6623 Clouds 4 997 86 10000 5.1 200 17:18 12.12.2019
6624 Clouds 4 997 86 10000 5.1 200 16:54 12.12.2019
6625 Clouds 5 997 86 10000 5.7 200 16:36 12.12.2019
6626 Clouds 5 997 86 10000 5.7 200 16:18 12.12.2019
6627 Rain 5 998 86 10000 5.7 210 15:42 12.12.2019
6628 Rain 5 998 86 10000 5.7 210 15:19 12.12.2019
6629 Clouds 5 998 86 10000 5.7 210 14:57 12.12.2019
6630 Clouds 5 998 86 10000 5.7 220 14:36 12.12.2019
6631 Rain 5 998 81 10000 6.2 220 14:18 12.12.2019
6632 Rain 5 998 81 10000 6.2 220 13:55 12.12.2019
6633 Clouds 5 999 81 10000 5.1 220 13:36 12.12.2019
6634 Clouds 5 999 81 10000 5.1 220 13:18 12.12.2019
6635 Rain 5 999 93 8000 5.7 210 12:55 12.12.2019
6636 Clouds 5 999 93 9000 4.1 200 12:36 12.12.2019
6637 Clouds 5 999 93 7000 5.1 200 12:18 12.12.2019
6638 Clouds 5 1000 93 6000 4.6 200 11:40 12.12.2019
6639 Clouds 5 1000 93 7000 5.7 200 11:22 12.12.2019
6640 Clouds 5 1000 93 7000 5.7 200 10:59 12.12.2019
6641 Clouds 4 1000 86 7000 6.2 210 10:41 12.12.2019
6642 Clouds 4 1000 86 7000 6.2 210 10:23 12.12.2019
6643 Clouds 4 1000 86 7000 5.1 210 09:58 12.12.2019
6644 Clouds 4 1000 86 6000 4.1 200 09:39 12.12.2019
6645 Mist 4 1000 86 5000 5.1 210 09:21 12.12.2019
6646 Mist 4 1000 86 5000 5.1 210 08:54 12.12.2019
6647 Mist 4 1000 86 5000 5.7 210 08:36 12.12.2019
6648 Mist 4 1000 86 5000 5.7 210 08:18 12.12.2019
6649 Mist 4 1000 100 4400 3.6 200 07:41 12.12.2019
6650 Mist 4 1000 100 4400 3.6 200 07:21 12.12.2019
6651 Clouds 4 1000 93 5000 2.1 200 06:44 12.12.2019
6652 Mist 4 1000 93 5000 2.6 200 06:44 12.12.2019
6653 Clouds 4 1000 93 5000 2.1 200 06:23 12.12.2019
6654 Mist 4 1001 100 4900 3.6 220 05:35 12.12.2019
6655 Mist 4 1001 93 4800 3.6 220 04:51 12.12.2019
6656 Mist 4 1001 100 3000 3.6 220 02:57 12.12.2019
6657 Mist 4 1001 100 2700 3.1 220 02:37 12.12.2019
6658 Mist 4 1001 100 2700 3.1 220 02:18 12.12.2019
6659 Mist 4 1002 100 2000 3.1 230 01:37 12.12.2019
6660 Mist 4 1002 100 2000 3.1 230 01:18 12.12.2019
6661 Drizzle 4 1002 100 4500 3.6 220 00:40 12.12.2019
6662 Drizzle 4 1002 100 4500 3.6 220 00:19 12.12.2019
6663 Rain 4 1003 100 8000 4.1 210 23:44 11.12.2019
6664 Rain 4 1003 100 8000 4.1 210 23:20 11.12.2019
6665 Rain 4 1003 93 7000 3.1 210 22:57 11.12.2019
6666 Rain 4 1003 93 7000 3.1 210 22:38 11.12.2019
6667 Rain 4 1003 93 7000 3.1 210 22:19 11.12.2019
6668 Rain 4 1003 93 6000 2.6 200 21:57 11.12.2019
6669 Rain 4 1003 93 6000 2.6 210 21:37 11.12.2019
6670 Rain 4 1003 93 6000 2.6 210 21:19 11.12.2019
6671 Rain 4 1003 93 8000 2.1 200 20:56 11.12.2019
6672 Rain 4 1003 93 8000 2.1 200 20:56 11.12.2019
6673 Rain 4 1004 93 7000 2.1 180 20:37 11.12.2019
6674 Rain 4 1004 93 7000 2.1 180 20:37 11.12.2019
6675 Rain 4 1004 93 7000 2.1 180 20:37 11.12.2019
6676 Rain 4 1004 93 7000 2.1 180 20:19 11.12.2019
6677 Rain 4 1004 93 7000 2.1 180 20:19 11.12.2019
6678 Rain 4 1004 93 7000 2.6 170 19:57 11.12.2019
6679 Rain 4 1004 93 7000 3.1 160 19:39 11.12.2019
6680 Rain 4 1004 93 7000 3.1 160 19:19 11.12.2019
6681 Rain 5 1004 93 10000 3.1 170 18:41 11.12.2019
6682 Rain 5 1004 93 10000 3.1 170 18:21 11.12.2019
6683 Rain 5 1004 93 10000 3.6 170 17:57 11.12.2019
6684 Rain 5 1004 93 10000 3.1 170 17:39 11.12.2019
6685 Rain 5 1004 93 10000 3.1 170 17:19 11.12.2019
6686 Rain 5 1005 93 10000 3.6 180 16:58 11.12.2019
6687 Rain 5 1005 100 9000 3.1 200 16:40 11.12.2019
6688 Rain 5 1005 100 9000 3.1 200 16:22 11.12.2019
6689 Rain 5 1005 100 10000 3.1 200 15:59 11.12.2019
6690 Rain 5 1005 87 10000 3.6 200 15:59 11.12.2019
6691 Rain 5 1005 93 8000 4.1 210 15:40 11.12.2019
6692 Rain 5 1005 93 8000 4.1 210 15:22 11.12.2019
6693 Rain 5 1005 93 8000 4.6 200 14:56 11.12.2019
6694 Rain 5 1006 93 8000 3.6 200 14:38 11.12.2019
6695 Rain 5 1006 93 8000 3.6 200 14:20 11.12.2019
6696 Rain 5 1006 93 8000 4.1 210 13:56 11.12.2019
6697 Rain 5 1006 93 8000 3.6 210 13:38 11.12.2019
6698 Rain 5 1006 93 8000 3.6 210 13:19 11.12.2019
6699 Rain 5 1007 93 10000 4.1 200 12:56 11.12.2019
6700 Rain 5 1007 93 10000 4.6 210 12:38 11.12.2019
6701 Rain 5 1007 93 10000 4.6 210 12:19 11.12.2019
6702 Rain 5 1007 93 10000 4.6 210 11:57 11.12.2019
6703 Rain 5 1008 93 10000 5.1 220 11:38 11.12.2019
6704 Rain 5 1008 93 10000 5.1 220 11:38 11.12.2019
6705 Rain 5 1008 93 10000 5.1 220 11:18 11.12.2019
6706 Rain 5 1008 93 10000 5.7 210 11:18 11.12.2019
6707 Rain 4 1008 93 10000 5.7 210 10:55 11.12.2019
6708 Rain 4 1008 86 10000 5.1 210 10:37 11.12.2019
6709 Rain 4 1008 86 10000 5.1 210 10:19 11.12.2019
6710<